<?xml version="1.0" encoding="UTF-8" standalone="no" ?>
<gpx xmlns="http://www.topografix.com/GPX/1/1" xmlns:xsi="http://www.w3.org/2001/XMLSchema-instance" xsi:schemaLocation="http://www.topografix.com/GPX/1/1 http://www.topografix.com/GPX/1/1/gpx.xsd" version="1.1" creator="VisuGPX - https://www.visugpx.com">
  <metadata>
    <name>VTT - St Jeannet / Super Gattières / Le Castelet</name>
    <desc><![CDATA[VTT - Relevé terrain /  1350m / 32 km -Saint-Jeannet - le Clos de l'Evêque - Super Gattières - le Broc - Berdine - Mouton d'Anou - Le Castelet - Saint-Jeannet

Le Cr 1001 sentiers:
<http://www.1001sentiers.fr/forum/viewtopic.php?f=35&t=845>

Et CR ASCVTT:
<http://www.ascvtt.com/wordpress/2010/01/13/le-mouton-d-anou/>]]></desc>
  </metadata>
  <trk>
    <name><![CDATA[01/10/2010 (Duration: 06:24:55) on GPSies.com]]></name>
    <trkseg>
      <trkpt lat="43.75034" lon="7.1462">
        <ele>440.42126</ele>
        <time>2010-01-10T19:50:57Z</time>
      </trkpt>
      <trkpt lat="43.75036" lon="7.14626">
        <ele>439.45971</ele>
        <time>2010-01-10T19:50:59Z</time>
      </trkpt>
      <trkpt lat="43.75046" lon="7.14633">
        <ele>439.45971</ele>
        <time>2010-01-10T19:51:03Z</time>
      </trkpt>
      <trkpt lat="43.75049" lon="7.14638">
        <ele>439.45971</ele>
        <time>2010-01-10T19:51:05Z</time>
      </trkpt>
      <trkpt lat="43.75054" lon="7.14643">
        <ele>439.45971</ele>
        <time>2010-01-10T19:51:08Z</time>
      </trkpt>
      <trkpt lat="43.75063" lon="7.14657">
        <ele>441.38244</ele>
        <time>2010-01-10T19:51:13Z</time>
      </trkpt>
      <trkpt lat="43.75065" lon="7.14663">
        <ele>442.34387</ele>
        <time>2010-01-10T19:51:15Z</time>
      </trkpt>
      <trkpt lat="43.7507" lon="7.14661">
        <ele>441.38244</ele>
        <time>2010-01-10T19:51:17Z</time>
      </trkpt>
      <trkpt lat="43.75074" lon="7.1465">
        <ele>442.34387</ele>
        <time>2010-01-10T19:51:20Z</time>
      </trkpt>
      <trkpt lat="43.75078" lon="7.14635">
        <ele>446.66967</ele>
        <time>2010-01-10T19:51:25Z</time>
      </trkpt>
      <trkpt lat="43.75081" lon="7.14629">
        <ele>448.11181</ele>
        <time>2010-01-10T19:51:28Z</time>
      </trkpt>
      <trkpt lat="43.75084" lon="7.14627">
        <ele>450.03442</ele>
        <time>2010-01-10T19:51:29Z</time>
      </trkpt>
      <trkpt lat="43.75094" lon="7.14623">
        <ele>450.51501</ele>
        <time>2010-01-10T19:51:33Z</time>
      </trkpt>
      <trkpt lat="43.75097" lon="7.14623">
        <ele>453.39892</ele>
        <time>2010-01-10T19:51:34Z</time>
      </trkpt>
      <trkpt lat="43.751" lon="7.14618">
        <ele>459.16687</ele>
        <time>2010-01-10T19:51:36Z</time>
      </trkpt>
      <trkpt lat="43.75102" lon="7.14616">
        <ele>459.64758</ele>
        <time>2010-01-10T19:51:37Z</time>
      </trkpt>
      <trkpt lat="43.75111" lon="7.14607">
        <ele>463.49279</ele>
        <time>2010-01-10T19:51:41Z</time>
      </trkpt>
      <trkpt lat="43.75115" lon="7.146">
        <ele>466.3767</ele>
        <time>2010-01-10T19:51:44Z</time>
      </trkpt>
      <trkpt lat="43.75119" lon="7.14592">
        <ele>467.81872</ele>
        <time>2010-01-10T19:51:47Z</time>
      </trkpt>
      <trkpt lat="43.75123" lon="7.14582">
        <ele>469.26074</ele>
        <time>2010-01-10T19:51:50Z</time>
      </trkpt>
      <trkpt lat="43.75127" lon="7.14572">
        <ele>470.22192</ele>
        <time>2010-01-10T19:51:54Z</time>
      </trkpt>
      <trkpt lat="43.7513" lon="7.14567">
        <ele>470.22192</ele>
        <time>2010-01-10T19:51:55Z</time>
      </trkpt>
      <trkpt lat="43.75137" lon="7.14556">
        <ele>468.78002</ele>
        <time>2010-01-10T19:52:00Z</time>
      </trkpt>
      <trkpt lat="43.75141" lon="7.14546">
        <ele>470.22192</ele>
        <time>2010-01-10T19:52:03Z</time>
      </trkpt>
      <trkpt lat="43.75143" lon="7.14536">
        <ele>474.54797</ele>
        <time>2010-01-10T19:52:06Z</time>
      </trkpt>
      <trkpt lat="43.75148" lon="7.14529">
        <ele>478.39318</ele>
        <time>2010-01-10T19:52:09Z</time>
      </trkpt>
      <trkpt lat="43.75148" lon="7.14523">
        <ele>482.71923</ele>
        <time>2010-01-10T19:52:10Z</time>
      </trkpt>
      <trkpt lat="43.75149" lon="7.14519">
        <ele>484.16113</ele>
        <time>2010-01-10T19:52:12Z</time>
      </trkpt>
      <trkpt lat="43.75154" lon="7.14508">
        <ele>488.48718</ele>
        <time>2010-01-10T19:52:16Z</time>
      </trkpt>
      <trkpt lat="43.7516" lon="7.14497">
        <ele>487.52563</ele>
        <time>2010-01-10T19:52:19Z</time>
      </trkpt>
      <trkpt lat="43.75166" lon="7.14484">
        <ele>488.00646</ele>
        <time>2010-01-10T19:52:24Z</time>
      </trkpt>
      <trkpt lat="43.7517" lon="7.14479">
        <ele>486.56445</ele>
        <time>2010-01-10T19:52:26Z</time>
      </trkpt>
      <trkpt lat="43.75178" lon="7.14469">
        <ele>488.00646</ele>
        <time>2010-01-10T19:52:30Z</time>
      </trkpt>
      <trkpt lat="43.75178" lon="7.14462">
        <ele>490.40979</ele>
        <time>2010-01-10T19:52:32Z</time>
      </trkpt>
      <trkpt lat="43.75179" lon="7.1445">
        <ele>491.85168</ele>
        <time>2010-01-10T19:52:36Z</time>
      </trkpt>
      <trkpt lat="43.7518" lon="7.14436">
        <ele>492.81298</ele>
        <time>2010-01-10T19:52:40Z</time>
      </trkpt>
      <trkpt lat="43.75184" lon="7.14417">
        <ele>491.85168</ele>
        <time>2010-01-10T19:52:46Z</time>
      </trkpt>
      <trkpt lat="43.75189" lon="7.14406">
        <ele>492.33239</ele>
        <time>2010-01-10T19:52:49Z</time>
      </trkpt>
      <trkpt lat="43.75193" lon="7.14398">
        <ele>492.81298</ele>
        <time>2010-01-10T19:52:52Z</time>
      </trkpt>
      <trkpt lat="43.75195" lon="7.14392">
        <ele>494.73559</ele>
        <time>2010-01-10T19:52:54Z</time>
      </trkpt>
      <trkpt lat="43.75201" lon="7.14384">
        <ele>499.06152</ele>
        <time>2010-01-10T19:52:57Z</time>
      </trkpt>
      <trkpt lat="43.75212" lon="7.14375">
        <ele>500.02294</ele>
        <time>2010-01-10T19:53:03Z</time>
      </trkpt>
      <trkpt lat="43.75222" lon="7.14369">
        <ele>500.50354</ele>
        <time>2010-01-10T19:53:07Z</time>
      </trkpt>
      <trkpt lat="43.75237" lon="7.14354">
        <ele>497.13891</ele>
        <time>2010-01-10T19:53:14Z</time>
      </trkpt>
      <trkpt lat="43.7524" lon="7.14351">
        <ele>497.61962</ele>
        <time>2010-01-10T19:53:16Z</time>
      </trkpt>
      <trkpt lat="43.7524" lon="7.14337">
        <ele>495.69689</ele>
        <time>2010-01-10T19:53:20Z</time>
      </trkpt>
      <trkpt lat="43.75236" lon="7.14333">
        <ele>497.61962</ele>
        <time>2010-01-10T19:53:22Z</time>
      </trkpt>
      <trkpt lat="43.75228" lon="7.14326">
        <ele>501.46484</ele>
        <time>2010-01-10T19:53:26Z</time>
      </trkpt>
      <trkpt lat="43.75222" lon="7.14319">
        <ele>503.38745</ele>
        <time>2010-01-10T19:53:29Z</time>
      </trkpt>
      <trkpt lat="43.75217" lon="7.14311">
        <ele>503.38745</ele>
        <time>2010-01-10T19:53:32Z</time>
      </trkpt>
      <trkpt lat="43.75209" lon="7.14302">
        <ele>505.31018</ele>
        <time>2010-01-10T19:53:36Z</time>
      </trkpt>
      <trkpt lat="43.752" lon="7.14296">
        <ele>506.27148</ele>
        <time>2010-01-10T19:53:40Z</time>
      </trkpt>
      <trkpt lat="43.75189" lon="7.14286">
        <ele>505.79089</ele>
        <time>2010-01-10T19:53:45Z</time>
      </trkpt>
      <trkpt lat="43.75177" lon="7.14272">
        <ele>508.19409</ele>
        <time>2010-01-10T19:53:52Z</time>
      </trkpt>
      <trkpt lat="43.75163" lon="7.1426">
        <ele>509.15539</ele>
        <time>2010-01-10T19:53:58Z</time>
      </trkpt>
      <trkpt lat="43.7515" lon="7.14247">
        <ele>511.55871</ele>
        <time>2010-01-10T19:54:04Z</time>
      </trkpt>
      <trkpt lat="43.75143" lon="7.14237">
        <ele>513.48144</ele>
        <time>2010-01-10T19:54:08Z</time>
      </trkpt>
      <trkpt lat="43.75134" lon="7.14225">
        <ele>513.96203</ele>
        <time>2010-01-10T19:54:13Z</time>
      </trkpt>
      <trkpt lat="43.7512" lon="7.14213">
        <ele>514.44262</ele>
        <time>2010-01-10T19:54:20Z</time>
      </trkpt>
      <trkpt lat="43.75106" lon="7.14204">
        <ele>515.88464</ele>
        <time>2010-01-10T19:54:26Z</time>
      </trkpt>
      <trkpt lat="43.75094" lon="7.14193">
        <ele>517.32666</ele>
        <time>2010-01-10T19:54:32Z</time>
      </trkpt>
      <trkpt lat="43.75082" lon="7.14187">
        <ele>520.21057</ele>
        <time>2010-01-10T19:54:37Z</time>
      </trkpt>
      <trkpt lat="43.75067" lon="7.1418">
        <ele>522.13317</ele>
        <time>2010-01-10T19:54:44Z</time>
      </trkpt>
      <trkpt lat="43.75056" lon="7.14173">
        <ele>522.13317</ele>
        <time>2010-01-10T19:54:48Z</time>
      </trkpt>
      <trkpt lat="43.75049" lon="7.14171">
        <ele>522.13317</ele>
        <time>2010-01-10T19:54:51Z</time>
      </trkpt>
      <trkpt lat="43.7505" lon="7.14166">
        <ele>521.65258</ele>
        <time>2010-01-10T19:54:53Z</time>
      </trkpt>
      <trkpt lat="43.75059" lon="7.14167">
        <ele>519.72985</ele>
        <time>2010-01-10T19:54:56Z</time>
      </trkpt>
      <trkpt lat="43.75071" lon="7.14169">
        <ele>519.24926</ele>
        <time>2010-01-10T19:55:01Z</time>
      </trkpt>
      <trkpt lat="43.75081" lon="7.14172">
        <ele>516.84594</ele>
        <time>2010-01-10T19:55:05Z</time>
      </trkpt>
      <trkpt lat="43.75094" lon="7.14174">
        <ele>514.92333</ele>
        <time>2010-01-10T19:55:10Z</time>
      </trkpt>
      <trkpt lat="43.75103" lon="7.14177">
        <ele>515.40405</ele>
        <time>2010-01-10T19:55:14Z</time>
      </trkpt>
      <trkpt lat="43.75108" lon="7.14178">
        <ele>516.36523</ele>
        <time>2010-01-10T19:55:16Z</time>
      </trkpt>
      <trkpt lat="43.7511" lon="7.14179">
        <ele>516.84594</ele>
        <time>2010-01-10T19:55:17Z</time>
      </trkpt>
      <trkpt lat="43.75117" lon="7.1418">
        <ele>519.72985</ele>
        <time>2010-01-10T19:55:20Z</time>
      </trkpt>
      <trkpt lat="43.75125" lon="7.14183">
        <ele>520.69128</ele>
        <time>2010-01-10T19:55:23Z</time>
      </trkpt>
      <trkpt lat="43.75134" lon="7.14187">
        <ele>521.65258</ele>
        <time>2010-01-10T19:55:27Z</time>
      </trkpt>
      <trkpt lat="43.75145" lon="7.14191">
        <ele>522.61389</ele>
        <time>2010-01-10T19:55:32Z</time>
      </trkpt>
      <trkpt lat="43.75151" lon="7.14194">
        <ele>522.61389</ele>
        <time>2010-01-10T19:55:34Z</time>
      </trkpt>
      <trkpt lat="43.75161" lon="7.142">
        <ele>524.53649</ele>
        <time>2010-01-10T19:55:38Z</time>
      </trkpt>
      <trkpt lat="43.75167" lon="7.14201">
        <ele>521.17199</ele>
        <time>2010-01-10T19:55:41Z</time>
      </trkpt>
      <trkpt lat="43.75171" lon="7.14206">
        <ele>520.69128</ele>
        <time>2010-01-10T19:55:43Z</time>
      </trkpt>
      <trkpt lat="43.75178" lon="7.14209">
        <ele>524.53649</ele>
        <time>2010-01-10T19:55:46Z</time>
      </trkpt>
      <trkpt lat="43.75183" lon="7.1421">
        <ele>525.97839</ele>
        <time>2010-01-10T19:55:48Z</time>
      </trkpt>
      <trkpt lat="43.7519" lon="7.14216">
        <ele>529.34313</ele>
        <time>2010-01-10T19:55:51Z</time>
      </trkpt>
      <trkpt lat="43.75201" lon="7.14226">
        <ele>532.22705</ele>
        <time>2010-01-10T19:55:57Z</time>
      </trkpt>
      <trkpt lat="43.7521" lon="7.14234">
        <ele>533.18835</ele>
        <time>2010-01-10T19:56:01Z</time>
      </trkpt>
      <trkpt lat="43.75218" lon="7.14239">
        <ele>533.66894</ele>
        <time>2010-01-10T19:56:05Z</time>
      </trkpt>
      <trkpt lat="43.7522" lon="7.14238">
        <ele>532.70776</ele>
        <time>2010-01-10T19:56:05Z</time>
      </trkpt>
      <trkpt lat="43.75219" lon="7.1424">
        <ele>535.59155</ele>
        <time>2010-01-10T19:56:06Z</time>
      </trkpt>
      <trkpt lat="43.75222" lon="7.14237">
        <ele>531.74633</ele>
        <time>2010-01-10T19:56:08Z</time>
      </trkpt>
      <trkpt lat="43.75225" lon="7.14238">
        <ele>532.22705</ele>
        <time>2010-01-10T19:56:09Z</time>
      </trkpt>
      <trkpt lat="43.7523" lon="7.1424">
        <ele>534.14965</ele>
        <time>2010-01-10T19:56:11Z</time>
      </trkpt>
      <trkpt lat="43.75243" lon="7.14244">
        <ele>537.03369</ele>
        <time>2010-01-10T19:56:16Z</time>
      </trkpt>
      <trkpt lat="43.75252" lon="7.14246">
        <ele>537.99499</ele>
        <time>2010-01-10T19:56:20Z</time>
      </trkpt>
      <trkpt lat="43.75263" lon="7.14246">
        <ele>538.4757</ele>
        <time>2010-01-10T19:56:24Z</time>
      </trkpt>
      <trkpt lat="43.75268" lon="7.14246">
        <ele>539.9176</ele>
        <time>2010-01-10T19:56:26Z</time>
      </trkpt>
      <trkpt lat="43.75277" lon="7.14248">
        <ele>541.84021</ele>
        <time>2010-01-10T19:56:30Z</time>
      </trkpt>
      <trkpt lat="43.75287" lon="7.14251">
        <ele>543.76281</ele>
        <time>2010-01-10T19:56:34Z</time>
      </trkpt>
      <trkpt lat="43.75289" lon="7.14252">
        <ele>544.24365</ele>
        <time>2010-01-10T19:56:35Z</time>
      </trkpt>
      <trkpt lat="43.75299" lon="7.14256">
        <ele>547.12744</ele>
        <time>2010-01-10T19:56:39Z</time>
      </trkpt>
      <trkpt lat="43.75304" lon="7.14262">
        <ele>546.64685</ele>
        <time>2010-01-10T19:56:42Z</time>
      </trkpt>
      <trkpt lat="43.75311" lon="7.1427">
        <ele>547.60815</ele>
        <time>2010-01-10T19:56:45Z</time>
      </trkpt>
      <trkpt lat="43.75314" lon="7.14272">
        <ele>549.53076</ele>
        <time>2010-01-10T19:56:47Z</time>
      </trkpt>
      <trkpt lat="43.75326" lon="7.14278">
        <ele>550.49218</ele>
        <time>2010-01-10T19:56:52Z</time>
      </trkpt>
      <trkpt lat="43.75331" lon="7.14279">
        <ele>551.93408</ele>
        <time>2010-01-10T19:56:54Z</time>
      </trkpt>
      <trkpt lat="43.75332" lon="7.1428">
        <ele>550.97265</ele>
        <time>2010-01-10T19:56:54Z</time>
      </trkpt>
      <trkpt lat="43.75336" lon="7.14281">
        <ele>550.01147</ele>
        <time>2010-01-10T19:56:56Z</time>
      </trkpt>
      <trkpt lat="43.75338" lon="7.14281">
        <ele>550.49218</ele>
        <time>2010-01-10T19:56:57Z</time>
      </trkpt>
      <trkpt lat="43.7534" lon="7.14281">
        <ele>547.12744</ele>
        <time>2010-01-10T19:56:57Z</time>
      </trkpt>
      <trkpt lat="43.75347" lon="7.14282">
        <ele>545.20483</ele>
        <time>2010-01-10T19:57:00Z</time>
      </trkpt>
      <trkpt lat="43.75356" lon="7.14286">
        <ele>545.20483</ele>
        <time>2010-01-10T19:57:04Z</time>
      </trkpt>
      <trkpt lat="43.75365" lon="7.1429">
        <ele>547.12744</ele>
        <time>2010-01-10T19:57:08Z</time>
      </trkpt>
      <trkpt lat="43.75371" lon="7.14292">
        <ele>549.05004</ele>
        <time>2010-01-10T19:57:10Z</time>
      </trkpt>
      <trkpt lat="43.75377" lon="7.14295">
        <ele>551.93408</ele>
        <time>2010-01-10T19:57:13Z</time>
      </trkpt>
      <trkpt lat="43.75384" lon="7.14299">
        <ele>554.81787</ele>
        <time>2010-01-10T19:57:16Z</time>
      </trkpt>
      <trkpt lat="43.75386" lon="7.14299">
        <ele>557.22143</ele>
        <time>2010-01-10T19:57:17Z</time>
      </trkpt>
      <trkpt lat="43.75386" lon="7.14295">
        <ele>556.74072</ele>
        <time>2010-01-10T19:57:18Z</time>
      </trkpt>
      <trkpt lat="43.75378" lon="7.14293">
        <ele>563.95043</ele>
        <time>2010-01-10T19:57:21Z</time>
      </trkpt>
      <trkpt lat="43.75375" lon="7.14292">
        <ele>566.35375</ele>
        <time>2010-01-10T19:57:23Z</time>
      </trkpt>
      <trkpt lat="43.75373" lon="7.1429">
        <ele>566.83447</ele>
        <time>2010-01-10T19:57:24Z</time>
      </trkpt>
      <trkpt lat="43.75367" lon="7.14285">
        <ele>573.08325</ele>
        <time>2010-01-10T19:57:27Z</time>
      </trkpt>
      <trkpt lat="43.75361" lon="7.14276">
        <ele>576.92846</ele>
        <time>2010-01-10T19:57:30Z</time>
      </trkpt>
      <trkpt lat="43.75356" lon="7.14271">
        <ele>578.85107</ele>
        <time>2010-01-10T19:57:32Z</time>
      </trkpt>
      <trkpt lat="43.75355" lon="7.14267">
        <ele>575.00585</ele>
        <time>2010-01-10T19:57:33Z</time>
      </trkpt>
      <trkpt lat="43.75357" lon="7.14264">
        <ele>562.98925</ele>
        <time>2010-01-10T19:57:35Z</time>
      </trkpt>
      <trkpt lat="43.75359" lon="7.14258">
        <ele>552.41455</ele>
        <time>2010-01-10T19:57:37Z</time>
      </trkpt>
      <trkpt lat="43.75357" lon="7.14258">
        <ele>555.29858</ele>
        <time>2010-01-10T19:57:38Z</time>
      </trkpt>
      <trkpt lat="43.75355" lon="7.14259">
        <ele>558.18286</ele>
        <time>2010-01-10T19:57:38Z</time>
      </trkpt>
      <trkpt lat="43.75355" lon="7.14259">
        <ele>559.62475</ele>
        <time>2010-01-10T19:57:38Z</time>
      </trkpt>
      <trkpt lat="43.75359" lon="7.14256">
        <ele>563.95043</ele>
        <time>2010-01-10T19:57:40Z</time>
      </trkpt>
      <trkpt lat="43.75363" lon="7.14257">
        <ele>565.39257</ele>
        <time>2010-01-10T19:57:42Z</time>
      </trkpt>
      <trkpt lat="43.75371" lon="7.14261">
        <ele>567.79565</ele>
        <time>2010-01-10T19:57:45Z</time>
      </trkpt>
      <trkpt lat="43.75377" lon="7.14263">
        <ele>567.79565</ele>
        <time>2010-01-10T19:57:47Z</time>
      </trkpt>
      <trkpt lat="43.75379" lon="7.14262">
        <ele>570.19897</ele>
        <time>2010-01-10T19:57:48Z</time>
      </trkpt>
      <trkpt lat="43.75386" lon="7.14264">
        <ele>570.19897</ele>
        <time>2010-01-10T19:57:51Z</time>
      </trkpt>
      <trkpt lat="43.75397" lon="7.14263">
        <ele>572.12182</ele>
        <time>2010-01-10T19:57:55Z</time>
      </trkpt>
      <trkpt lat="43.75404" lon="7.14271">
        <ele>575.96704</ele>
        <time>2010-01-10T19:57:59Z</time>
      </trkpt>
      <trkpt lat="43.75409" lon="7.14273">
        <ele>577.40917</ele>
        <time>2010-01-10T19:58:01Z</time>
      </trkpt>
      <trkpt lat="43.75419" lon="7.1428">
        <ele>579.33154</ele>
        <time>2010-01-10T19:58:06Z</time>
      </trkpt>
      <trkpt lat="43.75428" lon="7.14284">
        <ele>581.73486</ele>
        <time>2010-01-10T19:58:09Z</time>
      </trkpt>
      <trkpt lat="43.75438" lon="7.14294">
        <ele>585.0996</ele>
        <time>2010-01-10T19:58:14Z</time>
      </trkpt>
      <trkpt lat="43.75446" lon="7.143">
        <ele>586.5415</ele>
        <time>2010-01-10T19:58:18Z</time>
      </trkpt>
      <trkpt lat="43.75453" lon="7.14304">
        <ele>586.5415</ele>
        <time>2010-01-10T19:58:21Z</time>
      </trkpt>
      <trkpt lat="43.75462" lon="7.1431">
        <ele>586.06079</ele>
        <time>2010-01-10T19:58:25Z</time>
      </trkpt>
      <trkpt lat="43.75463" lon="7.14312">
        <ele>587.02197</ele>
        <time>2010-01-10T19:58:26Z</time>
      </trkpt>
      <trkpt lat="43.75476" lon="7.14316">
        <ele>589.42553</ele>
        <time>2010-01-10T19:58:31Z</time>
      </trkpt>
      <trkpt lat="43.75485" lon="7.14319">
        <ele>589.90625</ele>
        <time>2010-01-10T19:58:34Z</time>
      </trkpt>
      <trkpt lat="43.75494" lon="7.14322">
        <ele>590.86743</ele>
        <time>2010-01-10T19:58:38Z</time>
      </trkpt>
      <trkpt lat="43.75502" lon="7.14327">
        <ele>594.71264</ele>
        <time>2010-01-10T19:58:42Z</time>
      </trkpt>
      <trkpt lat="43.75512" lon="7.14329">
        <ele>595.67407</ele>
        <time>2010-01-10T19:58:46Z</time>
      </trkpt>
      <trkpt lat="43.75521" lon="7.1433">
        <ele>597.59667</ele>
        <time>2010-01-10T19:58:49Z</time>
      </trkpt>
      <trkpt lat="43.75528" lon="7.14334">
        <ele>600</ele>
        <time>2010-01-10T19:58:52Z</time>
      </trkpt>
      <trkpt lat="43.7553" lon="7.14332">
        <ele>597.11596</ele>
        <time>2010-01-10T19:58:53Z</time>
      </trkpt>
      <trkpt lat="43.75533" lon="7.14334">
        <ele>601.44189</ele>
        <time>2010-01-10T19:58:55Z</time>
      </trkpt>
      <trkpt lat="43.75536" lon="7.14334">
        <ele>599.51928</ele>
        <time>2010-01-10T19:58:56Z</time>
      </trkpt>
      <trkpt lat="43.75541" lon="7.14333">
        <ele>599.51928</ele>
        <time>2010-01-10T19:58:58Z</time>
      </trkpt>
      <trkpt lat="43.75546" lon="7.14334">
        <ele>599.51928</ele>
        <time>2010-01-10T19:59:00Z</time>
      </trkpt>
      <trkpt lat="43.75552" lon="7.14331">
        <ele>592.79028</ele>
        <time>2010-01-10T19:59:02Z</time>
      </trkpt>
      <trkpt lat="43.75559" lon="7.14326">
        <ele>594.71264</ele>
        <time>2010-01-10T19:59:06Z</time>
      </trkpt>
      <trkpt lat="43.75559" lon="7.14327">
        <ele>602.88378</ele>
        <time>2010-01-10T19:59:06Z</time>
      </trkpt>
      <trkpt lat="43.75558" lon="7.14329">
        <ele>607.69067</ele>
        <time>2010-01-10T19:59:06Z</time>
      </trkpt>
      <trkpt lat="43.75564" lon="7.14328">
        <ele>608.65185</ele>
        <time>2010-01-10T19:59:09Z</time>
      </trkpt>
      <trkpt lat="43.75575" lon="7.14329">
        <ele>610.09375</ele>
        <time>2010-01-10T19:59:13Z</time>
      </trkpt>
      <trkpt lat="43.7558" lon="7.14329">
        <ele>609.13256</ele>
        <time>2010-01-10T19:59:15Z</time>
      </trkpt>
      <trkpt lat="43.75587" lon="7.14329">
        <ele>609.61328</ele>
        <time>2010-01-10T19:59:18Z</time>
      </trkpt>
      <trkpt lat="43.7559" lon="7.1433">
        <ele>610.09375</ele>
        <time>2010-01-10T19:59:19Z</time>
      </trkpt>
      <trkpt lat="43.75595" lon="7.14327">
        <ele>611.53588</ele>
        <time>2010-01-10T19:59:22Z</time>
      </trkpt>
      <trkpt lat="43.75604" lon="7.14325">
        <ele>612.97778</ele>
        <time>2010-01-10T19:59:25Z</time>
      </trkpt>
      <trkpt lat="43.75606" lon="7.14325">
        <ele>612.97778</ele>
        <time>2010-01-10T19:59:26Z</time>
      </trkpt>
      <trkpt lat="43.75611" lon="7.14323">
        <ele>612.0166</ele>
        <time>2010-01-10T19:59:28Z</time>
      </trkpt>
      <trkpt lat="43.75617" lon="7.14323">
        <ele>612.0166</ele>
        <time>2010-01-10T19:59:31Z</time>
      </trkpt>
      <trkpt lat="43.7562" lon="7.14323">
        <ele>613.45849</ele>
        <time>2010-01-10T19:59:32Z</time>
      </trkpt>
      <trkpt lat="43.75626" lon="7.14324">
        <ele>612.49707</ele>
        <time>2010-01-10T19:59:34Z</time>
      </trkpt>
      <trkpt lat="43.75632" lon="7.14322">
        <ele>606.72924</ele>
        <time>2010-01-10T19:59:36Z</time>
      </trkpt>
      <trkpt lat="43.75636" lon="7.1432">
        <ele>610.09375</ele>
        <time>2010-01-10T19:59:38Z</time>
      </trkpt>
      <trkpt lat="43.75642" lon="7.14319">
        <ele>612.49707</ele>
        <time>2010-01-10T19:59:41Z</time>
      </trkpt>
      <trkpt lat="43.75646" lon="7.1432">
        <ele>615.3811</ele>
        <time>2010-01-10T19:59:43Z</time>
      </trkpt>
      <trkpt lat="43.75654" lon="7.14321">
        <ele>616.82299</ele>
        <time>2010-01-10T19:59:46Z</time>
      </trkpt>
      <trkpt lat="43.75657" lon="7.14319">
        <ele>617.30371</ele>
        <time>2010-01-10T19:59:47Z</time>
      </trkpt>
      <trkpt lat="43.75664" lon="7.14316">
        <ele>617.30371</ele>
        <time>2010-01-10T19:59:50Z</time>
      </trkpt>
      <trkpt lat="43.75664" lon="7.14315">
        <ele>616.34228</ele>
        <time>2010-01-10T19:59:50Z</time>
      </trkpt>
      <trkpt lat="43.75672" lon="7.14314">
        <ele>614.41967</ele>
        <time>2010-01-10T19:59:53Z</time>
      </trkpt>
      <trkpt lat="43.75681" lon="7.14313">
        <ele>619.70703</ele>
        <time>2010-01-10T19:59:57Z</time>
      </trkpt>
      <trkpt lat="43.75683" lon="7.14312">
        <ele>627.3977</ele>
        <time>2010-01-10T19:59:58Z</time>
      </trkpt>
      <trkpt lat="43.75686" lon="7.14311">
        <ele>634.1267</ele>
        <time>2010-01-10T19:59:59Z</time>
      </trkpt>
      <trkpt lat="43.75694" lon="7.14312">
        <ele>635.08813</ele>
        <time>2010-01-10T20:00:02Z</time>
      </trkpt>
      <trkpt lat="43.757" lon="7.14313">
        <ele>632.2041</ele>
        <time>2010-01-10T20:00:05Z</time>
      </trkpt>
      <trkpt lat="43.75706" lon="7.14315">
        <ele>635.5686</ele>
        <time>2010-01-10T20:00:07Z</time>
      </trkpt>
      <trkpt lat="43.75711" lon="7.14315">
        <ele>634.60742</ele>
        <time>2010-01-10T20:00:09Z</time>
      </trkpt>
      <trkpt lat="43.75721" lon="7.14318">
        <ele>636.04956</ele>
        <time>2010-01-10T20:00:13Z</time>
      </trkpt>
      <trkpt lat="43.75724" lon="7.14322">
        <ele>639.89477</ele>
        <time>2010-01-10T20:00:15Z</time>
      </trkpt>
      <trkpt lat="43.75727" lon="7.14324">
        <ele>640.37548</ele>
        <time>2010-01-10T20:00:16Z</time>
      </trkpt>
      <trkpt lat="43.75732" lon="7.14325">
        <ele>640.85595</ele>
        <time>2010-01-10T20:00:18Z</time>
      </trkpt>
      <trkpt lat="43.75739" lon="7.14325">
        <ele>637.97216</ele>
        <time>2010-01-10T20:00:21Z</time>
      </trkpt>
      <trkpt lat="43.75743" lon="7.14325">
        <ele>635.08813</ele>
        <time>2010-01-10T20:00:23Z</time>
      </trkpt>
      <trkpt lat="43.75742" lon="7.14323">
        <ele>633.16528</ele>
        <time>2010-01-10T20:00:23Z</time>
      </trkpt>
      <trkpt lat="43.75748" lon="7.1433">
        <ele>643.73999</ele>
        <time>2010-01-10T20:00:26Z</time>
      </trkpt>
      <trkpt lat="43.7576" lon="7.1433">
        <ele>640.37548</ele>
        <time>2010-01-10T20:00:31Z</time>
      </trkpt>
      <trkpt lat="43.75763" lon="7.1433">
        <ele>640.85595</ele>
        <time>2010-01-10T20:00:32Z</time>
      </trkpt>
      <trkpt lat="43.75764" lon="7.14329">
        <ele>638.93359</ele>
        <time>2010-01-10T20:00:33Z</time>
      </trkpt>
      <trkpt lat="43.75767" lon="7.14328">
        <ele>637.97216</ele>
        <time>2010-01-10T20:00:34Z</time>
      </trkpt>
      <trkpt lat="43.75779" lon="7.14325">
        <ele>636.04956</ele>
        <time>2010-01-10T20:00:39Z</time>
      </trkpt>
      <trkpt lat="43.75791" lon="7.14323">
        <ele>637.97216</ele>
        <time>2010-01-10T20:00:44Z</time>
      </trkpt>
      <trkpt lat="43.75798" lon="7.14319">
        <ele>639.89477</ele>
        <time>2010-01-10T20:00:47Z</time>
      </trkpt>
      <trkpt lat="43.75808" lon="7.14311">
        <ele>641.81738</ele>
        <time>2010-01-10T20:00:51Z</time>
      </trkpt>
      <trkpt lat="43.75818" lon="7.14305">
        <ele>639.89477</ele>
        <time>2010-01-10T20:00:56Z</time>
      </trkpt>
      <trkpt lat="43.7583" lon="7.143">
        <ele>639.41406</ele>
        <time>2010-01-10T20:01:01Z</time>
      </trkpt>
      <trkpt lat="43.75842" lon="7.14296">
        <ele>640.85595</ele>
        <time>2010-01-10T20:01:06Z</time>
      </trkpt>
      <trkpt lat="43.75854" lon="7.14295">
        <ele>641.33666</ele>
        <time>2010-01-10T20:01:11Z</time>
      </trkpt>
      <trkpt lat="43.75859" lon="7.14294">
        <ele>640.37548</ele>
        <time>2010-01-10T20:01:13Z</time>
      </trkpt>
      <trkpt lat="43.75859" lon="7.14298">
        <ele>644.70117</ele>
        <time>2010-01-10T20:01:14Z</time>
      </trkpt>
      <trkpt lat="43.75863" lon="7.14297">
        <ele>645.66259</ele>
        <time>2010-01-10T20:01:15Z</time>
      </trkpt>
      <trkpt lat="43.75866" lon="7.14296">
        <ele>645.18188</ele>
        <time>2010-01-10T20:01:17Z</time>
      </trkpt>
      <trkpt lat="43.75878" lon="7.14293">
        <ele>645.18188</ele>
        <time>2010-01-10T20:01:21Z</time>
      </trkpt>
      <trkpt lat="43.75887" lon="7.14293">
        <ele>646.62402</ele>
        <time>2010-01-10T20:01:25Z</time>
      </trkpt>
      <trkpt lat="43.75893" lon="7.143">
        <ele>647.10449</ele>
        <time>2010-01-10T20:01:28Z</time>
      </trkpt>
      <trkpt lat="43.75905" lon="7.14299">
        <ele>648.06591</ele>
        <time>2010-01-10T20:01:33Z</time>
      </trkpt>
      <trkpt lat="43.75906" lon="7.14299">
        <ele>648.54638</ele>
        <time>2010-01-10T20:01:33Z</time>
      </trkpt>
      <trkpt lat="43.75909" lon="7.14299">
        <ele>649.02709</ele>
        <time>2010-01-10T20:01:35Z</time>
      </trkpt>
      <trkpt lat="43.75915" lon="7.14302">
        <ele>651.43041</ele>
        <time>2010-01-10T20:01:37Z</time>
      </trkpt>
      <trkpt lat="43.75921" lon="7.14305">
        <ele>652.87255</ele>
        <time>2010-01-10T20:01:39Z</time>
      </trkpt>
      <trkpt lat="43.75924" lon="7.14306">
        <ele>651.91113</ele>
        <time>2010-01-10T20:01:41Z</time>
      </trkpt>
      <trkpt lat="43.75927" lon="7.14306">
        <ele>651.43041</ele>
        <time>2010-01-10T20:01:42Z</time>
      </trkpt>
      <trkpt lat="43.75929" lon="7.14306">
        <ele>649.50781</ele>
        <time>2010-01-10T20:01:43Z</time>
      </trkpt>
      <trkpt lat="43.75937" lon="7.14311">
        <ele>645.66259</ele>
        <time>2010-01-10T20:01:46Z</time>
      </trkpt>
      <trkpt lat="43.75941" lon="7.14311">
        <ele>648.54638</ele>
        <time>2010-01-10T20:01:48Z</time>
      </trkpt>
      <trkpt lat="43.75946" lon="7.14311">
        <ele>650.9497</ele>
        <time>2010-01-10T20:01:50Z</time>
      </trkpt>
      <trkpt lat="43.75956" lon="7.14308">
        <ele>652.39184</ele>
        <time>2010-01-10T20:01:54Z</time>
      </trkpt>
      <trkpt lat="43.75966" lon="7.14308">
        <ele>653.35327</ele>
        <time>2010-01-10T20:01:58Z</time>
      </trkpt>
      <trkpt lat="43.7597" lon="7.14309">
        <ele>652.87255</ele>
        <time>2010-01-10T20:02:00Z</time>
      </trkpt>
      <trkpt lat="43.75975" lon="7.14309">
        <ele>653.83398</ele>
        <time>2010-01-10T20:02:02Z</time>
      </trkpt>
      <trkpt lat="43.75976" lon="7.1431">
        <ele>652.39184</ele>
        <time>2010-01-10T20:02:02Z</time>
      </trkpt>
      <trkpt lat="43.75974" lon="7.14309">
        <ele>656.23706</ele>
        <time>2010-01-10T20:02:03Z</time>
      </trkpt>
      <trkpt lat="43.75975" lon="7.14309">
        <ele>655.27587</ele>
        <time>2010-01-10T20:02:04Z</time>
      </trkpt>
      <trkpt lat="43.75975" lon="7.14309">
        <ele>656.23706</ele>
        <time>2010-01-10T20:02:04Z</time>
      </trkpt>
      <trkpt lat="43.75975" lon="7.14309">
        <ele>654.79516</ele>
        <time>2010-01-10T20:02:04Z</time>
      </trkpt>
      <trkpt lat="43.7598" lon="7.1431">
        <ele>653.83398</ele>
        <time>2010-01-10T20:02:06Z</time>
      </trkpt>
      <trkpt lat="43.75984" lon="7.14309">
        <ele>655.27587</ele>
        <time>2010-01-10T20:02:07Z</time>
      </trkpt>
      <trkpt lat="43.75986" lon="7.14311">
        <ele>650.9497</ele>
        <time>2010-01-10T20:02:09Z</time>
      </trkpt>
      <trkpt lat="43.75983" lon="7.14309">
        <ele>656.23706</ele>
        <time>2010-01-10T20:02:10Z</time>
      </trkpt>
      <trkpt lat="43.75983" lon="7.14309">
        <ele>653.35327</ele>
        <time>2010-01-10T20:02:10Z</time>
      </trkpt>
      <trkpt lat="43.75983" lon="7.14311">
        <ele>653.83398</ele>
        <time>2010-01-10T20:02:11Z</time>
      </trkpt>
      <trkpt lat="43.75981" lon="7.14308">
        <ele>659.12109</ele>
        <time>2010-01-10T20:02:12Z</time>
      </trkpt>
      <trkpt lat="43.75982" lon="7.14311">
        <ele>658.15991</ele>
        <time>2010-01-10T20:02:13Z</time>
      </trkpt>
      <trkpt lat="43.75984" lon="7.14309">
        <ele>656.71777</ele>
        <time>2010-01-10T20:02:14Z</time>
      </trkpt>
      <trkpt lat="43.75989" lon="7.14309">
        <ele>657.19848</ele>
        <time>2010-01-10T20:02:16Z</time>
      </trkpt>
      <trkpt lat="43.75998" lon="7.1431">
        <ele>658.15991</ele>
        <time>2010-01-10T20:02:20Z</time>
      </trkpt>
      <trkpt lat="43.76" lon="7.14311">
        <ele>657.19848</ele>
        <time>2010-01-10T20:02:21Z</time>
      </trkpt>
      <trkpt lat="43.76003" lon="7.14313">
        <ele>654.31469</ele>
        <time>2010-01-10T20:02:22Z</time>
      </trkpt>
      <trkpt lat="43.76003" lon="7.14313">
        <ele>654.31469</ele>
        <time>2010-01-10T20:02:22Z</time>
      </trkpt>
      <trkpt lat="43.76006" lon="7.14313">
        <ele>654.31469</ele>
        <time>2010-01-10T20:02:23Z</time>
      </trkpt>
      <trkpt lat="43.76017" lon="7.14314">
        <ele>655.27587</ele>
        <time>2010-01-10T20:02:28Z</time>
      </trkpt>
      <trkpt lat="43.76029" lon="7.14319">
        <ele>656.71777</ele>
        <time>2010-01-10T20:02:33Z</time>
      </trkpt>
      <trkpt lat="43.76039" lon="7.14325">
        <ele>661.52441</ele>
        <time>2010-01-10T20:02:37Z</time>
      </trkpt>
      <trkpt lat="43.76049" lon="7.14332">
        <ele>663.44702</ele>
        <time>2010-01-10T20:02:42Z</time>
      </trkpt>
      <trkpt lat="43.76063" lon="7.1434">
        <ele>663.92749</ele>
        <time>2010-01-10T20:02:47Z</time>
      </trkpt>
      <trkpt lat="43.76072" lon="7.14347">
        <ele>664.4082</ele>
        <time>2010-01-10T20:02:52Z</time>
      </trkpt>
      <trkpt lat="43.76085" lon="7.14357">
        <ele>664.4082</ele>
        <time>2010-01-10T20:02:58Z</time>
      </trkpt>
      <trkpt lat="43.76096" lon="7.14367">
        <ele>665.85034</ele>
        <time>2010-01-10T20:03:03Z</time>
      </trkpt>
      <trkpt lat="43.76109" lon="7.14377">
        <ele>666.33081</ele>
        <time>2010-01-10T20:03:09Z</time>
      </trkpt>
      <trkpt lat="43.76122" lon="7.14382">
        <ele>666.81152</ele>
        <time>2010-01-10T20:03:14Z</time>
      </trkpt>
      <trkpt lat="43.76132" lon="7.14389">
        <ele>668.25366</ele>
        <time>2010-01-10T20:03:19Z</time>
      </trkpt>
      <trkpt lat="43.76143" lon="7.14399">
        <ele>667.29223</ele>
        <time>2010-01-10T20:03:24Z</time>
      </trkpt>
      <trkpt lat="43.76153" lon="7.14404">
        <ele>668.25366</ele>
        <time>2010-01-10T20:03:28Z</time>
      </trkpt>
      <trkpt lat="43.76164" lon="7.14408">
        <ele>669.21508</ele>
        <time>2010-01-10T20:03:33Z</time>
      </trkpt>
      <trkpt lat="43.76179" lon="7.14412">
        <ele>669.6958</ele>
        <time>2010-01-10T20:03:39Z</time>
      </trkpt>
      <trkpt lat="43.76197" lon="7.14414">
        <ele>671.61816</ele>
        <time>2010-01-10T20:03:46Z</time>
      </trkpt>
      <trkpt lat="43.7621" lon="7.14417">
        <ele>673.0603</ele>
        <time>2010-01-10T20:03:51Z</time>
      </trkpt>
      <trkpt lat="43.76222" lon="7.14424">
        <ele>674.02148</ele>
        <time>2010-01-10T20:03:57Z</time>
      </trkpt>
      <trkpt lat="43.76233" lon="7.14429">
        <ele>674.02148</ele>
        <time>2010-01-10T20:04:01Z</time>
      </trkpt>
      <trkpt lat="43.76243" lon="7.14432">
        <ele>674.50219</ele>
        <time>2010-01-10T20:04:05Z</time>
      </trkpt>
      <trkpt lat="43.76259" lon="7.14435">
        <ele>675.94409</ele>
        <time>2010-01-10T20:04:12Z</time>
      </trkpt>
      <trkpt lat="43.76272" lon="7.14437">
        <ele>677.38623</ele>
        <time>2010-01-10T20:04:17Z</time>
      </trkpt>
      <trkpt lat="43.76288" lon="7.14444">
        <ele>676.4248</ele>
        <time>2010-01-10T20:04:24Z</time>
      </trkpt>
      <trkpt lat="43.76304" lon="7.14452">
        <ele>675.94409</ele>
        <time>2010-01-10T20:04:31Z</time>
      </trkpt>
      <trkpt lat="43.76314" lon="7.14453">
        <ele>676.90551</ele>
        <time>2010-01-10T20:04:35Z</time>
      </trkpt>
      <trkpt lat="43.7633" lon="7.14454">
        <ele>678.34741</ele>
        <time>2010-01-10T20:04:41Z</time>
      </trkpt>
      <trkpt lat="43.76345" lon="7.1445">
        <ele>679.7893</ele>
        <time>2010-01-10T20:04:47Z</time>
      </trkpt>
      <trkpt lat="43.76365" lon="7.14443">
        <ele>679.30859</ele>
        <time>2010-01-10T20:04:55Z</time>
      </trkpt>
      <trkpt lat="43.76378" lon="7.14446">
        <ele>681.23144</ele>
        <time>2010-01-10T20:05:00Z</time>
      </trkpt>
      <trkpt lat="43.7639" lon="7.14449">
        <ele>682.67333</ele>
        <time>2010-01-10T20:05:05Z</time>
      </trkpt>
      <trkpt lat="43.76403" lon="7.14448">
        <ele>681.71191</ele>
        <time>2010-01-10T20:05:10Z</time>
      </trkpt>
      <trkpt lat="43.76418" lon="7.14448">
        <ele>683.63452</ele>
        <time>2010-01-10T20:05:16Z</time>
      </trkpt>
      <trkpt lat="43.76425" lon="7.14451">
        <ele>684.11547</ele>
        <time>2010-01-10T20:05:19Z</time>
      </trkpt>
      <trkpt lat="43.76439" lon="7.14458">
        <ele>686.03808</ele>
        <time>2010-01-10T20:05:25Z</time>
      </trkpt>
      <trkpt lat="43.7645" lon="7.14462">
        <ele>685.0769</ele>
        <time>2010-01-10T20:05:30Z</time>
      </trkpt>
      <trkpt lat="43.76457" lon="7.14462">
        <ele>685.0769</ele>
        <time>2010-01-10T20:05:33Z</time>
      </trkpt>
      <trkpt lat="43.76466" lon="7.14463">
        <ele>686.51879</ele>
        <time>2010-01-10T20:05:36Z</time>
      </trkpt>
      <trkpt lat="43.76474" lon="7.14461">
        <ele>687.96069</ele>
        <time>2010-01-10T20:05:40Z</time>
      </trkpt>
      <trkpt lat="43.76484" lon="7.1446">
        <ele>689.8833</ele>
        <time>2010-01-10T20:05:44Z</time>
      </trkpt>
      <trkpt lat="43.76497" lon="7.14456">
        <ele>692.28662</ele>
        <time>2010-01-10T20:05:49Z</time>
      </trkpt>
      <trkpt lat="43.76511" lon="7.14449">
        <ele>695.65112</ele>
        <time>2010-01-10T20:05:55Z</time>
      </trkpt>
      <trkpt lat="43.76521" lon="7.14443">
        <ele>697.09301</ele>
        <time>2010-01-10T20:05:59Z</time>
      </trkpt>
      <trkpt lat="43.76534" lon="7.14437">
        <ele>700.458</ele>
        <time>2010-01-10T20:06:05Z</time>
      </trkpt>
      <trkpt lat="43.76546" lon="7.14436">
        <ele>700.458</ele>
        <time>2010-01-10T20:06:10Z</time>
      </trkpt>
      <trkpt lat="43.76559" lon="7.14437">
        <ele>701.41918</ele>
        <time>2010-01-10T20:06:15Z</time>
      </trkpt>
      <trkpt lat="43.76578" lon="7.14437">
        <ele>700.93847</ele>
        <time>2010-01-10T20:06:22Z</time>
      </trkpt>
      <trkpt lat="43.76588" lon="7.14435">
        <ele>701.41918</ele>
        <time>2010-01-10T20:06:27Z</time>
      </trkpt>
      <trkpt lat="43.76601" lon="7.14432">
        <ele>700.93847</ele>
        <time>2010-01-10T20:06:32Z</time>
      </trkpt>
      <trkpt lat="43.7661" lon="7.14432">
        <ele>702.38037</ele>
        <time>2010-01-10T20:06:35Z</time>
      </trkpt>
      <trkpt lat="43.76622" lon="7.14432">
        <ele>706.22558</ele>
        <time>2010-01-10T20:06:40Z</time>
      </trkpt>
      <trkpt lat="43.76634" lon="7.14432">
        <ele>708.14843</ele>
        <time>2010-01-10T20:06:45Z</time>
      </trkpt>
      <trkpt lat="43.76644" lon="7.14433">
        <ele>710.0708</ele>
        <time>2010-01-10T20:06:49Z</time>
      </trkpt>
      <trkpt lat="43.76652" lon="7.14434">
        <ele>711.99365</ele>
        <time>2010-01-10T20:06:52Z</time>
      </trkpt>
      <trkpt lat="43.76663" lon="7.14436">
        <ele>711.99365</ele>
        <time>2010-01-10T20:06:57Z</time>
      </trkpt>
      <trkpt lat="43.76672" lon="7.14437">
        <ele>714.39672</ele>
        <time>2010-01-10T20:07:00Z</time>
      </trkpt>
      <trkpt lat="43.76673" lon="7.14438">
        <ele>714.87744</ele>
        <time>2010-01-10T20:07:01Z</time>
      </trkpt>
      <trkpt lat="43.7668" lon="7.1444">
        <ele>715.83886</ele>
        <time>2010-01-10T20:07:03Z</time>
      </trkpt>
      <trkpt lat="43.76689" lon="7.14442">
        <ele>718.7229</ele>
        <time>2010-01-10T20:07:07Z</time>
      </trkpt>
      <trkpt lat="43.76694" lon="7.14445">
        <ele>720.6455</ele>
        <time>2010-01-10T20:07:10Z</time>
      </trkpt>
      <trkpt lat="43.76702" lon="7.14447">
        <ele>720.6455</ele>
        <time>2010-01-10T20:07:13Z</time>
      </trkpt>
      <trkpt lat="43.7671" lon="7.14451">
        <ele>723.52954</ele>
        <time>2010-01-10T20:07:16Z</time>
      </trkpt>
      <trkpt lat="43.7672" lon="7.14455">
        <ele>722.56811</ele>
        <time>2010-01-10T20:07:20Z</time>
      </trkpt>
      <trkpt lat="43.76729" lon="7.14459">
        <ele>724.01</ele>
        <time>2010-01-10T20:07:24Z</time>
      </trkpt>
      <trkpt lat="43.76738" lon="7.14464">
        <ele>726.41333</ele>
        <time>2010-01-10T20:07:28Z</time>
      </trkpt>
      <trkpt lat="43.76746" lon="7.14469">
        <ele>724.97143</ele>
        <time>2010-01-10T20:07:31Z</time>
      </trkpt>
      <trkpt lat="43.76752" lon="7.14463">
        <ele>723.52954</ele>
        <time>2010-01-10T20:07:34Z</time>
      </trkpt>
      <trkpt lat="43.76752" lon="7.14458">
        <ele>724.01</ele>
        <time>2010-01-10T20:07:36Z</time>
      </trkpt>
      <trkpt lat="43.76766" lon="7.14463">
        <ele>726.41333</ele>
        <time>2010-01-10T20:07:41Z</time>
      </trkpt>
      <trkpt lat="43.76774" lon="7.14468">
        <ele>726.89404</ele>
        <time>2010-01-10T20:07:45Z</time>
      </trkpt>
      <trkpt lat="43.76783" lon="7.14472">
        <ele>728.81665</ele>
        <time>2010-01-10T20:07:49Z</time>
      </trkpt>
      <trkpt lat="43.76792" lon="7.14474">
        <ele>729.77783</ele>
        <time>2010-01-10T20:07:52Z</time>
      </trkpt>
      <trkpt lat="43.76799" lon="7.14476">
        <ele>732.18139</ele>
        <time>2010-01-10T20:07:55Z</time>
      </trkpt>
      <trkpt lat="43.76804" lon="7.14478">
        <ele>733.14257</ele>
        <time>2010-01-10T20:07:57Z</time>
      </trkpt>
      <trkpt lat="43.76804" lon="7.14477">
        <ele>736.50732</ele>
        <time>2010-01-10T20:07:58Z</time>
      </trkpt>
      <trkpt lat="43.76806" lon="7.14478">
        <ele>734.58471</ele>
        <time>2010-01-10T20:07:59Z</time>
      </trkpt>
      <trkpt lat="43.76817" lon="7.14479">
        <ele>735.06542</ele>
        <time>2010-01-10T20:08:03Z</time>
      </trkpt>
      <trkpt lat="43.76824" lon="7.14479">
        <ele>736.98779</ele>
        <time>2010-01-10T20:08:06Z</time>
      </trkpt>
      <trkpt lat="43.76829" lon="7.1448">
        <ele>736.98779</ele>
        <time>2010-01-10T20:08:08Z</time>
      </trkpt>
      <trkpt lat="43.76833" lon="7.14481">
        <ele>734.58471</ele>
        <time>2010-01-10T20:08:09Z</time>
      </trkpt>
      <trkpt lat="43.76838" lon="7.1448">
        <ele>734.104</ele>
        <time>2010-01-10T20:08:12Z</time>
      </trkpt>
      <trkpt lat="43.76848" lon="7.14478">
        <ele>736.98779</ele>
        <time>2010-01-10T20:08:16Z</time>
      </trkpt>
      <trkpt lat="43.76855" lon="7.14479">
        <ele>737.94921</ele>
        <time>2010-01-10T20:08:18Z</time>
      </trkpt>
      <trkpt lat="43.7686" lon="7.14483">
        <ele>738.42993</ele>
        <time>2010-01-10T20:08:20Z</time>
      </trkpt>
      <trkpt lat="43.76862" lon="7.14484">
        <ele>738.91064</ele>
        <time>2010-01-10T20:08:21Z</time>
      </trkpt>
      <trkpt lat="43.76869" lon="7.14483">
        <ele>740.35253</ele>
        <time>2010-01-10T20:08:24Z</time>
      </trkpt>
      <trkpt lat="43.7688" lon="7.14485">
        <ele>744.19775</ele>
        <time>2010-01-10T20:08:29Z</time>
      </trkpt>
      <trkpt lat="43.76893" lon="7.14484">
        <ele>746.60107</ele>
        <time>2010-01-10T20:08:34Z</time>
      </trkpt>
      <trkpt lat="43.76909" lon="7.14483">
        <ele>742.75585</ele>
        <time>2010-01-10T20:08:40Z</time>
      </trkpt>
      <trkpt lat="43.76923" lon="7.14481">
        <ele>742.27514</ele>
        <time>2010-01-10T20:08:46Z</time>
      </trkpt>
      <trkpt lat="43.76933" lon="7.1448">
        <ele>739.87182</ele>
        <time>2010-01-10T20:08:50Z</time>
      </trkpt>
      <trkpt lat="43.76946" lon="7.14476">
        <ele>741.31372</ele>
        <time>2010-01-10T20:08:55Z</time>
      </trkpt>
      <trkpt lat="43.76952" lon="7.1447">
        <ele>741.31372</ele>
        <time>2010-01-10T20:08:58Z</time>
      </trkpt>
      <trkpt lat="43.76955" lon="7.14472">
        <ele>742.27514</ele>
        <time>2010-01-10T20:08:59Z</time>
      </trkpt>
      <trkpt lat="43.76957" lon="7.14474">
        <ele>743.23632</ele>
        <time>2010-01-10T20:09:00Z</time>
      </trkpt>
      <trkpt lat="43.76961" lon="7.14477">
        <ele>743.71704</ele>
        <time>2010-01-10T20:09:02Z</time>
      </trkpt>
      <trkpt lat="43.76968" lon="7.1448">
        <ele>743.23632</ele>
        <time>2010-01-10T20:09:05Z</time>
      </trkpt>
      <trkpt lat="43.76969" lon="7.14481">
        <ele>739.39111</ele>
        <time>2010-01-10T20:09:06Z</time>
      </trkpt>
      <trkpt lat="43.76969" lon="7.14481">
        <ele>739.87182</ele>
        <time>2010-01-10T20:09:06Z</time>
      </trkpt>
      <trkpt lat="43.76967" lon="7.14484">
        <ele>737.94921</ele>
        <time>2010-01-10T20:09:07Z</time>
      </trkpt>
      <trkpt lat="43.76968" lon="7.14485">
        <ele>736.50732</ele>
        <time>2010-01-10T20:09:08Z</time>
      </trkpt>
      <trkpt lat="43.76968" lon="7.14482">
        <ele>739.87182</ele>
        <time>2010-01-10T20:09:09Z</time>
      </trkpt>
      <trkpt lat="43.76968" lon="7.14482">
        <ele>739.39111</ele>
        <time>2010-01-10T20:09:09Z</time>
      </trkpt>
      <trkpt lat="43.7697" lon="7.14482">
        <ele>742.75585</ele>
        <time>2010-01-10T20:09:09Z</time>
      </trkpt>
      <trkpt lat="43.76964" lon="7.1449">
        <ele>745.15893</ele>
        <time>2010-01-10T20:09:13Z</time>
      </trkpt>
      <trkpt lat="43.76956" lon="7.14502">
        <ele>745.15893</ele>
        <time>2010-01-10T20:09:17Z</time>
      </trkpt>
      <trkpt lat="43.76944" lon="7.14509">
        <ele>742.75585</ele>
        <time>2010-01-10T20:09:23Z</time>
      </trkpt>
      <trkpt lat="43.76935" lon="7.14519">
        <ele>742.75585</ele>
        <time>2010-01-10T20:09:27Z</time>
      </trkpt>
      <trkpt lat="43.76929" lon="7.14523">
        <ele>745.15893</ele>
        <time>2010-01-10T20:09:30Z</time>
      </trkpt>
      <trkpt lat="43.76925" lon="7.14526">
        <ele>747.08154</ele>
        <time>2010-01-10T20:09:32Z</time>
      </trkpt>
      <trkpt lat="43.76926" lon="7.14526">
        <ele>746.12036</ele>
        <time>2010-01-10T20:09:32Z</time>
      </trkpt>
      <trkpt lat="43.76926" lon="7.14526">
        <ele>746.60107</ele>
        <time>2010-01-10T20:09:32Z</time>
      </trkpt>
      <trkpt lat="43.7692" lon="7.14527">
        <ele>746.60107</ele>
        <time>2010-01-10T20:09:35Z</time>
      </trkpt>
      <trkpt lat="43.76908" lon="7.14528">
        <ele>746.60107</ele>
        <time>2010-01-10T20:09:39Z</time>
      </trkpt>
      <trkpt lat="43.76893" lon="7.14525">
        <ele>743.23632</ele>
        <time>2010-01-10T20:09:45Z</time>
      </trkpt>
      <trkpt lat="43.76891" lon="7.14525">
        <ele>742.75585</ele>
        <time>2010-01-10T20:09:46Z</time>
      </trkpt>
      <trkpt lat="43.7689" lon="7.14525">
        <ele>743.23632</ele>
        <time>2010-01-10T20:09:46Z</time>
      </trkpt>
      <trkpt lat="43.76889" lon="7.14524">
        <ele>746.12036</ele>
        <time>2010-01-10T20:09:47Z</time>
      </trkpt>
      <trkpt lat="43.76883" lon="7.14524">
        <ele>741.79443</ele>
        <time>2010-01-10T20:09:50Z</time>
      </trkpt>
      <trkpt lat="43.76879" lon="7.14526">
        <ele>739.87182</ele>
        <time>2010-01-10T20:09:51Z</time>
      </trkpt>
      <trkpt lat="43.76869" lon="7.14529">
        <ele>739.87182</ele>
        <time>2010-01-10T20:09:55Z</time>
      </trkpt>
      <trkpt lat="43.76859" lon="7.14534">
        <ele>738.91064</ele>
        <time>2010-01-10T20:09:59Z</time>
      </trkpt>
      <trkpt lat="43.76852" lon="7.14537">
        <ele>737.4685</ele>
        <time>2010-01-10T20:10:02Z</time>
      </trkpt>
      <trkpt lat="43.76848" lon="7.14537">
        <ele>734.58471</ele>
        <time>2010-01-10T20:10:04Z</time>
      </trkpt>
      <trkpt lat="43.76851" lon="7.14538">
        <ele>737.4685</ele>
        <time>2010-01-10T20:10:05Z</time>
      </trkpt>
      <trkpt lat="43.76853" lon="7.14537">
        <ele>738.42993</ele>
        <time>2010-01-10T20:10:06Z</time>
      </trkpt>
      <trkpt lat="43.7686" lon="7.14534">
        <ele>742.75585</ele>
        <time>2010-01-10T20:10:09Z</time>
      </trkpt>
      <trkpt lat="43.76863" lon="7.1453">
        <ele>745.15893</ele>
        <time>2010-01-10T20:10:10Z</time>
      </trkpt>
      <trkpt lat="43.76875" lon="7.14524">
        <ele>746.60107</ele>
        <time>2010-01-10T20:10:15Z</time>
      </trkpt>
      <trkpt lat="43.76876" lon="7.14527">
        <ele>747.56225</ele>
        <time>2010-01-10T20:10:16Z</time>
      </trkpt>
      <trkpt lat="43.76877" lon="7.14529">
        <ele>749.96582</ele>
        <time>2010-01-10T20:10:17Z</time>
      </trkpt>
      <trkpt lat="43.76877" lon="7.14534">
        <ele>750.44653</ele>
        <time>2010-01-10T20:10:18Z</time>
      </trkpt>
      <trkpt lat="43.76875" lon="7.14544">
        <ele>748.04321</ele>
        <time>2010-01-10T20:10:22Z</time>
      </trkpt>
      <trkpt lat="43.76874" lon="7.14545">
        <ele>748.52368</ele>
        <time>2010-01-10T20:10:22Z</time>
      </trkpt>
      <trkpt lat="43.76873" lon="7.14549">
        <ele>748.52368</ele>
        <time>2010-01-10T20:10:23Z</time>
      </trkpt>
      <trkpt lat="43.76874" lon="7.14553">
        <ele>750.927</ele>
        <time>2010-01-10T20:10:24Z</time>
      </trkpt>
      <trkpt lat="43.76874" lon="7.14555">
        <ele>753.81103</ele>
        <time>2010-01-10T20:10:25Z</time>
      </trkpt>
      <trkpt lat="43.76875" lon="7.1456">
        <ele>754.77221</ele>
        <time>2010-01-10T20:10:26Z</time>
      </trkpt>
      <trkpt lat="43.76876" lon="7.14564">
        <ele>755.25292</ele>
        <time>2010-01-10T20:10:27Z</time>
      </trkpt>
      <trkpt lat="43.76882" lon="7.14567">
        <ele>754.29174</ele>
        <time>2010-01-10T20:10:30Z</time>
      </trkpt>
      <trkpt lat="43.76882" lon="7.1457">
        <ele>753.81103</ele>
        <time>2010-01-10T20:10:31Z</time>
      </trkpt>
      <trkpt lat="43.76882" lon="7.14572">
        <ele>755.73364</ele>
        <time>2010-01-10T20:10:32Z</time>
      </trkpt>
      <trkpt lat="43.76884" lon="7.14571">
        <ele>756.21411</ele>
        <time>2010-01-10T20:10:32Z</time>
      </trkpt>
      <trkpt lat="43.76886" lon="7.14573">
        <ele>758.13696</ele>
        <time>2010-01-10T20:10:33Z</time>
      </trkpt>
      <trkpt lat="43.76888" lon="7.14572">
        <ele>761.98217</ele>
        <time>2010-01-10T20:10:34Z</time>
      </trkpt>
      <trkpt lat="43.76889" lon="7.14579">
        <ele>760.54003</ele>
        <time>2010-01-10T20:10:36Z</time>
      </trkpt>
      <trkpt lat="43.76888" lon="7.14583">
        <ele>762.46264</ele>
        <time>2010-01-10T20:10:37Z</time>
      </trkpt>
      <trkpt lat="43.76888" lon="7.14587">
        <ele>768.23071</ele>
        <time>2010-01-10T20:10:39Z</time>
      </trkpt>
      <trkpt lat="43.76889" lon="7.1459">
        <ele>770.15332</ele>
        <time>2010-01-10T20:10:40Z</time>
      </trkpt>
      <trkpt lat="43.76891" lon="7.14591">
        <ele>770.63403</ele>
        <time>2010-01-10T20:10:41Z</time>
      </trkpt>
      <trkpt lat="43.76895" lon="7.1459">
        <ele>769.19213</ele>
        <time>2010-01-10T20:10:42Z</time>
      </trkpt>
      <trkpt lat="43.76899" lon="7.1459">
        <ele>768.71142</ele>
        <time>2010-01-10T20:10:44Z</time>
      </trkpt>
      <trkpt lat="43.76904" lon="7.14594">
        <ele>765.82763</ele>
        <time>2010-01-10T20:10:46Z</time>
      </trkpt>
      <trkpt lat="43.76904" lon="7.14596">
        <ele>765.82763</ele>
        <time>2010-01-10T20:10:47Z</time>
      </trkpt>
      <trkpt lat="43.76902" lon="7.14599">
        <ele>766.3081</ele>
        <time>2010-01-10T20:10:48Z</time>
      </trkpt>
      <trkpt lat="43.76898" lon="7.14604">
        <ele>769.67285</ele>
        <time>2010-01-10T20:10:50Z</time>
      </trkpt>
      <trkpt lat="43.76897" lon="7.14606">
        <ele>769.19213</ele>
        <time>2010-01-10T20:10:51Z</time>
      </trkpt>
      <trkpt lat="43.76897" lon="7.14607">
        <ele>767.26953</ele>
        <time>2010-01-10T20:10:51Z</time>
      </trkpt>
      <trkpt lat="43.76887" lon="7.14618">
        <ele>768.71142</ele>
        <time>2010-01-10T20:10:56Z</time>
      </trkpt>
      <trkpt lat="43.76877" lon="7.14628">
        <ele>770.63403</ele>
        <time>2010-01-10T20:11:01Z</time>
      </trkpt>
      <trkpt lat="43.76869" lon="7.14635">
        <ele>773.99853</ele>
        <time>2010-01-10T20:11:05Z</time>
      </trkpt>
      <trkpt lat="43.76863" lon="7.14643">
        <ele>775.92114</ele>
        <time>2010-01-10T20:11:08Z</time>
      </trkpt>
      <trkpt lat="43.76857" lon="7.14649">
        <ele>777.36328</ele>
        <time>2010-01-10T20:11:11Z</time>
      </trkpt>
      <trkpt lat="43.76847" lon="7.14658">
        <ele>778.80517</ele>
        <time>2010-01-10T20:11:16Z</time>
      </trkpt>
      <trkpt lat="43.76841" lon="7.14666">
        <ele>780.72802</ele>
        <time>2010-01-10T20:11:19Z</time>
      </trkpt>
      <trkpt lat="43.76836" lon="7.14673">
        <ele>782.16992</ele>
        <time>2010-01-10T20:11:22Z</time>
      </trkpt>
      <trkpt lat="43.76829" lon="7.14682">
        <ele>783.61181</ele>
        <time>2010-01-10T20:11:26Z</time>
      </trkpt>
      <trkpt lat="43.76818" lon="7.14688">
        <ele>786.49584</ele>
        <time>2010-01-10T20:11:31Z</time>
      </trkpt>
      <trkpt lat="43.76818" lon="7.14687">
        <ele>786.49584</ele>
        <time>2010-01-10T20:11:31Z</time>
      </trkpt>
      <trkpt lat="43.76808" lon="7.14682">
        <ele>786.49584</ele>
        <time>2010-01-10T20:11:35Z</time>
      </trkpt>
      <trkpt lat="43.76808" lon="7.14682">
        <ele>785.05395</ele>
        <time>2010-01-10T20:11:35Z</time>
      </trkpt>
      <trkpt lat="43.76806" lon="7.14682">
        <ele>786.49584</ele>
        <time>2010-01-10T20:11:36Z</time>
      </trkpt>
      <trkpt lat="43.76807" lon="7.14681">
        <ele>785.53442</ele>
        <time>2010-01-10T20:11:36Z</time>
      </trkpt>
      <trkpt lat="43.76805" lon="7.14683">
        <ele>785.53442</ele>
        <time>2010-01-10T20:11:38Z</time>
      </trkpt>
      <trkpt lat="43.76802" lon="7.14684">
        <ele>783.61181</ele>
        <time>2010-01-10T20:11:39Z</time>
      </trkpt>
      <trkpt lat="43.76799" lon="7.14682">
        <ele>783.61181</ele>
        <time>2010-01-10T20:11:40Z</time>
      </trkpt>
      <trkpt lat="43.76795" lon="7.14679">
        <ele>790.34106</ele>
        <time>2010-01-10T20:11:42Z</time>
      </trkpt>
      <trkpt lat="43.76794" lon="7.14678">
        <ele>793.70556</ele>
        <time>2010-01-10T20:11:42Z</time>
      </trkpt>
      <trkpt lat="43.76788" lon="7.14675">
        <ele>793.70556</ele>
        <time>2010-01-10T20:11:45Z</time>
      </trkpt>
      <trkpt lat="43.76775" lon="7.14673">
        <ele>793.70556</ele>
        <time>2010-01-10T20:11:50Z</time>
      </trkpt>
      <trkpt lat="43.76758" lon="7.1467">
        <ele>794.66674</ele>
        <time>2010-01-10T20:11:57Z</time>
      </trkpt>
      <trkpt lat="43.76743" lon="7.14673">
        <ele>796.58984</ele>
        <time>2010-01-10T20:12:03Z</time>
      </trkpt>
      <trkpt lat="43.76729" lon="7.14675">
        <ele>798.5122</ele>
        <time>2010-01-10T20:12:09Z</time>
      </trkpt>
      <trkpt lat="43.76719" lon="7.14681">
        <ele>799.95434</ele>
        <time>2010-01-10T20:12:13Z</time>
      </trkpt>
      <trkpt lat="43.76708" lon="7.14684">
        <ele>800.43505</ele>
        <time>2010-01-10T20:12:17Z</time>
      </trkpt>
      <trkpt lat="43.76695" lon="7.14686">
        <ele>801.87695</ele>
        <time>2010-01-10T20:12:23Z</time>
      </trkpt>
      <trkpt lat="43.76684" lon="7.1469">
        <ele>803.79956</ele>
        <time>2010-01-10T20:12:27Z</time>
      </trkpt>
      <trkpt lat="43.76675" lon="7.14696">
        <ele>802.83813</ele>
        <time>2010-01-10T20:12:31Z</time>
      </trkpt>
      <trkpt lat="43.76671" lon="7.147">
        <ele>801.87695</ele>
        <time>2010-01-10T20:12:33Z</time>
      </trkpt>
      <trkpt lat="43.76668" lon="7.14702">
        <ele>799.47363</ele>
        <time>2010-01-10T20:12:35Z</time>
      </trkpt>
      <trkpt lat="43.76662" lon="7.14704">
        <ele>800.43505</ele>
        <time>2010-01-10T20:12:37Z</time>
      </trkpt>
      <trkpt lat="43.76657" lon="7.14706">
        <ele>801.39624</ele>
        <time>2010-01-10T20:12:39Z</time>
      </trkpt>
      <trkpt lat="43.76647" lon="7.14718">
        <ele>800.43505</ele>
        <time>2010-01-10T20:12:44Z</time>
      </trkpt>
      <trkpt lat="43.7664" lon="7.14726">
        <ele>800.43505</ele>
        <time>2010-01-10T20:12:48Z</time>
      </trkpt>
      <trkpt lat="43.76632" lon="7.14729">
        <ele>802.83813</ele>
        <time>2010-01-10T20:12:51Z</time>
      </trkpt>
      <trkpt lat="43.7662" lon="7.14735">
        <ele>806.68334</ele>
        <time>2010-01-10T20:12:57Z</time>
      </trkpt>
      <trkpt lat="43.76619" lon="7.14736">
        <ele>805.72216</ele>
        <time>2010-01-10T20:12:57Z</time>
      </trkpt>
      <trkpt lat="43.76614" lon="7.14744">
        <ele>808.60595</ele>
        <time>2010-01-10T20:13:00Z</time>
      </trkpt>
      <trkpt lat="43.76611" lon="7.14744">
        <ele>811.48999</ele>
        <time>2010-01-10T20:13:01Z</time>
      </trkpt>
      <trkpt lat="43.76609" lon="7.14746">
        <ele>810.52856</ele>
        <time>2010-01-10T20:13:02Z</time>
      </trkpt>
      <trkpt lat="43.76608" lon="7.14748">
        <ele>811.48999</ele>
        <time>2010-01-10T20:13:03Z</time>
      </trkpt>
      <trkpt lat="43.76605" lon="7.14755">
        <ele>809.08666</ele>
        <time>2010-01-10T20:13:06Z</time>
      </trkpt>
      <trkpt lat="43.76593" lon="7.14765">
        <ele>808.60595</ele>
        <time>2010-01-10T20:13:11Z</time>
      </trkpt>
      <trkpt lat="43.76578" lon="7.14764">
        <ele>807.64477</ele>
        <time>2010-01-10T20:13:17Z</time>
      </trkpt>
      <trkpt lat="43.76567" lon="7.14765">
        <ele>807.64477</ele>
        <time>2010-01-10T20:13:22Z</time>
      </trkpt>
      <trkpt lat="43.76556" lon="7.14771">
        <ele>806.68334</ele>
        <time>2010-01-10T20:13:26Z</time>
      </trkpt>
      <trkpt lat="43.76553" lon="7.14771">
        <ele>808.12548</ele>
        <time>2010-01-10T20:13:27Z</time>
      </trkpt>
      <trkpt lat="43.7655" lon="7.14775">
        <ele>807.16406</ele>
        <time>2010-01-10T20:13:29Z</time>
      </trkpt>
      <trkpt lat="43.76545" lon="7.1478">
        <ele>805.72216</ele>
        <time>2010-01-10T20:13:31Z</time>
      </trkpt>
      <trkpt lat="43.76535" lon="7.14789">
        <ele>806.68334</ele>
        <time>2010-01-10T20:13:36Z</time>
      </trkpt>
      <trkpt lat="43.76523" lon="7.148">
        <ele>808.12548</ele>
        <time>2010-01-10T20:13:42Z</time>
      </trkpt>
      <trkpt lat="43.76517" lon="7.14808">
        <ele>810.04785</ele>
        <time>2010-01-10T20:13:45Z</time>
      </trkpt>
      <trkpt lat="43.76509" lon="7.14812">
        <ele>811.48999</ele>
        <time>2010-01-10T20:13:49Z</time>
      </trkpt>
      <trkpt lat="43.76495" lon="7.14821">
        <ele>816.29663</ele>
        <time>2010-01-10T20:13:55Z</time>
      </trkpt>
      <trkpt lat="43.76483" lon="7.1483">
        <ele>818.21923</ele>
        <time>2010-01-10T20:14:00Z</time>
      </trkpt>
      <trkpt lat="43.76472" lon="7.14832">
        <ele>820.14184</ele>
        <time>2010-01-10T20:14:05Z</time>
      </trkpt>
      <trkpt lat="43.76465" lon="7.1484">
        <ele>823.02587</ele>
        <time>2010-01-10T20:14:08Z</time>
      </trkpt>
      <trkpt lat="43.76457" lon="7.14846">
        <ele>823.02587</ele>
        <time>2010-01-10T20:14:12Z</time>
      </trkpt>
      <trkpt lat="43.76448" lon="7.14858">
        <ele>823.50659</ele>
        <time>2010-01-10T20:14:17Z</time>
      </trkpt>
      <trkpt lat="43.76438" lon="7.14869">
        <ele>823.98706</ele>
        <time>2010-01-10T20:14:22Z</time>
      </trkpt>
      <trkpt lat="43.76424" lon="7.14878">
        <ele>823.98706</ele>
        <time>2010-01-10T20:14:28Z</time>
      </trkpt>
      <trkpt lat="43.76412" lon="7.14887">
        <ele>822.54516</ele>
        <time>2010-01-10T20:14:34Z</time>
      </trkpt>
      <trkpt lat="43.76401" lon="7.14894">
        <ele>822.54516</ele>
        <time>2010-01-10T20:14:39Z</time>
      </trkpt>
      <trkpt lat="43.76399" lon="7.14894">
        <ele>822.54516</ele>
        <time>2010-01-10T20:14:39Z</time>
      </trkpt>
      <trkpt lat="43.76397" lon="7.14896">
        <ele>821.10327</ele>
        <time>2010-01-10T20:14:40Z</time>
      </trkpt>
      <trkpt lat="43.764" lon="7.14895">
        <ele>820.62255</ele>
        <time>2010-01-10T20:14:41Z</time>
      </trkpt>
      <trkpt lat="43.76404" lon="7.14894">
        <ele>821.58374</ele>
        <time>2010-01-10T20:14:43Z</time>
      </trkpt>
      <trkpt lat="43.76402" lon="7.14894">
        <ele>823.50659</ele>
        <time>2010-01-10T20:14:43Z</time>
      </trkpt>
      <trkpt lat="43.76401" lon="7.14894">
        <ele>822.54516</ele>
        <time>2010-01-10T20:14:44Z</time>
      </trkpt>
      <trkpt lat="43.764" lon="7.14894">
        <ele>822.54516</ele>
        <time>2010-01-10T20:14:44Z</time>
      </trkpt>
      <trkpt lat="43.76399" lon="7.14894">
        <ele>821.58374</ele>
        <time>2010-01-10T20:14:45Z</time>
      </trkpt>
      <trkpt lat="43.76401" lon="7.14894">
        <ele>821.10327</ele>
        <time>2010-01-10T20:14:45Z</time>
      </trkpt>
      <trkpt lat="43.76401" lon="7.14894">
        <ele>822.06445</ele>
        <time>2010-01-10T20:14:46Z</time>
      </trkpt>
      <trkpt lat="43.76402" lon="7.14895">
        <ele>823.02587</ele>
        <time>2010-01-10T20:14:46Z</time>
      </trkpt>
      <trkpt lat="43.76402" lon="7.14895">
        <ele>822.54516</ele>
        <time>2010-01-10T20:14:46Z</time>
      </trkpt>
      <trkpt lat="43.76401" lon="7.14895">
        <ele>822.06445</ele>
        <time>2010-01-10T20:14:46Z</time>
      </trkpt>
      <trkpt lat="43.764" lon="7.14896">
        <ele>821.58374</ele>
        <time>2010-01-10T20:14:47Z</time>
      </trkpt>
      <trkpt lat="43.764" lon="7.14896">
        <ele>822.06445</ele>
        <time>2010-01-10T20:14:47Z</time>
      </trkpt>
      <trkpt lat="43.764" lon="7.14896">
        <ele>822.06445</ele>
        <time>2010-01-10T20:14:47Z</time>
      </trkpt>
      <trkpt lat="43.76401" lon="7.14896">
        <ele>823.02587</ele>
        <time>2010-01-10T20:14:47Z</time>
      </trkpt>
      <trkpt lat="43.76401" lon="7.14896">
        <ele>825.42895</ele>
        <time>2010-01-10T20:14:47Z</time>
      </trkpt>
      <trkpt lat="43.76398" lon="7.14899">
        <ele>824.46777</ele>
        <time>2010-01-10T20:14:49Z</time>
      </trkpt>
      <trkpt lat="43.76397" lon="7.14902">
        <ele>824.46777</ele>
        <time>2010-01-10T20:14:50Z</time>
      </trkpt>
      <trkpt lat="43.76396" lon="7.14916">
        <ele>824.46777</ele>
        <time>2010-01-10T20:14:54Z</time>
      </trkpt>
      <trkpt lat="43.76394" lon="7.14928">
        <ele>823.50659</ele>
        <time>2010-01-10T20:14:57Z</time>
      </trkpt>
      <trkpt lat="43.76388" lon="7.14943">
        <ele>821.10327</ele>
        <time>2010-01-10T20:15:02Z</time>
      </trkpt>
      <trkpt lat="43.76383" lon="7.14954">
        <ele>819.18066</ele>
        <time>2010-01-10T20:15:06Z</time>
      </trkpt>
      <trkpt lat="43.76381" lon="7.14969">
        <ele>817.73852</ele>
        <time>2010-01-10T20:15:10Z</time>
      </trkpt>
      <trkpt lat="43.76371" lon="7.14992">
        <ele>817.73852</ele>
        <time>2010-01-10T20:15:18Z</time>
      </trkpt>
      <trkpt lat="43.76363" lon="7.15013">
        <ele>815.33544</ele>
        <time>2010-01-10T20:15:25Z</time>
      </trkpt>
      <trkpt lat="43.76351" lon="7.15035">
        <ele>810.04785</ele>
        <time>2010-01-10T20:15:33Z</time>
      </trkpt>
      <trkpt lat="43.76331" lon="7.15077">
        <ele>804.76074</ele>
        <time>2010-01-10T20:15:48Z</time>
      </trkpt>
      <trkpt lat="43.76323" lon="7.15093">
        <ele>803.79956</ele>
        <time>2010-01-10T20:15:53Z</time>
      </trkpt>
      <trkpt lat="43.76305" lon="7.15114">
        <ele>800.43505</ele>
        <time>2010-01-10T20:16:03Z</time>
      </trkpt>
      <trkpt lat="43.76282" lon="7.15147">
        <ele>792.26367</ele>
        <time>2010-01-10T20:16:16Z</time>
      </trkpt>
      <trkpt lat="43.76287" lon="7.15165">
        <ele>786.97631</ele>
        <time>2010-01-10T20:16:21Z</time>
      </trkpt>
      <trkpt lat="43.76287" lon="7.15179">
        <ele>781.20874</ele>
        <time>2010-01-10T20:16:25Z</time>
      </trkpt>
      <trkpt lat="43.76285" lon="7.15193">
        <ele>777.36328</ele>
        <time>2010-01-10T20:16:29Z</time>
      </trkpt>
      <trkpt lat="43.76282" lon="7.15206">
        <ele>771.11474</ele>
        <time>2010-01-10T20:16:33Z</time>
      </trkpt>
      <trkpt lat="43.76275" lon="7.15223">
        <ele>768.23071</ele>
        <time>2010-01-10T20:16:39Z</time>
      </trkpt>
      <trkpt lat="43.76262" lon="7.15246">
        <ele>763.42407</ele>
        <time>2010-01-10T20:16:47Z</time>
      </trkpt>
      <trkpt lat="43.76251" lon="7.15267">
        <ele>757.65625</ele>
        <time>2010-01-10T20:16:55Z</time>
      </trkpt>
      <trkpt lat="43.7624" lon="7.15278">
        <ele>751.88842</ele>
        <time>2010-01-10T20:17:00Z</time>
      </trkpt>
      <trkpt lat="43.76237" lon="7.1529">
        <ele>747.08154</ele>
        <time>2010-01-10T20:17:04Z</time>
      </trkpt>
      <trkpt lat="43.76227" lon="7.15301">
        <ele>744.19775</ele>
        <time>2010-01-10T20:17:09Z</time>
      </trkpt>
      <trkpt lat="43.76216" lon="7.15311">
        <ele>739.39111</ele>
        <time>2010-01-10T20:17:14Z</time>
      </trkpt>
      <trkpt lat="43.76212" lon="7.15319">
        <ele>736.98779</ele>
        <time>2010-01-10T20:17:17Z</time>
      </trkpt>
      <trkpt lat="43.76207" lon="7.15339">
        <ele>735.06542</ele>
        <time>2010-01-10T20:17:23Z</time>
      </trkpt>
      <trkpt lat="43.76198" lon="7.15341">
        <ele>733.62329</ele>
        <time>2010-01-10T20:17:27Z</time>
      </trkpt>
      <trkpt lat="43.76175" lon="7.15329">
        <ele>730.25854</ele>
        <time>2010-01-10T20:17:36Z</time>
      </trkpt>
      <trkpt lat="43.76168" lon="7.15325">
        <ele>728.81665</ele>
        <time>2010-01-10T20:17:40Z</time>
      </trkpt>
      <trkpt lat="43.76156" lon="7.15329">
        <ele>729.77783</ele>
        <time>2010-01-10T20:17:45Z</time>
      </trkpt>
      <trkpt lat="43.76149" lon="7.15331">
        <ele>728.81665</ele>
        <time>2010-01-10T20:17:47Z</time>
      </trkpt>
      <trkpt lat="43.76132" lon="7.15328">
        <ele>726.89404</ele>
        <time>2010-01-10T20:17:54Z</time>
      </trkpt>
      <trkpt lat="43.76128" lon="7.15333">
        <ele>723.52954</ele>
        <time>2010-01-10T20:17:57Z</time>
      </trkpt>
      <trkpt lat="43.76115" lon="7.15345">
        <ele>714.87744</ele>
        <time>2010-01-10T20:18:03Z</time>
      </trkpt>
      <trkpt lat="43.76109" lon="7.15348">
        <ele>712.47412</ele>
        <time>2010-01-10T20:18:05Z</time>
      </trkpt>
      <trkpt lat="43.76104" lon="7.15347">
        <ele>705.2644</ele>
        <time>2010-01-10T20:18:07Z</time>
      </trkpt>
      <trkpt lat="43.76101" lon="7.15346">
        <ele>704.30322</ele>
        <time>2010-01-10T20:18:08Z</time>
      </trkpt>
      <trkpt lat="43.76078" lon="7.15354">
        <ele>705.74511</ele>
        <time>2010-01-10T20:18:18Z</time>
      </trkpt>
      <trkpt lat="43.76062" lon="7.15361">
        <ele>702.86108</ele>
        <time>2010-01-10T20:18:25Z</time>
      </trkpt>
      <trkpt lat="43.76052" lon="7.15366">
        <ele>700.458</ele>
        <time>2010-01-10T20:18:29Z</time>
      </trkpt>
      <trkpt lat="43.76043" lon="7.15368">
        <ele>699.49633</ele>
        <time>2010-01-10T20:18:32Z</time>
      </trkpt>
      <trkpt lat="43.76018" lon="7.15384">
        <ele>693.72851</ele>
        <time>2010-01-10T20:18:43Z</time>
      </trkpt>
      <trkpt lat="43.76003" lon="7.15394">
        <ele>689.40258</ele>
        <time>2010-01-10T20:18:50Z</time>
      </trkpt>
      <trkpt lat="43.75992" lon="7.154">
        <ele>686.99926</ele>
        <time>2010-01-10T20:18:55Z</time>
      </trkpt>
      <trkpt lat="43.75975" lon="7.15413">
        <ele>683.63452</ele>
        <time>2010-01-10T20:19:03Z</time>
      </trkpt>
      <trkpt lat="43.75961" lon="7.15422">
        <ele>685.55737</ele>
        <time>2010-01-10T20:19:09Z</time>
      </trkpt>
      <trkpt lat="43.75947" lon="7.15439">
        <ele>686.51879</ele>
        <time>2010-01-10T20:19:17Z</time>
      </trkpt>
      <trkpt lat="43.75936" lon="7.15452">
        <ele>686.03808</ele>
        <time>2010-01-10T20:19:22Z</time>
      </trkpt>
      <trkpt lat="43.75921" lon="7.15472">
        <ele>684.11547</ele>
        <time>2010-01-10T20:19:30Z</time>
      </trkpt>
      <trkpt lat="43.75914" lon="7.15481">
        <ele>683.1538</ele>
        <time>2010-01-10T20:19:34Z</time>
      </trkpt>
      <trkpt lat="43.75899" lon="7.15494">
        <ele>676.4248</ele>
        <time>2010-01-10T20:19:41Z</time>
      </trkpt>
      <trkpt lat="43.75892" lon="7.15515">
        <ele>671.13769</ele>
        <time>2010-01-10T20:19:48Z</time>
      </trkpt>
      <trkpt lat="43.75883" lon="7.15538">
        <ele>672.09887</ele>
        <time>2010-01-10T20:19:56Z</time>
      </trkpt>
      <trkpt lat="43.75872" lon="7.15577">
        <ele>668.25366</ele>
        <time>2010-01-10T20:20:08Z</time>
      </trkpt>
      <trkpt lat="43.75863" lon="7.15624">
        <ele>664.88891</ele>
        <time>2010-01-10T20:20:22Z</time>
      </trkpt>
      <trkpt lat="43.75862" lon="7.1563">
        <ele>663.92749</ele>
        <time>2010-01-10T20:20:24Z</time>
      </trkpt>
      <trkpt lat="43.75859" lon="7.15661">
        <ele>662.00512</ele>
        <time>2010-01-10T20:20:33Z</time>
      </trkpt>
      <trkpt lat="43.75858" lon="7.15665">
        <ele>660.56298</ele>
        <time>2010-01-10T20:20:34Z</time>
      </trkpt>
      <trkpt lat="43.75856" lon="7.15688">
        <ele>660.56298</ele>
        <time>2010-01-10T20:20:41Z</time>
      </trkpt>
      <trkpt lat="43.75857" lon="7.15716">
        <ele>653.35327</ele>
        <time>2010-01-10T20:20:49Z</time>
      </trkpt>
      <trkpt lat="43.75859" lon="7.15733">
        <ele>649.50781</ele>
        <time>2010-01-10T20:20:54Z</time>
      </trkpt>
      <trkpt lat="43.75857" lon="7.15753">
        <ele>647.5852</ele>
        <time>2010-01-10T20:20:59Z</time>
      </trkpt>
      <trkpt lat="43.75858" lon="7.15771">
        <ele>643.73999</ele>
        <time>2010-01-10T20:21:05Z</time>
      </trkpt>
      <trkpt lat="43.75866" lon="7.15796">
        <ele>640.85595</ele>
        <time>2010-01-10T20:21:13Z</time>
      </trkpt>
      <trkpt lat="43.75874" lon="7.15817">
        <ele>635.08813</ele>
        <time>2010-01-10T20:21:19Z</time>
      </trkpt>
      <trkpt lat="43.75881" lon="7.15827">
        <ele>632.2041</ele>
        <time>2010-01-10T20:21:23Z</time>
      </trkpt>
      <trkpt lat="43.75897" lon="7.15841">
        <ele>631.24291</ele>
        <time>2010-01-10T20:21:31Z</time>
      </trkpt>
      <trkpt lat="43.75905" lon="7.15846">
        <ele>628.83959</ele>
        <time>2010-01-10T20:21:35Z</time>
      </trkpt>
      <trkpt lat="43.75909" lon="7.15849">
        <ele>628.35888</ele>
        <time>2010-01-10T20:21:36Z</time>
      </trkpt>
      <trkpt lat="43.75928" lon="7.15868">
        <ele>626.43627</ele>
        <time>2010-01-10T20:21:46Z</time>
      </trkpt>
      <trkpt lat="43.75929" lon="7.15872">
        <ele>624.99438</ele>
        <time>2010-01-10T20:21:47Z</time>
      </trkpt>
      <trkpt lat="43.75918" lon="7.15871">
        <ele>624.51367</ele>
        <time>2010-01-10T20:21:51Z</time>
      </trkpt>
      <trkpt lat="43.75914" lon="7.15867">
        <ele>625.47485</ele>
        <time>2010-01-10T20:21:53Z</time>
      </trkpt>
      <trkpt lat="43.75909" lon="7.15863">
        <ele>635.08813</ele>
        <time>2010-01-10T20:21:55Z</time>
      </trkpt>
      <trkpt lat="43.75909" lon="7.15862">
        <ele>638.93359</ele>
        <time>2010-01-10T20:21:56Z</time>
      </trkpt>
      <trkpt lat="43.75906" lon="7.15861">
        <ele>640.37548</ele>
        <time>2010-01-10T20:21:57Z</time>
      </trkpt>
      <trkpt lat="43.75909" lon="7.15864">
        <ele>640.85595</ele>
        <time>2010-01-10T20:21:58Z</time>
      </trkpt>
      <trkpt lat="43.75902" lon="7.15865">
        <ele>639.41406</ele>
        <time>2010-01-10T20:22:01Z</time>
      </trkpt>
      <trkpt lat="43.75902" lon="7.15873">
        <ele>635.5686</ele>
        <time>2010-01-10T20:22:03Z</time>
      </trkpt>
      <trkpt lat="43.75912" lon="7.15882">
        <ele>634.1267</ele>
        <time>2010-01-10T20:22:08Z</time>
      </trkpt>
      <trkpt lat="43.75916" lon="7.15887">
        <ele>633.16528</ele>
        <time>2010-01-10T20:22:11Z</time>
      </trkpt>
      <trkpt lat="43.75917" lon="7.15886">
        <ele>628.35888</ele>
        <time>2010-01-10T20:22:11Z</time>
      </trkpt>
      <trkpt lat="43.7592" lon="7.15889">
        <ele>622.59106</ele>
        <time>2010-01-10T20:22:12Z</time>
      </trkpt>
      <trkpt lat="43.75927" lon="7.15894">
        <ele>621.62963</ele>
        <time>2010-01-10T20:22:15Z</time>
      </trkpt>
      <trkpt lat="43.75931" lon="7.15895">
        <ele>620.66845</ele>
        <time>2010-01-10T20:22:17Z</time>
      </trkpt>
      <trkpt lat="43.75933" lon="7.15901">
        <ele>621.62963</ele>
        <time>2010-01-10T20:22:19Z</time>
      </trkpt>
      <trkpt lat="43.75934" lon="7.15903">
        <ele>622.11035</ele>
        <time>2010-01-10T20:22:19Z</time>
      </trkpt>
      <trkpt lat="43.75939" lon="7.15909">
        <ele>622.59106</ele>
        <time>2010-01-10T20:22:22Z</time>
      </trkpt>
      <trkpt lat="43.75954" lon="7.15921">
        <ele>617.78417</ele>
        <time>2010-01-10T20:22:29Z</time>
      </trkpt>
      <trkpt lat="43.7597" lon="7.15933">
        <ele>614.90039</ele>
        <time>2010-01-10T20:22:36Z</time>
      </trkpt>
      <trkpt lat="43.75968" lon="7.15941">
        <ele>613.45849</ele>
        <time>2010-01-10T20:22:39Z</time>
      </trkpt>
      <trkpt lat="43.75964" lon="7.15941">
        <ele>612.97778</ele>
        <time>2010-01-10T20:22:40Z</time>
      </trkpt>
      <trkpt lat="43.75932" lon="7.15942">
        <ele>607.20996</ele>
        <time>2010-01-10T20:22:53Z</time>
      </trkpt>
      <trkpt lat="43.75924" lon="7.15941">
        <ele>604.80664</ele>
        <time>2010-01-10T20:22:56Z</time>
      </trkpt>
      <trkpt lat="43.75925" lon="7.1595">
        <ele>601.44189</ele>
        <time>2010-01-10T20:22:59Z</time>
      </trkpt>
      <trkpt lat="43.7594" lon="7.15967">
        <ele>600</ele>
        <time>2010-01-10T20:23:06Z</time>
      </trkpt>
      <trkpt lat="43.75949" lon="7.15977">
        <ele>596.63549</ele>
        <time>2010-01-10T20:23:11Z</time>
      </trkpt>
      <trkpt lat="43.75972" lon="7.16001">
        <ele>590.86743</ele>
        <time>2010-01-10T20:23:23Z</time>
      </trkpt>
      <trkpt lat="43.75985" lon="7.16017">
        <ele>585.58007</ele>
        <time>2010-01-10T20:23:30Z</time>
      </trkpt>
      <trkpt lat="43.75996" lon="7.16026">
        <ele>580.77368</ele>
        <time>2010-01-10T20:23:35Z</time>
      </trkpt>
      <trkpt lat="43.76005" lon="7.16036">
        <ele>577.88964</ele>
        <time>2010-01-10T20:23:39Z</time>
      </trkpt>
      <trkpt lat="43.76007" lon="7.16039">
        <ele>577.40917</ele>
        <time>2010-01-10T20:23:40Z</time>
      </trkpt>
      <trkpt lat="43.76" lon="7.16045">
        <ele>578.37036</ele>
        <time>2010-01-10T20:23:43Z</time>
      </trkpt>
      <trkpt lat="43.75994" lon="7.16045">
        <ele>578.37036</ele>
        <time>2010-01-10T20:23:46Z</time>
      </trkpt>
      <trkpt lat="43.75974" lon="7.16041">
        <ele>571.64086</ele>
        <time>2010-01-10T20:23:54Z</time>
      </trkpt>
      <trkpt lat="43.75963" lon="7.16041">
        <ele>571.1604</ele>
        <time>2010-01-10T20:23:59Z</time>
      </trkpt>
      <trkpt lat="43.75954" lon="7.16041">
        <ele>569.7185</ele>
        <time>2010-01-10T20:24:02Z</time>
      </trkpt>
      <trkpt lat="43.75934" lon="7.16036">
        <ele>565.87329</ele>
        <time>2010-01-10T20:24:10Z</time>
      </trkpt>
      <trkpt lat="43.75934" lon="7.16038">
        <ele>565.39257</ele>
        <time>2010-01-10T20:24:11Z</time>
      </trkpt>
      <trkpt lat="43.7595" lon="7.16051">
        <ele>563.95043</ele>
        <time>2010-01-10T20:24:18Z</time>
      </trkpt>
      <trkpt lat="43.75954" lon="7.16056">
        <ele>564.91186</ele>
        <time>2010-01-10T20:24:20Z</time>
      </trkpt>
      <trkpt lat="43.75974" lon="7.16077">
        <ele>561.54736</ele>
        <time>2010-01-10T20:24:30Z</time>
      </trkpt>
      <trkpt lat="43.75976" lon="7.16081">
        <ele>560.10522</ele>
        <time>2010-01-10T20:24:32Z</time>
      </trkpt>
      <trkpt lat="43.75963" lon="7.1608">
        <ele>555.29858</ele>
        <time>2010-01-10T20:24:37Z</time>
      </trkpt>
      <trkpt lat="43.75948" lon="7.1608">
        <ele>549.53076</ele>
        <time>2010-01-10T20:24:43Z</time>
      </trkpt>
      <trkpt lat="43.75934" lon="7.16082">
        <ele>545.68554</ele>
        <time>2010-01-10T20:24:49Z</time>
      </trkpt>
      <trkpt lat="43.7593" lon="7.16083">
        <ele>543.76281</ele>
        <time>2010-01-10T20:24:50Z</time>
      </trkpt>
      <trkpt lat="43.7593" lon="7.1609">
        <ele>542.80151</ele>
        <time>2010-01-10T20:24:52Z</time>
      </trkpt>
      <trkpt lat="43.75933" lon="7.16093">
        <ele>542.32092</ele>
        <time>2010-01-10T20:24:54Z</time>
      </trkpt>
      <trkpt lat="43.75946" lon="7.16112">
        <ele>541.35949</ele>
        <time>2010-01-10T20:25:01Z</time>
      </trkpt>
      <trkpt lat="43.75956" lon="7.16122">
        <ele>540.39831</ele>
        <time>2010-01-10T20:25:06Z</time>
      </trkpt>
      <trkpt lat="43.75958" lon="7.16125">
        <ele>539.43688</ele>
        <time>2010-01-10T20:25:07Z</time>
      </trkpt>
      <trkpt lat="43.75957" lon="7.1613">
        <ele>537.99499</ele>
        <time>2010-01-10T20:25:09Z</time>
      </trkpt>
      <trkpt lat="43.75942" lon="7.16131">
        <ele>536.07238</ele>
        <time>2010-01-10T20:25:15Z</time>
      </trkpt>
      <trkpt lat="43.75928" lon="7.16129">
        <ele>534.14965</ele>
        <time>2010-01-10T20:25:21Z</time>
      </trkpt>
      <trkpt lat="43.75931" lon="7.16137">
        <ele>530.78515</ele>
        <time>2010-01-10T20:25:23Z</time>
      </trkpt>
      <trkpt lat="43.75936" lon="7.16144">
        <ele>529.82373</ele>
        <time>2010-01-10T20:25:26Z</time>
      </trkpt>
      <trkpt lat="43.75944" lon="7.16155">
        <ele>526.4591</ele>
        <time>2010-01-10T20:25:31Z</time>
      </trkpt>
      <trkpt lat="43.75957" lon="7.16173">
        <ele>525.97839</ele>
        <time>2010-01-10T20:25:38Z</time>
      </trkpt>
      <trkpt lat="43.75961" lon="7.1618">
        <ele>523.57519</ele>
        <time>2010-01-10T20:25:40Z</time>
      </trkpt>
      <trkpt lat="43.75957" lon="7.16181">
        <ele>523.0946</ele>
        <time>2010-01-10T20:25:42Z</time>
      </trkpt>
      <trkpt lat="43.75959" lon="7.1619">
        <ele>519.72985</ele>
        <time>2010-01-10T20:25:45Z</time>
      </trkpt>
      <trkpt lat="43.75965" lon="7.16202">
        <ele>521.65258</ele>
        <time>2010-01-10T20:25:49Z</time>
      </trkpt>
      <trkpt lat="43.75978" lon="7.16222">
        <ele>518.76855</ele>
        <time>2010-01-10T20:25:57Z</time>
      </trkpt>
      <trkpt lat="43.75982" lon="7.16226">
        <ele>518.28784</ele>
        <time>2010-01-10T20:25:59Z</time>
      </trkpt>
      <trkpt lat="43.76002" lon="7.16241">
        <ele>512.52001</ele>
        <time>2010-01-10T20:26:08Z</time>
      </trkpt>
      <trkpt lat="43.76003" lon="7.16241">
        <ele>511.55871</ele>
        <time>2010-01-10T20:26:08Z</time>
      </trkpt>
      <trkpt lat="43.76007" lon="7.16242">
        <ele>509.6361</ele>
        <time>2010-01-10T20:26:10Z</time>
      </trkpt>
      <trkpt lat="43.76015" lon="7.16255">
        <ele>510.11669</ele>
        <time>2010-01-10T20:26:15Z</time>
      </trkpt>
      <trkpt lat="43.76021" lon="7.16262">
        <ele>510.11669</ele>
        <time>2010-01-10T20:26:18Z</time>
      </trkpt>
      <trkpt lat="43.76027" lon="7.16274">
        <ele>510.11669</ele>
        <time>2010-01-10T20:26:22Z</time>
      </trkpt>
      <trkpt lat="43.76022" lon="7.1628">
        <ele>509.6361</ele>
        <time>2010-01-10T20:26:25Z</time>
      </trkpt>
      <trkpt lat="43.76017" lon="7.16278">
        <ele>510.11669</ele>
        <time>2010-01-10T20:26:27Z</time>
      </trkpt>
      <trkpt lat="43.76005" lon="7.16273">
        <ele>509.15539</ele>
        <time>2010-01-10T20:26:32Z</time>
      </trkpt>
      <trkpt lat="43.75986" lon="7.16266">
        <ele>505.31018</ele>
        <time>2010-01-10T20:26:40Z</time>
      </trkpt>
      <trkpt lat="43.75972" lon="7.16261">
        <ele>502.90673</ele>
        <time>2010-01-10T20:26:45Z</time>
      </trkpt>
      <trkpt lat="43.75966" lon="7.16259">
        <ele>501.94555</ele>
        <time>2010-01-10T20:26:48Z</time>
      </trkpt>
      <trkpt lat="43.75968" lon="7.16267">
        <ele>500.98413</ele>
        <time>2010-01-10T20:26:50Z</time>
      </trkpt>
      <trkpt lat="43.75975" lon="7.16276">
        <ele>500.50354</ele>
        <time>2010-01-10T20:26:54Z</time>
      </trkpt>
      <trkpt lat="43.75975" lon="7.16282">
        <ele>500.50354</ele>
        <time>2010-01-10T20:26:56Z</time>
      </trkpt>
      <trkpt lat="43.7597" lon="7.16286">
        <ele>501.46484</ele>
        <time>2010-01-10T20:26:58Z</time>
      </trkpt>
      <trkpt lat="43.75972" lon="7.16286">
        <ele>500.02294</ele>
        <time>2010-01-10T20:26:58Z</time>
      </trkpt>
      <trkpt lat="43.75976" lon="7.16292">
        <ele>497.61962</ele>
        <time>2010-01-10T20:27:01Z</time>
      </trkpt>
      <trkpt lat="43.75964" lon="7.16295">
        <ele>495.21618</ele>
        <time>2010-01-10T20:27:06Z</time>
      </trkpt>
      <trkpt lat="43.75949" lon="7.16298">
        <ele>489.92907</ele>
        <time>2010-01-10T20:27:12Z</time>
      </trkpt>
      <trkpt lat="43.75942" lon="7.16299">
        <ele>487.04504</ele>
        <time>2010-01-10T20:27:14Z</time>
      </trkpt>
      <trkpt lat="43.75945" lon="7.16309">
        <ele>487.52563</ele>
        <time>2010-01-10T20:27:17Z</time>
      </trkpt>
      <trkpt lat="43.75949" lon="7.16322">
        <ele>484.64184</ele>
        <time>2010-01-10T20:27:21Z</time>
      </trkpt>
      <trkpt lat="43.7595" lon="7.16325">
        <ele>482.71923</ele>
        <time>2010-01-10T20:27:22Z</time>
      </trkpt>
      <trkpt lat="43.75938" lon="7.16324">
        <ele>478.39318</ele>
        <time>2010-01-10T20:27:27Z</time>
      </trkpt>
      <trkpt lat="43.75934" lon="7.16325">
        <ele>477.91247</ele>
        <time>2010-01-10T20:27:29Z</time>
      </trkpt>
      <trkpt lat="43.75936" lon="7.16335">
        <ele>475.50927</ele>
        <time>2010-01-10T20:27:32Z</time>
      </trkpt>
      <trkpt lat="43.75935" lon="7.16342">
        <ele>468.78002</ele>
        <time>2010-01-10T20:27:34Z</time>
      </trkpt>
      <trkpt lat="43.75927" lon="7.16345">
        <ele>469.26074</ele>
        <time>2010-01-10T20:27:38Z</time>
      </trkpt>
      <trkpt lat="43.75928" lon="7.1635">
        <ele>468.78002</ele>
        <time>2010-01-10T20:27:39Z</time>
      </trkpt>
      <trkpt lat="43.75925" lon="7.16359">
        <ele>468.29931</ele>
        <time>2010-01-10T20:27:42Z</time>
      </trkpt>
      <trkpt lat="43.75913" lon="7.1636">
        <ele>461.57019</ele>
        <time>2010-01-10T20:27:47Z</time>
      </trkpt>
      <trkpt lat="43.7591" lon="7.1636">
        <ele>461.57019</ele>
        <time>2010-01-10T20:27:48Z</time>
      </trkpt>
      <trkpt lat="43.7591" lon="7.16368">
        <ele>460.12817</ele>
        <time>2010-01-10T20:27:50Z</time>
      </trkpt>
      <trkpt lat="43.75916" lon="7.16382">
        <ele>457.72497</ele>
        <time>2010-01-10T20:27:55Z</time>
      </trkpt>
      <trkpt lat="43.75917" lon="7.16387">
        <ele>454.84082</ele>
        <time>2010-01-10T20:27:56Z</time>
      </trkpt>
      <trkpt lat="43.75918" lon="7.16396">
        <ele>454.84082</ele>
        <time>2010-01-10T20:27:59Z</time>
      </trkpt>
      <trkpt lat="43.75911" lon="7.16398">
        <ele>453.39892</ele>
        <time>2010-01-10T20:28:02Z</time>
      </trkpt>
      <trkpt lat="43.75905" lon="7.16414">
        <ele>450.9956</ele>
        <time>2010-01-10T20:28:07Z</time>
      </trkpt>
      <trkpt lat="43.75901" lon="7.1643">
        <ele>443.78576</ele>
        <time>2010-01-10T20:28:12Z</time>
      </trkpt>
      <trkpt lat="43.75901" lon="7.16433">
        <ele>443.78576</ele>
        <time>2010-01-10T20:28:13Z</time>
      </trkpt>
      <trkpt lat="43.75896" lon="7.16446">
        <ele>438.49853</ele>
        <time>2010-01-10T20:28:17Z</time>
      </trkpt>
      <trkpt lat="43.75891" lon="7.16447">
        <ele>437.5371</ele>
        <time>2010-01-10T20:28:19Z</time>
      </trkpt>
      <trkpt lat="43.7588" lon="7.16443">
        <ele>434.65332</ele>
        <time>2010-01-10T20:28:23Z</time>
      </trkpt>
      <trkpt lat="43.75876" lon="7.16441">
        <ele>444.26647</ele>
        <time>2010-01-10T20:28:25Z</time>
      </trkpt>
      <trkpt lat="43.75876" lon="7.16439">
        <ele>429.36596</ele>
        <time>2010-01-10T20:28:26Z</time>
      </trkpt>
      <trkpt lat="43.75879" lon="7.16442">
        <ele>430.80798</ele>
        <time>2010-01-10T20:28:27Z</time>
      </trkpt>
      <trkpt lat="43.75878" lon="7.16442">
        <ele>431.76916</ele>
        <time>2010-01-10T20:28:28Z</time>
      </trkpt>
      <trkpt lat="43.75881" lon="7.16456">
        <ele>436.09521</ele>
        <time>2010-01-10T20:28:32Z</time>
      </trkpt>
      <trkpt lat="43.75882" lon="7.16476">
        <ele>439.45971</ele>
        <time>2010-01-10T20:28:38Z</time>
      </trkpt>
      <trkpt lat="43.75879" lon="7.16508">
        <ele>435.13391</ele>
        <time>2010-01-10T20:28:47Z</time>
      </trkpt>
      <trkpt lat="43.75873" lon="7.16542">
        <ele>433.69189</ele>
        <time>2010-01-10T20:28:57Z</time>
      </trkpt>
      <trkpt lat="43.7587" lon="7.1656">
        <ele>432.73071</ele>
        <time>2010-01-10T20:29:02Z</time>
      </trkpt>
      <trkpt lat="43.75867" lon="7.16588">
        <ele>425.52075</ele>
        <time>2010-01-10T20:29:11Z</time>
      </trkpt>
      <trkpt lat="43.75857" lon="7.16614">
        <ele>414.46545</ele>
        <time>2010-01-10T20:29:19Z</time>
      </trkpt>
      <trkpt lat="43.75856" lon="7.16618">
        <ele>413.98486</ele>
        <time>2010-01-10T20:29:20Z</time>
      </trkpt>
      <trkpt lat="43.75858" lon="7.16621">
        <ele>406.29431</ele>
        <time>2010-01-10T20:29:22Z</time>
      </trkpt>
      <trkpt lat="43.75858" lon="7.16618">
        <ele>400.04589</ele>
        <time>2010-01-10T20:29:23Z</time>
      </trkpt>
      <trkpt lat="43.75858" lon="7.16618">
        <ele>405.81372</ele>
        <time>2010-01-10T20:29:23Z</time>
      </trkpt>
      <trkpt lat="43.75869" lon="7.16618">
        <ele>407.73632</ele>
        <time>2010-01-10T20:29:28Z</time>
      </trkpt>
      <trkpt lat="43.75886" lon="7.16617">
        <ele>408.21704</ele>
        <time>2010-01-10T20:29:35Z</time>
      </trkpt>
      <trkpt lat="43.75905" lon="7.16616">
        <ele>407.73632</ele>
        <time>2010-01-10T20:29:42Z</time>
      </trkpt>
      <trkpt lat="43.75924" lon="7.1662">
        <ele>405.333</ele>
        <time>2010-01-10T20:29:50Z</time>
      </trkpt>
      <trkpt lat="43.75944" lon="7.16637">
        <ele>404.3717</ele>
        <time>2010-01-10T20:29:59Z</time>
      </trkpt>
      <trkpt lat="43.75961" lon="7.16658">
        <ele>401.9685</ele>
        <time>2010-01-10T20:30:09Z</time>
      </trkpt>
      <trkpt lat="43.75982" lon="7.16689">
        <ele>401.48779</ele>
        <time>2010-01-10T20:30:21Z</time>
      </trkpt>
      <trkpt lat="43.7599" lon="7.16709">
        <ele>402.44909</ele>
        <time>2010-01-10T20:30:27Z</time>
      </trkpt>
      <trkpt lat="43.75995" lon="7.16728">
        <ele>403.4104</ele>
        <time>2010-01-10T20:30:33Z</time>
      </trkpt>
      <trkpt lat="43.76002" lon="7.16738">
        <ele>399.56506</ele>
        <time>2010-01-10T20:30:38Z</time>
      </trkpt>
      <trkpt lat="43.76016" lon="7.16749">
        <ele>399.56506</ele>
        <time>2010-01-10T20:30:44Z</time>
      </trkpt>
      <trkpt lat="43.76035" lon="7.16762">
        <ele>402.44909</ele>
        <time>2010-01-10T20:30:52Z</time>
      </trkpt>
      <trkpt lat="43.76049" lon="7.16784">
        <ele>405.81372</ele>
        <time>2010-01-10T20:31:01Z</time>
      </trkpt>
      <trkpt lat="43.7606" lon="7.16802">
        <ele>402.44909</ele>
        <time>2010-01-10T20:31:07Z</time>
      </trkpt>
      <trkpt lat="43.76078" lon="7.16818">
        <ele>403.4104</ele>
        <time>2010-01-10T20:31:16Z</time>
      </trkpt>
      <trkpt lat="43.76096" lon="7.16824">
        <ele>407.25561</ele>
        <time>2010-01-10T20:31:23Z</time>
      </trkpt>
      <trkpt lat="43.76115" lon="7.16838">
        <ele>409.65905</ele>
        <time>2010-01-10T20:31:32Z</time>
      </trkpt>
      <trkpt lat="43.76133" lon="7.16855">
        <ele>414.46545</ele>
        <time>2010-01-10T20:31:41Z</time>
      </trkpt>
      <trkpt lat="43.76151" lon="7.16865">
        <ele>412.06225</ele>
        <time>2010-01-10T20:31:49Z</time>
      </trkpt>
      <trkpt lat="43.76173" lon="7.1688">
        <ele>405.333</ele>
        <time>2010-01-10T20:31:59Z</time>
      </trkpt>
      <trkpt lat="43.76194" lon="7.16889">
        <ele>406.29431</ele>
        <time>2010-01-10T20:32:07Z</time>
      </trkpt>
      <trkpt lat="43.76214" lon="7.16893">
        <ele>410.13964</ele>
        <time>2010-01-10T20:32:15Z</time>
      </trkpt>
      <trkpt lat="43.76234" lon="7.16897">
        <ele>410.13964</ele>
        <time>2010-01-10T20:32:23Z</time>
      </trkpt>
      <trkpt lat="43.76253" lon="7.16904">
        <ele>410.62023</ele>
        <time>2010-01-10T20:32:31Z</time>
      </trkpt>
      <trkpt lat="43.76273" lon="7.1691">
        <ele>408.21704</ele>
        <time>2010-01-10T20:32:39Z</time>
      </trkpt>
      <trkpt lat="43.76293" lon="7.16912">
        <ele>408.69763</ele>
        <time>2010-01-10T20:32:48Z</time>
      </trkpt>
      <trkpt lat="43.76317" lon="7.16917">
        <ele>411.10095</ele>
        <time>2010-01-10T20:32:57Z</time>
      </trkpt>
      <trkpt lat="43.76334" lon="7.16918">
        <ele>412.06225</ele>
        <time>2010-01-10T20:33:04Z</time>
      </trkpt>
      <trkpt lat="43.76351" lon="7.1691">
        <ele>408.69763</ele>
        <time>2010-01-10T20:33:11Z</time>
      </trkpt>
      <trkpt lat="43.76354" lon="7.16909">
        <ele>408.69763</ele>
        <time>2010-01-10T20:33:13Z</time>
      </trkpt>
      <trkpt lat="43.76386" lon="7.16912">
        <ele>408.21704</ele>
        <time>2010-01-10T20:33:25Z</time>
      </trkpt>
      <trkpt lat="43.76395" lon="7.16914">
        <ele>409.17834</ele>
        <time>2010-01-10T20:33:29Z</time>
      </trkpt>
      <trkpt lat="43.76416" lon="7.16912">
        <ele>413.02355</ele>
        <time>2010-01-10T20:33:37Z</time>
      </trkpt>
      <trkpt lat="43.76456" lon="7.169">
        <ele>416.38818</ele>
        <time>2010-01-10T20:33:54Z</time>
      </trkpt>
      <trkpt lat="43.76488" lon="7.1689">
        <ele>417.8302</ele>
        <time>2010-01-10T20:34:07Z</time>
      </trkpt>
      <trkpt lat="43.7651" lon="7.16873">
        <ele>413.02355</ele>
        <time>2010-01-10T20:34:17Z</time>
      </trkpt>
      <trkpt lat="43.76538" lon="7.1687">
        <ele>415.42687</ele>
        <time>2010-01-10T20:34:28Z</time>
      </trkpt>
      <trkpt lat="43.76543" lon="7.16872">
        <ele>414.46545</ele>
        <time>2010-01-10T20:34:30Z</time>
      </trkpt>
      <trkpt lat="43.76559" lon="7.16874">
        <ele>405.333</ele>
        <time>2010-01-10T20:34:37Z</time>
      </trkpt>
      <trkpt lat="43.76582" lon="7.16877">
        <ele>402.44909</ele>
        <time>2010-01-10T20:34:46Z</time>
      </trkpt>
      <trkpt lat="43.76601" lon="7.16873">
        <ele>399.56506</ele>
        <time>2010-01-10T20:34:54Z</time>
      </trkpt>
      <trkpt lat="43.76613" lon="7.16873">
        <ele>401.48779</ele>
        <time>2010-01-10T20:34:59Z</time>
      </trkpt>
      <trkpt lat="43.7664" lon="7.16869">
        <ele>401.9685</ele>
        <time>2010-01-10T20:35:09Z</time>
      </trkpt>
      <trkpt lat="43.76653" lon="7.16865">
        <ele>399.56506</ele>
        <time>2010-01-10T20:35:14Z</time>
      </trkpt>
      <trkpt lat="43.76689" lon="7.16868">
        <ele>396.68115</ele>
        <time>2010-01-10T20:35:29Z</time>
      </trkpt>
      <trkpt lat="43.76729" lon="7.16873">
        <ele>394.75854</ele>
        <time>2010-01-10T20:35:45Z</time>
      </trkpt>
      <trkpt lat="43.76758" lon="7.16877">
        <ele>395.23913</ele>
        <time>2010-01-10T20:35:57Z</time>
      </trkpt>
      <trkpt lat="43.76784" lon="7.16887">
        <ele>395.23913</ele>
        <time>2010-01-10T20:36:07Z</time>
      </trkpt>
      <trkpt lat="43.76809" lon="7.16906">
        <ele>393.31652</ele>
        <time>2010-01-10T20:36:19Z</time>
      </trkpt>
      <trkpt lat="43.76822" lon="7.16914">
        <ele>389.9519</ele>
        <time>2010-01-10T20:36:25Z</time>
      </trkpt>
      <trkpt lat="43.76846" lon="7.16921">
        <ele>389.47119</ele>
        <time>2010-01-10T20:36:35Z</time>
      </trkpt>
      <trkpt lat="43.76865" lon="7.16916">
        <ele>392.35534</ele>
        <time>2010-01-10T20:36:42Z</time>
      </trkpt>
      <trkpt lat="43.76885" lon="7.16893">
        <ele>389.9519</ele>
        <time>2010-01-10T20:36:53Z</time>
      </trkpt>
      <trkpt lat="43.76891" lon="7.16872">
        <ele>388.02929</ele>
        <time>2010-01-10T20:36:59Z</time>
      </trkpt>
      <trkpt lat="43.76902" lon="7.16872">
        <ele>387.06799</ele>
        <time>2010-01-10T20:37:04Z</time>
      </trkpt>
      <trkpt lat="43.76924" lon="7.16887">
        <ele>386.10668</ele>
        <time>2010-01-10T20:37:14Z</time>
      </trkpt>
      <trkpt lat="43.76935" lon="7.16916">
        <ele>382.26135</ele>
        <time>2010-01-10T20:37:23Z</time>
      </trkpt>
      <trkpt lat="43.76938" lon="7.16931">
        <ele>383.70324</ele>
        <time>2010-01-10T20:37:28Z</time>
      </trkpt>
      <trkpt lat="43.76949" lon="7.16948">
        <ele>383.22265</ele>
        <time>2010-01-10T20:37:34Z</time>
      </trkpt>
      <trkpt lat="43.76969" lon="7.16956">
        <ele>376.97424</ele>
        <time>2010-01-10T20:37:43Z</time>
      </trkpt>
      <trkpt lat="43.76982" lon="7.16957">
        <ele>379.37744</ele>
        <time>2010-01-10T20:37:48Z</time>
      </trkpt>
      <trkpt lat="43.77" lon="7.16969">
        <ele>379.85803</ele>
        <time>2010-01-10T20:37:56Z</time>
      </trkpt>
      <trkpt lat="43.77009" lon="7.16983">
        <ele>376.97424</ele>
        <time>2010-01-10T20:38:01Z</time>
      </trkpt>
      <trkpt lat="43.7703" lon="7.16998">
        <ele>376.49353</ele>
        <time>2010-01-10T20:38:11Z</time>
      </trkpt>
      <trkpt lat="43.77044" lon="7.17">
        <ele>379.85803</ele>
        <time>2010-01-10T20:38:16Z</time>
      </trkpt>
      <trkpt lat="43.77067" lon="7.17019">
        <ele>375.05151</ele>
        <time>2010-01-10T20:38:27Z</time>
      </trkpt>
      <trkpt lat="43.77092" lon="7.17039">
        <ele>370.72558</ele>
        <time>2010-01-10T20:38:39Z</time>
      </trkpt>
      <trkpt lat="43.77102" lon="7.17045">
        <ele>370.72558</ele>
        <time>2010-01-10T20:38:43Z</time>
      </trkpt>
      <trkpt lat="43.77111" lon="7.17049">
        <ele>369.76428</ele>
        <time>2010-01-10T20:38:47Z</time>
      </trkpt>
      <trkpt lat="43.77141" lon="7.17056">
        <ele>378.41613</ele>
        <time>2010-01-10T20:38:59Z</time>
      </trkpt>
      <trkpt lat="43.77173" lon="7.17059">
        <ele>380.33874</ele>
        <time>2010-01-10T20:39:12Z</time>
      </trkpt>
      <trkpt lat="43.77201" lon="7.17057">
        <ele>385.14538</ele>
        <time>2010-01-10T20:39:23Z</time>
      </trkpt>
      <trkpt lat="43.77207" lon="7.17049">
        <ele>383.70324</ele>
        <time>2010-01-10T20:39:27Z</time>
      </trkpt>
      <trkpt lat="43.77213" lon="7.17019">
        <ele>391.87451</ele>
        <time>2010-01-10T20:39:36Z</time>
      </trkpt>
      <trkpt lat="43.77227" lon="7.17002">
        <ele>402.44909</ele>
        <time>2010-01-10T20:39:43Z</time>
      </trkpt>
      <trkpt lat="43.77235" lon="7.16998">
        <ele>397.16174</ele>
        <time>2010-01-10T20:39:47Z</time>
      </trkpt>
      <trkpt lat="43.7725" lon="7.17014">
        <ele>385.62597</ele>
        <time>2010-01-10T20:39:54Z</time>
      </trkpt>
      <trkpt lat="43.77252" lon="7.17038">
        <ele>380.81945</ele>
        <time>2010-01-10T20:40:01Z</time>
      </trkpt>
      <trkpt lat="43.77254" lon="7.17041">
        <ele>378.41613</ele>
        <time>2010-01-10T20:40:02Z</time>
      </trkpt>
      <trkpt lat="43.77267" lon="7.1706">
        <ele>371.20629</ele>
        <time>2010-01-10T20:40:10Z</time>
      </trkpt>
      <trkpt lat="43.7727" lon="7.1708">
        <ele>366.88024</ele>
        <time>2010-01-10T20:40:16Z</time>
      </trkpt>
      <trkpt lat="43.77275" lon="7.17105">
        <ele>365.43835</ele>
        <time>2010-01-10T20:40:23Z</time>
      </trkpt>
      <trkpt lat="43.7728" lon="7.17132">
        <ele>366.39953</ele>
        <time>2010-01-10T20:40:31Z</time>
      </trkpt>
      <trkpt lat="43.77287" lon="7.17152">
        <ele>371.20629</ele>
        <time>2010-01-10T20:40:38Z</time>
      </trkpt>
      <trkpt lat="43.77295" lon="7.17171">
        <ele>376.49353</ele>
        <time>2010-01-10T20:40:44Z</time>
      </trkpt>
      <trkpt lat="43.77306" lon="7.1719">
        <ele>378.41613</ele>
        <time>2010-01-10T20:40:51Z</time>
      </trkpt>
      <trkpt lat="43.77317" lon="7.17205">
        <ele>381.78063</ele>
        <time>2010-01-10T20:40:57Z</time>
      </trkpt>
      <trkpt lat="43.77331" lon="7.17224">
        <ele>381.30004</ele>
        <time>2010-01-10T20:41:05Z</time>
      </trkpt>
      <trkpt lat="43.77348" lon="7.17246">
        <ele>381.78063</ele>
        <time>2010-01-10T20:41:14Z</time>
      </trkpt>
      <trkpt lat="43.77364" lon="7.17264">
        <ele>380.33874</ele>
        <time>2010-01-10T20:41:22Z</time>
      </trkpt>
      <trkpt lat="43.7737" lon="7.17273">
        <ele>380.33874</ele>
        <time>2010-01-10T20:41:26Z</time>
      </trkpt>
      <trkpt lat="43.77404" lon="7.1731">
        <ele>378.89685</ele>
        <time>2010-01-10T20:41:43Z</time>
      </trkpt>
      <trkpt lat="43.77413" lon="7.17321">
        <ele>381.30004</ele>
        <time>2010-01-10T20:41:48Z</time>
      </trkpt>
      <trkpt lat="43.7744" lon="7.17363">
        <ele>384.66479</ele>
        <time>2010-01-10T20:42:04Z</time>
      </trkpt>
      <trkpt lat="43.77462" lon="7.17393">
        <ele>384.18408</ele>
        <time>2010-01-10T20:42:17Z</time>
      </trkpt>
      <trkpt lat="43.77485" lon="7.17403">
        <ele>382.74206</ele>
        <time>2010-01-10T20:42:26Z</time>
      </trkpt>
      <trkpt lat="43.77501" lon="7.17407">
        <ele>388.02929</ele>
        <time>2010-01-10T20:42:33Z</time>
      </trkpt>
      <trkpt lat="43.77527" lon="7.17424">
        <ele>390.43261</ele>
        <time>2010-01-10T20:42:44Z</time>
      </trkpt>
      <trkpt lat="43.77549" lon="7.17457">
        <ele>393.79724</ele>
        <time>2010-01-10T20:42:57Z</time>
      </trkpt>
      <trkpt lat="43.77567" lon="7.17473">
        <ele>392.35534</ele>
        <time>2010-01-10T20:43:06Z</time>
      </trkpt>
      <trkpt lat="43.77593" lon="7.17487">
        <ele>391.39379</ele>
        <time>2010-01-10T20:43:17Z</time>
      </trkpt>
      <trkpt lat="43.77606" lon="7.17493">
        <ele>388.9906</ele>
        <time>2010-01-10T20:43:22Z</time>
      </trkpt>
      <trkpt lat="43.77619" lon="7.175">
        <ele>383.70324</ele>
        <time>2010-01-10T20:43:28Z</time>
      </trkpt>
      <trkpt lat="43.77637" lon="7.17526">
        <ele>380.33874</ele>
        <time>2010-01-10T20:43:38Z</time>
      </trkpt>
      <trkpt lat="43.77653" lon="7.17546">
        <ele>381.30004</ele>
        <time>2010-01-10T20:43:47Z</time>
      </trkpt>
      <trkpt lat="43.7767" lon="7.17558">
        <ele>382.26135</ele>
        <time>2010-01-10T20:43:55Z</time>
      </trkpt>
      <trkpt lat="43.77696" lon="7.17566">
        <ele>377.93542</ele>
        <time>2010-01-10T20:44:06Z</time>
      </trkpt>
      <trkpt lat="43.77726" lon="7.17569">
        <ele>381.30004</ele>
        <time>2010-01-10T20:44:17Z</time>
      </trkpt>
      <trkpt lat="43.77755" lon="7.17571">
        <ele>380.81945</ele>
        <time>2010-01-10T20:44:29Z</time>
      </trkpt>
      <trkpt lat="43.77786" lon="7.17571">
        <ele>387.54858</ele>
        <time>2010-01-10T20:44:41Z</time>
      </trkpt>
      <trkpt lat="43.77803" lon="7.17573">
        <ele>388.51</ele>
        <time>2010-01-10T20:44:49Z</time>
      </trkpt>
      <trkpt lat="43.77838" lon="7.1758">
        <ele>384.18408</ele>
        <time>2010-01-10T20:45:02Z</time>
      </trkpt>
      <trkpt lat="43.77869" lon="7.17586">
        <ele>387.06799</ele>
        <time>2010-01-10T20:45:15Z</time>
      </trkpt>
      <trkpt lat="43.77892" lon="7.17591">
        <ele>385.62597</ele>
        <time>2010-01-10T20:45:24Z</time>
      </trkpt>
      <trkpt lat="43.77914" lon="7.17596">
        <ele>390.9132</ele>
        <time>2010-01-10T20:45:33Z</time>
      </trkpt>
      <trkpt lat="43.77939" lon="7.17602">
        <ele>394.27795</ele>
        <time>2010-01-10T20:45:43Z</time>
      </trkpt>
      <trkpt lat="43.77957" lon="7.17605">
        <ele>393.79724</ele>
        <time>2010-01-10T20:45:51Z</time>
      </trkpt>
      <trkpt lat="43.77978" lon="7.17611">
        <ele>398.12316</ele>
        <time>2010-01-10T20:45:59Z</time>
      </trkpt>
      <trkpt lat="43.77999" lon="7.17613">
        <ele>393.31652</ele>
        <time>2010-01-10T20:46:08Z</time>
      </trkpt>
      <trkpt lat="43.78015" lon="7.1761">
        <ele>391.39379</ele>
        <time>2010-01-10T20:46:14Z</time>
      </trkpt>
      <trkpt lat="43.7802" lon="7.17601">
        <ele>391.39379</ele>
        <time>2010-01-10T20:46:18Z</time>
      </trkpt>
      <trkpt lat="43.78018" lon="7.17582">
        <ele>392.35534</ele>
        <time>2010-01-10T20:46:23Z</time>
      </trkpt>
      <trkpt lat="43.78016" lon="7.17554">
        <ele>396.68115</ele>
        <time>2010-01-10T20:46:31Z</time>
      </trkpt>
      <trkpt lat="43.78013" lon="7.17515">
        <ele>397.16174</ele>
        <time>2010-01-10T20:46:43Z</time>
      </trkpt>
      <trkpt lat="43.78017" lon="7.17482">
        <ele>398.12316</ele>
        <time>2010-01-10T20:46:52Z</time>
      </trkpt>
      <trkpt lat="43.78031" lon="7.17443">
        <ele>399.56506</ele>
        <time>2010-01-10T20:47:05Z</time>
      </trkpt>
      <trkpt lat="43.7804" lon="7.17427">
        <ele>400.04589</ele>
        <time>2010-01-10T20:47:11Z</time>
      </trkpt>
      <trkpt lat="43.78067" lon="7.17405">
        <ele>402.92968</ele>
        <time>2010-01-10T20:47:23Z</time>
      </trkpt>
      <trkpt lat="43.78102" lon="7.17383">
        <ele>406.29431</ele>
        <time>2010-01-10T20:47:39Z</time>
      </trkpt>
      <trkpt lat="43.78135" lon="7.1736">
        <ele>406.29431</ele>
        <time>2010-01-10T20:47:53Z</time>
      </trkpt>
      <trkpt lat="43.7817" lon="7.17332">
        <ele>403.89111</ele>
        <time>2010-01-10T20:48:10Z</time>
      </trkpt>
      <trkpt lat="43.78194" lon="7.17315">
        <ele>403.4104</ele>
        <time>2010-01-10T20:48:20Z</time>
      </trkpt>
      <trkpt lat="43.78215" lon="7.173">
        <ele>404.85229</ele>
        <time>2010-01-10T20:48:30Z</time>
      </trkpt>
      <trkpt lat="43.78236" lon="7.17304">
        <ele>403.4104</ele>
        <time>2010-01-10T20:48:38Z</time>
      </trkpt>
      <trkpt lat="43.78268" lon="7.1733">
        <ele>389.47119</ele>
        <time>2010-01-10T20:48:53Z</time>
      </trkpt>
      <trkpt lat="43.78294" lon="7.17357">
        <ele>385.14538</ele>
        <time>2010-01-10T20:49:06Z</time>
      </trkpt>
      <trkpt lat="43.78318" lon="7.17382">
        <ele>383.70324</ele>
        <time>2010-01-10T20:49:18Z</time>
      </trkpt>
      <trkpt lat="43.78342" lon="7.17404">
        <ele>381.78063</ele>
        <time>2010-01-10T20:49:30Z</time>
      </trkpt>
      <trkpt lat="43.78354" lon="7.17414">
        <ele>383.22265</ele>
        <time>2010-01-10T20:49:35Z</time>
      </trkpt>
      <trkpt lat="43.78383" lon="7.17436">
        <ele>377.93542</ele>
        <time>2010-01-10T20:49:48Z</time>
      </trkpt>
      <trkpt lat="43.78421" lon="7.17464">
        <ele>370.72558</ele>
        <time>2010-01-10T20:50:06Z</time>
      </trkpt>
      <trkpt lat="43.78443" lon="7.17476">
        <ele>370.24487</ele>
        <time>2010-01-10T20:50:15Z</time>
      </trkpt>
      <trkpt lat="43.78499" lon="7.175">
        <ele>366.88024</ele>
        <time>2010-01-10T20:50:39Z</time>
      </trkpt>
      <trkpt lat="43.7851" lon="7.17504">
        <ele>366.39953</ele>
        <time>2010-01-10T20:50:43Z</time>
      </trkpt>
      <trkpt lat="43.78555" lon="7.17516">
        <ele>362.55432</ele>
        <time>2010-01-10T20:51:02Z</time>
      </trkpt>
      <trkpt lat="43.78559" lon="7.17517">
        <ele>367.36096</ele>
        <time>2010-01-10T20:51:03Z</time>
      </trkpt>
      <trkpt lat="43.78573" lon="7.17527">
        <ele>370.24487</ele>
        <time>2010-01-10T20:51:10Z</time>
      </trkpt>
      <trkpt lat="43.78578" lon="7.17546">
        <ele>373.1289</ele>
        <time>2010-01-10T20:51:15Z</time>
      </trkpt>
      <trkpt lat="43.78584" lon="7.17594">
        <ele>376.97424</ele>
        <time>2010-01-10T20:51:29Z</time>
      </trkpt>
      <trkpt lat="43.7859" lon="7.17631">
        <ele>377.93542</ele>
        <time>2010-01-10T20:51:40Z</time>
      </trkpt>
      <trkpt lat="43.78591" lon="7.17636">
        <ele>377.93542</ele>
        <time>2010-01-10T20:51:42Z</time>
      </trkpt>
      <trkpt lat="43.78612" lon="7.17673">
        <ele>379.37744</ele>
        <time>2010-01-10T20:51:56Z</time>
      </trkpt>
      <trkpt lat="43.78633" lon="7.17702">
        <ele>381.30004</ele>
        <time>2010-01-10T20:52:07Z</time>
      </trkpt>
      <trkpt lat="43.78662" lon="7.17744">
        <ele>380.81945</ele>
        <time>2010-01-10T20:52:24Z</time>
      </trkpt>
      <trkpt lat="43.78691" lon="7.17787">
        <ele>377.93542</ele>
        <time>2010-01-10T20:52:41Z</time>
      </trkpt>
      <trkpt lat="43.78713" lon="7.17817">
        <ele>377.45483</ele>
        <time>2010-01-10T20:52:54Z</time>
      </trkpt>
      <trkpt lat="43.78726" lon="7.17838">
        <ele>376.01281</ele>
        <time>2010-01-10T20:53:02Z</time>
      </trkpt>
      <trkpt lat="43.78736" lon="7.17882">
        <ele>376.97424</ele>
        <time>2010-01-10T20:53:15Z</time>
      </trkpt>
      <trkpt lat="43.7874" lon="7.17941">
        <ele>365.91894</ele>
        <time>2010-01-10T20:53:32Z</time>
      </trkpt>
      <trkpt lat="43.7874" lon="7.17953">
        <ele>365.43835</ele>
        <time>2010-01-10T20:53:36Z</time>
      </trkpt>
      <trkpt lat="43.78744" lon="7.17985">
        <ele>365.91894</ele>
        <time>2010-01-10T20:53:45Z</time>
      </trkpt>
      <trkpt lat="43.78754" lon="7.18018">
        <ele>368.32226</ele>
        <time>2010-01-10T20:53:55Z</time>
      </trkpt>
      <trkpt lat="43.78772" lon="7.18055">
        <ele>367.84155</ele>
        <time>2010-01-10T20:54:08Z</time>
      </trkpt>
      <trkpt lat="43.78784" lon="7.18079">
        <ele>367.84155</ele>
        <time>2010-01-10T20:54:17Z</time>
      </trkpt>
      <trkpt lat="43.78798" lon="7.18105">
        <ele>366.88024</ele>
        <time>2010-01-10T20:54:26Z</time>
      </trkpt>
      <trkpt lat="43.78809" lon="7.18132">
        <ele>366.39953</ele>
        <time>2010-01-10T20:54:35Z</time>
      </trkpt>
      <trkpt lat="43.78818" lon="7.18152">
        <ele>365.91894</ele>
        <time>2010-01-10T20:54:42Z</time>
      </trkpt>
      <trkpt lat="43.78825" lon="7.1817">
        <ele>368.32226</ele>
        <time>2010-01-10T20:54:48Z</time>
      </trkpt>
      <trkpt lat="43.78835" lon="7.1819">
        <ele>368.32226</ele>
        <time>2010-01-10T20:54:55Z</time>
      </trkpt>
      <trkpt lat="43.78849" lon="7.18217">
        <ele>368.80297</ele>
        <time>2010-01-10T20:55:04Z</time>
      </trkpt>
      <trkpt lat="43.78867" lon="7.1825">
        <ele>374.09008</ele>
        <time>2010-01-10T20:55:16Z</time>
      </trkpt>
      <trkpt lat="43.78883" lon="7.18264">
        <ele>374.5708</ele>
        <time>2010-01-10T20:55:24Z</time>
      </trkpt>
      <trkpt lat="43.7889" lon="7.18269">
        <ele>373.1289</ele>
        <time>2010-01-10T20:55:27Z</time>
      </trkpt>
      <trkpt lat="43.78911" lon="7.18298">
        <ele>372.16748</ele>
        <time>2010-01-10T20:55:39Z</time>
      </trkpt>
      <trkpt lat="43.78934" lon="7.18333">
        <ele>378.41613</ele>
        <time>2010-01-10T20:55:53Z</time>
      </trkpt>
      <trkpt lat="43.7895" lon="7.18347">
        <ele>380.81945</ele>
        <time>2010-01-10T20:56:00Z</time>
      </trkpt>
      <trkpt lat="43.78967" lon="7.18352">
        <ele>378.41613</ele>
        <time>2010-01-10T20:56:07Z</time>
      </trkpt>
      <trkpt lat="43.7899" lon="7.18362">
        <ele>376.49353</ele>
        <time>2010-01-10T20:56:17Z</time>
      </trkpt>
      <trkpt lat="43.79027" lon="7.18375">
        <ele>373.1289</ele>
        <time>2010-01-10T20:56:32Z</time>
      </trkpt>
      <trkpt lat="43.79067" lon="7.18392">
        <ele>369.76428</ele>
        <time>2010-01-10T20:56:49Z</time>
      </trkpt>
      <trkpt lat="43.79112" lon="7.18417">
        <ele>370.72558</ele>
        <time>2010-01-10T20:57:08Z</time>
      </trkpt>
      <trkpt lat="43.79127" lon="7.18426">
        <ele>369.76428</ele>
        <time>2010-01-10T20:57:15Z</time>
      </trkpt>
      <trkpt lat="43.79152" lon="7.18432">
        <ele>372.64819</ele>
        <time>2010-01-10T20:57:25Z</time>
      </trkpt>
      <trkpt lat="43.79165" lon="7.18431">
        <ele>371.20629</ele>
        <time>2010-01-10T20:57:30Z</time>
      </trkpt>
      <trkpt lat="43.79182" lon="7.18428">
        <ele>376.01281</ele>
        <time>2010-01-10T20:57:37Z</time>
      </trkpt>
      <trkpt lat="43.792" lon="7.18427">
        <ele>383.70324</ele>
        <time>2010-01-10T20:57:44Z</time>
      </trkpt>
      <trkpt lat="43.79218" lon="7.18424">
        <ele>385.62597</ele>
        <time>2010-01-10T20:57:52Z</time>
      </trkpt>
      <trkpt lat="43.79236" lon="7.18419">
        <ele>384.18408</ele>
        <time>2010-01-10T20:57:59Z</time>
      </trkpt>
      <trkpt lat="43.79252" lon="7.18409">
        <ele>386.10668</ele>
        <time>2010-01-10T20:58:06Z</time>
      </trkpt>
      <trkpt lat="43.79265" lon="7.18401">
        <ele>391.87451</ele>
        <time>2010-01-10T20:58:12Z</time>
      </trkpt>
      <trkpt lat="43.79282" lon="7.18388">
        <ele>397.16174</ele>
        <time>2010-01-10T20:58:19Z</time>
      </trkpt>
      <trkpt lat="43.79297" lon="7.18381">
        <ele>399.56506</ele>
        <time>2010-01-10T20:58:26Z</time>
      </trkpt>
      <trkpt lat="43.79309" lon="7.18376">
        <ele>400.52648</ele>
        <time>2010-01-10T20:58:31Z</time>
      </trkpt>
      <trkpt lat="43.79324" lon="7.18367">
        <ele>393.31652</ele>
        <time>2010-01-10T20:58:37Z</time>
      </trkpt>
      <trkpt lat="43.79335" lon="7.1836">
        <ele>388.51</ele>
        <time>2010-01-10T20:58:42Z</time>
      </trkpt>
      <trkpt lat="43.7935" lon="7.18355">
        <ele>390.43261</ele>
        <time>2010-01-10T20:58:48Z</time>
      </trkpt>
      <trkpt lat="43.79368" lon="7.18344">
        <ele>394.75854</ele>
        <time>2010-01-10T20:58:56Z</time>
      </trkpt>
      <trkpt lat="43.7938" lon="7.18335">
        <ele>399.56506</ele>
        <time>2010-01-10T20:59:02Z</time>
      </trkpt>
      <trkpt lat="43.79394" lon="7.18319">
        <ele>406.29431</ele>
        <time>2010-01-10T20:59:09Z</time>
      </trkpt>
      <trkpt lat="43.79409" lon="7.18301">
        <ele>414.46545</ele>
        <time>2010-01-10T20:59:17Z</time>
      </trkpt>
      <trkpt lat="43.79422" lon="7.18287">
        <ele>414.94616</ele>
        <time>2010-01-10T20:59:23Z</time>
      </trkpt>
      <trkpt lat="43.79436" lon="7.18273">
        <ele>418.31079</ele>
        <time>2010-01-10T20:59:30Z</time>
      </trkpt>
      <trkpt lat="43.79448" lon="7.18261">
        <ele>424.07873</ele>
        <time>2010-01-10T20:59:36Z</time>
      </trkpt>
      <trkpt lat="43.79461" lon="7.18247">
        <ele>425.04016</ele>
        <time>2010-01-10T20:59:43Z</time>
      </trkpt>
      <trkpt lat="43.79479" lon="7.18229">
        <ele>422.156</ele>
        <time>2010-01-10T20:59:52Z</time>
      </trkpt>
      <trkpt lat="43.7949" lon="7.18218">
        <ele>418.7915</ele>
        <time>2010-01-10T20:59:57Z</time>
      </trkpt>
      <trkpt lat="43.79502" lon="7.1821">
        <ele>419.7528</ele>
        <time>2010-01-10T21:00:03Z</time>
      </trkpt>
      <trkpt lat="43.79516" lon="7.18202">
        <ele>419.27221</ele>
        <time>2010-01-10T21:00:09Z</time>
      </trkpt>
      <trkpt lat="43.79533" lon="7.18189">
        <ele>420.23339</ele>
        <time>2010-01-10T21:00:16Z</time>
      </trkpt>
      <trkpt lat="43.79546" lon="7.18181">
        <ele>421.19482</ele>
        <time>2010-01-10T21:00:22Z</time>
      </trkpt>
      <trkpt lat="43.79559" lon="7.18169">
        <ele>422.63671</ele>
        <time>2010-01-10T21:00:28Z</time>
      </trkpt>
      <trkpt lat="43.79578" lon="7.18152">
        <ele>421.67541</ele>
        <time>2010-01-10T21:00:37Z</time>
      </trkpt>
      <trkpt lat="43.79597" lon="7.1814">
        <ele>415.90747</ele>
        <time>2010-01-10T21:00:46Z</time>
      </trkpt>
      <trkpt lat="43.79618" lon="7.18139">
        <ele>411.10095</ele>
        <time>2010-01-10T21:00:54Z</time>
      </trkpt>
      <trkpt lat="43.79632" lon="7.1814">
        <ele>407.73632</ele>
        <time>2010-01-10T21:01:00Z</time>
      </trkpt>
      <trkpt lat="43.79648" lon="7.18141">
        <ele>408.69763</ele>
        <time>2010-01-10T21:01:06Z</time>
      </trkpt>
      <trkpt lat="43.79666" lon="7.18146">
        <ele>415.42687</ele>
        <time>2010-01-10T21:01:13Z</time>
      </trkpt>
      <trkpt lat="43.79685" lon="7.18153">
        <ele>422.63671</ele>
        <time>2010-01-10T21:01:21Z</time>
      </trkpt>
      <trkpt lat="43.797" lon="7.18157">
        <ele>424.55944</ele>
        <time>2010-01-10T21:01:27Z</time>
      </trkpt>
      <trkpt lat="43.79721" lon="7.18166">
        <ele>425.52075</ele>
        <time>2010-01-10T21:01:36Z</time>
      </trkpt>
      <trkpt lat="43.79737" lon="7.18166">
        <ele>420.71411</ele>
        <time>2010-01-10T21:01:43Z</time>
      </trkpt>
      <trkpt lat="43.79748" lon="7.18162">
        <ele>421.19482</ele>
        <time>2010-01-10T21:01:47Z</time>
      </trkpt>
      <trkpt lat="43.7976" lon="7.18152">
        <ele>431.76916</ele>
        <time>2010-01-10T21:01:53Z</time>
      </trkpt>
      <trkpt lat="43.79769" lon="7.18137">
        <ele>440.42126</ele>
        <time>2010-01-10T21:01:58Z</time>
      </trkpt>
      <trkpt lat="43.79772" lon="7.18119">
        <ele>445.22766</ele>
        <time>2010-01-10T21:02:04Z</time>
      </trkpt>
      <trkpt lat="43.79774" lon="7.18099">
        <ele>446.66967</ele>
        <time>2010-01-10T21:02:09Z</time>
      </trkpt>
      <trkpt lat="43.79773" lon="7.18088">
        <ele>448.11181</ele>
        <time>2010-01-10T21:02:13Z</time>
      </trkpt>
      <trkpt lat="43.79778" lon="7.18071">
        <ele>451.47631</ele>
        <time>2010-01-10T21:02:18Z</time>
      </trkpt>
      <trkpt lat="43.79787" lon="7.18069">
        <ele>451.47631</ele>
        <time>2010-01-10T21:02:22Z</time>
      </trkpt>
      <trkpt lat="43.798" lon="7.18074">
        <ele>455.80224</ele>
        <time>2010-01-10T21:02:27Z</time>
      </trkpt>
      <trkpt lat="43.79814" lon="7.18076">
        <ele>458.20556</ele>
        <time>2010-01-10T21:02:33Z</time>
      </trkpt>
      <trkpt lat="43.79831" lon="7.18077">
        <ele>456.28295</ele>
        <time>2010-01-10T21:02:40Z</time>
      </trkpt>
      <trkpt lat="43.7985" lon="7.18081">
        <ele>440.42126</ele>
        <time>2010-01-10T21:02:48Z</time>
      </trkpt>
      <trkpt lat="43.79861" lon="7.1809">
        <ele>435.6145</ele>
        <time>2010-01-10T21:02:52Z</time>
      </trkpt>
      <trkpt lat="43.79862" lon="7.18092">
        <ele>432.73071</ele>
        <time>2010-01-10T21:02:53Z</time>
      </trkpt>
      <trkpt lat="43.79869" lon="7.18101">
        <ele>430.80798</ele>
        <time>2010-01-10T21:02:57Z</time>
      </trkpt>
      <trkpt lat="43.79878" lon="7.18114">
        <ele>425.52075</ele>
        <time>2010-01-10T21:03:02Z</time>
      </trkpt>
      <trkpt lat="43.79884" lon="7.18124">
        <ele>428.40466</ele>
        <time>2010-01-10T21:03:06Z</time>
      </trkpt>
      <trkpt lat="43.79893" lon="7.18137">
        <ele>433.2113</ele>
        <time>2010-01-10T21:03:11Z</time>
      </trkpt>
      <trkpt lat="43.79907" lon="7.18154">
        <ele>433.69189</ele>
        <time>2010-01-10T21:03:19Z</time>
      </trkpt>
      <trkpt lat="43.79913" lon="7.18158">
        <ele>434.65332</ele>
        <time>2010-01-10T21:03:21Z</time>
      </trkpt>
      <trkpt lat="43.79923" lon="7.18152">
        <ele>440.42126</ele>
        <time>2010-01-10T21:03:26Z</time>
      </trkpt>
      <trkpt lat="43.79933" lon="7.18131">
        <ele>450.03442</ele>
        <time>2010-01-10T21:03:33Z</time>
      </trkpt>
      <trkpt lat="43.79939" lon="7.1811">
        <ele>455.80224</ele>
        <time>2010-01-10T21:03:40Z</time>
      </trkpt>
      <trkpt lat="43.79947" lon="7.18089">
        <ele>465.89611</ele>
        <time>2010-01-10T21:03:46Z</time>
      </trkpt>
      <trkpt lat="43.79954" lon="7.18066">
        <ele>473.58666</ele>
        <time>2010-01-10T21:03:54Z</time>
      </trkpt>
      <trkpt lat="43.79963" lon="7.18046">
        <ele>482.23852</ele>
        <time>2010-01-10T21:04:01Z</time>
      </trkpt>
      <trkpt lat="43.79975" lon="7.18025">
        <ele>485.12243</ele>
        <time>2010-01-10T21:04:08Z</time>
      </trkpt>
      <trkpt lat="43.79985" lon="7.1801">
        <ele>486.08374</ele>
        <time>2010-01-10T21:04:14Z</time>
      </trkpt>
      <trkpt lat="43.80002" lon="7.17998">
        <ele>490.89038</ele>
        <time>2010-01-10T21:04:22Z</time>
      </trkpt>
      <trkpt lat="43.80014" lon="7.17989">
        <ele>490.40979</ele>
        <time>2010-01-10T21:04:27Z</time>
      </trkpt>
      <trkpt lat="43.80026" lon="7.17983">
        <ele>489.92907</ele>
        <time>2010-01-10T21:04:32Z</time>
      </trkpt>
      <trkpt lat="43.8004" lon="7.17975">
        <ele>480.31591</ele>
        <time>2010-01-10T21:04:38Z</time>
      </trkpt>
      <trkpt lat="43.80058" lon="7.17971">
        <ele>479.83508</ele>
        <time>2010-01-10T21:04:46Z</time>
      </trkpt>
      <trkpt lat="43.80077" lon="7.17965">
        <ele>479.35449</ele>
        <time>2010-01-10T21:04:53Z</time>
      </trkpt>
      <trkpt lat="43.80095" lon="7.17957">
        <ele>479.35449</ele>
        <time>2010-01-10T21:05:01Z</time>
      </trkpt>
      <trkpt lat="43.80111" lon="7.17945">
        <ele>486.56445</ele>
        <time>2010-01-10T21:05:08Z</time>
      </trkpt>
      <trkpt lat="43.80127" lon="7.17932">
        <ele>491.37097</ele>
        <time>2010-01-10T21:05:16Z</time>
      </trkpt>
      <trkpt lat="43.8013" lon="7.17921">
        <ele>488.48718</ele>
        <time>2010-01-10T21:05:19Z</time>
      </trkpt>
      <trkpt lat="43.8013" lon="7.17904">
        <ele>488.96777</ele>
        <time>2010-01-10T21:05:24Z</time>
      </trkpt>
      <trkpt lat="43.80126" lon="7.17888">
        <ele>489.92907</ele>
        <time>2010-01-10T21:05:29Z</time>
      </trkpt>
      <trkpt lat="43.80125" lon="7.17866">
        <ele>484.16113</ele>
        <time>2010-01-10T21:05:35Z</time>
      </trkpt>
      <trkpt lat="43.80124" lon="7.17845">
        <ele>483.19982</ele>
        <time>2010-01-10T21:05:41Z</time>
      </trkpt>
      <trkpt lat="43.80125" lon="7.17828">
        <ele>485.60302</ele>
        <time>2010-01-10T21:05:46Z</time>
      </trkpt>
      <trkpt lat="43.80125" lon="7.17799">
        <ele>483.68041</ele>
        <time>2010-01-10T21:05:55Z</time>
      </trkpt>
      <trkpt lat="43.80126" lon="7.17771">
        <ele>487.04504</ele>
        <time>2010-01-10T21:06:03Z</time>
      </trkpt>
      <trkpt lat="43.80129" lon="7.17744">
        <ele>485.12243</ele>
        <time>2010-01-10T21:06:11Z</time>
      </trkpt>
      <trkpt lat="43.80137" lon="7.17715">
        <ele>488.00646</ele>
        <time>2010-01-10T21:06:20Z</time>
      </trkpt>
      <trkpt lat="43.80152" lon="7.17686">
        <ele>493.77429</ele>
        <time>2010-01-10T21:06:30Z</time>
      </trkpt>
      <trkpt lat="43.8017" lon="7.17657">
        <ele>490.89038</ele>
        <time>2010-01-10T21:06:41Z</time>
      </trkpt>
      <trkpt lat="43.80186" lon="7.17632">
        <ele>497.13891</ele>
        <time>2010-01-10T21:06:51Z</time>
      </trkpt>
      <trkpt lat="43.80201" lon="7.17607">
        <ele>502.42614</ele>
        <time>2010-01-10T21:07:00Z</time>
      </trkpt>
      <trkpt lat="43.80213" lon="7.17575">
        <ele>505.31018</ele>
        <time>2010-01-10T21:07:11Z</time>
      </trkpt>
      <trkpt lat="43.80224" lon="7.17538">
        <ele>505.31018</ele>
        <time>2010-01-10T21:07:22Z</time>
      </trkpt>
      <trkpt lat="43.8024" lon="7.17501">
        <ele>487.04504</ele>
        <time>2010-01-10T21:07:34Z</time>
      </trkpt>
      <trkpt lat="43.80254" lon="7.1747">
        <ele>480.79663</ele>
        <time>2010-01-10T21:07:45Z</time>
      </trkpt>
      <trkpt lat="43.80267" lon="7.17433">
        <ele>479.35449</ele>
        <time>2010-01-10T21:07:57Z</time>
      </trkpt>
      <trkpt lat="43.80281" lon="7.17405">
        <ele>478.8739</ele>
        <time>2010-01-10T21:08:07Z</time>
      </trkpt>
      <trkpt lat="43.80295" lon="7.17376">
        <ele>473.10607</ele>
        <time>2010-01-10T21:08:17Z</time>
      </trkpt>
      <trkpt lat="43.80296" lon="7.17355">
        <ele>471.66394</ele>
        <time>2010-01-10T21:08:23Z</time>
      </trkpt>
      <trkpt lat="43.80298" lon="7.17345">
        <ele>472.14465</ele>
        <time>2010-01-10T21:08:26Z</time>
      </trkpt>
      <trkpt lat="43.80314" lon="7.1734">
        <ele>471.66394</ele>
        <time>2010-01-10T21:08:33Z</time>
      </trkpt>
      <trkpt lat="43.80318" lon="7.17339">
        <ele>471.66394</ele>
        <time>2010-01-10T21:08:34Z</time>
      </trkpt>
      <trkpt lat="43.80343" lon="7.17324">
        <ele>471.18334</ele>
        <time>2010-01-10T21:08:45Z</time>
      </trkpt>
      <trkpt lat="43.80356" lon="7.17306">
        <ele>469.74133</ele>
        <time>2010-01-10T21:08:52Z</time>
      </trkpt>
      <trkpt lat="43.80373" lon="7.17273">
        <ele>475.98986</ele>
        <time>2010-01-10T21:09:04Z</time>
      </trkpt>
      <trkpt lat="43.80386" lon="7.17243">
        <ele>479.35449</ele>
        <time>2010-01-10T21:09:14Z</time>
      </trkpt>
      <trkpt lat="43.80394" lon="7.17204">
        <ele>480.79663</ele>
        <time>2010-01-10T21:09:26Z</time>
      </trkpt>
      <trkpt lat="43.804" lon="7.17177">
        <ele>476.95129</ele>
        <time>2010-01-10T21:09:34Z</time>
      </trkpt>
      <trkpt lat="43.80405" lon="7.17148">
        <ele>476.95129</ele>
        <time>2010-01-10T21:09:43Z</time>
      </trkpt>
      <trkpt lat="43.80411" lon="7.17106">
        <ele>475.98986</ele>
        <time>2010-01-10T21:09:55Z</time>
      </trkpt>
      <trkpt lat="43.80421" lon="7.17069">
        <ele>474.06726</ele>
        <time>2010-01-10T21:10:06Z</time>
      </trkpt>
      <trkpt lat="43.80438" lon="7.17046">
        <ele>475.50927</ele>
        <time>2010-01-10T21:10:16Z</time>
      </trkpt>
      <trkpt lat="43.80468" lon="7.17004">
        <ele>478.8739</ele>
        <time>2010-01-10T21:10:33Z</time>
      </trkpt>
      <trkpt lat="43.80482" lon="7.16972">
        <ele>477.43188</ele>
        <time>2010-01-10T21:10:44Z</time>
      </trkpt>
      <trkpt lat="43.80488" lon="7.16932">
        <ele>471.66394</ele>
        <time>2010-01-10T21:10:56Z</time>
      </trkpt>
      <trkpt lat="43.80494" lon="7.16909">
        <ele>474.06726</ele>
        <time>2010-01-10T21:11:03Z</time>
      </trkpt>
      <trkpt lat="43.80509" lon="7.16871">
        <ele>473.10607</ele>
        <time>2010-01-10T21:11:15Z</time>
      </trkpt>
      <trkpt lat="43.80522" lon="7.16845">
        <ele>473.10607</ele>
        <time>2010-01-10T21:11:24Z</time>
      </trkpt>
      <trkpt lat="43.80533" lon="7.16813">
        <ele>470.70263</ele>
        <time>2010-01-10T21:11:35Z</time>
      </trkpt>
      <trkpt lat="43.80543" lon="7.16767">
        <ele>472.14465</ele>
        <time>2010-01-10T21:11:49Z</time>
      </trkpt>
      <trkpt lat="43.80554" lon="7.16716">
        <ele>474.54797</ele>
        <time>2010-01-10T21:12:04Z</time>
      </trkpt>
      <trkpt lat="43.80565" lon="7.16692">
        <ele>473.10607</ele>
        <time>2010-01-10T21:12:12Z</time>
      </trkpt>
      <trkpt lat="43.80574" lon="7.16673">
        <ele>473.10607</ele>
        <time>2010-01-10T21:12:19Z</time>
      </trkpt>
      <trkpt lat="43.80595" lon="7.16671">
        <ele>470.22192</ele>
        <time>2010-01-10T21:12:27Z</time>
      </trkpt>
      <trkpt lat="43.80616" lon="7.16677">
        <ele>463.49279</ele>
        <time>2010-01-10T21:12:36Z</time>
      </trkpt>
      <trkpt lat="43.80642" lon="7.16678">
        <ele>464.4541</ele>
        <time>2010-01-10T21:12:46Z</time>
      </trkpt>
      <trkpt lat="43.80652" lon="7.16667">
        <ele>464.4541</ele>
        <time>2010-01-10T21:12:51Z</time>
      </trkpt>
      <trkpt lat="43.80678" lon="7.16652">
        <ele>465.41552</ele>
        <time>2010-01-10T21:13:03Z</time>
      </trkpt>
      <trkpt lat="43.807" lon="7.16649">
        <ele>463.49279</ele>
        <time>2010-01-10T21:13:12Z</time>
      </trkpt>
      <trkpt lat="43.80704" lon="7.16651">
        <ele>462.53137</ele>
        <time>2010-01-10T21:13:13Z</time>
      </trkpt>
      <trkpt lat="43.80728" lon="7.16675">
        <ele>458.20556</ele>
        <time>2010-01-10T21:13:25Z</time>
      </trkpt>
      <trkpt lat="43.80744" lon="7.16698">
        <ele>457.72497</ele>
        <time>2010-01-10T21:13:34Z</time>
      </trkpt>
      <trkpt lat="43.80761" lon="7.16711">
        <ele>458.68615</ele>
        <time>2010-01-10T21:13:42Z</time>
      </trkpt>
      <trkpt lat="43.80779" lon="7.16724">
        <ele>459.16687</ele>
        <time>2010-01-10T21:13:50Z</time>
      </trkpt>
      <trkpt lat="43.80795" lon="7.16737">
        <ele>464.93481</ele>
        <time>2010-01-10T21:13:58Z</time>
      </trkpt>
      <trkpt lat="43.80811" lon="7.16749">
        <ele>464.93481</ele>
        <time>2010-01-10T21:14:05Z</time>
      </trkpt>
      <trkpt lat="43.80834" lon="7.16766">
        <ele>463.97338</ele>
        <time>2010-01-10T21:14:15Z</time>
      </trkpt>
      <trkpt lat="43.8085" lon="7.1678">
        <ele>465.41552</ele>
        <time>2010-01-10T21:14:23Z</time>
      </trkpt>
      <trkpt lat="43.80864" lon="7.16794">
        <ele>460.12817</ele>
        <time>2010-01-10T21:14:30Z</time>
      </trkpt>
      <trkpt lat="43.80884" lon="7.16823">
        <ele>471.18334</ele>
        <time>2010-01-10T21:14:41Z</time>
      </trkpt>
      <trkpt lat="43.80897" lon="7.16845">
        <ele>475.50927</ele>
        <time>2010-01-10T21:14:50Z</time>
      </trkpt>
      <trkpt lat="43.80909" lon="7.16858">
        <ele>472.62536</ele>
        <time>2010-01-10T21:14:56Z</time>
      </trkpt>
      <trkpt lat="43.8092" lon="7.16858">
        <ele>475.02868</ele>
        <time>2010-01-10T21:15:00Z</time>
      </trkpt>
      <trkpt lat="43.80936" lon="7.16843">
        <ele>476.47058</ele>
        <time>2010-01-10T21:15:08Z</time>
      </trkpt>
      <trkpt lat="43.80953" lon="7.16822">
        <ele>477.43188</ele>
        <time>2010-01-10T21:15:17Z</time>
      </trkpt>
      <trkpt lat="43.80978" lon="7.16797">
        <ele>482.23852</ele>
        <time>2010-01-10T21:15:29Z</time>
      </trkpt>
      <trkpt lat="43.80999" lon="7.16773">
        <ele>486.08374</ele>
        <time>2010-01-10T21:15:40Z</time>
      </trkpt>
      <trkpt lat="43.81017" lon="7.16752">
        <ele>488.48718</ele>
        <time>2010-01-10T21:15:50Z</time>
      </trkpt>
      <trkpt lat="43.81034" lon="7.16731">
        <ele>490.40979</ele>
        <time>2010-01-10T21:15:59Z</time>
      </trkpt>
      <trkpt lat="43.81043" lon="7.16709">
        <ele>491.85168</ele>
        <time>2010-01-10T21:16:06Z</time>
      </trkpt>
      <trkpt lat="43.81049" lon="7.16683">
        <ele>487.52563</ele>
        <time>2010-01-10T21:16:14Z</time>
      </trkpt>
      <trkpt lat="43.81054" lon="7.1666">
        <ele>486.08374</ele>
        <time>2010-01-10T21:16:21Z</time>
      </trkpt>
      <trkpt lat="43.8106" lon="7.16639">
        <ele>479.83508</ele>
        <time>2010-01-10T21:16:27Z</time>
      </trkpt>
      <trkpt lat="43.8107" lon="7.16622">
        <ele>481.27722</ele>
        <time>2010-01-10T21:16:34Z</time>
      </trkpt>
      <trkpt lat="43.81086" lon="7.16613">
        <ele>486.56445</ele>
        <time>2010-01-10T21:16:40Z</time>
      </trkpt>
      <trkpt lat="43.81106" lon="7.16606">
        <ele>489.92907</ele>
        <time>2010-01-10T21:16:49Z</time>
      </trkpt>
      <trkpt lat="43.81129" lon="7.166">
        <ele>493.29357</ele>
        <time>2010-01-10T21:16:58Z</time>
      </trkpt>
      <trkpt lat="43.81159" lon="7.16593">
        <ele>488.96777</ele>
        <time>2010-01-10T21:17:10Z</time>
      </trkpt>
      <trkpt lat="43.8118" lon="7.16583">
        <ele>490.89038</ele>
        <time>2010-01-10T21:17:19Z</time>
      </trkpt>
      <trkpt lat="43.81199" lon="7.16571">
        <ele>495.21618</ele>
        <time>2010-01-10T21:17:28Z</time>
      </trkpt>
      <trkpt lat="43.81219" lon="7.1656">
        <ele>494.73559</ele>
        <time>2010-01-10T21:17:36Z</time>
      </trkpt>
      <trkpt lat="43.81237" lon="7.16561">
        <ele>492.33239</ele>
        <time>2010-01-10T21:17:44Z</time>
      </trkpt>
      <trkpt lat="43.81254" lon="7.16569">
        <ele>492.33239</ele>
        <time>2010-01-10T21:17:50Z</time>
      </trkpt>
      <trkpt lat="43.81267" lon="7.16568">
        <ele>486.08374</ele>
        <time>2010-01-10T21:17:56Z</time>
      </trkpt>
      <trkpt lat="43.81276" lon="7.16566">
        <ele>487.04504</ele>
        <time>2010-01-10T21:17:59Z</time>
      </trkpt>
      <trkpt lat="43.81286" lon="7.16561">
        <ele>489.44836</ele>
        <time>2010-01-10T21:18:04Z</time>
      </trkpt>
      <trkpt lat="43.81301" lon="7.16555">
        <ele>490.40979</ele>
        <time>2010-01-10T21:18:10Z</time>
      </trkpt>
      <trkpt lat="43.81317" lon="7.16548">
        <ele>497.61962</ele>
        <time>2010-01-10T21:18:17Z</time>
      </trkpt>
      <trkpt lat="43.81321" lon="7.16548">
        <ele>497.61962</ele>
        <time>2010-01-10T21:18:18Z</time>
      </trkpt>
      <trkpt lat="43.8132" lon="7.16549">
        <ele>499.54223</ele>
        <time>2010-01-10T21:18:19Z</time>
      </trkpt>
      <trkpt lat="43.8132" lon="7.1655">
        <ele>490.89038</ele>
        <time>2010-01-10T21:18:19Z</time>
      </trkpt>
      <trkpt lat="43.8132" lon="7.16549">
        <ele>492.33239</ele>
        <time>2010-01-10T21:18:20Z</time>
      </trkpt>
      <trkpt lat="43.81319" lon="7.16549">
        <ele>492.33239</ele>
        <time>2010-01-10T21:18:20Z</time>
      </trkpt>
      <trkpt lat="43.81319" lon="7.16548">
        <ele>492.81298</ele>
        <time>2010-01-10T21:18:20Z</time>
      </trkpt>
      <trkpt lat="43.81319" lon="7.16547">
        <ele>492.81298</ele>
        <time>2010-01-10T21:18:20Z</time>
      </trkpt>
      <trkpt lat="43.81319" lon="7.16547">
        <ele>491.85168</ele>
        <time>2010-01-10T21:18:21Z</time>
      </trkpt>
      <trkpt lat="43.81317" lon="7.16547">
        <ele>492.81298</ele>
        <time>2010-01-10T21:18:21Z</time>
      </trkpt>
      <trkpt lat="43.81318" lon="7.16547">
        <ele>494.255</ele>
        <time>2010-01-10T21:18:21Z</time>
      </trkpt>
      <trkpt lat="43.81318" lon="7.16548">
        <ele>494.73559</ele>
        <time>2010-01-10T21:18:22Z</time>
      </trkpt>
      <trkpt lat="43.81318" lon="7.16548">
        <ele>497.13891</ele>
        <time>2010-01-10T21:18:22Z</time>
      </trkpt>
      <trkpt lat="43.81318" lon="7.16548">
        <ele>497.61962</ele>
        <time>2010-01-10T21:18:22Z</time>
      </trkpt>
      <trkpt lat="43.81318" lon="7.16544">
        <ele>481.27722</ele>
        <time>2010-01-10T21:18:23Z</time>
      </trkpt>
      <trkpt lat="43.81318" lon="7.16548">
        <ele>489.92907</ele>
        <time>2010-01-10T21:18:24Z</time>
      </trkpt>
      <trkpt lat="43.81317" lon="7.16552">
        <ele>493.77429</ele>
        <time>2010-01-10T21:18:25Z</time>
      </trkpt>
      <trkpt lat="43.81318" lon="7.16552">
        <ele>495.21618</ele>
        <time>2010-01-10T21:18:25Z</time>
      </trkpt>
      <trkpt lat="43.81318" lon="7.16552">
        <ele>496.65832</ele>
        <time>2010-01-10T21:18:25Z</time>
      </trkpt>
      <trkpt lat="43.81317" lon="7.16553">
        <ele>497.61962</ele>
        <time>2010-01-10T21:18:26Z</time>
      </trkpt>
      <trkpt lat="43.81317" lon="7.16553">
        <ele>497.61962</ele>
        <time>2010-01-10T21:18:26Z</time>
      </trkpt>
      <trkpt lat="43.81317" lon="7.16549">
        <ele>498.58093</ele>
        <time>2010-01-10T21:18:27Z</time>
      </trkpt>
      <trkpt lat="43.81319" lon="7.16548">
        <ele>496.65832</ele>
        <time>2010-01-10T21:18:27Z</time>
      </trkpt>
      <trkpt lat="43.8132" lon="7.1654">
        <ele>489.92907</ele>
        <time>2010-01-10T21:18:30Z</time>
      </trkpt>
      <trkpt lat="43.81332" lon="7.16533">
        <ele>491.37097</ele>
        <time>2010-01-10T21:18:35Z</time>
      </trkpt>
      <trkpt lat="43.81344" lon="7.16528">
        <ele>491.85168</ele>
        <time>2010-01-10T21:18:40Z</time>
      </trkpt>
      <trkpt lat="43.81359" lon="7.16533">
        <ele>496.17773</ele>
        <time>2010-01-10T21:18:46Z</time>
      </trkpt>
      <trkpt lat="43.81366" lon="7.16533">
        <ele>492.81298</ele>
        <time>2010-01-10T21:18:49Z</time>
      </trkpt>
      <trkpt lat="43.8137" lon="7.1653">
        <ele>494.255</ele>
        <time>2010-01-10T21:18:51Z</time>
      </trkpt>
      <trkpt lat="43.81383" lon="7.16533">
        <ele>492.81298</ele>
        <time>2010-01-10T21:18:56Z</time>
      </trkpt>
      <trkpt lat="43.81389" lon="7.16539">
        <ele>504.82946</ele>
        <time>2010-01-10T21:18:59Z</time>
      </trkpt>
      <trkpt lat="43.81391" lon="7.16536">
        <ele>505.79089</ele>
        <time>2010-01-10T21:19:00Z</time>
      </trkpt>
      <trkpt lat="43.81398" lon="7.16532">
        <ele>511.55871</ele>
        <time>2010-01-10T21:19:03Z</time>
      </trkpt>
      <trkpt lat="43.81403" lon="7.16526">
        <ele>514.44262</ele>
        <time>2010-01-10T21:19:06Z</time>
      </trkpt>
      <trkpt lat="43.81406" lon="7.16524">
        <ele>516.36523</ele>
        <time>2010-01-10T21:19:07Z</time>
      </trkpt>
      <trkpt lat="43.81412" lon="7.16524">
        <ele>517.32666</ele>
        <time>2010-01-10T21:19:10Z</time>
      </trkpt>
      <trkpt lat="43.81422" lon="7.16517">
        <ele>516.36523</ele>
        <time>2010-01-10T21:19:14Z</time>
      </trkpt>
      <trkpt lat="43.81432" lon="7.16519">
        <ele>519.72985</ele>
        <time>2010-01-10T21:19:18Z</time>
      </trkpt>
      <trkpt lat="43.81443" lon="7.16517">
        <ele>521.17199</ele>
        <time>2010-01-10T21:19:23Z</time>
      </trkpt>
      <trkpt lat="43.81445" lon="7.16517">
        <ele>522.13317</ele>
        <time>2010-01-10T21:19:23Z</time>
      </trkpt>
      <trkpt lat="43.81455" lon="7.16506">
        <ele>519.24926</ele>
        <time>2010-01-10T21:19:28Z</time>
      </trkpt>
      <trkpt lat="43.81466" lon="7.16495">
        <ele>513.96203</ele>
        <time>2010-01-10T21:19:34Z</time>
      </trkpt>
      <trkpt lat="43.81467" lon="7.16495">
        <ele>513.96203</ele>
        <time>2010-01-10T21:19:34Z</time>
      </trkpt>
      <trkpt lat="43.81471" lon="7.16496">
        <ele>519.24926</ele>
        <time>2010-01-10T21:19:36Z</time>
      </trkpt>
      <trkpt lat="43.81477" lon="7.16491">
        <ele>520.21057</ele>
        <time>2010-01-10T21:19:39Z</time>
      </trkpt>
      <trkpt lat="43.81486" lon="7.16491">
        <ele>521.17199</ele>
        <time>2010-01-10T21:19:43Z</time>
      </trkpt>
      <trkpt lat="43.81496" lon="7.16491">
        <ele>525.01721</ele>
        <time>2010-01-10T21:19:47Z</time>
      </trkpt>
      <trkpt lat="43.81509" lon="7.16492">
        <ele>530.78515</ele>
        <time>2010-01-10T21:19:52Z</time>
      </trkpt>
      <trkpt lat="43.81521" lon="7.1649">
        <ele>527.901</ele>
        <time>2010-01-10T21:19:57Z</time>
      </trkpt>
      <trkpt lat="43.81536" lon="7.16487">
        <ele>527.901</ele>
        <time>2010-01-10T21:20:03Z</time>
      </trkpt>
      <trkpt lat="43.81543" lon="7.16481">
        <ele>528.38183</ele>
        <time>2010-01-10T21:20:06Z</time>
      </trkpt>
      <trkpt lat="43.81545" lon="7.16481">
        <ele>529.34313</ele>
        <time>2010-01-10T21:20:07Z</time>
      </trkpt>
      <trkpt lat="43.8155" lon="7.16472">
        <ele>530.78515</ele>
        <time>2010-01-10T21:20:10Z</time>
      </trkpt>
      <trkpt lat="43.81564" lon="7.16467">
        <ele>528.38183</ele>
        <time>2010-01-10T21:20:16Z</time>
      </trkpt>
      <trkpt lat="43.81572" lon="7.1646">
        <ele>529.82373</ele>
        <time>2010-01-10T21:20:20Z</time>
      </trkpt>
      <trkpt lat="43.81585" lon="7.16449">
        <ele>532.70776</ele>
        <time>2010-01-10T21:20:26Z</time>
      </trkpt>
      <trkpt lat="43.81599" lon="7.1644">
        <ele>541.35949</ele>
        <time>2010-01-10T21:20:32Z</time>
      </trkpt>
      <trkpt lat="43.81612" lon="7.16431">
        <ele>537.03369</ele>
        <time>2010-01-10T21:20:38Z</time>
      </trkpt>
      <trkpt lat="43.81625" lon="7.16423">
        <ele>534.63037</ele>
        <time>2010-01-10T21:20:43Z</time>
      </trkpt>
      <trkpt lat="43.81635" lon="7.16412">
        <ele>538.4757</ele>
        <time>2010-01-10T21:20:48Z</time>
      </trkpt>
      <trkpt lat="43.81649" lon="7.16405">
        <ele>541.35949</ele>
        <time>2010-01-10T21:20:54Z</time>
      </trkpt>
      <trkpt lat="43.81649" lon="7.16405">
        <ele>541.35949</ele>
        <time>2010-01-10T21:20:55Z</time>
      </trkpt>
      <trkpt lat="43.81651" lon="7.16403">
        <ele>540.39831</ele>
        <time>2010-01-10T21:20:55Z</time>
      </trkpt>
      <trkpt lat="43.81651" lon="7.16394">
        <ele>538.95629</ele>
        <time>2010-01-10T21:20:58Z</time>
      </trkpt>
      <trkpt lat="43.81652" lon="7.16374">
        <ele>536.5531</ele>
        <time>2010-01-10T21:21:04Z</time>
      </trkpt>
      <trkpt lat="43.81653" lon="7.16361">
        <ele>536.07238</ele>
        <time>2010-01-10T21:21:08Z</time>
      </trkpt>
      <trkpt lat="43.81652" lon="7.16347">
        <ele>537.99499</ele>
        <time>2010-01-10T21:21:12Z</time>
      </trkpt>
      <trkpt lat="43.81651" lon="7.16335">
        <ele>546.16625</ele>
        <time>2010-01-10T21:21:15Z</time>
      </trkpt>
      <trkpt lat="43.81658" lon="7.16325">
        <ele>548.08886</ele>
        <time>2010-01-10T21:21:19Z</time>
      </trkpt>
      <trkpt lat="43.81674" lon="7.16318">
        <ele>547.12744</ele>
        <time>2010-01-10T21:21:26Z</time>
      </trkpt>
      <trkpt lat="43.81686" lon="7.16313">
        <ele>547.60815</ele>
        <time>2010-01-10T21:21:31Z</time>
      </trkpt>
      <trkpt lat="43.81695" lon="7.16304">
        <ele>546.64685</ele>
        <time>2010-01-10T21:21:35Z</time>
      </trkpt>
      <trkpt lat="43.81703" lon="7.16285">
        <ele>541.84021</ele>
        <time>2010-01-10T21:21:42Z</time>
      </trkpt>
      <trkpt lat="43.81705" lon="7.16269">
        <ele>538.95629</ele>
        <time>2010-01-10T21:21:46Z</time>
      </trkpt>
      <trkpt lat="43.81706" lon="7.16255">
        <ele>537.51428</ele>
        <time>2010-01-10T21:21:51Z</time>
      </trkpt>
      <trkpt lat="43.81705" lon="7.16251">
        <ele>537.51428</ele>
        <time>2010-01-10T21:21:52Z</time>
      </trkpt>
      <trkpt lat="43.81705" lon="7.16237">
        <ele>538.95629</ele>
        <time>2010-01-10T21:21:56Z</time>
      </trkpt>
      <trkpt lat="43.81705" lon="7.16234">
        <ele>539.43688</ele>
        <time>2010-01-10T21:21:57Z</time>
      </trkpt>
      <trkpt lat="43.81705" lon="7.16224">
        <ele>548.08886</ele>
        <time>2010-01-10T21:22:00Z</time>
      </trkpt>
      <trkpt lat="43.8171" lon="7.16211">
        <ele>550.01147</ele>
        <time>2010-01-10T21:22:04Z</time>
      </trkpt>
      <trkpt lat="43.81713" lon="7.16201">
        <ele>550.49218</ele>
        <time>2010-01-10T21:22:07Z</time>
      </trkpt>
      <trkpt lat="43.81718" lon="7.1619">
        <ele>559.14404</ele>
        <time>2010-01-10T21:22:11Z</time>
      </trkpt>
      <trkpt lat="43.81717" lon="7.16182">
        <ele>559.14404</ele>
        <time>2010-01-10T21:22:13Z</time>
      </trkpt>
      <trkpt lat="43.81713" lon="7.16168">
        <ele>562.98925</ele>
        <time>2010-01-10T21:22:17Z</time>
      </trkpt>
      <trkpt lat="43.8171" lon="7.16155">
        <ele>564.91186</ele>
        <time>2010-01-10T21:22:21Z</time>
      </trkpt>
      <trkpt lat="43.81709" lon="7.16141">
        <ele>567.31518</ele>
        <time>2010-01-10T21:22:25Z</time>
      </trkpt>
      <trkpt lat="43.81709" lon="7.16125">
        <ele>563.95043</ele>
        <time>2010-01-10T21:22:30Z</time>
      </trkpt>
      <trkpt lat="43.81709" lon="7.16113">
        <ele>564.91186</ele>
        <time>2010-01-10T21:22:33Z</time>
      </trkpt>
      <trkpt lat="43.81707" lon="7.16103">
        <ele>570.19897</ele>
        <time>2010-01-10T21:22:36Z</time>
      </trkpt>
      <trkpt lat="43.81705" lon="7.16091">
        <ele>570.67968</ele>
        <time>2010-01-10T21:22:40Z</time>
      </trkpt>
      <trkpt lat="43.81701" lon="7.16083">
        <ele>573.08325</ele>
        <time>2010-01-10T21:22:42Z</time>
      </trkpt>
      <trkpt lat="43.81696" lon="7.16072">
        <ele>577.40917</ele>
        <time>2010-01-10T21:22:46Z</time>
      </trkpt>
      <trkpt lat="43.81692" lon="7.16058">
        <ele>580.77368</ele>
        <time>2010-01-10T21:22:51Z</time>
      </trkpt>
      <trkpt lat="43.81691" lon="7.16045">
        <ele>579.81225</ele>
        <time>2010-01-10T21:22:54Z</time>
      </trkpt>
      <trkpt lat="43.81691" lon="7.16043">
        <ele>579.81225</ele>
        <time>2010-01-10T21:22:55Z</time>
      </trkpt>
      <trkpt lat="43.81685" lon="7.16038">
        <ele>578.37036</ele>
        <time>2010-01-10T21:22:57Z</time>
      </trkpt>
      <trkpt lat="43.81682" lon="7.16048">
        <ele>578.37036</ele>
        <time>2010-01-10T21:23:00Z</time>
      </trkpt>
      <trkpt lat="43.81683" lon="7.16052">
        <ele>576.44775</ele>
        <time>2010-01-10T21:23:02Z</time>
      </trkpt>
      <trkpt lat="43.81681" lon="7.16063">
        <ele>577.88964</ele>
        <time>2010-01-10T21:23:05Z</time>
      </trkpt>
      <trkpt lat="43.8168" lon="7.16065">
        <ele>577.88964</ele>
        <time>2010-01-10T21:23:06Z</time>
      </trkpt>
      <trkpt lat="43.81676" lon="7.16058">
        <ele>578.85107</ele>
        <time>2010-01-10T21:23:08Z</time>
      </trkpt>
      <trkpt lat="43.81674" lon="7.16051">
        <ele>582.21557</ele>
        <time>2010-01-10T21:23:11Z</time>
      </trkpt>
      <trkpt lat="43.81671" lon="7.16033">
        <ele>586.5415</ele>
        <time>2010-01-10T21:23:16Z</time>
      </trkpt>
      <trkpt lat="43.81669" lon="7.16025">
        <ele>588.46435</ele>
        <time>2010-01-10T21:23:18Z</time>
      </trkpt>
      <trkpt lat="43.81667" lon="7.16012">
        <ele>589.90625</ele>
        <time>2010-01-10T21:23:22Z</time>
      </trkpt>
      <trkpt lat="43.81666" lon="7.15999">
        <ele>591.82885</ele>
        <time>2010-01-10T21:23:26Z</time>
      </trkpt>
      <trkpt lat="43.81665" lon="7.15988">
        <ele>591.34814</ele>
        <time>2010-01-10T21:23:29Z</time>
      </trkpt>
      <trkpt lat="43.81664" lon="7.15982">
        <ele>593.27075</ele>
        <time>2010-01-10T21:23:31Z</time>
      </trkpt>
      <trkpt lat="43.81663" lon="7.1598">
        <ele>593.27075</ele>
        <time>2010-01-10T21:23:32Z</time>
      </trkpt>
      <trkpt lat="43.81654" lon="7.15968">
        <ele>592.30957</ele>
        <time>2010-01-10T21:23:37Z</time>
      </trkpt>
      <trkpt lat="43.81646" lon="7.15958">
        <ele>595.19335</ele>
        <time>2010-01-10T21:23:41Z</time>
      </trkpt>
      <trkpt lat="43.81646" lon="7.15956">
        <ele>595.67407</ele>
        <time>2010-01-10T21:23:41Z</time>
      </trkpt>
      <trkpt lat="43.8164" lon="7.1595">
        <ele>594.71264</ele>
        <time>2010-01-10T21:23:44Z</time>
      </trkpt>
      <trkpt lat="43.81634" lon="7.15942">
        <ele>596.15478</ele>
        <time>2010-01-10T21:23:48Z</time>
      </trkpt>
      <trkpt lat="43.81634" lon="7.1594">
        <ele>596.63549</ele>
        <time>2010-01-10T21:23:48Z</time>
      </trkpt>
      <trkpt lat="43.81633" lon="7.15938">
        <ele>597.59667</ele>
        <time>2010-01-10T21:23:49Z</time>
      </trkpt>
      <trkpt lat="43.81629" lon="7.15927">
        <ele>598.55786</ele>
        <time>2010-01-10T21:23:53Z</time>
      </trkpt>
      <trkpt lat="43.81626" lon="7.15917">
        <ele>597.59667</ele>
        <time>2010-01-10T21:23:56Z</time>
      </trkpt>
      <trkpt lat="43.81618" lon="7.15895">
        <ele>596.15478</ele>
        <time>2010-01-10T21:24:03Z</time>
      </trkpt>
      <trkpt lat="43.81613" lon="7.15881">
        <ele>597.59667</ele>
        <time>2010-01-10T21:24:07Z</time>
      </trkpt>
      <trkpt lat="43.81607" lon="7.15867">
        <ele>597.59667</ele>
        <time>2010-01-10T21:24:12Z</time>
      </trkpt>
      <trkpt lat="43.81601" lon="7.15851">
        <ele>600</ele>
        <time>2010-01-10T21:24:17Z</time>
      </trkpt>
      <trkpt lat="43.81592" lon="7.1583">
        <ele>603.84521</ele>
        <time>2010-01-10T21:24:24Z</time>
      </trkpt>
      <trkpt lat="43.8158" lon="7.1581">
        <ele>608.17138</ele>
        <time>2010-01-10T21:24:32Z</time>
      </trkpt>
      <trkpt lat="43.81568" lon="7.15801">
        <ele>606.24853</ele>
        <time>2010-01-10T21:24:37Z</time>
      </trkpt>
      <trkpt lat="43.81555" lon="7.15796">
        <ele>603.3645</ele>
        <time>2010-01-10T21:24:43Z</time>
      </trkpt>
      <trkpt lat="43.81545" lon="7.1579">
        <ele>602.40307</ele>
        <time>2010-01-10T21:24:47Z</time>
      </trkpt>
      <trkpt lat="43.81537" lon="7.15783">
        <ele>603.84521</ele>
        <time>2010-01-10T21:24:51Z</time>
      </trkpt>
      <trkpt lat="43.8153" lon="7.15774">
        <ele>607.20996</ele>
        <time>2010-01-10T21:24:55Z</time>
      </trkpt>
      <trkpt lat="43.81524" lon="7.15765">
        <ele>607.69067</ele>
        <time>2010-01-10T21:24:58Z</time>
      </trkpt>
      <trkpt lat="43.8152" lon="7.15758">
        <ele>612.49707</ele>
        <time>2010-01-10T21:25:01Z</time>
      </trkpt>
      <trkpt lat="43.81511" lon="7.15747">
        <ele>615.3811</ele>
        <time>2010-01-10T21:25:06Z</time>
      </trkpt>
      <trkpt lat="43.81509" lon="7.15743">
        <ele>614.90039</ele>
        <time>2010-01-10T21:25:07Z</time>
      </trkpt>
      <trkpt lat="43.81507" lon="7.15732">
        <ele>615.3811</ele>
        <time>2010-01-10T21:25:10Z</time>
      </trkpt>
      <trkpt lat="43.81505" lon="7.15725">
        <ele>616.34228</ele>
        <time>2010-01-10T21:25:12Z</time>
      </trkpt>
      <trkpt lat="43.815" lon="7.15717">
        <ele>622.11035</ele>
        <time>2010-01-10T21:25:15Z</time>
      </trkpt>
      <trkpt lat="43.81497" lon="7.15713">
        <ele>624.51367</ele>
        <time>2010-01-10T21:25:17Z</time>
      </trkpt>
      <trkpt lat="43.8149" lon="7.15699">
        <ele>624.99438</ele>
        <time>2010-01-10T21:25:22Z</time>
      </trkpt>
      <trkpt lat="43.81488" lon="7.1569">
        <ele>622.59106</ele>
        <time>2010-01-10T21:25:25Z</time>
      </trkpt>
      <trkpt lat="43.81484" lon="7.15678">
        <ele>627.87817</ele>
        <time>2010-01-10T21:25:29Z</time>
      </trkpt>
      <trkpt lat="43.81479" lon="7.15667">
        <ele>629.80078</ele>
        <time>2010-01-10T21:25:32Z</time>
      </trkpt>
      <trkpt lat="43.81473" lon="7.15659">
        <ele>629.80078</ele>
        <time>2010-01-10T21:25:35Z</time>
      </trkpt>
      <trkpt lat="43.81465" lon="7.15645">
        <ele>630.28149</ele>
        <time>2010-01-10T21:25:41Z</time>
      </trkpt>
      <trkpt lat="43.81458" lon="7.15633">
        <ele>629.32006</ele>
        <time>2010-01-10T21:25:45Z</time>
      </trkpt>
      <trkpt lat="43.81451" lon="7.15623">
        <ele>627.87817</ele>
        <time>2010-01-10T21:25:49Z</time>
      </trkpt>
      <trkpt lat="43.81446" lon="7.15614">
        <ele>628.83959</ele>
        <time>2010-01-10T21:25:53Z</time>
      </trkpt>
      <trkpt lat="43.81443" lon="7.15608">
        <ele>632.68481</ele>
        <time>2010-01-10T21:25:55Z</time>
      </trkpt>
      <trkpt lat="43.81438" lon="7.15591">
        <ele>632.68481</ele>
        <time>2010-01-10T21:26:00Z</time>
      </trkpt>
      <trkpt lat="43.81435" lon="7.15578">
        <ele>634.1267</ele>
        <time>2010-01-10T21:26:04Z</time>
      </trkpt>
      <trkpt lat="43.81427" lon="7.15566">
        <ele>631.72338</ele>
        <time>2010-01-10T21:26:08Z</time>
      </trkpt>
      <trkpt lat="43.81421" lon="7.15559">
        <ele>629.80078</ele>
        <time>2010-01-10T21:26:12Z</time>
      </trkpt>
      <trkpt lat="43.81409" lon="7.15557">
        <ele>628.35888</ele>
        <time>2010-01-10T21:26:16Z</time>
      </trkpt>
      <trkpt lat="43.81399" lon="7.15554">
        <ele>628.35888</ele>
        <time>2010-01-10T21:26:20Z</time>
      </trkpt>
      <trkpt lat="43.81391" lon="7.15555">
        <ele>629.32006</ele>
        <time>2010-01-10T21:26:24Z</time>
      </trkpt>
      <trkpt lat="43.81377" lon="7.15557">
        <ele>631.72338</ele>
        <time>2010-01-10T21:26:29Z</time>
      </trkpt>
      <trkpt lat="43.81373" lon="7.1556">
        <ele>632.68481</ele>
        <time>2010-01-10T21:26:31Z</time>
      </trkpt>
      <trkpt lat="43.81368" lon="7.15559">
        <ele>632.68481</ele>
        <time>2010-01-10T21:26:33Z</time>
      </trkpt>
      <trkpt lat="43.81364" lon="7.15558">
        <ele>633.64599</ele>
        <time>2010-01-10T21:26:35Z</time>
      </trkpt>
      <trkpt lat="43.81366" lon="7.15549">
        <ele>636.04956</ele>
        <time>2010-01-10T21:26:38Z</time>
      </trkpt>
      <trkpt lat="43.81368" lon="7.15548">
        <ele>637.97216</ele>
        <time>2010-01-10T21:26:39Z</time>
      </trkpt>
      <trkpt lat="43.81377" lon="7.15543">
        <ele>638.45288</ele>
        <time>2010-01-10T21:26:42Z</time>
      </trkpt>
      <trkpt lat="43.81384" lon="7.15534">
        <ele>638.93359</ele>
        <time>2010-01-10T21:26:46Z</time>
      </trkpt>
      <trkpt lat="43.81386" lon="7.1553">
        <ele>638.93359</ele>
        <time>2010-01-10T21:26:48Z</time>
      </trkpt>
      <trkpt lat="43.81389" lon="7.15529">
        <ele>639.41406</ele>
        <time>2010-01-10T21:26:49Z</time>
      </trkpt>
      <trkpt lat="43.81394" lon="7.15522">
        <ele>638.45288</ele>
        <time>2010-01-10T21:26:51Z</time>
      </trkpt>
      <trkpt lat="43.81394" lon="7.15518">
        <ele>637.49145</ele>
        <time>2010-01-10T21:26:53Z</time>
      </trkpt>
      <trkpt lat="43.81396" lon="7.15517">
        <ele>637.49145</ele>
        <time>2010-01-10T21:26:54Z</time>
      </trkpt>
      <trkpt lat="43.814" lon="7.15511">
        <ele>639.89477</ele>
        <time>2010-01-10T21:26:56Z</time>
      </trkpt>
      <trkpt lat="43.81401" lon="7.15507">
        <ele>643.73999</ele>
        <time>2010-01-10T21:26:57Z</time>
      </trkpt>
      <trkpt lat="43.81402" lon="7.15502">
        <ele>644.2207</ele>
        <time>2010-01-10T21:26:59Z</time>
      </trkpt>
      <trkpt lat="43.81404" lon="7.15495">
        <ele>641.33666</ele>
        <time>2010-01-10T21:27:01Z</time>
      </trkpt>
      <trkpt lat="43.81408" lon="7.15489">
        <ele>643.73999</ele>
        <time>2010-01-10T21:27:03Z</time>
      </trkpt>
      <trkpt lat="43.8141" lon="7.15486">
        <ele>647.10449</ele>
        <time>2010-01-10T21:27:04Z</time>
      </trkpt>
      <trkpt lat="43.81413" lon="7.15483">
        <ele>650.9497</ele>
        <time>2010-01-10T21:27:06Z</time>
      </trkpt>
      <trkpt lat="43.81415" lon="7.15471">
        <ele>644.70117</ele>
        <time>2010-01-10T21:27:09Z</time>
      </trkpt>
      <trkpt lat="43.81417" lon="7.15462">
        <ele>641.33666</ele>
        <time>2010-01-10T21:27:12Z</time>
      </trkpt>
      <trkpt lat="43.81416" lon="7.15455">
        <ele>646.14331</ele>
        <time>2010-01-10T21:27:14Z</time>
      </trkpt>
      <trkpt lat="43.81414" lon="7.15451">
        <ele>646.14331</ele>
        <time>2010-01-10T21:27:16Z</time>
      </trkpt>
      <trkpt lat="43.81411" lon="7.15448">
        <ele>645.18188</ele>
        <time>2010-01-10T21:27:17Z</time>
      </trkpt>
      <trkpt lat="43.81412" lon="7.15436">
        <ele>651.91113</ele>
        <time>2010-01-10T21:27:21Z</time>
      </trkpt>
      <trkpt lat="43.81413" lon="7.1543">
        <ele>655.27587</ele>
        <time>2010-01-10T21:27:22Z</time>
      </trkpt>
      <trkpt lat="43.81413" lon="7.15416">
        <ele>658.64038</ele>
        <time>2010-01-10T21:27:26Z</time>
      </trkpt>
      <trkpt lat="43.81414" lon="7.15403">
        <ele>659.12109</ele>
        <time>2010-01-10T21:27:30Z</time>
      </trkpt>
      <trkpt lat="43.81415" lon="7.15398">
        <ele>660.56298</ele>
        <time>2010-01-10T21:27:31Z</time>
      </trkpt>
      <trkpt lat="43.81415" lon="7.15383">
        <ele>658.15991</ele>
        <time>2010-01-10T21:27:36Z</time>
      </trkpt>
      <trkpt lat="43.81419" lon="7.15367">
        <ele>654.31469</ele>
        <time>2010-01-10T21:27:41Z</time>
      </trkpt>
      <trkpt lat="43.81424" lon="7.15355">
        <ele>655.27587</ele>
        <time>2010-01-10T21:27:45Z</time>
      </trkpt>
      <trkpt lat="43.81429" lon="7.15341">
        <ele>655.75659</ele>
        <time>2010-01-10T21:27:49Z</time>
      </trkpt>
      <trkpt lat="43.81431" lon="7.15338">
        <ele>659.12109</ele>
        <time>2010-01-10T21:27:50Z</time>
      </trkpt>
      <trkpt lat="43.81432" lon="7.15322">
        <ele>662.48559</ele>
        <time>2010-01-10T21:27:55Z</time>
      </trkpt>
      <trkpt lat="43.81435" lon="7.15311">
        <ele>662.48559</ele>
        <time>2010-01-10T21:27:58Z</time>
      </trkpt>
      <trkpt lat="43.81434" lon="7.15302">
        <ele>665.85034</ele>
        <time>2010-01-10T21:28:01Z</time>
      </trkpt>
      <trkpt lat="43.81434" lon="7.15292">
        <ele>669.21508</ele>
        <time>2010-01-10T21:28:04Z</time>
      </trkpt>
      <trkpt lat="43.81433" lon="7.15286">
        <ele>672.57958</ele>
        <time>2010-01-10T21:28:06Z</time>
      </trkpt>
      <trkpt lat="43.81433" lon="7.15282">
        <ele>676.4248</ele>
        <time>2010-01-10T21:28:07Z</time>
      </trkpt>
      <trkpt lat="43.81438" lon="7.15266">
        <ele>672.09887</ele>
        <time>2010-01-10T21:28:12Z</time>
      </trkpt>
      <trkpt lat="43.8144" lon="7.15253">
        <ele>670.65698</ele>
        <time>2010-01-10T21:28:16Z</time>
      </trkpt>
      <trkpt lat="43.81445" lon="7.1524">
        <ele>669.21508</ele>
        <time>2010-01-10T21:28:20Z</time>
      </trkpt>
      <trkpt lat="43.8145" lon="7.1523">
        <ele>669.21508</ele>
        <time>2010-01-10T21:28:24Z</time>
      </trkpt>
      <trkpt lat="43.81454" lon="7.15216">
        <ele>666.33081</ele>
        <time>2010-01-10T21:28:28Z</time>
      </trkpt>
      <trkpt lat="43.81454" lon="7.15206">
        <ele>669.21508</ele>
        <time>2010-01-10T21:28:31Z</time>
      </trkpt>
      <trkpt lat="43.81453" lon="7.15195">
        <ele>674.50219</ele>
        <time>2010-01-10T21:28:34Z</time>
      </trkpt>
      <trkpt lat="43.81453" lon="7.1518">
        <ele>674.50219</ele>
        <time>2010-01-10T21:28:38Z</time>
      </trkpt>
      <trkpt lat="43.81453" lon="7.15164">
        <ele>674.50219</ele>
        <time>2010-01-10T21:28:43Z</time>
      </trkpt>
      <trkpt lat="43.81456" lon="7.15144">
        <ele>674.98291</ele>
        <time>2010-01-10T21:28:49Z</time>
      </trkpt>
      <trkpt lat="43.81459" lon="7.15134">
        <ele>681.71191</ele>
        <time>2010-01-10T21:28:52Z</time>
      </trkpt>
      <trkpt lat="43.81459" lon="7.15116">
        <ele>681.23144</ele>
        <time>2010-01-10T21:28:57Z</time>
      </trkpt>
      <trkpt lat="43.81463" lon="7.15098">
        <ele>681.23144</ele>
        <time>2010-01-10T21:29:02Z</time>
      </trkpt>
      <trkpt lat="43.81469" lon="7.15086">
        <ele>682.19262</ele>
        <time>2010-01-10T21:29:07Z</time>
      </trkpt>
      <trkpt lat="43.81479" lon="7.15067">
        <ele>683.1538</ele>
        <time>2010-01-10T21:29:13Z</time>
      </trkpt>
      <trkpt lat="43.81488" lon="7.15049">
        <ele>682.67333</ele>
        <time>2010-01-10T21:29:20Z</time>
      </trkpt>
      <trkpt lat="43.81489" lon="7.15032">
        <ele>685.0769</ele>
        <time>2010-01-10T21:29:25Z</time>
      </trkpt>
      <trkpt lat="43.81488" lon="7.15015">
        <ele>682.19262</ele>
        <time>2010-01-10T21:29:30Z</time>
      </trkpt>
      <trkpt lat="43.81488" lon="7.15012">
        <ele>681.23144</ele>
        <time>2010-01-10T21:29:31Z</time>
      </trkpt>
      <trkpt lat="43.81487" lon="7.1501">
        <ele>683.1538</ele>
        <time>2010-01-10T21:29:31Z</time>
      </trkpt>
      <trkpt lat="43.81497" lon="7.14998">
        <ele>679.30859</ele>
        <time>2010-01-10T21:29:37Z</time>
      </trkpt>
      <trkpt lat="43.81496" lon="7.14989">
        <ele>681.23144</ele>
        <time>2010-01-10T21:29:39Z</time>
      </trkpt>
      <trkpt lat="43.81497" lon="7.14986">
        <ele>678.34741</ele>
        <time>2010-01-10T21:29:40Z</time>
      </trkpt>
      <trkpt lat="43.81496" lon="7.14985">
        <ele>669.6958</ele>
        <time>2010-01-10T21:29:41Z</time>
      </trkpt>
      <trkpt lat="43.81495" lon="7.14986">
        <ele>666.33081</ele>
        <time>2010-01-10T21:29:41Z</time>
      </trkpt>
      <trkpt lat="43.81496" lon="7.14985">
        <ele>668.73437</ele>
        <time>2010-01-10T21:29:42Z</time>
      </trkpt>
      <trkpt lat="43.81498" lon="7.1498">
        <ele>669.6958</ele>
        <time>2010-01-10T21:29:43Z</time>
      </trkpt>
      <trkpt lat="43.81499" lon="7.14957">
        <ele>676.4248</ele>
        <time>2010-01-10T21:29:50Z</time>
      </trkpt>
      <trkpt lat="43.81496" lon="7.14927">
        <ele>679.30859</ele>
        <time>2010-01-10T21:29:59Z</time>
      </trkpt>
      <trkpt lat="43.81492" lon="7.149">
        <ele>684.59619</ele>
        <time>2010-01-10T21:30:07Z</time>
      </trkpt>
      <trkpt lat="43.81489" lon="7.14875">
        <ele>689.40258</ele>
        <time>2010-01-10T21:30:14Z</time>
      </trkpt>
      <trkpt lat="43.81485" lon="7.14859">
        <ele>695.65112</ele>
        <time>2010-01-10T21:30:19Z</time>
      </trkpt>
      <trkpt lat="43.81478" lon="7.14837">
        <ele>695.17041</ele>
        <time>2010-01-10T21:30:26Z</time>
      </trkpt>
      <trkpt lat="43.81477" lon="7.14832">
        <ele>695.65112</ele>
        <time>2010-01-10T21:30:28Z</time>
      </trkpt>
      <trkpt lat="43.81476" lon="7.14815">
        <ele>693.2478</ele>
        <time>2010-01-10T21:30:33Z</time>
      </trkpt>
      <trkpt lat="43.81471" lon="7.14797">
        <ele>697.57373</ele>
        <time>2010-01-10T21:30:38Z</time>
      </trkpt>
      <trkpt lat="43.8147" lon="7.14782">
        <ele>699.01562</ele>
        <time>2010-01-10T21:30:42Z</time>
      </trkpt>
      <trkpt lat="43.81465" lon="7.14755">
        <ele>692.28662</ele>
        <time>2010-01-10T21:30:51Z</time>
      </trkpt>
      <trkpt lat="43.81469" lon="7.14733">
        <ele>692.28662</ele>
        <time>2010-01-10T21:30:57Z</time>
      </trkpt>
      <trkpt lat="43.81474" lon="7.14724">
        <ele>693.2478</ele>
        <time>2010-01-10T21:31:00Z</time>
      </trkpt>
      <trkpt lat="43.81476" lon="7.1471">
        <ele>695.17041</ele>
        <time>2010-01-10T21:31:04Z</time>
      </trkpt>
      <trkpt lat="43.81476" lon="7.14686">
        <ele>695.17041</ele>
        <time>2010-01-10T21:31:11Z</time>
      </trkpt>
      <trkpt lat="43.81475" lon="7.14663">
        <ele>697.09301</ele>
        <time>2010-01-10T21:31:18Z</time>
      </trkpt>
      <trkpt lat="43.81466" lon="7.14636">
        <ele>689.8833</ele>
        <time>2010-01-10T21:31:27Z</time>
      </trkpt>
      <trkpt lat="43.81466" lon="7.14614">
        <ele>687.96069</ele>
        <time>2010-01-10T21:31:33Z</time>
      </trkpt>
      <trkpt lat="43.8146" lon="7.14592">
        <ele>689.40258</ele>
        <time>2010-01-10T21:31:40Z</time>
      </trkpt>
      <trkpt lat="43.81453" lon="7.1457">
        <ele>693.72851</ele>
        <time>2010-01-10T21:31:46Z</time>
      </trkpt>
      <trkpt lat="43.81449" lon="7.14551">
        <ele>695.17041</ele>
        <time>2010-01-10T21:31:52Z</time>
      </trkpt>
      <trkpt lat="43.81443" lon="7.14532">
        <ele>697.57373</ele>
        <time>2010-01-10T21:31:58Z</time>
      </trkpt>
      <trkpt lat="43.81438" lon="7.14517">
        <ele>697.57373</ele>
        <time>2010-01-10T21:32:03Z</time>
      </trkpt>
      <trkpt lat="43.81434" lon="7.14502">
        <ele>696.61254</ele>
        <time>2010-01-10T21:32:08Z</time>
      </trkpt>
      <trkpt lat="43.81427" lon="7.14479">
        <ele>698.05444</ele>
        <time>2010-01-10T21:32:15Z</time>
      </trkpt>
      <trkpt lat="43.81423" lon="7.14465">
        <ele>702.38037</ele>
        <time>2010-01-10T21:32:19Z</time>
      </trkpt>
      <trkpt lat="43.81416" lon="7.14446">
        <ele>701.8999</ele>
        <time>2010-01-10T21:32:26Z</time>
      </trkpt>
      <trkpt lat="43.81418" lon="7.14429">
        <ele>702.38037</ele>
        <time>2010-01-10T21:32:30Z</time>
      </trkpt>
      <trkpt lat="43.81415" lon="7.14415">
        <ele>705.2644</ele>
        <time>2010-01-10T21:32:35Z</time>
      </trkpt>
      <trkpt lat="43.81408" lon="7.14398">
        <ele>705.2644</ele>
        <time>2010-01-10T21:32:41Z</time>
      </trkpt>
      <trkpt lat="43.81405" lon="7.14381">
        <ele>709.59033</ele>
        <time>2010-01-10T21:32:46Z</time>
      </trkpt>
      <trkpt lat="43.81403" lon="7.14358">
        <ele>704.78369</ele>
        <time>2010-01-10T21:32:52Z</time>
      </trkpt>
      <trkpt lat="43.81401" lon="7.14336">
        <ele>703.8225</ele>
        <time>2010-01-10T21:32:59Z</time>
      </trkpt>
      <trkpt lat="43.814" lon="7.14316">
        <ele>705.2644</ele>
        <time>2010-01-10T21:33:04Z</time>
      </trkpt>
      <trkpt lat="43.81399" lon="7.14299">
        <ele>705.2644</ele>
        <time>2010-01-10T21:33:09Z</time>
      </trkpt>
      <trkpt lat="43.81392" lon="7.14275">
        <ele>704.30322</ele>
        <time>2010-01-10T21:33:17Z</time>
      </trkpt>
      <trkpt lat="43.81385" lon="7.14252">
        <ele>703.34179</ele>
        <time>2010-01-10T21:33:24Z</time>
      </trkpt>
      <trkpt lat="43.81379" lon="7.14233">
        <ele>702.38037</ele>
        <time>2010-01-10T21:33:30Z</time>
      </trkpt>
      <trkpt lat="43.81373" lon="7.1421">
        <ele>701.41918</ele>
        <time>2010-01-10T21:33:37Z</time>
      </trkpt>
      <trkpt lat="43.81368" lon="7.14194">
        <ele>701.8999</ele>
        <time>2010-01-10T21:33:42Z</time>
      </trkpt>
      <trkpt lat="43.81355" lon="7.14174">
        <ele>697.57373</ele>
        <time>2010-01-10T21:33:50Z</time>
      </trkpt>
      <trkpt lat="43.81349" lon="7.14155">
        <ele>697.57373</ele>
        <time>2010-01-10T21:33:56Z</time>
      </trkpt>
      <trkpt lat="43.81338" lon="7.14131">
        <ele>696.61254</ele>
        <time>2010-01-10T21:34:04Z</time>
      </trkpt>
      <trkpt lat="43.81331" lon="7.1412">
        <ele>696.61254</ele>
        <time>2010-01-10T21:34:08Z</time>
      </trkpt>
      <trkpt lat="43.81324" lon="7.14103">
        <ele>698.05444</ele>
        <time>2010-01-10T21:34:14Z</time>
      </trkpt>
      <trkpt lat="43.81313" lon="7.14088">
        <ele>698.05444</ele>
        <time>2010-01-10T21:34:20Z</time>
      </trkpt>
      <trkpt lat="43.81306" lon="7.14075">
        <ele>697.09301</ele>
        <time>2010-01-10T21:34:25Z</time>
      </trkpt>
      <trkpt lat="43.81296" lon="7.14059">
        <ele>695.65112</ele>
        <time>2010-01-10T21:34:31Z</time>
      </trkpt>
      <trkpt lat="43.81284" lon="7.14038">
        <ele>698.05444</ele>
        <time>2010-01-10T21:34:38Z</time>
      </trkpt>
      <trkpt lat="43.81279" lon="7.14027">
        <ele>698.05444</ele>
        <time>2010-01-10T21:34:43Z</time>
      </trkpt>
      <trkpt lat="43.81269" lon="7.1401">
        <ele>696.61254</ele>
        <time>2010-01-10T21:34:49Z</time>
      </trkpt>
      <trkpt lat="43.8126" lon="7.13987">
        <ele>700.93847</ele>
        <time>2010-01-10T21:34:56Z</time>
      </trkpt>
      <trkpt lat="43.81251" lon="7.13968">
        <ele>703.8225</ele>
        <time>2010-01-10T21:35:03Z</time>
      </trkpt>
      <trkpt lat="43.81243" lon="7.13954">
        <ele>704.30322</ele>
        <time>2010-01-10T21:35:08Z</time>
      </trkpt>
      <trkpt lat="43.81235" lon="7.13944">
        <ele>703.34179</ele>
        <time>2010-01-10T21:35:12Z</time>
      </trkpt>
      <trkpt lat="43.81231" lon="7.13937">
        <ele>703.34179</ele>
        <time>2010-01-10T21:35:15Z</time>
      </trkpt>
      <trkpt lat="43.81221" lon="7.13922">
        <ele>705.2644</ele>
        <time>2010-01-10T21:35:21Z</time>
      </trkpt>
      <trkpt lat="43.81215" lon="7.13907">
        <ele>707.66772</ele>
        <time>2010-01-10T21:35:26Z</time>
      </trkpt>
      <trkpt lat="43.81211" lon="7.13897">
        <ele>711.03222</ele>
        <time>2010-01-10T21:35:29Z</time>
      </trkpt>
      <trkpt lat="43.81203" lon="7.13878">
        <ele>711.51293</ele>
        <time>2010-01-10T21:35:35Z</time>
      </trkpt>
      <trkpt lat="43.81198" lon="7.13868">
        <ele>711.99365</ele>
        <time>2010-01-10T21:35:39Z</time>
      </trkpt>
      <trkpt lat="43.8119" lon="7.13855">
        <ele>713.43554</ele>
        <time>2010-01-10T21:35:44Z</time>
      </trkpt>
      <trkpt lat="43.81185" lon="7.13835">
        <ele>713.43554</ele>
        <time>2010-01-10T21:35:50Z</time>
      </trkpt>
      <trkpt lat="43.8119" lon="7.13818">
        <ele>711.99365</ele>
        <time>2010-01-10T21:35:56Z</time>
      </trkpt>
      <trkpt lat="43.81194" lon="7.13802">
        <ele>714.87744</ele>
        <time>2010-01-10T21:36:00Z</time>
      </trkpt>
      <trkpt lat="43.81196" lon="7.13778">
        <ele>712.47412</ele>
        <time>2010-01-10T21:36:07Z</time>
      </trkpt>
      <trkpt lat="43.81196" lon="7.13758">
        <ele>710.0708</ele>
        <time>2010-01-10T21:36:13Z</time>
      </trkpt>
      <trkpt lat="43.81196" lon="7.13733">
        <ele>707.66772</ele>
        <time>2010-01-10T21:36:20Z</time>
      </trkpt>
      <trkpt lat="43.81193" lon="7.13721">
        <ele>706.70629</ele>
        <time>2010-01-10T21:36:24Z</time>
      </trkpt>
      <trkpt lat="43.81186" lon="7.13707">
        <ele>713.91601</ele>
        <time>2010-01-10T21:36:29Z</time>
      </trkpt>
      <trkpt lat="43.81182" lon="7.13694">
        <ele>716.80029</ele>
        <time>2010-01-10T21:36:33Z</time>
      </trkpt>
      <trkpt lat="43.81181" lon="7.1369">
        <ele>718.24218</ele>
        <time>2010-01-10T21:36:34Z</time>
      </trkpt>
      <trkpt lat="43.8118" lon="7.13675">
        <ele>723.52954</ele>
        <time>2010-01-10T21:36:38Z</time>
      </trkpt>
      <trkpt lat="43.81171" lon="7.1366">
        <ele>721.60668</ele>
        <time>2010-01-10T21:36:44Z</time>
      </trkpt>
      <trkpt lat="43.81166" lon="7.1365">
        <ele>720.6455</ele>
        <time>2010-01-10T21:36:48Z</time>
      </trkpt>
      <trkpt lat="43.81159" lon="7.13632">
        <ele>716.80029</ele>
        <time>2010-01-10T21:36:54Z</time>
      </trkpt>
      <trkpt lat="43.81156" lon="7.13615">
        <ele>718.7229</ele>
        <time>2010-01-10T21:36:59Z</time>
      </trkpt>
      <trkpt lat="43.81151" lon="7.136">
        <ele>722.0874</ele>
        <time>2010-01-10T21:37:03Z</time>
      </trkpt>
      <trkpt lat="43.81145" lon="7.13584">
        <ele>720.16479</ele>
        <time>2010-01-10T21:37:08Z</time>
      </trkpt>
      <trkpt lat="43.8114" lon="7.13571">
        <ele>719.68432</ele>
        <time>2010-01-10T21:37:13Z</time>
      </trkpt>
      <trkpt lat="43.81134" lon="7.13557">
        <ele>719.68432</ele>
        <time>2010-01-10T21:37:17Z</time>
      </trkpt>
      <trkpt lat="43.81127" lon="7.13542">
        <ele>724.01</ele>
        <time>2010-01-10T21:37:23Z</time>
      </trkpt>
      <trkpt lat="43.81123" lon="7.13531">
        <ele>723.52954</ele>
        <time>2010-01-10T21:37:26Z</time>
      </trkpt>
      <trkpt lat="43.81118" lon="7.13527">
        <ele>723.04882</ele>
        <time>2010-01-10T21:37:29Z</time>
      </trkpt>
      <trkpt lat="43.81116" lon="7.13515">
        <ele>726.41333</ele>
        <time>2010-01-10T21:37:32Z</time>
      </trkpt>
      <trkpt lat="43.81111" lon="7.13503">
        <ele>730.25854</ele>
        <time>2010-01-10T21:37:36Z</time>
      </trkpt>
      <trkpt lat="43.81102" lon="7.13489">
        <ele>730.25854</ele>
        <time>2010-01-10T21:37:41Z</time>
      </trkpt>
      <trkpt lat="43.81101" lon="7.13487">
        <ele>730.25854</ele>
        <time>2010-01-10T21:37:42Z</time>
      </trkpt>
      <trkpt lat="43.81095" lon="7.13472">
        <ele>730.25854</ele>
        <time>2010-01-10T21:37:47Z</time>
      </trkpt>
      <trkpt lat="43.8109" lon="7.1346">
        <ele>729.29711</ele>
        <time>2010-01-10T21:37:51Z</time>
      </trkpt>
      <trkpt lat="43.8109" lon="7.13457">
        <ele>730.25854</ele>
        <time>2010-01-10T21:37:52Z</time>
      </trkpt>
      <trkpt lat="43.81082" lon="7.13443">
        <ele>733.14257</ele>
        <time>2010-01-10T21:37:57Z</time>
      </trkpt>
      <trkpt lat="43.81076" lon="7.13434">
        <ele>731.70043</ele>
        <time>2010-01-10T21:38:00Z</time>
      </trkpt>
      <trkpt lat="43.8107" lon="7.13424">
        <ele>730.73925</ele>
        <time>2010-01-10T21:38:04Z</time>
      </trkpt>
      <trkpt lat="43.81062" lon="7.13411">
        <ele>732.18139</ele>
        <time>2010-01-10T21:38:09Z</time>
      </trkpt>
      <trkpt lat="43.81058" lon="7.13404">
        <ele>732.6621</ele>
        <time>2010-01-10T21:38:12Z</time>
      </trkpt>
      <trkpt lat="43.81047" lon="7.13391">
        <ele>735.06542</ele>
        <time>2010-01-10T21:38:18Z</time>
      </trkpt>
      <trkpt lat="43.81041" lon="7.13383">
        <ele>737.94921</ele>
        <time>2010-01-10T21:38:21Z</time>
      </trkpt>
      <trkpt lat="43.81033" lon="7.13372">
        <ele>740.35253</ele>
        <time>2010-01-10T21:38:25Z</time>
      </trkpt>
      <trkpt lat="43.81027" lon="7.13363">
        <ele>741.31372</ele>
        <time>2010-01-10T21:38:29Z</time>
      </trkpt>
      <trkpt lat="43.8102" lon="7.1335">
        <ele>741.79443</ele>
        <time>2010-01-10T21:38:34Z</time>
      </trkpt>
      <trkpt lat="43.81014" lon="7.13337">
        <ele>740.35253</ele>
        <time>2010-01-10T21:38:38Z</time>
      </trkpt>
      <trkpt lat="43.81009" lon="7.13322">
        <ele>740.35253</ele>
        <time>2010-01-10T21:38:43Z</time>
      </trkpt>
      <trkpt lat="43.81006" lon="7.13305">
        <ele>738.91064</ele>
        <time>2010-01-10T21:38:48Z</time>
      </trkpt>
      <trkpt lat="43.81001" lon="7.13297">
        <ele>742.27514</ele>
        <time>2010-01-10T21:38:51Z</time>
      </trkpt>
      <trkpt lat="43.80995" lon="7.13285">
        <ele>743.23632</ele>
        <time>2010-01-10T21:38:55Z</time>
      </trkpt>
      <trkpt lat="43.80991" lon="7.13279">
        <ele>744.19775</ele>
        <time>2010-01-10T21:38:58Z</time>
      </trkpt>
      <trkpt lat="43.80985" lon="7.13268">
        <ele>742.27514</ele>
        <time>2010-01-10T21:39:01Z</time>
      </trkpt>
      <trkpt lat="43.80982" lon="7.13256">
        <ele>741.79443</ele>
        <time>2010-01-10T21:39:05Z</time>
      </trkpt>
      <trkpt lat="43.80977" lon="7.13246">
        <ele>745.63964</ele>
        <time>2010-01-10T21:39:09Z</time>
      </trkpt>
      <trkpt lat="43.80978" lon="7.13238">
        <ele>751.88842</ele>
        <time>2010-01-10T21:39:11Z</time>
      </trkpt>
      <trkpt lat="43.80976" lon="7.1323">
        <ele>751.88842</ele>
        <time>2010-01-10T21:39:13Z</time>
      </trkpt>
      <trkpt lat="43.80972" lon="7.13224">
        <ele>751.40771</ele>
        <time>2010-01-10T21:39:16Z</time>
      </trkpt>
      <trkpt lat="43.80967" lon="7.1321">
        <ele>751.88842</ele>
        <time>2010-01-10T21:39:20Z</time>
      </trkpt>
      <trkpt lat="43.80966" lon="7.13207">
        <ele>751.88842</ele>
        <time>2010-01-10T21:39:21Z</time>
      </trkpt>
      <trkpt lat="43.80959" lon="7.13199">
        <ele>749.96582</ele>
        <time>2010-01-10T21:39:25Z</time>
      </trkpt>
      <trkpt lat="43.80958" lon="7.13196">
        <ele>750.44653</ele>
        <time>2010-01-10T21:39:26Z</time>
      </trkpt>
      <trkpt lat="43.80955" lon="7.13192">
        <ele>748.52368</ele>
        <time>2010-01-10T21:39:27Z</time>
      </trkpt>
      <trkpt lat="43.80955" lon="7.13191">
        <ele>752.8496</ele>
        <time>2010-01-10T21:39:28Z</time>
      </trkpt>
      <trkpt lat="43.80952" lon="7.13184">
        <ele>754.77221</ele>
        <time>2010-01-10T21:39:30Z</time>
      </trkpt>
      <trkpt lat="43.80942" lon="7.13174">
        <ele>752.8496</ele>
        <time>2010-01-10T21:39:35Z</time>
      </trkpt>
      <trkpt lat="43.80931" lon="7.13165">
        <ele>749.00439</ele>
        <time>2010-01-10T21:39:40Z</time>
      </trkpt>
      <trkpt lat="43.80927" lon="7.13158">
        <ele>749.4851</ele>
        <time>2010-01-10T21:39:43Z</time>
      </trkpt>
      <trkpt lat="43.80919" lon="7.13149">
        <ele>752.8496</ele>
        <time>2010-01-10T21:39:47Z</time>
      </trkpt>
      <trkpt lat="43.80919" lon="7.13147">
        <ele>753.81103</ele>
        <time>2010-01-10T21:39:47Z</time>
      </trkpt>
      <trkpt lat="43.80919" lon="7.13144">
        <ele>758.13696</ele>
        <time>2010-01-10T21:39:48Z</time>
      </trkpt>
      <trkpt lat="43.80915" lon="7.13139">
        <ele>766.78881</ele>
        <time>2010-01-10T21:39:50Z</time>
      </trkpt>
      <trkpt lat="43.80911" lon="7.13133">
        <ele>762.46264</ele>
        <time>2010-01-10T21:39:53Z</time>
      </trkpt>
      <trkpt lat="43.80906" lon="7.13126">
        <ele>760.05932</ele>
        <time>2010-01-10T21:39:56Z</time>
      </trkpt>
      <trkpt lat="43.80901" lon="7.13122">
        <ele>751.40771</ele>
        <time>2010-01-10T21:39:58Z</time>
      </trkpt>
      <trkpt lat="43.80892" lon="7.13111">
        <ele>744.19775</ele>
        <time>2010-01-10T21:40:03Z</time>
      </trkpt>
      <trkpt lat="43.80893" lon="7.1311">
        <ele>745.63964</ele>
        <time>2010-01-10T21:40:03Z</time>
      </trkpt>
      <trkpt lat="43.80893" lon="7.13108">
        <ele>760.05932</ele>
        <time>2010-01-10T21:40:04Z</time>
      </trkpt>
      <trkpt lat="43.80891" lon="7.13107">
        <ele>764.38549</ele>
        <time>2010-01-10T21:40:04Z</time>
      </trkpt>
      <trkpt lat="43.80885" lon="7.13097">
        <ele>770.63403</ele>
        <time>2010-01-10T21:40:08Z</time>
      </trkpt>
      <trkpt lat="43.80872" lon="7.13084">
        <ele>772.07592</ele>
        <time>2010-01-10T21:40:15Z</time>
      </trkpt>
      <trkpt lat="43.80859" lon="7.13074">
        <ele>761.50146</ele>
        <time>2010-01-10T21:40:21Z</time>
      </trkpt>
      <trkpt lat="43.80857" lon="7.13068">
        <ele>766.78881</ele>
        <time>2010-01-10T21:40:22Z</time>
      </trkpt>
      <trkpt lat="43.80858" lon="7.13059">
        <ele>775.44042</ele>
        <time>2010-01-10T21:40:25Z</time>
      </trkpt>
      <trkpt lat="43.80856" lon="7.1305">
        <ele>780.24731</ele>
        <time>2010-01-10T21:40:28Z</time>
      </trkpt>
      <trkpt lat="43.80858" lon="7.13046">
        <ele>782.16992</ele>
        <time>2010-01-10T21:40:29Z</time>
      </trkpt>
      <trkpt lat="43.80856" lon="7.13038">
        <ele>776.88256</ele>
        <time>2010-01-10T21:40:32Z</time>
      </trkpt>
      <trkpt lat="43.8085" lon="7.13028">
        <ele>779.76635</ele>
        <time>2010-01-10T21:40:35Z</time>
      </trkpt>
      <trkpt lat="43.80857" lon="7.13022">
        <ele>787.45703</ele>
        <time>2010-01-10T21:40:39Z</time>
      </trkpt>
      <trkpt lat="43.80846" lon="7.13016">
        <ele>776.88256</ele>
        <time>2010-01-10T21:40:43Z</time>
      </trkpt>
      <trkpt lat="43.80842" lon="7.13007">
        <ele>778.80517</ele>
        <time>2010-01-10T21:40:46Z</time>
      </trkpt>
      <trkpt lat="43.80834" lon="7.12995">
        <ele>777.36328</ele>
        <time>2010-01-10T21:40:51Z</time>
      </trkpt>
      <trkpt lat="43.80831" lon="7.1299">
        <ele>781.6892</ele>
        <time>2010-01-10T21:40:53Z</time>
      </trkpt>
      <trkpt lat="43.80821" lon="7.12982">
        <ele>782.16992</ele>
        <time>2010-01-10T21:40:58Z</time>
      </trkpt>
      <trkpt lat="43.80814" lon="7.12976">
        <ele>783.61181</ele>
        <time>2010-01-10T21:41:01Z</time>
      </trkpt>
      <trkpt lat="43.80818" lon="7.12976">
        <ele>792.26367</ele>
        <time>2010-01-10T21:41:03Z</time>
      </trkpt>
      <trkpt lat="43.80813" lon="7.12966">
        <ele>803.79956</ele>
        <time>2010-01-10T21:41:06Z</time>
      </trkpt>
      <trkpt lat="43.80804" lon="7.12955">
        <ele>806.20263</ele>
        <time>2010-01-10T21:41:11Z</time>
      </trkpt>
      <trkpt lat="43.808" lon="7.12947">
        <ele>809.56738</ele>
        <time>2010-01-10T21:41:14Z</time>
      </trkpt>
      <trkpt lat="43.80796" lon="7.12941">
        <ele>807.16406</ele>
        <time>2010-01-10T21:41:16Z</time>
      </trkpt>
      <trkpt lat="43.80788" lon="7.12932">
        <ele>808.12548</ele>
        <time>2010-01-10T21:41:20Z</time>
      </trkpt>
      <trkpt lat="43.80784" lon="7.12922">
        <ele>806.68334</ele>
        <time>2010-01-10T21:41:24Z</time>
      </trkpt>
      <trkpt lat="43.80778" lon="7.12912">
        <ele>805.72216</ele>
        <time>2010-01-10T21:41:27Z</time>
      </trkpt>
      <trkpt lat="43.80772" lon="7.12902">
        <ele>802.83813</ele>
        <time>2010-01-10T21:41:31Z</time>
      </trkpt>
      <trkpt lat="43.80762" lon="7.12887">
        <ele>795.62817</ele>
        <time>2010-01-10T21:41:37Z</time>
      </trkpt>
      <trkpt lat="43.80744" lon="7.1287">
        <ele>780.72802</ele>
        <time>2010-01-10T21:41:46Z</time>
      </trkpt>
      <trkpt lat="43.80739" lon="7.12858">
        <ele>778.32446</ele>
        <time>2010-01-10T21:41:50Z</time>
      </trkpt>
      <trkpt lat="43.80734" lon="7.12847">
        <ele>776.40185</ele>
        <time>2010-01-10T21:41:53Z</time>
      </trkpt>
      <trkpt lat="43.80733" lon="7.12835">
        <ele>782.65063</ele>
        <time>2010-01-10T21:41:57Z</time>
      </trkpt>
      <trkpt lat="43.80733" lon="7.12823">
        <ele>791.78295</ele>
        <time>2010-01-10T21:42:00Z</time>
      </trkpt>
      <trkpt lat="43.80726" lon="7.12808">
        <ele>794.66674</ele>
        <time>2010-01-10T21:42:06Z</time>
      </trkpt>
      <trkpt lat="43.80725" lon="7.12793">
        <ele>799.47363</ele>
        <time>2010-01-10T21:42:10Z</time>
      </trkpt>
      <trkpt lat="43.8072" lon="7.12776">
        <ele>798.03173</ele>
        <time>2010-01-10T21:42:15Z</time>
      </trkpt>
      <trkpt lat="43.80715" lon="7.12766">
        <ele>798.5122</ele>
        <time>2010-01-10T21:42:19Z</time>
      </trkpt>
      <trkpt lat="43.80709" lon="7.12756">
        <ele>801.39624</ele>
        <time>2010-01-10T21:42:22Z</time>
      </trkpt>
      <trkpt lat="43.80702" lon="7.12745">
        <ele>808.60595</ele>
        <time>2010-01-10T21:42:27Z</time>
      </trkpt>
      <trkpt lat="43.80692" lon="7.12734">
        <ele>802.35742</ele>
        <time>2010-01-10T21:42:32Z</time>
      </trkpt>
      <trkpt lat="43.80688" lon="7.12723">
        <ele>799.47363</ele>
        <time>2010-01-10T21:42:35Z</time>
      </trkpt>
      <trkpt lat="43.80684" lon="7.12708">
        <ele>798.99291</ele>
        <time>2010-01-10T21:42:40Z</time>
      </trkpt>
      <trkpt lat="43.80681" lon="7.12693">
        <ele>798.99291</ele>
        <time>2010-01-10T21:42:44Z</time>
      </trkpt>
      <trkpt lat="43.80679" lon="7.12685">
        <ele>799.95434</ele>
        <time>2010-01-10T21:42:47Z</time>
      </trkpt>
      <trkpt lat="43.80672" lon="7.12672">
        <ele>800.43505</ele>
        <time>2010-01-10T21:42:52Z</time>
      </trkpt>
      <trkpt lat="43.80664" lon="7.1266">
        <ele>801.87695</ele>
        <time>2010-01-10T21:42:56Z</time>
      </trkpt>
      <trkpt lat="43.8066" lon="7.12648">
        <ele>804.28027</ele>
        <time>2010-01-10T21:43:00Z</time>
      </trkpt>
      <trkpt lat="43.8066" lon="7.12636">
        <ele>805.72216</ele>
        <time>2010-01-10T21:43:04Z</time>
      </trkpt>
      <trkpt lat="43.8066" lon="7.12625">
        <ele>808.12548</ele>
        <time>2010-01-10T21:43:07Z</time>
      </trkpt>
      <trkpt lat="43.8066" lon="7.12621">
        <ele>810.04785</ele>
        <time>2010-01-10T21:43:08Z</time>
      </trkpt>
      <trkpt lat="43.80661" lon="7.12621">
        <ele>811.48999</ele>
        <time>2010-01-10T21:43:08Z</time>
      </trkpt>
      <trkpt lat="43.80659" lon="7.12606">
        <ele>812.93212</ele>
        <time>2010-01-10T21:43:13Z</time>
      </trkpt>
      <trkpt lat="43.80658" lon="7.12602">
        <ele>814.37402</ele>
        <time>2010-01-10T21:43:14Z</time>
      </trkpt>
      <trkpt lat="43.80653" lon="7.12588">
        <ele>815.81616</ele>
        <time>2010-01-10T21:43:19Z</time>
      </trkpt>
      <trkpt lat="43.80645" lon="7.12572">
        <ele>817.25805</ele>
        <time>2010-01-10T21:43:24Z</time>
      </trkpt>
      <trkpt lat="43.80637" lon="7.12558">
        <ele>815.33544</ele>
        <time>2010-01-10T21:43:30Z</time>
      </trkpt>
      <trkpt lat="43.80628" lon="7.12542">
        <ele>817.25805</ele>
        <time>2010-01-10T21:43:35Z</time>
      </trkpt>
      <trkpt lat="43.80626" lon="7.1254">
        <ele>818.21923</ele>
        <time>2010-01-10T21:43:36Z</time>
      </trkpt>
      <trkpt lat="43.80622" lon="7.12532">
        <ele>817.73852</ele>
        <time>2010-01-10T21:43:39Z</time>
      </trkpt>
      <trkpt lat="43.80614" lon="7.12523">
        <ele>817.25805</ele>
        <time>2010-01-10T21:43:43Z</time>
      </trkpt>
      <trkpt lat="43.80613" lon="7.12516">
        <ele>818.69995</ele>
        <time>2010-01-10T21:43:45Z</time>
      </trkpt>
      <trkpt lat="43.80601" lon="7.12505">
        <ele>814.85473</ele>
        <time>2010-01-10T21:43:51Z</time>
      </trkpt>
      <trkpt lat="43.80596" lon="7.12495">
        <ele>817.25805</ele>
        <time>2010-01-10T21:43:54Z</time>
      </trkpt>
      <trkpt lat="43.80586" lon="7.12482">
        <ele>821.10327</ele>
        <time>2010-01-10T21:44:00Z</time>
      </trkpt>
      <trkpt lat="43.80579" lon="7.12473">
        <ele>821.58374</ele>
        <time>2010-01-10T21:44:04Z</time>
      </trkpt>
      <trkpt lat="43.80573" lon="7.12465">
        <ele>822.06445</ele>
        <time>2010-01-10T21:44:07Z</time>
      </trkpt>
      <trkpt lat="43.80565" lon="7.12458">
        <ele>822.06445</ele>
        <time>2010-01-10T21:44:11Z</time>
      </trkpt>
      <trkpt lat="43.80562" lon="7.12451">
        <ele>823.98706</ele>
        <time>2010-01-10T21:44:13Z</time>
      </trkpt>
      <trkpt lat="43.80553" lon="7.12443">
        <ele>824.46777</ele>
        <time>2010-01-10T21:44:17Z</time>
      </trkpt>
      <trkpt lat="43.80545" lon="7.12437">
        <ele>826.87109</ele>
        <time>2010-01-10T21:44:21Z</time>
      </trkpt>
      <trkpt lat="43.80541" lon="7.12434">
        <ele>827.83227</ele>
        <time>2010-01-10T21:44:23Z</time>
      </trkpt>
      <trkpt lat="43.80536" lon="7.12434">
        <ele>824.94848</ele>
        <time>2010-01-10T21:44:25Z</time>
      </trkpt>
      <trkpt lat="43.80538" lon="7.12433">
        <ele>824.46777</ele>
        <time>2010-01-10T21:44:26Z</time>
      </trkpt>
      <trkpt lat="43.80541" lon="7.12433">
        <ele>825.42895</ele>
        <time>2010-01-10T21:44:27Z</time>
      </trkpt>
      <trkpt lat="43.80539" lon="7.12431">
        <ele>825.90966</ele>
        <time>2010-01-10T21:44:28Z</time>
      </trkpt>
      <trkpt lat="43.80532" lon="7.12425">
        <ele>826.39038</ele>
        <time>2010-01-10T21:44:31Z</time>
      </trkpt>
      <trkpt lat="43.80514" lon="7.12407">
        <ele>827.3518</ele>
        <time>2010-01-10T21:44:40Z</time>
      </trkpt>
      <trkpt lat="43.80503" lon="7.12394">
        <ele>827.83227</ele>
        <time>2010-01-10T21:44:45Z</time>
      </trkpt>
      <trkpt lat="43.80488" lon="7.12382">
        <ele>830.71655</ele>
        <time>2010-01-10T21:44:53Z</time>
      </trkpt>
      <trkpt lat="43.80478" lon="7.12376">
        <ele>832.15844</ele>
        <time>2010-01-10T21:44:57Z</time>
      </trkpt>
      <trkpt lat="43.80474" lon="7.12372">
        <ele>831.19726</ele>
        <time>2010-01-10T21:44:59Z</time>
      </trkpt>
      <trkpt lat="43.80476" lon="7.12363">
        <ele>822.06445</ele>
        <time>2010-01-10T21:45:02Z</time>
      </trkpt>
      <trkpt lat="43.80475" lon="7.12365">
        <ele>829.27441</ele>
        <time>2010-01-10T21:45:02Z</time>
      </trkpt>
      <trkpt lat="43.80476" lon="7.12369">
        <ele>829.75512</ele>
        <time>2010-01-10T21:45:04Z</time>
      </trkpt>
      <trkpt lat="43.80479" lon="7.12372">
        <ele>832.15844</ele>
        <time>2010-01-10T21:45:05Z</time>
      </trkpt>
      <trkpt lat="43.80478" lon="7.12372">
        <ele>833.11962</ele>
        <time>2010-01-10T21:45:06Z</time>
      </trkpt>
      <trkpt lat="43.8047" lon="7.12369">
        <ele>835.04248</ele>
        <time>2010-01-10T21:45:09Z</time>
      </trkpt>
      <trkpt lat="43.80458" lon="7.12361">
        <ele>836.96484</ele>
        <time>2010-01-10T21:45:15Z</time>
      </trkpt>
      <trkpt lat="43.80445" lon="7.12355">
        <ele>836.00366</ele>
        <time>2010-01-10T21:45:20Z</time>
      </trkpt>
      <trkpt lat="43.80432" lon="7.12346">
        <ele>838.88769</ele>
        <time>2010-01-10T21:45:26Z</time>
      </trkpt>
      <trkpt lat="43.80426" lon="7.12341">
        <ele>840.81005</ele>
        <time>2010-01-10T21:45:29Z</time>
      </trkpt>
      <trkpt lat="43.80419" lon="7.12335">
        <ele>844.65551</ele>
        <time>2010-01-10T21:45:32Z</time>
      </trkpt>
      <trkpt lat="43.80412" lon="7.12327">
        <ele>848.98144</ele>
        <time>2010-01-10T21:45:35Z</time>
      </trkpt>
      <trkpt lat="43.80405" lon="7.1232">
        <ele>851.38476</ele>
        <time>2010-01-10T21:45:39Z</time>
      </trkpt>
      <trkpt lat="43.80393" lon="7.12309">
        <ele>849.46215</ele>
        <time>2010-01-10T21:45:45Z</time>
      </trkpt>
      <trkpt lat="43.80385" lon="7.12301">
        <ele>850.42358</ele>
        <time>2010-01-10T21:45:49Z</time>
      </trkpt>
      <trkpt lat="43.80375" lon="7.12292">
        <ele>848.02026</ele>
        <time>2010-01-10T21:45:53Z</time>
      </trkpt>
      <trkpt lat="43.80368" lon="7.12283">
        <ele>847.53955</ele>
        <time>2010-01-10T21:45:57Z</time>
      </trkpt>
      <trkpt lat="43.80359" lon="7.12273">
        <ele>848.98144</ele>
        <time>2010-01-10T21:46:02Z</time>
      </trkpt>
      <trkpt lat="43.80349" lon="7.12265">
        <ele>848.98144</ele>
        <time>2010-01-10T21:46:06Z</time>
      </trkpt>
      <trkpt lat="43.80336" lon="7.12256">
        <ele>848.02026</ele>
        <time>2010-01-10T21:46:12Z</time>
      </trkpt>
      <trkpt lat="43.80329" lon="7.12249">
        <ele>852.82666</ele>
        <time>2010-01-10T21:46:16Z</time>
      </trkpt>
      <trkpt lat="43.8032" lon="7.12241">
        <ele>853.78808</ele>
        <time>2010-01-10T21:46:20Z</time>
      </trkpt>
      <trkpt lat="43.80308" lon="7.12227">
        <ele>860.03662</ele>
        <time>2010-01-10T21:46:26Z</time>
      </trkpt>
      <trkpt lat="43.80302" lon="7.12215">
        <ele>860.03662</ele>
        <time>2010-01-10T21:46:31Z</time>
      </trkpt>
      <trkpt lat="43.80288" lon="7.12194">
        <ele>860.51733</ele>
        <time>2010-01-10T21:46:39Z</time>
      </trkpt>
      <trkpt lat="43.80283" lon="7.12179">
        <ele>860.03662</ele>
        <time>2010-01-10T21:46:43Z</time>
      </trkpt>
      <trkpt lat="43.80281" lon="7.12159">
        <ele>857.15258</ele>
        <time>2010-01-10T21:46:49Z</time>
      </trkpt>
      <trkpt lat="43.80281" lon="7.12144">
        <ele>855.71069</ele>
        <time>2010-01-10T21:46:54Z</time>
      </trkpt>
      <trkpt lat="43.80281" lon="7.12129">
        <ele>855.22998</ele>
        <time>2010-01-10T21:46:58Z</time>
      </trkpt>
      <trkpt lat="43.80279" lon="7.12111">
        <ele>859.07519</ele>
        <time>2010-01-10T21:47:03Z</time>
      </trkpt>
      <trkpt lat="43.80275" lon="7.12091">
        <ele>856.67187</ele>
        <time>2010-01-10T21:47:09Z</time>
      </trkpt>
      <trkpt lat="43.80272" lon="7.12067">
        <ele>856.67187</ele>
        <time>2010-01-10T21:47:16Z</time>
      </trkpt>
      <trkpt lat="43.8027" lon="7.1204">
        <ele>856.67187</ele>
        <time>2010-01-10T21:47:24Z</time>
      </trkpt>
      <trkpt lat="43.80266" lon="7.12031">
        <ele>856.19116</ele>
        <time>2010-01-10T21:47:27Z</time>
      </trkpt>
      <trkpt lat="43.80256" lon="7.12027">
        <ele>856.67187</ele>
        <time>2010-01-10T21:47:31Z</time>
      </trkpt>
      <trkpt lat="43.8024" lon="7.12024">
        <ele>860.51733</ele>
        <time>2010-01-10T21:47:38Z</time>
      </trkpt>
      <trkpt lat="43.80233" lon="7.12017">
        <ele>864.36254</ele>
        <time>2010-01-10T21:47:41Z</time>
      </trkpt>
      <trkpt lat="43.80228" lon="7.11999">
        <ele>865.80468</ele>
        <time>2010-01-10T21:47:47Z</time>
      </trkpt>
      <trkpt lat="43.80225" lon="7.11979">
        <ele>866.76586</ele>
        <time>2010-01-10T21:47:53Z</time>
      </trkpt>
      <trkpt lat="43.80224" lon="7.11959">
        <ele>868.20776</ele>
        <time>2010-01-10T21:47:59Z</time>
      </trkpt>
      <trkpt lat="43.80229" lon="7.11939">
        <ele>867.24658</ele>
        <time>2010-01-10T21:48:05Z</time>
      </trkpt>
      <trkpt lat="43.80244" lon="7.1192">
        <ele>871.09179</ele>
        <time>2010-01-10T21:48:13Z</time>
      </trkpt>
      <trkpt lat="43.80255" lon="7.11903">
        <ele>873.49511</ele>
        <time>2010-01-10T21:48:19Z</time>
      </trkpt>
      <trkpt lat="43.80261" lon="7.11879">
        <ele>876.37915</ele>
        <time>2010-01-10T21:48:27Z</time>
      </trkpt>
      <trkpt lat="43.80265" lon="7.11851">
        <ele>873.97558</ele>
        <time>2010-01-10T21:48:35Z</time>
      </trkpt>
      <trkpt lat="43.80265" lon="7.11822">
        <ele>872.05297</ele>
        <time>2010-01-10T21:48:43Z</time>
      </trkpt>
      <trkpt lat="43.8026" lon="7.11806">
        <ele>873.49511</ele>
        <time>2010-01-10T21:48:48Z</time>
      </trkpt>
      <trkpt lat="43.80254" lon="7.11791">
        <ele>873.97558</ele>
        <time>2010-01-10T21:48:53Z</time>
      </trkpt>
      <trkpt lat="43.80247" lon="7.11775">
        <ele>873.0144</ele>
        <time>2010-01-10T21:48:59Z</time>
      </trkpt>
      <trkpt lat="43.8024" lon="7.11757">
        <ele>875.89819</ele>
        <time>2010-01-10T21:49:05Z</time>
      </trkpt>
      <trkpt lat="43.80236" lon="7.1174">
        <ele>880.70507</ele>
        <time>2010-01-10T21:49:10Z</time>
      </trkpt>
      <trkpt lat="43.8023" lon="7.11718">
        <ele>879.74365</ele>
        <time>2010-01-10T21:49:17Z</time>
      </trkpt>
      <trkpt lat="43.80227" lon="7.11703">
        <ele>877.82104</ele>
        <time>2010-01-10T21:49:21Z</time>
      </trkpt>
      <trkpt lat="43.80224" lon="7.11683">
        <ele>878.78247</ele>
        <time>2010-01-10T21:49:27Z</time>
      </trkpt>
      <trkpt lat="43.8022" lon="7.11666">
        <ele>877.34057</ele>
        <time>2010-01-10T21:49:32Z</time>
      </trkpt>
      <trkpt lat="43.80216" lon="7.11654">
        <ele>881.18579</ele>
        <time>2010-01-10T21:49:36Z</time>
      </trkpt>
      <trkpt lat="43.80211" lon="7.11642">
        <ele>886.4729</ele>
        <time>2010-01-10T21:49:40Z</time>
      </trkpt>
      <trkpt lat="43.80197" lon="7.11632">
        <ele>892.24096</ele>
        <time>2010-01-10T21:49:46Z</time>
      </trkpt>
      <trkpt lat="43.8018" lon="7.11619">
        <ele>891.76</ele>
        <time>2010-01-10T21:49:54Z</time>
      </trkpt>
      <trkpt lat="43.80171" lon="7.11603">
        <ele>891.76</ele>
        <time>2010-01-10T21:50:00Z</time>
      </trkpt>
      <trkpt lat="43.80167" lon="7.11589">
        <ele>897.04736</ele>
        <time>2010-01-10T21:50:04Z</time>
      </trkpt>
      <trkpt lat="43.8016" lon="7.11575">
        <ele>897.52807</ele>
        <time>2010-01-10T21:50:09Z</time>
      </trkpt>
      <trkpt lat="43.80152" lon="7.11561">
        <ele>895.60546</ele>
        <time>2010-01-10T21:50:14Z</time>
      </trkpt>
      <trkpt lat="43.80145" lon="7.11547">
        <ele>893.20214</ele>
        <time>2010-01-10T21:50:19Z</time>
      </trkpt>
      <trkpt lat="43.80136" lon="7.11529">
        <ele>891.27929</ele>
        <time>2010-01-10T21:50:26Z</time>
      </trkpt>
      <trkpt lat="43.80128" lon="7.11512">
        <ele>891.27929</ele>
        <time>2010-01-10T21:50:31Z</time>
      </trkpt>
      <trkpt lat="43.80122" lon="7.11494">
        <ele>891.27929</ele>
        <time>2010-01-10T21:50:37Z</time>
      </trkpt>
      <trkpt lat="43.80116" lon="7.11482">
        <ele>892.24096</ele>
        <time>2010-01-10T21:50:41Z</time>
      </trkpt>
      <trkpt lat="43.80105" lon="7.11461">
        <ele>895.60546</ele>
        <time>2010-01-10T21:50:49Z</time>
      </trkpt>
      <trkpt lat="43.80099" lon="7.11444">
        <ele>897.04736</ele>
        <time>2010-01-10T21:50:54Z</time>
      </trkpt>
      <trkpt lat="43.80093" lon="7.11424">
        <ele>897.52807</ele>
        <time>2010-01-10T21:51:01Z</time>
      </trkpt>
      <trkpt lat="43.80089" lon="7.11404">
        <ele>895.60546</ele>
        <time>2010-01-10T21:51:07Z</time>
      </trkpt>
      <trkpt lat="43.80087" lon="7.11386">
        <ele>895.12475</ele>
        <time>2010-01-10T21:51:12Z</time>
      </trkpt>
      <trkpt lat="43.80088" lon="7.11357">
        <ele>896.56689</ele>
        <time>2010-01-10T21:51:20Z</time>
      </trkpt>
      <trkpt lat="43.80085" lon="7.11334">
        <ele>897.04736</ele>
        <time>2010-01-10T21:51:27Z</time>
      </trkpt>
      <trkpt lat="43.80081" lon="7.11315">
        <ele>899.45068</ele>
        <time>2010-01-10T21:51:33Z</time>
      </trkpt>
      <trkpt lat="43.80077" lon="7.11309">
        <ele>899.93139</ele>
        <time>2010-01-10T21:51:35Z</time>
      </trkpt>
      <trkpt lat="43.80067" lon="7.11316">
        <ele>902.33447</ele>
        <time>2010-01-10T21:51:40Z</time>
      </trkpt>
      <trkpt lat="43.80058" lon="7.11331">
        <ele>906.6604</ele>
        <time>2010-01-10T21:51:45Z</time>
      </trkpt>
      <trkpt lat="43.80051" lon="7.11342">
        <ele>906.6604</ele>
        <time>2010-01-10T21:51:50Z</time>
      </trkpt>
      <trkpt lat="43.80047" lon="7.11354">
        <ele>907.14111</ele>
        <time>2010-01-10T21:51:53Z</time>
      </trkpt>
      <trkpt lat="43.80044" lon="7.11361">
        <ele>911.46728</ele>
        <time>2010-01-10T21:51:56Z</time>
      </trkpt>
      <trkpt lat="43.80037" lon="7.1137">
        <ele>910.98657</ele>
        <time>2010-01-10T21:51:59Z</time>
      </trkpt>
      <trkpt lat="43.8003" lon="7.11379">
        <ele>912.90917</ele>
        <time>2010-01-10T21:52:03Z</time>
      </trkpt>
      <trkpt lat="43.80022" lon="7.11387">
        <ele>913.38989</ele>
        <time>2010-01-10T21:52:07Z</time>
      </trkpt>
      <trkpt lat="43.80016" lon="7.11398">
        <ele>913.87036</ele>
        <time>2010-01-10T21:52:11Z</time>
      </trkpt>
      <trkpt lat="43.80011" lon="7.11407">
        <ele>913.87036</ele>
        <time>2010-01-10T21:52:15Z</time>
      </trkpt>
      <trkpt lat="43.80005" lon="7.11411">
        <ele>916.27368</ele>
        <time>2010-01-10T21:52:17Z</time>
      </trkpt>
      <trkpt lat="43.79996" lon="7.11415">
        <ele>915.3125</ele>
        <time>2010-01-10T21:52:21Z</time>
      </trkpt>
      <trkpt lat="43.79989" lon="7.11422">
        <ele>915.79321</ele>
        <time>2010-01-10T21:52:24Z</time>
      </trkpt>
      <trkpt lat="43.79984" lon="7.11431">
        <ele>915.3125</ele>
        <time>2010-01-10T21:52:28Z</time>
      </trkpt>
      <trkpt lat="43.79979" lon="7.11433">
        <ele>914.83178</ele>
        <time>2010-01-10T21:52:30Z</time>
      </trkpt>
      <trkpt lat="43.79976" lon="7.11433">
        <ele>914.35107</ele>
        <time>2010-01-10T21:52:31Z</time>
      </trkpt>
      <trkpt lat="43.7997" lon="7.11441">
        <ele>918.677</ele>
        <time>2010-01-10T21:52:34Z</time>
      </trkpt>
      <trkpt lat="43.79961" lon="7.11445">
        <ele>919.15771</ele>
        <time>2010-01-10T21:52:38Z</time>
      </trkpt>
      <trkpt lat="43.79953" lon="7.11448">
        <ele>921.08032</ele>
        <time>2010-01-10T21:52:41Z</time>
      </trkpt>
      <trkpt lat="43.79952" lon="7.11449">
        <ele>921.56079</ele>
        <time>2010-01-10T21:52:42Z</time>
      </trkpt>
      <trkpt lat="43.79944" lon="7.11454">
        <ele>922.52221</ele>
        <time>2010-01-10T21:52:45Z</time>
      </trkpt>
      <trkpt lat="43.79936" lon="7.11459">
        <ele>923.96411</ele>
        <time>2010-01-10T21:52:49Z</time>
      </trkpt>
      <trkpt lat="43.79926" lon="7.11462">
        <ele>923.00292</ele>
        <time>2010-01-10T21:52:53Z</time>
      </trkpt>
      <trkpt lat="43.79921" lon="7.11467">
        <ele>925.88696</ele>
        <time>2010-01-10T21:52:55Z</time>
      </trkpt>
      <trkpt lat="43.79918" lon="7.11469">
        <ele>930.21289</ele>
        <time>2010-01-10T21:52:57Z</time>
      </trkpt>
      <trkpt lat="43.79917" lon="7.11475">
        <ele>938.38403</ele>
        <time>2010-01-10T21:52:58Z</time>
      </trkpt>
      <trkpt lat="43.79912" lon="7.11479">
        <ele>942.7102</ele>
        <time>2010-01-10T21:53:01Z</time>
      </trkpt>
      <trkpt lat="43.79907" lon="7.11479">
        <ele>943.67138</ele>
        <time>2010-01-10T21:53:02Z</time>
      </trkpt>
      <trkpt lat="43.79902" lon="7.11478">
        <ele>939.82592</ele>
        <time>2010-01-10T21:53:05Z</time>
      </trkpt>
      <trkpt lat="43.79894" lon="7.11477">
        <ele>935.01953</ele>
        <time>2010-01-10T21:53:08Z</time>
      </trkpt>
      <trkpt lat="43.7988" lon="7.11476">
        <ele>926.36767</ele>
        <time>2010-01-10T21:53:13Z</time>
      </trkpt>
      <trkpt lat="43.79878" lon="7.11481">
        <ele>930.6936</ele>
        <time>2010-01-10T21:53:15Z</time>
      </trkpt>
      <trkpt lat="43.79866" lon="7.11485">
        <ele>928.29028</ele>
        <time>2010-01-10T21:53:20Z</time>
      </trkpt>
      <trkpt lat="43.79856" lon="7.11487">
        <ele>928.29028</ele>
        <time>2010-01-10T21:53:24Z</time>
      </trkpt>
      <trkpt lat="43.79846" lon="7.11489">
        <ele>931.17431</ele>
        <time>2010-01-10T21:53:28Z</time>
      </trkpt>
      <trkpt lat="43.79835" lon="7.11493">
        <ele>934.53881</ele>
        <time>2010-01-10T21:53:33Z</time>
      </trkpt>
      <trkpt lat="43.79825" lon="7.11492">
        <ele>935.01953</ele>
        <time>2010-01-10T21:53:37Z</time>
      </trkpt>
      <trkpt lat="43.79819" lon="7.11504">
        <ele>944.15209</ele>
        <time>2010-01-10T21:53:41Z</time>
      </trkpt>
      <trkpt lat="43.79813" lon="7.11509">
        <ele>947.03588</ele>
        <time>2010-01-10T21:53:44Z</time>
      </trkpt>
      <trkpt lat="43.79808" lon="7.11511">
        <ele>947.99731</ele>
        <time>2010-01-10T21:53:46Z</time>
      </trkpt>
      <trkpt lat="43.79803" lon="7.11515">
        <ele>951.84252</ele>
        <time>2010-01-10T21:53:48Z</time>
      </trkpt>
      <trkpt lat="43.79791" lon="7.11515">
        <ele>948.95849</ele>
        <time>2010-01-10T21:53:53Z</time>
      </trkpt>
      <trkpt lat="43.7978" lon="7.11512">
        <ele>942.7102</ele>
        <time>2010-01-10T21:53:58Z</time>
      </trkpt>
      <trkpt lat="43.79774" lon="7.11511">
        <ele>941.26806</ele>
        <time>2010-01-10T21:54:00Z</time>
      </trkpt>
      <trkpt lat="43.79767" lon="7.11509">
        <ele>938.86474</ele>
        <time>2010-01-10T21:54:03Z</time>
      </trkpt>
      <trkpt lat="43.79761" lon="7.11508">
        <ele>936.46142</ele>
        <time>2010-01-10T21:54:05Z</time>
      </trkpt>
      <trkpt lat="43.79757" lon="7.11507">
        <ele>934.0581</ele>
        <time>2010-01-10T21:54:07Z</time>
      </trkpt>
      <trkpt lat="43.79751" lon="7.11508">
        <ele>935.5</ele>
        <time>2010-01-10T21:54:09Z</time>
      </trkpt>
      <trkpt lat="43.79749" lon="7.11509">
        <ele>936.46142</ele>
        <time>2010-01-10T21:54:10Z</time>
      </trkpt>
      <trkpt lat="43.79748" lon="7.11511">
        <ele>940.78735</ele>
        <time>2010-01-10T21:54:11Z</time>
      </trkpt>
      <trkpt lat="43.79742" lon="7.11512">
        <ele>946.0747</ele>
        <time>2010-01-10T21:54:13Z</time>
      </trkpt>
      <trkpt lat="43.79737" lon="7.11514">
        <ele>948.47778</ele>
        <time>2010-01-10T21:54:15Z</time>
      </trkpt>
      <trkpt lat="43.79735" lon="7.11515">
        <ele>946.55541</ele>
        <time>2010-01-10T21:54:16Z</time>
      </trkpt>
      <trkpt lat="43.79731" lon="7.11519">
        <ele>938.38403</ele>
        <time>2010-01-10T21:54:18Z</time>
      </trkpt>
      <trkpt lat="43.79728" lon="7.11518">
        <ele>942.7102</ele>
        <time>2010-01-10T21:54:20Z</time>
      </trkpt>
      <trkpt lat="43.79726" lon="7.11514">
        <ele>945.11328</ele>
        <time>2010-01-10T21:54:21Z</time>
      </trkpt>
      <trkpt lat="43.79727" lon="7.11514">
        <ele>948.95849</ele>
        <time>2010-01-10T21:54:22Z</time>
      </trkpt>
      <trkpt lat="43.79723" lon="7.11517">
        <ele>955.68774</ele>
        <time>2010-01-10T21:54:24Z</time>
      </trkpt>
      <trkpt lat="43.79716" lon="7.11516">
        <ele>955.20703</ele>
        <time>2010-01-10T21:54:26Z</time>
      </trkpt>
      <trkpt lat="43.79699" lon="7.11509">
        <ele>950.8811</ele>
        <time>2010-01-10T21:54:33Z</time>
      </trkpt>
      <trkpt lat="43.79688" lon="7.11505">
        <ele>950.8811</ele>
        <time>2010-01-10T21:54:38Z</time>
      </trkpt>
      <trkpt lat="43.7968" lon="7.11502">
        <ele>948.95849</ele>
        <time>2010-01-10T21:54:41Z</time>
      </trkpt>
      <trkpt lat="43.7967" lon="7.11496">
        <ele>948.95849</ele>
        <time>2010-01-10T21:54:46Z</time>
      </trkpt>
      <trkpt lat="43.79659" lon="7.11495">
        <ele>958.0913</ele>
        <time>2010-01-10T21:54:50Z</time>
      </trkpt>
      <trkpt lat="43.79651" lon="7.11491">
        <ele>956.16845</ele>
        <time>2010-01-10T21:54:54Z</time>
      </trkpt>
      <trkpt lat="43.79648" lon="7.11487">
        <ele>959.05249</ele>
        <time>2010-01-10T21:54:55Z</time>
      </trkpt>
      <trkpt lat="43.79644" lon="7.11487">
        <ele>959.5332</ele>
        <time>2010-01-10T21:54:57Z</time>
      </trkpt>
      <trkpt lat="43.7964" lon="7.1148">
        <ele>952.32299</ele>
        <time>2010-01-10T21:55:00Z</time>
      </trkpt>
      <trkpt lat="43.79638" lon="7.11477">
        <ele>956.16845</ele>
        <time>2010-01-10T21:55:00Z</time>
      </trkpt>
      <trkpt lat="43.79632" lon="7.11481">
        <ele>956.16845</ele>
        <time>2010-01-10T21:55:03Z</time>
      </trkpt>
      <trkpt lat="43.79629" lon="7.11478">
        <ele>954.24584</ele>
        <time>2010-01-10T21:55:05Z</time>
      </trkpt>
      <trkpt lat="43.79625" lon="7.11476">
        <ele>956.16845</ele>
        <time>2010-01-10T21:55:06Z</time>
      </trkpt>
      <trkpt lat="43.79622" lon="7.11479">
        <ele>956.16845</ele>
        <time>2010-01-10T21:55:08Z</time>
      </trkpt>
      <trkpt lat="43.79624" lon="7.11481">
        <ele>956.16845</ele>
        <time>2010-01-10T21:55:09Z</time>
      </trkpt>
      <trkpt lat="43.79629" lon="7.11486">
        <ele>955.20703</ele>
        <time>2010-01-10T21:55:12Z</time>
      </trkpt>
      <trkpt lat="43.7963" lon="7.11486">
        <ele>955.68774</ele>
        <time>2010-01-10T21:55:12Z</time>
      </trkpt>
      <trkpt lat="43.79633" lon="7.11483">
        <ele>950.8811</ele>
        <time>2010-01-10T21:55:13Z</time>
      </trkpt>
      <trkpt lat="43.79635" lon="7.1149">
        <ele>953.76513</ele>
        <time>2010-01-10T21:55:16Z</time>
      </trkpt>
      <trkpt lat="43.79635" lon="7.11495">
        <ele>955.20703</ele>
        <time>2010-01-10T21:55:17Z</time>
      </trkpt>
      <trkpt lat="43.79641" lon="7.11516">
        <ele>954.24584</ele>
        <time>2010-01-10T21:55:24Z</time>
      </trkpt>
      <trkpt lat="43.79642" lon="7.11531">
        <ele>957.12988</ele>
        <time>2010-01-10T21:55:28Z</time>
      </trkpt>
      <trkpt lat="43.7964" lon="7.11542">
        <ele>966.2622</ele>
        <time>2010-01-10T21:55:31Z</time>
      </trkpt>
      <trkpt lat="43.79642" lon="7.11547">
        <ele>967.22363</ele>
        <time>2010-01-10T21:55:33Z</time>
      </trkpt>
      <trkpt lat="43.79641" lon="7.11553">
        <ele>968.66552</ele>
        <time>2010-01-10T21:55:35Z</time>
      </trkpt>
      <trkpt lat="43.79644" lon="7.11559">
        <ele>970.58813</ele>
        <time>2010-01-10T21:55:37Z</time>
      </trkpt>
      <trkpt lat="43.79647" lon="7.11566">
        <ele>965.78173</ele>
        <time>2010-01-10T21:55:39Z</time>
      </trkpt>
      <trkpt lat="43.79651" lon="7.1157">
        <ele>965.78173</ele>
        <time>2010-01-10T21:55:41Z</time>
      </trkpt>
      <trkpt lat="43.79658" lon="7.11578">
        <ele>967.7041</ele>
        <time>2010-01-10T21:55:45Z</time>
      </trkpt>
      <trkpt lat="43.7966" lon="7.1158">
        <ele>967.22363</ele>
        <time>2010-01-10T21:55:46Z</time>
      </trkpt>
      <trkpt lat="43.79661" lon="7.11586">
        <ele>969.14624</ele>
        <time>2010-01-10T21:55:48Z</time>
      </trkpt>
      <trkpt lat="43.79664" lon="7.11591">
        <ele>967.22363</ele>
        <time>2010-01-10T21:55:49Z</time>
      </trkpt>
      <trkpt lat="43.79666" lon="7.11597">
        <ele>969.14624</ele>
        <time>2010-01-10T21:55:51Z</time>
      </trkpt>
      <trkpt lat="43.79666" lon="7.11603">
        <ele>972.51098</ele>
        <time>2010-01-10T21:55:53Z</time>
      </trkpt>
      <trkpt lat="43.79665" lon="7.11612">
        <ele>977.31762</ele>
        <time>2010-01-10T21:55:55Z</time>
      </trkpt>
      <trkpt lat="43.79665" lon="7.11611">
        <ele>980.20141</ele>
        <time>2010-01-10T21:55:56Z</time>
      </trkpt>
      <trkpt lat="43.7967" lon="7.11612">
        <ele>978.75952</ele>
        <time>2010-01-10T21:55:58Z</time>
      </trkpt>
      <trkpt lat="43.79679" lon="7.11618">
        <ele>973.47241</ele>
        <time>2010-01-10T21:56:02Z</time>
      </trkpt>
      <trkpt lat="43.7968" lon="7.11626">
        <ele>973.47241</ele>
        <time>2010-01-10T21:56:04Z</time>
      </trkpt>
      <trkpt lat="43.79681" lon="7.11634">
        <ele>974.9143</ele>
        <time>2010-01-10T21:56:07Z</time>
      </trkpt>
      <trkpt lat="43.79685" lon="7.11636">
        <ele>974.43359</ele>
        <time>2010-01-10T21:56:09Z</time>
      </trkpt>
      <trkpt lat="43.79691" lon="7.11634">
        <ele>973.47241</ele>
        <time>2010-01-10T21:56:11Z</time>
      </trkpt>
      <trkpt lat="43.79694" lon="7.11634">
        <ele>973.95288</ele>
        <time>2010-01-10T21:56:12Z</time>
      </trkpt>
      <trkpt lat="43.79695" lon="7.11634">
        <ele>973.47241</ele>
        <time>2010-01-10T21:56:13Z</time>
      </trkpt>
      <trkpt lat="43.79699" lon="7.11642">
        <ele>969.62695</ele>
        <time>2010-01-10T21:56:15Z</time>
      </trkpt>
      <trkpt lat="43.79701" lon="7.11651">
        <ele>971.06884</ele>
        <time>2010-01-10T21:56:18Z</time>
      </trkpt>
      <trkpt lat="43.79704" lon="7.11662">
        <ele>971.06884</ele>
        <time>2010-01-10T21:56:22Z</time>
      </trkpt>
      <trkpt lat="43.7971" lon="7.11675">
        <ele>972.51098</ele>
        <time>2010-01-10T21:56:26Z</time>
      </trkpt>
      <trkpt lat="43.79716" lon="7.11688">
        <ele>974.9143</ele>
        <time>2010-01-10T21:56:30Z</time>
      </trkpt>
      <trkpt lat="43.79717" lon="7.11695">
        <ele>979.23999</ele>
        <time>2010-01-10T21:56:33Z</time>
      </trkpt>
      <trkpt lat="43.79716" lon="7.11698">
        <ele>982.60473</ele>
        <time>2010-01-10T21:56:33Z</time>
      </trkpt>
      <trkpt lat="43.79714" lon="7.11709">
        <ele>983.0852</ele>
        <time>2010-01-10T21:56:37Z</time>
      </trkpt>
      <trkpt lat="43.79716" lon="7.11719">
        <ele>979.23999</ele>
        <time>2010-01-10T21:56:40Z</time>
      </trkpt>
      <trkpt lat="43.79715" lon="7.11736">
        <ele>982.60473</ele>
        <time>2010-01-10T21:56:44Z</time>
      </trkpt>
      <trkpt lat="43.7971" lon="7.11752">
        <ele>986.44995</ele>
        <time>2010-01-10T21:56:50Z</time>
      </trkpt>
      <trkpt lat="43.79707" lon="7.11775">
        <ele>991.7373</ele>
        <time>2010-01-10T21:56:57Z</time>
      </trkpt>
      <trkpt lat="43.79705" lon="7.11794">
        <ele>993.17919</ele>
        <time>2010-01-10T21:57:02Z</time>
      </trkpt>
      <trkpt lat="43.797" lon="7.1181">
        <ele>996.06323</ele>
        <time>2010-01-10T21:57:07Z</time>
      </trkpt>
      <trkpt lat="43.79694" lon="7.11826">
        <ele>999.90844</ele>
        <time>2010-01-10T21:57:12Z</time>
      </trkpt>
      <trkpt lat="43.79689" lon="7.11833">
        <ele>994.14062</ele>
        <time>2010-01-10T21:57:15Z</time>
      </trkpt>
      <trkpt lat="43.79689" lon="7.11834">
        <ele>986.93041</ele>
        <time>2010-01-10T21:57:16Z</time>
      </trkpt>
      <trkpt lat="43.7969" lon="7.11836">
        <ele>985.48852</ele>
        <time>2010-01-10T21:57:16Z</time>
      </trkpt>
      <trkpt lat="43.79688" lon="7.11838">
        <ele>988.85351</ele>
        <time>2010-01-10T21:57:17Z</time>
      </trkpt>
      <trkpt lat="43.79688" lon="7.11841">
        <ele>987.89184</ele>
        <time>2010-01-10T21:57:18Z</time>
      </trkpt>
      <trkpt lat="43.79686" lon="7.11851">
        <ele>992.21801</ele>
        <time>2010-01-10T21:57:21Z</time>
      </trkpt>
      <trkpt lat="43.79683" lon="7.11869">
        <ele>992.21801</ele>
        <time>2010-01-10T21:57:26Z</time>
      </trkpt>
      <trkpt lat="43.79681" lon="7.11881">
        <ele>994.62109</ele>
        <time>2010-01-10T21:57:30Z</time>
      </trkpt>
      <trkpt lat="43.79681" lon="7.11904">
        <ele>996.54394</ele>
        <time>2010-01-10T21:57:37Z</time>
      </trkpt>
      <trkpt lat="43.79679" lon="7.11917">
        <ele>995.58251</ele>
        <time>2010-01-10T21:57:40Z</time>
      </trkpt>
      <trkpt lat="43.79678" lon="7.11937">
        <ele>995.1018</ele>
        <time>2010-01-10T21:57:46Z</time>
      </trkpt>
      <trkpt lat="43.79675" lon="7.11959">
        <ele>999.42773</ele>
        <time>2010-01-10T21:57:53Z</time>
      </trkpt>
      <trkpt lat="43.79668" lon="7.11976">
        <ele>999.42773</ele>
        <time>2010-01-10T21:57:59Z</time>
      </trkpt>
      <trkpt lat="43.79661" lon="7.11988">
        <ele>998.4663</ele>
        <time>2010-01-10T21:58:03Z</time>
      </trkpt>
      <trkpt lat="43.79656" lon="7.12004">
        <ele>998.4663</ele>
        <time>2010-01-10T21:58:08Z</time>
      </trkpt>
      <trkpt lat="43.79646" lon="7.12018">
        <ele>996.06323</ele>
        <time>2010-01-10T21:58:14Z</time>
      </trkpt>
      <trkpt lat="43.79637" lon="7.12031">
        <ele>996.06323</ele>
        <time>2010-01-10T21:58:19Z</time>
      </trkpt>
      <trkpt lat="43.79629" lon="7.12042">
        <ele>997.98583</ele>
        <time>2010-01-10T21:58:23Z</time>
      </trkpt>
      <trkpt lat="43.79617" lon="7.12047">
        <ele>996.54394</ele>
        <time>2010-01-10T21:58:29Z</time>
      </trkpt>
      <trkpt lat="43.79613" lon="7.12055">
        <ele>997.98583</ele>
        <time>2010-01-10T21:58:31Z</time>
      </trkpt>
      <trkpt lat="43.79606" lon="7.1207">
        <ele>1003.7536</ele>
        <time>2010-01-10T21:58:37Z</time>
      </trkpt>
      <trkpt lat="43.79604" lon="7.12086">
        <ele>1007.5991</ele>
        <time>2010-01-10T21:58:41Z</time>
      </trkpt>
      <trkpt lat="43.79606" lon="7.12101">
        <ele>1009.5217</ele>
        <time>2010-01-10T21:58:45Z</time>
      </trkpt>
      <trkpt lat="43.79605" lon="7.12123">
        <ele>1013.3669</ele>
        <time>2010-01-10T21:58:52Z</time>
      </trkpt>
      <trkpt lat="43.79599" lon="7.12135">
        <ele>1010.4829</ele>
        <time>2010-01-10T21:58:56Z</time>
      </trkpt>
      <trkpt lat="43.79593" lon="7.12148">
        <ele>1010.0021</ele>
        <time>2010-01-10T21:59:00Z</time>
      </trkpt>
      <trkpt lat="43.79587" lon="7.12163">
        <ele>1009.041</ele>
        <time>2010-01-10T21:59:05Z</time>
      </trkpt>
      <trkpt lat="43.79578" lon="7.12176">
        <ele>1009.041</ele>
        <time>2010-01-10T21:59:11Z</time>
      </trkpt>
      <trkpt lat="43.79573" lon="7.1218">
        <ele>1010.4829</ele>
        <time>2010-01-10T21:59:13Z</time>
      </trkpt>
      <trkpt lat="43.79568" lon="7.1219">
        <ele>1010.9636</ele>
        <time>2010-01-10T21:59:16Z</time>
      </trkpt>
      <trkpt lat="43.79562" lon="7.12206">
        <ele>1013.3669</ele>
        <time>2010-01-10T21:59:22Z</time>
      </trkpt>
      <trkpt lat="43.79562" lon="7.12216">
        <ele>1014.3281</ele>
        <time>2010-01-10T21:59:25Z</time>
      </trkpt>
      <trkpt lat="43.79565" lon="7.12231">
        <ele>1010.9636</ele>
        <time>2010-01-10T21:59:29Z</time>
      </trkpt>
      <trkpt lat="43.79571" lon="7.12241">
        <ele>1006.6376</ele>
        <time>2010-01-10T21:59:33Z</time>
      </trkpt>
      <trkpt lat="43.79578" lon="7.12253">
        <ele>1006.1569</ele>
        <time>2010-01-10T21:59:37Z</time>
      </trkpt>
      <trkpt lat="43.79583" lon="7.12268">
        <ele>1004.715</ele>
        <time>2010-01-10T21:59:42Z</time>
      </trkpt>
      <trkpt lat="43.79586" lon="7.12278">
        <ele>999.90844</ele>
        <time>2010-01-10T21:59:45Z</time>
      </trkpt>
      <trkpt lat="43.79583" lon="7.12285">
        <ele>1000.8696</ele>
        <time>2010-01-10T21:59:48Z</time>
      </trkpt>
      <trkpt lat="43.79582" lon="7.12304">
        <ele>1009.5217</ele>
        <time>2010-01-10T21:59:53Z</time>
      </trkpt>
      <trkpt lat="43.79582" lon="7.12329">
        <ele>1012.8862</ele>
        <time>2010-01-10T22:00:00Z</time>
      </trkpt>
      <trkpt lat="43.79576" lon="7.12348">
        <ele>1020.5769</ele>
        <time>2010-01-10T22:00:06Z</time>
      </trkpt>
      <trkpt lat="43.79574" lon="7.1236">
        <ele>1017.2121</ele>
        <time>2010-01-10T22:00:10Z</time>
      </trkpt>
      <trkpt lat="43.79567" lon="7.12372">
        <ele>1015.7702</ele>
        <time>2010-01-10T22:00:14Z</time>
      </trkpt>
      <trkpt lat="43.79569" lon="7.12384">
        <ele>1016.7314</ele>
        <time>2010-01-10T22:00:18Z</time>
      </trkpt>
      <trkpt lat="43.79569" lon="7.12398">
        <ele>1019.1347</ele>
        <time>2010-01-10T22:00:22Z</time>
      </trkpt>
      <trkpt lat="43.79571" lon="7.12413">
        <ele>1018.654</ele>
        <time>2010-01-10T22:00:26Z</time>
      </trkpt>
      <trkpt lat="43.79571" lon="7.12425">
        <ele>1017.6926</ele>
        <time>2010-01-10T22:00:30Z</time>
      </trkpt>
      <trkpt lat="43.79561" lon="7.1245">
        <ele>1018.1733</ele>
        <time>2010-01-10T22:00:38Z</time>
      </trkpt>
      <trkpt lat="43.7955" lon="7.12453">
        <ele>1015.2895</ele>
        <time>2010-01-10T22:00:42Z</time>
      </trkpt>
      <trkpt lat="43.79533" lon="7.12466">
        <ele>1011.925</ele>
        <time>2010-01-10T22:00:50Z</time>
      </trkpt>
      <trkpt lat="43.79532" lon="7.12463">
        <ele>1010.9636</ele>
        <time>2010-01-10T22:00:51Z</time>
      </trkpt>
      <trkpt lat="43.79527" lon="7.12469">
        <ele>1007.1184</ele>
        <time>2010-01-10T22:00:54Z</time>
      </trkpt>
      <trkpt lat="43.79524" lon="7.12482">
        <ele>1005.1958</ele>
        <time>2010-01-10T22:00:58Z</time>
      </trkpt>
      <trkpt lat="43.79519" lon="7.12499">
        <ele>1005.6765</ele>
        <time>2010-01-10T22:01:03Z</time>
      </trkpt>
      <trkpt lat="43.79516" lon="7.12506">
        <ele>1007.5991</ele>
        <time>2010-01-10T22:01:06Z</time>
      </trkpt>
      <trkpt lat="43.79513" lon="7.12516">
        <ele>1006.6376</ele>
        <time>2010-01-10T22:01:08Z</time>
      </trkpt>
      <trkpt lat="43.79511" lon="7.12534">
        <ele>1011.4443</ele>
        <time>2010-01-10T22:01:14Z</time>
      </trkpt>
      <trkpt lat="43.79504" lon="7.12546">
        <ele>1012.8862</ele>
        <time>2010-01-10T22:01:18Z</time>
      </trkpt>
      <trkpt lat="43.795" lon="7.12556">
        <ele>1011.4443</ele>
        <time>2010-01-10T22:01:22Z</time>
      </trkpt>
      <trkpt lat="43.79496" lon="7.12564">
        <ele>1010.0021</ele>
        <time>2010-01-10T22:01:24Z</time>
      </trkpt>
      <trkpt lat="43.79494" lon="7.12575">
        <ele>1010.4829</ele>
        <time>2010-01-10T22:01:28Z</time>
      </trkpt>
      <trkpt lat="43.79495" lon="7.12585">
        <ele>1011.4443</ele>
        <time>2010-01-10T22:01:30Z</time>
      </trkpt>
      <trkpt lat="43.7949" lon="7.126">
        <ele>1016.2507</ele>
        <time>2010-01-10T22:01:35Z</time>
      </trkpt>
      <trkpt lat="43.79483" lon="7.12608">
        <ele>1017.6926</ele>
        <time>2010-01-10T22:01:39Z</time>
      </trkpt>
      <trkpt lat="43.79476" lon="7.12614">
        <ele>1021.538</ele>
        <time>2010-01-10T22:01:42Z</time>
      </trkpt>
      <trkpt lat="43.79469" lon="7.12615">
        <ele>1024.9028</ele>
        <time>2010-01-10T22:01:45Z</time>
      </trkpt>
      <trkpt lat="43.79455" lon="7.12617">
        <ele>1024.9028</ele>
        <time>2010-01-10T22:01:50Z</time>
      </trkpt>
      <trkpt lat="43.79446" lon="7.12627">
        <ele>1025.3833</ele>
        <time>2010-01-10T22:01:55Z</time>
      </trkpt>
      <trkpt lat="43.79434" lon="7.12635">
        <ele>1021.0576</ele>
        <time>2010-01-10T22:02:00Z</time>
      </trkpt>
      <trkpt lat="43.79423" lon="7.12635">
        <ele>1017.6926</ele>
        <time>2010-01-10T22:02:05Z</time>
      </trkpt>
      <trkpt lat="43.79413" lon="7.12643">
        <ele>1022.4995</ele>
        <time>2010-01-10T22:02:10Z</time>
      </trkpt>
      <trkpt lat="43.79397" lon="7.12652">
        <ele>1020.0961</ele>
        <time>2010-01-10T22:02:17Z</time>
      </trkpt>
      <trkpt lat="43.79387" lon="7.1266">
        <ele>1022.9802</ele>
        <time>2010-01-10T22:02:21Z</time>
      </trkpt>
      <trkpt lat="43.79375" lon="7.12672">
        <ele>1022.0187</ele>
        <time>2010-01-10T22:02:27Z</time>
      </trkpt>
      <trkpt lat="43.79368" lon="7.12686">
        <ele>1020.5769</ele>
        <time>2010-01-10T22:02:32Z</time>
      </trkpt>
      <trkpt lat="43.79361" lon="7.12702">
        <ele>1025.864</ele>
        <time>2010-01-10T22:02:37Z</time>
      </trkpt>
      <trkpt lat="43.79357" lon="7.12714">
        <ele>1027.3061</ele>
        <time>2010-01-10T22:02:41Z</time>
      </trkpt>
      <trkpt lat="43.79352" lon="7.12724">
        <ele>1024.9028</ele>
        <time>2010-01-10T22:02:45Z</time>
      </trkpt>
      <trkpt lat="43.79351" lon="7.12726">
        <ele>1031.6318</ele>
        <time>2010-01-10T22:02:45Z</time>
      </trkpt>
      <trkpt lat="43.79341" lon="7.1273">
        <ele>1031.6318</ele>
        <time>2010-01-10T22:02:49Z</time>
      </trkpt>
      <trkpt lat="43.79337" lon="7.12727">
        <ele>1031.6318</ele>
        <time>2010-01-10T22:02:51Z</time>
      </trkpt>
      <trkpt lat="43.79327" lon="7.12733">
        <ele>1029.2285</ele>
        <time>2010-01-10T22:02:56Z</time>
      </trkpt>
      <trkpt lat="43.79312" lon="7.12742">
        <ele>1026.8254</ele>
        <time>2010-01-10T22:03:02Z</time>
      </trkpt>
      <trkpt lat="43.79299" lon="7.1276">
        <ele>1025.864</ele>
        <time>2010-01-10T22:03:09Z</time>
      </trkpt>
      <trkpt lat="43.79295" lon="7.12776">
        <ele>1022.4995</ele>
        <time>2010-01-10T22:03:14Z</time>
      </trkpt>
      <trkpt lat="43.79293" lon="7.12797">
        <ele>1021.0576</ele>
        <time>2010-01-10T22:03:20Z</time>
      </trkpt>
      <trkpt lat="43.7929" lon="7.12823">
        <ele>1019.1347</ele>
        <time>2010-01-10T22:03:28Z</time>
      </trkpt>
      <trkpt lat="43.79284" lon="7.1286">
        <ele>1015.7702</ele>
        <time>2010-01-10T22:03:39Z</time>
      </trkpt>
      <trkpt lat="43.79281" lon="7.12887">
        <ele>1010.4829</ele>
        <time>2010-01-10T22:03:47Z</time>
      </trkpt>
      <trkpt lat="43.79278" lon="7.12898">
        <ele>1008.5603</ele>
        <time>2010-01-10T22:03:50Z</time>
      </trkpt>
      <trkpt lat="43.79263" lon="7.12901">
        <ele>1006.6376</ele>
        <time>2010-01-10T22:03:56Z</time>
      </trkpt>
      <trkpt lat="43.79253" lon="7.12897">
        <ele>1003.7536</ele>
        <time>2010-01-10T22:04:01Z</time>
      </trkpt>
      <trkpt lat="43.79235" lon="7.12901">
        <ele>1002.7922</ele>
        <time>2010-01-10T22:04:08Z</time>
      </trkpt>
      <trkpt lat="43.79232" lon="7.12901">
        <ele>1001.3503</ele>
        <time>2010-01-10T22:04:09Z</time>
      </trkpt>
      <trkpt lat="43.79233" lon="7.1291">
        <ele>996.06323</ele>
        <time>2010-01-10T22:04:11Z</time>
      </trkpt>
      <trkpt lat="43.79234" lon="7.12911">
        <ele>996.06323</ele>
        <time>2010-01-10T22:04:12Z</time>
      </trkpt>
      <trkpt lat="43.79245" lon="7.12925">
        <ele>991.25659</ele>
        <time>2010-01-10T22:04:18Z</time>
      </trkpt>
      <trkpt lat="43.79245" lon="7.12928">
        <ele>989.33398</ele>
        <time>2010-01-10T22:04:19Z</time>
      </trkpt>
      <trkpt lat="43.79231" lon="7.12946">
        <ele>987.89184</ele>
        <time>2010-01-10T22:04:27Z</time>
      </trkpt>
      <trkpt lat="43.79229" lon="7.1295">
        <ele>987.41113</ele>
        <time>2010-01-10T22:04:28Z</time>
      </trkpt>
      <trkpt lat="43.7923" lon="7.12973">
        <ele>984.04663</ele>
        <time>2010-01-10T22:04:35Z</time>
      </trkpt>
      <trkpt lat="43.79238" lon="7.12996">
        <ele>980.20141</ele>
        <time>2010-01-10T22:04:42Z</time>
      </trkpt>
      <trkpt lat="43.79243" lon="7.13013">
        <ele>978.2788</ele>
        <time>2010-01-10T22:04:47Z</time>
      </trkpt>
      <trkpt lat="43.79243" lon="7.13041">
        <ele>972.51098</ele>
        <time>2010-01-10T22:04:55Z</time>
      </trkpt>
      <trkpt lat="43.79233" lon="7.13073">
        <ele>969.62695</ele>
        <time>2010-01-10T22:05:06Z</time>
      </trkpt>
      <trkpt lat="43.79236" lon="7.13063">
        <ele>968.66552</ele>
        <time>2010-01-10T22:05:09Z</time>
      </trkpt>
      <trkpt lat="43.79237" lon="7.13053">
        <ele>972.51098</ele>
        <time>2010-01-10T22:05:12Z</time>
      </trkpt>
      <trkpt lat="43.79222" lon="7.1306">
        <ele>975.87548</ele>
        <time>2010-01-10T22:05:18Z</time>
      </trkpt>
      <trkpt lat="43.79219" lon="7.13058">
        <ele>976.3562</ele>
        <time>2010-01-10T22:05:19Z</time>
      </trkpt>
      <trkpt lat="43.79199" lon="7.13067">
        <ele>974.43359</ele>
        <time>2010-01-10T22:05:28Z</time>
      </trkpt>
      <trkpt lat="43.79179" lon="7.13077">
        <ele>969.14624</ele>
        <time>2010-01-10T22:05:36Z</time>
      </trkpt>
      <trkpt lat="43.79164" lon="7.13085">
        <ele>967.22363</ele>
        <time>2010-01-10T22:05:43Z</time>
      </trkpt>
      <trkpt lat="43.79147" lon="7.13092">
        <ele>966.2622</ele>
        <time>2010-01-10T22:05:50Z</time>
      </trkpt>
      <trkpt lat="43.79134" lon="7.13095">
        <ele>964.82031</ele>
        <time>2010-01-10T22:05:55Z</time>
      </trkpt>
      <trkpt lat="43.79133" lon="7.13091">
        <ele>961.93652</ele>
        <time>2010-01-10T22:05:56Z</time>
      </trkpt>
      <trkpt lat="43.79124" lon="7.13082">
        <ele>962.8977</ele>
        <time>2010-01-10T22:06:01Z</time>
      </trkpt>
      <trkpt lat="43.79106" lon="7.13071">
        <ele>957.61059</ele>
        <time>2010-01-10T22:06:09Z</time>
      </trkpt>
      <trkpt lat="43.79104" lon="7.13068">
        <ele>957.12988</ele>
        <time>2010-01-10T22:06:10Z</time>
      </trkpt>
      <trkpt lat="43.79097" lon="7.13069">
        <ele>954.72631</ele>
        <time>2010-01-10T22:06:13Z</time>
      </trkpt>
      <trkpt lat="43.79098" lon="7.13061">
        <ele>947.03588</ele>
        <time>2010-01-10T22:06:15Z</time>
      </trkpt>
      <trkpt lat="43.79095" lon="7.13062">
        <ele>946.0747</ele>
        <time>2010-01-10T22:06:17Z</time>
      </trkpt>
      <trkpt lat="43.79089" lon="7.13062">
        <ele>946.55541</ele>
        <time>2010-01-10T22:06:19Z</time>
      </trkpt>
      <trkpt lat="43.79087" lon="7.13062">
        <ele>945.11328</ele>
        <time>2010-01-10T22:06:20Z</time>
      </trkpt>
      <trkpt lat="43.79095" lon="7.1306">
        <ele>951.36181</ele>
        <time>2010-01-10T22:06:23Z</time>
      </trkpt>
      <trkpt lat="43.79095" lon="7.13061">
        <ele>950.8811</ele>
        <time>2010-01-10T22:06:23Z</time>
      </trkpt>
      <trkpt lat="43.79096" lon="7.13061">
        <ele>950.40063</ele>
        <time>2010-01-10T22:06:23Z</time>
      </trkpt>
      <trkpt lat="43.79095" lon="7.13061">
        <ele>950.8811</ele>
        <time>2010-01-10T22:06:23Z</time>
      </trkpt>
      <trkpt lat="43.79095" lon="7.13061">
        <ele>947.99731</ele>
        <time>2010-01-10T22:06:23Z</time>
      </trkpt>
      <trkpt lat="43.79094" lon="7.1306">
        <ele>949.4392</ele>
        <time>2010-01-10T22:06:24Z</time>
      </trkpt>
      <trkpt lat="43.79095" lon="7.1306">
        <ele>951.84252</ele>
        <time>2010-01-10T22:06:24Z</time>
      </trkpt>
      <trkpt lat="43.79093" lon="7.13058">
        <ele>952.32299</ele>
        <time>2010-01-10T22:06:25Z</time>
      </trkpt>
      <trkpt lat="43.79095" lon="7.13058">
        <ele>954.24584</ele>
        <time>2010-01-10T22:06:26Z</time>
      </trkpt>
      <trkpt lat="43.79096" lon="7.13058">
        <ele>954.72631</ele>
        <time>2010-01-10T22:06:26Z</time>
      </trkpt>
      <trkpt lat="43.79095" lon="7.13058">
        <ele>954.24584</ele>
        <time>2010-01-10T22:06:27Z</time>
      </trkpt>
      <trkpt lat="43.79095" lon="7.13058">
        <ele>954.72631</ele>
        <time>2010-01-10T22:06:27Z</time>
      </trkpt>
      <trkpt lat="43.79094" lon="7.13058">
        <ele>954.24584</ele>
        <time>2010-01-10T22:06:27Z</time>
      </trkpt>
      <trkpt lat="43.79098" lon="7.13066">
        <ele>945.59399</ele>
        <time>2010-01-10T22:06:30Z</time>
      </trkpt>
      <trkpt lat="43.7909" lon="7.13072">
        <ele>946.0747</ele>
        <time>2010-01-10T22:06:34Z</time>
      </trkpt>
      <trkpt lat="43.79076" lon="7.13068">
        <ele>944.15209</ele>
        <time>2010-01-10T22:06:40Z</time>
      </trkpt>
      <trkpt lat="43.79067" lon="7.13072">
        <ele>942.22949</ele>
        <time>2010-01-10T22:06:43Z</time>
      </trkpt>
      <trkpt lat="43.79064" lon="7.13074">
        <ele>941.26806</ele>
        <time>2010-01-10T22:06:45Z</time>
      </trkpt>
      <trkpt lat="43.79049" lon="7.13085">
        <ele>935.98071</ele>
        <time>2010-01-10T22:06:51Z</time>
      </trkpt>
      <trkpt lat="43.79041" lon="7.13089">
        <ele>934.53881</ele>
        <time>2010-01-10T22:06:55Z</time>
      </trkpt>
      <trkpt lat="43.79031" lon="7.13107">
        <ele>934.0581</ele>
        <time>2010-01-10T22:07:01Z</time>
      </trkpt>
      <trkpt lat="43.79024" lon="7.13121">
        <ele>933.09667</ele>
        <time>2010-01-10T22:07:06Z</time>
      </trkpt>
      <trkpt lat="43.79013" lon="7.13134">
        <ele>933.09667</ele>
        <time>2010-01-10T22:07:12Z</time>
      </trkpt>
      <trkpt lat="43.78996" lon="7.13145">
        <ele>933.57739</ele>
        <time>2010-01-10T22:07:20Z</time>
      </trkpt>
      <trkpt lat="43.78979" lon="7.13164">
        <ele>934.0581</ele>
        <time>2010-01-10T22:07:28Z</time>
      </trkpt>
      <trkpt lat="43.78967" lon="7.13177">
        <ele>932.61621</ele>
        <time>2010-01-10T22:07:34Z</time>
      </trkpt>
      <trkpt lat="43.78955" lon="7.13194">
        <ele>933.09667</ele>
        <time>2010-01-10T22:07:42Z</time>
      </trkpt>
      <trkpt lat="43.78944" lon="7.13211">
        <ele>934.53881</ele>
        <time>2010-01-10T22:07:48Z</time>
      </trkpt>
      <trkpt lat="43.78936" lon="7.13223">
        <ele>935.5</ele>
        <time>2010-01-10T22:07:53Z</time>
      </trkpt>
      <trkpt lat="43.7892" lon="7.13228">
        <ele>936.46142</ele>
        <time>2010-01-10T22:07:59Z</time>
      </trkpt>
      <trkpt lat="43.78901" lon="7.13234">
        <ele>935.98071</ele>
        <time>2010-01-10T22:08:07Z</time>
      </trkpt>
      <trkpt lat="43.78886" lon="7.1324">
        <ele>936.94189</ele>
        <time>2010-01-10T22:08:13Z</time>
      </trkpt>
      <trkpt lat="43.78877" lon="7.13247">
        <ele>936.94189</ele>
        <time>2010-01-10T22:08:18Z</time>
      </trkpt>
      <trkpt lat="43.7886" lon="7.13261">
        <ele>936.94189</ele>
        <time>2010-01-10T22:08:25Z</time>
      </trkpt>
      <trkpt lat="43.78846" lon="7.13267">
        <ele>937.4226</ele>
        <time>2010-01-10T22:08:31Z</time>
      </trkpt>
      <trkpt lat="43.78838" lon="7.13276">
        <ele>936.94189</ele>
        <time>2010-01-10T22:08:35Z</time>
      </trkpt>
      <trkpt lat="43.78836" lon="7.1328">
        <ele>937.90332</ele>
        <time>2010-01-10T22:08:37Z</time>
      </trkpt>
      <trkpt lat="43.78834" lon="7.1329">
        <ele>938.38403</ele>
        <time>2010-01-10T22:08:40Z</time>
      </trkpt>
      <trkpt lat="43.78829" lon="7.13298">
        <ele>936.94189</ele>
        <time>2010-01-10T22:08:43Z</time>
      </trkpt>
      <trkpt lat="43.78827" lon="7.13301">
        <ele>935.5</ele>
        <time>2010-01-10T22:08:44Z</time>
      </trkpt>
      <trkpt lat="43.78818" lon="7.13309">
        <ele>936.46142</ele>
        <time>2010-01-10T22:08:48Z</time>
      </trkpt>
      <trkpt lat="43.78806" lon="7.13317">
        <ele>936.94189</ele>
        <time>2010-01-10T22:08:54Z</time>
      </trkpt>
      <trkpt lat="43.78796" lon="7.13323">
        <ele>935.98071</ele>
        <time>2010-01-10T22:08:58Z</time>
      </trkpt>
      <trkpt lat="43.78784" lon="7.13328">
        <ele>935.01953</ele>
        <time>2010-01-10T22:09:03Z</time>
      </trkpt>
      <trkpt lat="43.78768" lon="7.13331">
        <ele>934.53881</ele>
        <time>2010-01-10T22:09:10Z</time>
      </trkpt>
      <trkpt lat="43.78747" lon="7.1333">
        <ele>932.13549</ele>
        <time>2010-01-10T22:09:18Z</time>
      </trkpt>
      <trkpt lat="43.78733" lon="7.13322">
        <ele>930.21289</ele>
        <time>2010-01-10T22:09:24Z</time>
      </trkpt>
      <trkpt lat="43.78724" lon="7.13318">
        <ele>928.29028</ele>
        <time>2010-01-10T22:09:28Z</time>
      </trkpt>
      <trkpt lat="43.78715" lon="7.13327">
        <ele>927.3291</ele>
        <time>2010-01-10T22:09:32Z</time>
      </trkpt>
      <trkpt lat="43.78711" lon="7.1333">
        <ele>925.40625</ele>
        <time>2010-01-10T22:09:34Z</time>
      </trkpt>
      <trkpt lat="43.78698" lon="7.13326">
        <ele>924.92578</ele>
        <time>2010-01-10T22:09:39Z</time>
      </trkpt>
      <trkpt lat="43.78691" lon="7.13323">
        <ele>926.84838</ele>
        <time>2010-01-10T22:09:42Z</time>
      </trkpt>
      <trkpt lat="43.78676" lon="7.13321">
        <ele>926.36767</ele>
        <time>2010-01-10T22:09:49Z</time>
      </trkpt>
      <trkpt lat="43.78662" lon="7.13318">
        <ele>927.3291</ele>
        <time>2010-01-10T22:09:54Z</time>
      </trkpt>
      <trkpt lat="43.78646" lon="7.13317">
        <ele>929.73217</ele>
        <time>2010-01-10T22:10:01Z</time>
      </trkpt>
      <trkpt lat="43.78642" lon="7.13317">
        <ele>929.73217</ele>
        <time>2010-01-10T22:10:02Z</time>
      </trkpt>
      <trkpt lat="43.78609" lon="7.13326">
        <ele>929.73217</ele>
        <time>2010-01-10T22:10:16Z</time>
      </trkpt>
      <trkpt lat="43.78597" lon="7.13328">
        <ele>929.73217</ele>
        <time>2010-01-10T22:10:20Z</time>
      </trkpt>
      <trkpt lat="43.78575" lon="7.13326">
        <ele>927.80957</ele>
        <time>2010-01-10T22:10:29Z</time>
      </trkpt>
      <trkpt lat="43.78561" lon="7.13328">
        <ele>927.80957</ele>
        <time>2010-01-10T22:10:35Z</time>
      </trkpt>
      <trkpt lat="43.78531" lon="7.13333">
        <ele>925.88696</ele>
        <time>2010-01-10T22:10:47Z</time>
      </trkpt>
      <trkpt lat="43.7851" lon="7.1334">
        <ele>926.36767</ele>
        <time>2010-01-10T22:10:56Z</time>
      </trkpt>
      <trkpt lat="43.78501" lon="7.13343">
        <ele>924.92578</ele>
        <time>2010-01-10T22:10:59Z</time>
      </trkpt>
      <trkpt lat="43.78486" lon="7.13348">
        <ele>923.00292</ele>
        <time>2010-01-10T22:11:06Z</time>
      </trkpt>
      <trkpt lat="43.78471" lon="7.13344">
        <ele>922.52221</ele>
        <time>2010-01-10T22:11:12Z</time>
      </trkpt>
      <trkpt lat="43.78454" lon="7.1334">
        <ele>922.52221</ele>
        <time>2010-01-10T22:11:18Z</time>
      </trkpt>
      <trkpt lat="43.78437" lon="7.13344">
        <ele>923.00292</ele>
        <time>2010-01-10T22:11:25Z</time>
      </trkpt>
      <trkpt lat="43.78425" lon="7.13354">
        <ele>923.00292</ele>
        <time>2010-01-10T22:11:31Z</time>
      </trkpt>
      <trkpt lat="43.78425" lon="7.13358">
        <ele>920.5996</ele>
        <time>2010-01-10T22:11:32Z</time>
      </trkpt>
      <trkpt lat="43.78427" lon="7.1336">
        <ele>915.79321</ele>
        <time>2010-01-10T22:11:33Z</time>
      </trkpt>
      <trkpt lat="43.78426" lon="7.13361">
        <ele>915.3125</ele>
        <time>2010-01-10T22:11:34Z</time>
      </trkpt>
      <trkpt lat="43.78417" lon="7.13376">
        <ele>916.75439</ele>
        <time>2010-01-10T22:11:39Z</time>
      </trkpt>
      <trkpt lat="43.78398" lon="7.13389">
        <ele>917.71557</ele>
        <time>2010-01-10T22:11:48Z</time>
      </trkpt>
      <trkpt lat="43.78376" lon="7.13398">
        <ele>915.79321</ele>
        <time>2010-01-10T22:11:57Z</time>
      </trkpt>
      <trkpt lat="43.78364" lon="7.13404">
        <ele>917.2351</ele>
        <time>2010-01-10T22:12:02Z</time>
      </trkpt>
      <trkpt lat="43.78356" lon="7.13405">
        <ele>917.71557</ele>
        <time>2010-01-10T22:12:05Z</time>
      </trkpt>
      <trkpt lat="43.78334" lon="7.13407">
        <ele>917.71557</ele>
        <time>2010-01-10T22:12:14Z</time>
      </trkpt>
      <trkpt lat="43.78298" lon="7.134">
        <ele>916.75439</ele>
        <time>2010-01-10T22:12:29Z</time>
      </trkpt>
      <trkpt lat="43.78276" lon="7.13397">
        <ele>916.27368</ele>
        <time>2010-01-10T22:12:37Z</time>
      </trkpt>
      <trkpt lat="43.78262" lon="7.13395">
        <ele>914.83178</ele>
        <time>2010-01-10T22:12:43Z</time>
      </trkpt>
      <trkpt lat="43.78248" lon="7.13396">
        <ele>913.38989</ele>
        <time>2010-01-10T22:12:49Z</time>
      </trkpt>
      <trkpt lat="43.7823" lon="7.13401">
        <ele>912.90917</ele>
        <time>2010-01-10T22:12:56Z</time>
      </trkpt>
      <trkpt lat="43.78217" lon="7.13402">
        <ele>910.98657</ele>
        <time>2010-01-10T22:13:01Z</time>
      </trkpt>
      <trkpt lat="43.78203" lon="7.13404">
        <ele>910.50585</ele>
        <time>2010-01-10T22:13:07Z</time>
      </trkpt>
      <trkpt lat="43.78193" lon="7.13413">
        <ele>907.62182</ele>
        <time>2010-01-10T22:13:12Z</time>
      </trkpt>
      <trkpt lat="43.78182" lon="7.13415">
        <ele>905.2185</ele>
        <time>2010-01-10T22:13:16Z</time>
      </trkpt>
      <trkpt lat="43.78168" lon="7.13415">
        <ele>902.33447</ele>
        <time>2010-01-10T22:13:21Z</time>
      </trkpt>
      <trkpt lat="43.78157" lon="7.13426">
        <ele>899.45068</ele>
        <time>2010-01-10T22:13:27Z</time>
      </trkpt>
      <trkpt lat="43.78147" lon="7.13441">
        <ele>900.4121</ele>
        <time>2010-01-10T22:13:33Z</time>
      </trkpt>
      <trkpt lat="43.78141" lon="7.13453">
        <ele>900.4121</ele>
        <time>2010-01-10T22:13:37Z</time>
      </trkpt>
      <trkpt lat="43.78141" lon="7.13457">
        <ele>898.00878</ele>
        <time>2010-01-10T22:13:39Z</time>
      </trkpt>
      <trkpt lat="43.78141" lon="7.13463">
        <ele>897.04736</ele>
        <time>2010-01-10T22:13:40Z</time>
      </trkpt>
      <trkpt lat="43.7813" lon="7.13461">
        <ele>896.56689</ele>
        <time>2010-01-10T22:13:45Z</time>
      </trkpt>
      <trkpt lat="43.78127" lon="7.13462">
        <ele>896.56689</ele>
        <time>2010-01-10T22:13:46Z</time>
      </trkpt>
      <trkpt lat="43.78127" lon="7.13462">
        <ele>895.60546</ele>
        <time>2010-01-10T22:13:46Z</time>
      </trkpt>
      <trkpt lat="43.7812" lon="7.13465">
        <ele>894.16357</ele>
        <time>2010-01-10T22:13:49Z</time>
      </trkpt>
      <trkpt lat="43.78123" lon="7.13468">
        <ele>894.16357</ele>
        <time>2010-01-10T22:13:50Z</time>
      </trkpt>
      <trkpt lat="43.78119" lon="7.13482">
        <ele>895.12475</ele>
        <time>2010-01-10T22:13:55Z</time>
      </trkpt>
      <trkpt lat="43.78105" lon="7.1349">
        <ele>892.72167</ele>
        <time>2010-01-10T22:14:00Z</time>
      </trkpt>
      <trkpt lat="43.78095" lon="7.13496">
        <ele>893.20214</ele>
        <time>2010-01-10T22:14:05Z</time>
      </trkpt>
      <trkpt lat="43.78085" lon="7.13502">
        <ele>893.68286</ele>
        <time>2010-01-10T22:14:09Z</time>
      </trkpt>
      <trkpt lat="43.78064" lon="7.13515">
        <ele>892.24096</ele>
        <time>2010-01-10T22:14:18Z</time>
      </trkpt>
      <trkpt lat="43.78045" lon="7.1351">
        <ele>890.79858</ele>
        <time>2010-01-10T22:14:26Z</time>
      </trkpt>
      <trkpt lat="43.78027" lon="7.13511">
        <ele>886.95336</ele>
        <time>2010-01-10T22:14:33Z</time>
      </trkpt>
      <trkpt lat="43.78014" lon="7.13515">
        <ele>885.031</ele>
        <time>2010-01-10T22:14:39Z</time>
      </trkpt>
      <trkpt lat="43.77987" lon="7.13537">
        <ele>883.10815</ele>
        <time>2010-01-10T22:14:51Z</time>
      </trkpt>
      <trkpt lat="43.77983" lon="7.13551">
        <ele>883.58886</ele>
        <time>2010-01-10T22:14:56Z</time>
      </trkpt>
      <trkpt lat="43.77983" lon="7.13554">
        <ele>884.55029</ele>
        <time>2010-01-10T22:14:56Z</time>
      </trkpt>
      <trkpt lat="43.77977" lon="7.1356">
        <ele>885.031</ele>
        <time>2010-01-10T22:14:59Z</time>
      </trkpt>
      <trkpt lat="43.77962" lon="7.13584">
        <ele>882.14697</ele>
        <time>2010-01-10T22:15:09Z</time>
      </trkpt>
      <trkpt lat="43.77956" lon="7.13592">
        <ele>880.70507</ele>
        <time>2010-01-10T22:15:12Z</time>
      </trkpt>
      <trkpt lat="43.77954" lon="7.13616">
        <ele>878.78247</ele>
        <time>2010-01-10T22:15:19Z</time>
      </trkpt>
      <trkpt lat="43.77953" lon="7.13625">
        <ele>878.30175</ele>
        <time>2010-01-10T22:15:22Z</time>
      </trkpt>
      <trkpt lat="43.7796" lon="7.13641">
        <ele>880.70507</ele>
        <time>2010-01-10T22:15:27Z</time>
      </trkpt>
      <trkpt lat="43.77954" lon="7.13653">
        <ele>879.74365</ele>
        <time>2010-01-10T22:15:31Z</time>
      </trkpt>
      <trkpt lat="43.77956" lon="7.13665">
        <ele>878.30175</ele>
        <time>2010-01-10T22:15:35Z</time>
      </trkpt>
      <trkpt lat="43.77961" lon="7.13674">
        <ele>877.34057</ele>
        <time>2010-01-10T22:15:38Z</time>
      </trkpt>
      <trkpt lat="43.77957" lon="7.13686">
        <ele>873.49511</ele>
        <time>2010-01-10T22:15:42Z</time>
      </trkpt>
      <trkpt lat="43.77946" lon="7.13683">
        <ele>869.6499</ele>
        <time>2010-01-10T22:15:46Z</time>
      </trkpt>
      <trkpt lat="43.77939" lon="7.13678">
        <ele>869.16918</ele>
        <time>2010-01-10T22:15:49Z</time>
      </trkpt>
      <trkpt lat="43.77913" lon="7.13665">
        <ele>863.40136</ele>
        <time>2010-01-10T22:16:00Z</time>
      </trkpt>
      <trkpt lat="43.779" lon="7.13663">
        <ele>862.92065</ele>
        <time>2010-01-10T22:16:06Z</time>
      </trkpt>
      <trkpt lat="43.77881" lon="7.1367">
        <ele>861.47875</ele>
        <time>2010-01-10T22:16:13Z</time>
      </trkpt>
      <trkpt lat="43.77869" lon="7.13676">
        <ele>861.47875</ele>
        <time>2010-01-10T22:16:19Z</time>
      </trkpt>
      <trkpt lat="43.77856" lon="7.13677">
        <ele>860.99804</ele>
        <time>2010-01-10T22:16:24Z</time>
      </trkpt>
      <trkpt lat="43.77839" lon="7.13676">
        <ele>859.5559</ele>
        <time>2010-01-10T22:16:30Z</time>
      </trkpt>
      <trkpt lat="43.77838" lon="7.13674">
        <ele>863.88183</ele>
        <time>2010-01-10T22:16:31Z</time>
      </trkpt>
      <trkpt lat="43.7783" lon="7.1367">
        <ele>865.32397</ele>
        <time>2010-01-10T22:16:35Z</time>
      </trkpt>
      <trkpt lat="43.77826" lon="7.1366">
        <ele>868.68847</ele>
        <time>2010-01-10T22:16:38Z</time>
      </trkpt>
      <trkpt lat="43.77813" lon="7.13655">
        <ele>862.43994</ele>
        <time>2010-01-10T22:16:43Z</time>
      </trkpt>
      <trkpt lat="43.77798" lon="7.13663">
        <ele>860.99804</ele>
        <time>2010-01-10T22:16:50Z</time>
      </trkpt>
      <trkpt lat="43.77795" lon="7.13663">
        <ele>860.51733</ele>
        <time>2010-01-10T22:16:51Z</time>
      </trkpt>
      <trkpt lat="43.77771" lon="7.13661">
        <ele>858.59448</ele>
        <time>2010-01-10T22:17:01Z</time>
      </trkpt>
      <trkpt lat="43.77767" lon="7.13665">
        <ele>858.11401</ele>
        <time>2010-01-10T22:17:03Z</time>
      </trkpt>
      <trkpt lat="43.77759" lon="7.13679">
        <ele>855.22998</ele>
        <time>2010-01-10T22:17:08Z</time>
      </trkpt>
      <trkpt lat="43.77756" lon="7.13682">
        <ele>854.26879</ele>
        <time>2010-01-10T22:17:09Z</time>
      </trkpt>
      <trkpt lat="43.77742" lon="7.13686">
        <ele>851.38476</ele>
        <time>2010-01-10T22:17:15Z</time>
      </trkpt>
      <trkpt lat="43.77739" lon="7.13706">
        <ele>847.53955</ele>
        <time>2010-01-10T22:17:21Z</time>
      </trkpt>
      <trkpt lat="43.77733" lon="7.13727">
        <ele>847.53955</ele>
        <time>2010-01-10T22:17:27Z</time>
      </trkpt>
      <trkpt lat="43.77728" lon="7.13737">
        <ele>846.09765</ele>
        <time>2010-01-10T22:17:31Z</time>
      </trkpt>
      <trkpt lat="43.77712" lon="7.13749">
        <ele>843.21337</ele>
        <time>2010-01-10T22:17:38Z</time>
      </trkpt>
      <trkpt lat="43.777" lon="7.13765">
        <ele>844.65551</ele>
        <time>2010-01-10T22:17:45Z</time>
      </trkpt>
      <trkpt lat="43.77687" lon="7.13774">
        <ele>845.61694</ele>
        <time>2010-01-10T22:17:51Z</time>
      </trkpt>
      <trkpt lat="43.7767" lon="7.13785">
        <ele>843.69409</ele>
        <time>2010-01-10T22:17:58Z</time>
      </trkpt>
      <trkpt lat="43.77654" lon="7.13801">
        <ele>843.21337</ele>
        <time>2010-01-10T22:18:06Z</time>
      </trkpt>
      <trkpt lat="43.77642" lon="7.13818">
        <ele>838.88769</ele>
        <time>2010-01-10T22:18:13Z</time>
      </trkpt>
      <trkpt lat="43.7764" lon="7.13817">
        <ele>838.88769</ele>
        <time>2010-01-10T22:18:14Z</time>
      </trkpt>
      <trkpt lat="43.77641" lon="7.1381">
        <ele>838.88769</ele>
        <time>2010-01-10T22:18:16Z</time>
      </trkpt>
      <trkpt lat="43.77634" lon="7.1381">
        <ele>833.11962</ele>
        <time>2010-01-10T22:18:19Z</time>
      </trkpt>
      <trkpt lat="43.77619" lon="7.13823">
        <ele>829.75512</ele>
        <time>2010-01-10T22:18:25Z</time>
      </trkpt>
      <trkpt lat="43.77603" lon="7.13836">
        <ele>829.27441</ele>
        <time>2010-01-10T22:18:33Z</time>
      </trkpt>
      <trkpt lat="43.77596" lon="7.13839">
        <ele>829.27441</ele>
        <time>2010-01-10T22:18:36Z</time>
      </trkpt>
      <trkpt lat="43.77571" lon="7.13845">
        <ele>824.46777</ele>
        <time>2010-01-10T22:18:46Z</time>
      </trkpt>
      <trkpt lat="43.77566" lon="7.13849">
        <ele>822.54516</ele>
        <time>2010-01-10T22:18:48Z</time>
      </trkpt>
      <trkpt lat="43.77574" lon="7.1384">
        <ele>823.02587</ele>
        <time>2010-01-10T22:18:52Z</time>
      </trkpt>
      <trkpt lat="43.77571" lon="7.13846">
        <ele>825.90966</ele>
        <time>2010-01-10T22:18:54Z</time>
      </trkpt>
      <trkpt lat="43.7757" lon="7.13848">
        <ele>828.79394</ele>
        <time>2010-01-10T22:18:55Z</time>
      </trkpt>
      <trkpt lat="43.77569" lon="7.13844">
        <ele>824.94848</ele>
        <time>2010-01-10T22:18:56Z</time>
      </trkpt>
      <trkpt lat="43.77568" lon="7.13843">
        <ele>824.94848</ele>
        <time>2010-01-10T22:18:57Z</time>
      </trkpt>
      <trkpt lat="43.77568" lon="7.13841">
        <ele>821.10327</ele>
        <time>2010-01-10T22:18:58Z</time>
      </trkpt>
      <trkpt lat="43.77573" lon="7.13838">
        <ele>824.94848</ele>
        <time>2010-01-10T22:19:00Z</time>
      </trkpt>
      <trkpt lat="43.77573" lon="7.13839">
        <ele>829.27441</ele>
        <time>2010-01-10T22:19:00Z</time>
      </trkpt>
      <trkpt lat="43.77568" lon="7.1384">
        <ele>823.02587</ele>
        <time>2010-01-10T22:19:02Z</time>
      </trkpt>
      <trkpt lat="43.77567" lon="7.13838">
        <ele>820.62255</ele>
        <time>2010-01-10T22:19:03Z</time>
      </trkpt>
      <trkpt lat="43.77571" lon="7.13839">
        <ele>827.83227</ele>
        <time>2010-01-10T22:19:04Z</time>
      </trkpt>
      <trkpt lat="43.77573" lon="7.13838">
        <ele>833.60034</ele>
        <time>2010-01-10T22:19:05Z</time>
      </trkpt>
      <trkpt lat="43.77578" lon="7.13818">
        <ele>834.56176</ele>
        <time>2010-01-10T22:19:11Z</time>
      </trkpt>
      <trkpt lat="43.77575" lon="7.13811">
        <ele>837.44555</ele>
        <time>2010-01-10T22:19:13Z</time>
      </trkpt>
      <trkpt lat="43.7757" lon="7.138">
        <ele>842.25219</ele>
        <time>2010-01-10T22:19:17Z</time>
      </trkpt>
      <trkpt lat="43.77567" lon="7.13797">
        <ele>842.25219</ele>
        <time>2010-01-10T22:19:19Z</time>
      </trkpt>
      <trkpt lat="43.77566" lon="7.13793">
        <ele>836.48437</ele>
        <time>2010-01-10T22:19:20Z</time>
      </trkpt>
      <trkpt lat="43.77566" lon="7.1379">
        <ele>838.40698</ele>
        <time>2010-01-10T22:19:21Z</time>
      </trkpt>
      <trkpt lat="43.77569" lon="7.13786">
        <ele>842.73291</ele>
        <time>2010-01-10T22:19:22Z</time>
      </trkpt>
      <trkpt lat="43.77568" lon="7.13785">
        <ele>840.32958</ele>
        <time>2010-01-10T22:19:23Z</time>
      </trkpt>
      <trkpt lat="43.77572" lon="7.13781">
        <ele>840.81005</ele>
        <time>2010-01-10T22:19:25Z</time>
      </trkpt>
      <trkpt lat="43.77574" lon="7.13779">
        <ele>837.44555</ele>
        <time>2010-01-10T22:19:26Z</time>
      </trkpt>
      <trkpt lat="43.77576" lon="7.13777">
        <ele>838.40698</ele>
        <time>2010-01-10T22:19:27Z</time>
      </trkpt>
      <trkpt lat="43.77576" lon="7.13769">
        <ele>836.00366</ele>
        <time>2010-01-10T22:19:29Z</time>
      </trkpt>
      <trkpt lat="43.77573" lon="7.13756">
        <ele>833.60034</ele>
        <time>2010-01-10T22:19:33Z</time>
      </trkpt>
      <trkpt lat="43.77567" lon="7.13751">
        <ele>835.52294</ele>
        <time>2010-01-10T22:19:36Z</time>
      </trkpt>
      <trkpt lat="43.77568" lon="7.13751">
        <ele>838.88769</ele>
        <time>2010-01-10T22:19:36Z</time>
      </trkpt>
      <trkpt lat="43.77574" lon="7.13744">
        <ele>838.40698</ele>
        <time>2010-01-10T22:19:39Z</time>
      </trkpt>
      <trkpt lat="43.77576" lon="7.13741">
        <ele>838.88769</ele>
        <time>2010-01-10T22:19:40Z</time>
      </trkpt>
      <trkpt lat="43.77577" lon="7.13739">
        <ele>837.92626</ele>
        <time>2010-01-10T22:19:41Z</time>
      </trkpt>
      <trkpt lat="43.77572" lon="7.13734">
        <ele>836.96484</ele>
        <time>2010-01-10T22:19:44Z</time>
      </trkpt>
      <trkpt lat="43.77571" lon="7.13734">
        <ele>836.96484</ele>
        <time>2010-01-10T22:19:44Z</time>
      </trkpt>
      <trkpt lat="43.77573" lon="7.1373">
        <ele>836.48437</ele>
        <time>2010-01-10T22:19:45Z</time>
      </trkpt>
      <trkpt lat="43.77572" lon="7.13729">
        <ele>835.52294</ele>
        <time>2010-01-10T22:19:46Z</time>
      </trkpt>
      <trkpt lat="43.77571" lon="7.13726">
        <ele>839.84887</ele>
        <time>2010-01-10T22:19:47Z</time>
      </trkpt>
      <trkpt lat="43.77567" lon="7.13722">
        <ele>843.21337</ele>
        <time>2010-01-10T22:19:49Z</time>
      </trkpt>
      <trkpt lat="43.77568" lon="7.13717">
        <ele>844.65551</ele>
        <time>2010-01-10T22:19:50Z</time>
      </trkpt>
      <trkpt lat="43.77566" lon="7.13716">
        <ele>843.69409</ele>
        <time>2010-01-10T22:19:51Z</time>
      </trkpt>
      <trkpt lat="43.7757" lon="7.13713">
        <ele>848.98144</ele>
        <time>2010-01-10T22:19:53Z</time>
      </trkpt>
      <trkpt lat="43.77572" lon="7.1371">
        <ele>849.46215</ele>
        <time>2010-01-10T22:19:54Z</time>
      </trkpt>
      <trkpt lat="43.7757" lon="7.13702">
        <ele>848.50073</ele>
        <time>2010-01-10T22:19:56Z</time>
      </trkpt>
      <trkpt lat="43.77577" lon="7.13693">
        <ele>853.30737</ele>
        <time>2010-01-10T22:20:00Z</time>
      </trkpt>
      <trkpt lat="43.77576" lon="7.13685">
        <ele>855.71069</ele>
        <time>2010-01-10T22:20:02Z</time>
      </trkpt>
      <trkpt lat="43.77579" lon="7.13676">
        <ele>857.6333</ele>
        <time>2010-01-10T22:20:05Z</time>
      </trkpt>
      <trkpt lat="43.77577" lon="7.13665">
        <ele>852.34594</ele>
        <time>2010-01-10T22:20:08Z</time>
      </trkpt>
      <trkpt lat="43.77573" lon="7.13663">
        <ele>850.42358</ele>
        <time>2010-01-10T22:20:10Z</time>
      </trkpt>
      <trkpt lat="43.77573" lon="7.13664">
        <ele>854.74926</ele>
        <time>2010-01-10T22:20:11Z</time>
      </trkpt>
      <trkpt lat="43.77572" lon="7.13661">
        <ele>859.5559</ele>
        <time>2010-01-10T22:20:12Z</time>
      </trkpt>
      <trkpt lat="43.77573" lon="7.13651">
        <ele>861.95947</ele>
        <time>2010-01-10T22:20:15Z</time>
      </trkpt>
      <trkpt lat="43.77568" lon="7.13641">
        <ele>860.51733</ele>
        <time>2010-01-10T22:20:18Z</time>
      </trkpt>
      <trkpt lat="43.77569" lon="7.13628">
        <ele>860.51733</ele>
        <time>2010-01-10T22:20:22Z</time>
      </trkpt>
      <trkpt lat="43.77566" lon="7.1361">
        <ele>864.84326</ele>
        <time>2010-01-10T22:20:27Z</time>
      </trkpt>
      <trkpt lat="43.77565" lon="7.13606">
        <ele>865.80468</ele>
        <time>2010-01-10T22:20:28Z</time>
      </trkpt>
      <trkpt lat="43.77561" lon="7.13587">
        <ele>869.16918</ele>
        <time>2010-01-10T22:20:34Z</time>
      </trkpt>
      <trkpt lat="43.77559" lon="7.13575">
        <ele>871.09179</ele>
        <time>2010-01-10T22:20:38Z</time>
      </trkpt>
      <trkpt lat="43.77562" lon="7.13566">
        <ele>868.68847</ele>
        <time>2010-01-10T22:20:41Z</time>
      </trkpt>
      <trkpt lat="43.77565" lon="7.13559">
        <ele>860.03662</ele>
        <time>2010-01-10T22:20:43Z</time>
      </trkpt>
      <trkpt lat="43.77568" lon="7.13547">
        <ele>851.86547</ele>
        <time>2010-01-10T22:20:46Z</time>
      </trkpt>
      <trkpt lat="43.77575" lon="7.13535">
        <ele>847.05883</ele>
        <time>2010-01-10T22:20:51Z</time>
      </trkpt>
      <trkpt lat="43.7758" lon="7.13528">
        <ele>843.21337</ele>
        <time>2010-01-10T22:20:54Z</time>
      </trkpt>
      <trkpt lat="43.77584" lon="7.13526">
        <ele>842.25219</ele>
        <time>2010-01-10T22:20:56Z</time>
      </trkpt>
      <trkpt lat="43.77586" lon="7.13524">
        <ele>841.77148</ele>
        <time>2010-01-10T22:20:57Z</time>
      </trkpt>
      <trkpt lat="43.77593" lon="7.13516">
        <ele>839.84887</ele>
        <time>2010-01-10T22:21:00Z</time>
      </trkpt>
      <trkpt lat="43.77595" lon="7.13514">
        <ele>839.84887</ele>
        <time>2010-01-10T22:21:01Z</time>
      </trkpt>
      <trkpt lat="43.77596" lon="7.1351">
        <ele>838.88769</ele>
        <time>2010-01-10T22:21:03Z</time>
      </trkpt>
      <trkpt lat="43.77597" lon="7.13498">
        <ele>839.84887</ele>
        <time>2010-01-10T22:21:06Z</time>
      </trkpt>
      <trkpt lat="43.77604" lon="7.1348">
        <ele>844.17504</ele>
        <time>2010-01-10T22:21:12Z</time>
      </trkpt>
      <trkpt lat="43.77606" lon="7.13472">
        <ele>846.57836</ele>
        <time>2010-01-10T22:21:14Z</time>
      </trkpt>
      <trkpt lat="43.77614" lon="7.13455">
        <ele>843.69409</ele>
        <time>2010-01-10T22:21:20Z</time>
      </trkpt>
      <trkpt lat="43.77614" lon="7.13451">
        <ele>844.17504</ele>
        <time>2010-01-10T22:21:21Z</time>
      </trkpt>
      <trkpt lat="43.77615" lon="7.13423">
        <ele>841.77148</ele>
        <time>2010-01-10T22:21:29Z</time>
      </trkpt>
      <trkpt lat="43.77611" lon="7.13403">
        <ele>845.61694</ele>
        <time>2010-01-10T22:21:35Z</time>
      </trkpt>
      <trkpt lat="43.77608" lon="7.13386">
        <ele>844.65551</ele>
        <time>2010-01-10T22:21:40Z</time>
      </trkpt>
      <trkpt lat="43.77605" lon="7.13372">
        <ele>850.90405</ele>
        <time>2010-01-10T22:21:45Z</time>
      </trkpt>
      <trkpt lat="43.77607" lon="7.13364">
        <ele>854.26879</ele>
        <time>2010-01-10T22:21:47Z</time>
      </trkpt>
      <trkpt lat="43.77606" lon="7.1335">
        <ele>853.78808</ele>
        <time>2010-01-10T22:21:51Z</time>
      </trkpt>
      <trkpt lat="43.77606" lon="7.1334">
        <ele>852.34594</ele>
        <time>2010-01-10T22:21:54Z</time>
      </trkpt>
      <trkpt lat="43.77608" lon="7.13337">
        <ele>851.86547</ele>
        <time>2010-01-10T22:21:55Z</time>
      </trkpt>
      <trkpt lat="43.77609" lon="7.13331">
        <ele>851.86547</ele>
        <time>2010-01-10T22:21:57Z</time>
      </trkpt>
      <trkpt lat="43.77609" lon="7.13326">
        <ele>852.34594</ele>
        <time>2010-01-10T22:21:59Z</time>
      </trkpt>
      <trkpt lat="43.77606" lon="7.13318">
        <ele>848.50073</ele>
        <time>2010-01-10T22:22:01Z</time>
      </trkpt>
      <trkpt lat="43.77605" lon="7.13308">
        <ele>847.05883</ele>
        <time>2010-01-10T22:22:04Z</time>
      </trkpt>
      <trkpt lat="43.77607" lon="7.13301">
        <ele>850.42358</ele>
        <time>2010-01-10T22:22:06Z</time>
      </trkpt>
      <trkpt lat="43.77608" lon="7.13295">
        <ele>853.78808</ele>
        <time>2010-01-10T22:22:08Z</time>
      </trkpt>
      <trkpt lat="43.77606" lon="7.13288">
        <ele>853.30737</ele>
        <time>2010-01-10T22:22:10Z</time>
      </trkpt>
      <trkpt lat="43.77602" lon="7.13284">
        <ele>850.42358</ele>
        <time>2010-01-10T22:22:12Z</time>
      </trkpt>
      <trkpt lat="43.77599" lon="7.1328">
        <ele>851.38476</ele>
        <time>2010-01-10T22:22:14Z</time>
      </trkpt>
      <trkpt lat="43.776" lon="7.13271">
        <ele>848.02026</ele>
        <time>2010-01-10T22:22:16Z</time>
      </trkpt>
      <trkpt lat="43.77604" lon="7.1327">
        <ele>852.82666</ele>
        <time>2010-01-10T22:22:18Z</time>
      </trkpt>
      <trkpt lat="43.77605" lon="7.13259">
        <ele>851.86547</ele>
        <time>2010-01-10T22:22:21Z</time>
      </trkpt>
      <trkpt lat="43.776" lon="7.13255">
        <ele>858.59448</ele>
        <time>2010-01-10T22:22:23Z</time>
      </trkpt>
      <trkpt lat="43.77597" lon="7.13253">
        <ele>859.5559</ele>
        <time>2010-01-10T22:22:25Z</time>
      </trkpt>
      <trkpt lat="43.77591" lon="7.13244">
        <ele>859.07519</ele>
        <time>2010-01-10T22:22:28Z</time>
      </trkpt>
      <trkpt lat="43.77596" lon="7.13243">
        <ele>858.11401</ele>
        <time>2010-01-10T22:22:30Z</time>
      </trkpt>
      <trkpt lat="43.77599" lon="7.13242">
        <ele>858.59448</ele>
        <time>2010-01-10T22:22:31Z</time>
      </trkpt>
      <trkpt lat="43.77599" lon="7.13241">
        <ele>859.07519</ele>
        <time>2010-01-10T22:22:32Z</time>
      </trkpt>
      <trkpt lat="43.77598" lon="7.13234">
        <ele>860.03662</ele>
        <time>2010-01-10T22:22:34Z</time>
      </trkpt>
      <trkpt lat="43.77598" lon="7.13229">
        <ele>864.84326</ele>
        <time>2010-01-10T22:22:35Z</time>
      </trkpt>
      <trkpt lat="43.77598" lon="7.13229">
        <ele>865.80468</ele>
        <time>2010-01-10T22:22:35Z</time>
      </trkpt>
      <trkpt lat="43.77595" lon="7.13217">
        <ele>863.88183</ele>
        <time>2010-01-10T22:22:39Z</time>
      </trkpt>
      <trkpt lat="43.77592" lon="7.13209">
        <ele>863.40136</ele>
        <time>2010-01-10T22:22:41Z</time>
      </trkpt>
      <trkpt lat="43.77591" lon="7.13204">
        <ele>863.40136</ele>
        <time>2010-01-10T22:22:43Z</time>
      </trkpt>
      <trkpt lat="43.77588" lon="7.13199">
        <ele>862.43994</ele>
        <time>2010-01-10T22:22:45Z</time>
      </trkpt>
      <trkpt lat="43.77584" lon="7.13194">
        <ele>863.88183</ele>
        <time>2010-01-10T22:22:47Z</time>
      </trkpt>
      <trkpt lat="43.77578" lon="7.13187">
        <ele>866.28515</ele>
        <time>2010-01-10T22:22:50Z</time>
      </trkpt>
      <trkpt lat="43.77571" lon="7.13171">
        <ele>867.72705</ele>
        <time>2010-01-10T22:22:55Z</time>
      </trkpt>
      <trkpt lat="43.77567" lon="7.13159">
        <ele>869.16918</ele>
        <time>2010-01-10T22:22:59Z</time>
      </trkpt>
      <trkpt lat="43.77564" lon="7.13145">
        <ele>872.05297</ele>
        <time>2010-01-10T22:23:04Z</time>
      </trkpt>
      <trkpt lat="43.77565" lon="7.13129">
        <ele>870.61108</ele>
        <time>2010-01-10T22:23:08Z</time>
      </trkpt>
      <trkpt lat="43.77567" lon="7.1311">
        <ele>869.6499</ele>
        <time>2010-01-10T22:23:14Z</time>
      </trkpt>
      <trkpt lat="43.7757" lon="7.13094">
        <ele>869.16918</ele>
        <time>2010-01-10T22:23:19Z</time>
      </trkpt>
      <trkpt lat="43.77576" lon="7.13072">
        <ele>870.13037</ele>
        <time>2010-01-10T22:23:25Z</time>
      </trkpt>
      <trkpt lat="43.77577" lon="7.13057">
        <ele>869.6499</ele>
        <time>2010-01-10T22:23:30Z</time>
      </trkpt>
      <trkpt lat="43.77573" lon="7.13058">
        <ele>860.03662</ele>
        <time>2010-01-10T22:23:31Z</time>
      </trkpt>
      <trkpt lat="43.77578" lon="7.13045">
        <ele>870.61108</ele>
        <time>2010-01-10T22:23:35Z</time>
      </trkpt>
      <trkpt lat="43.77579" lon="7.13044">
        <ele>876.37915</ele>
        <time>2010-01-10T22:23:36Z</time>
      </trkpt>
      <trkpt lat="43.77584" lon="7.13045">
        <ele>879.74365</ele>
        <time>2010-01-10T22:23:38Z</time>
      </trkpt>
      <trkpt lat="43.77582" lon="7.1304">
        <ele>887.91479</ele>
        <time>2010-01-10T22:23:40Z</time>
      </trkpt>
      <trkpt lat="43.77577" lon="7.13039">
        <ele>858.11401</ele>
        <time>2010-01-10T22:23:41Z</time>
      </trkpt>
      <trkpt lat="43.77577" lon="7.1304">
        <ele>868.20776</ele>
        <time>2010-01-10T22:23:42Z</time>
      </trkpt>
      <trkpt lat="43.77575" lon="7.13043">
        <ele>862.92065</ele>
        <time>2010-01-10T22:23:43Z</time>
      </trkpt>
      <trkpt lat="43.77579" lon="7.13028">
        <ele>864.36254</ele>
        <time>2010-01-10T22:23:47Z</time>
      </trkpt>
      <trkpt lat="43.77588" lon="7.12999">
        <ele>866.76586</ele>
        <time>2010-01-10T22:23:56Z</time>
      </trkpt>
      <trkpt lat="43.776" lon="7.12975">
        <ele>868.68847</ele>
        <time>2010-01-10T22:24:05Z</time>
      </trkpt>
      <trkpt lat="43.77614" lon="7.1295">
        <ele>869.16918</ele>
        <time>2010-01-10T22:24:14Z</time>
      </trkpt>
      <trkpt lat="43.77627" lon="7.12925">
        <ele>870.61108</ele>
        <time>2010-01-10T22:24:23Z</time>
      </trkpt>
      <trkpt lat="43.77632" lon="7.12902">
        <ele>872.05297</ele>
        <time>2010-01-10T22:24:30Z</time>
      </trkpt>
      <trkpt lat="43.77636" lon="7.12884">
        <ele>873.97558</ele>
        <time>2010-01-10T22:24:35Z</time>
      </trkpt>
      <trkpt lat="43.77638" lon="7.12862">
        <ele>874.93701</ele>
        <time>2010-01-10T22:24:41Z</time>
      </trkpt>
      <trkpt lat="43.77638" lon="7.12844">
        <ele>875.89819</ele>
        <time>2010-01-10T22:24:47Z</time>
      </trkpt>
      <trkpt lat="43.77643" lon="7.12821">
        <ele>875.89819</ele>
        <time>2010-01-10T22:24:53Z</time>
      </trkpt>
      <trkpt lat="43.77647" lon="7.12796">
        <ele>877.82104</ele>
        <time>2010-01-10T22:25:01Z</time>
      </trkpt>
      <trkpt lat="43.77649" lon="7.12778">
        <ele>878.30175</ele>
        <time>2010-01-10T22:25:06Z</time>
      </trkpt>
      <trkpt lat="43.77662" lon="7.12765">
        <ele>879.26293</ele>
        <time>2010-01-10T22:25:13Z</time>
      </trkpt>
      <trkpt lat="43.77672" lon="7.12756">
        <ele>878.30175</ele>
        <time>2010-01-10T22:25:18Z</time>
      </trkpt>
      <trkpt lat="43.7768" lon="7.12747">
        <ele>876.37915</ele>
        <time>2010-01-10T22:25:22Z</time>
      </trkpt>
      <trkpt lat="43.7768" lon="7.12747">
        <ele>874.45629</ele>
        <time>2010-01-10T22:25:22Z</time>
      </trkpt>
      <trkpt lat="43.77681" lon="7.12747">
        <ele>874.93701</ele>
        <time>2010-01-10T22:25:22Z</time>
      </trkpt>
      <trkpt lat="43.77682" lon="7.12747">
        <ele>874.93701</ele>
        <time>2010-01-10T22:25:22Z</time>
      </trkpt>
      <trkpt lat="43.77685" lon="7.12747">
        <ele>873.97558</ele>
        <time>2010-01-10T22:25:24Z</time>
      </trkpt>
      <trkpt lat="43.7769" lon="7.12745">
        <ele>872.53369</ele>
        <time>2010-01-10T22:25:26Z</time>
      </trkpt>
      <trkpt lat="43.77702" lon="7.1273">
        <ele>871.57226</ele>
        <time>2010-01-10T22:25:32Z</time>
      </trkpt>
      <trkpt lat="43.77705" lon="7.12727">
        <ele>871.57226</ele>
        <time>2010-01-10T22:25:34Z</time>
      </trkpt>
      <trkpt lat="43.77711" lon="7.1272">
        <ele>872.05297</ele>
        <time>2010-01-10T22:25:37Z</time>
      </trkpt>
      <trkpt lat="43.77732" lon="7.12703">
        <ele>870.13037</ele>
        <time>2010-01-10T22:25:47Z</time>
      </trkpt>
      <trkpt lat="43.77751" lon="7.12684">
        <ele>867.24658</ele>
        <time>2010-01-10T22:25:56Z</time>
      </trkpt>
      <trkpt lat="43.77775" lon="7.12677">
        <ele>865.80468</ele>
        <time>2010-01-10T22:26:06Z</time>
      </trkpt>
      <trkpt lat="43.77813" lon="7.12663">
        <ele>862.92065</ele>
        <time>2010-01-10T22:26:22Z</time>
      </trkpt>
      <trkpt lat="43.7782" lon="7.1266">
        <ele>862.43994</ele>
        <time>2010-01-10T22:26:24Z</time>
      </trkpt>
      <trkpt lat="43.77843" lon="7.12658">
        <ele>862.92065</ele>
        <time>2010-01-10T22:26:34Z</time>
      </trkpt>
      <trkpt lat="43.77864" lon="7.1266">
        <ele>863.88183</ele>
        <time>2010-01-10T22:26:42Z</time>
      </trkpt>
      <trkpt lat="43.77874" lon="7.1267">
        <ele>866.76586</ele>
        <time>2010-01-10T22:26:47Z</time>
      </trkpt>
      <trkpt lat="43.77884" lon="7.12676">
        <ele>869.6499</ele>
        <time>2010-01-10T22:26:51Z</time>
      </trkpt>
      <trkpt lat="43.77895" lon="7.12679">
        <ele>871.57226</ele>
        <time>2010-01-10T22:26:56Z</time>
      </trkpt>
      <trkpt lat="43.7791" lon="7.12682">
        <ele>871.57226</ele>
        <time>2010-01-10T22:27:02Z</time>
      </trkpt>
      <trkpt lat="43.77925" lon="7.12685">
        <ele>870.13037</ele>
        <time>2010-01-10T22:27:08Z</time>
      </trkpt>
      <trkpt lat="43.77938" lon="7.12687">
        <ele>868.68847</ele>
        <time>2010-01-10T22:27:14Z</time>
      </trkpt>
      <trkpt lat="43.77958" lon="7.12676">
        <ele>867.72705</ele>
        <time>2010-01-10T22:27:22Z</time>
      </trkpt>
      <trkpt lat="43.77972" lon="7.1266">
        <ele>867.24658</ele>
        <time>2010-01-10T22:27:29Z</time>
      </trkpt>
      <trkpt lat="43.77988" lon="7.1265">
        <ele>867.72705</ele>
        <time>2010-01-10T22:27:36Z</time>
      </trkpt>
      <trkpt lat="43.78006" lon="7.12641">
        <ele>866.76586</ele>
        <time>2010-01-10T22:27:44Z</time>
      </trkpt>
      <trkpt lat="43.78012" lon="7.12626">
        <ele>865.32397</ele>
        <time>2010-01-10T22:27:49Z</time>
      </trkpt>
      <trkpt lat="43.78014" lon="7.12612">
        <ele>863.40136</ele>
        <time>2010-01-10T22:27:53Z</time>
      </trkpt>
      <trkpt lat="43.78015" lon="7.1259">
        <ele>862.43994</ele>
        <time>2010-01-10T22:27:59Z</time>
      </trkpt>
      <trkpt lat="43.78024" lon="7.12572">
        <ele>859.5559</ele>
        <time>2010-01-10T22:28:06Z</time>
      </trkpt>
      <trkpt lat="43.78028" lon="7.12553">
        <ele>858.11401</ele>
        <time>2010-01-10T22:28:11Z</time>
      </trkpt>
      <trkpt lat="43.78032" lon="7.1253">
        <ele>854.74926</ele>
        <time>2010-01-10T22:28:18Z</time>
      </trkpt>
      <trkpt lat="43.78036" lon="7.12498">
        <ele>850.42358</ele>
        <time>2010-01-10T22:28:28Z</time>
      </trkpt>
      <trkpt lat="43.78037" lon="7.12482">
        <ele>848.98144</ele>
        <time>2010-01-10T22:28:32Z</time>
      </trkpt>
      <trkpt lat="43.78037" lon="7.12467">
        <ele>847.53955</ele>
        <time>2010-01-10T22:28:37Z</time>
      </trkpt>
      <trkpt lat="43.78041" lon="7.12432">
        <ele>844.17504</ele>
        <time>2010-01-10T22:28:47Z</time>
      </trkpt>
      <trkpt lat="43.78044" lon="7.12397">
        <ele>842.25219</ele>
        <time>2010-01-10T22:28:57Z</time>
      </trkpt>
      <trkpt lat="43.78052" lon="7.1238">
        <ele>839.36816</ele>
        <time>2010-01-10T22:29:03Z</time>
      </trkpt>
      <trkpt lat="43.78057" lon="7.12375">
        <ele>838.40698</ele>
        <time>2010-01-10T22:29:05Z</time>
      </trkpt>
      <trkpt lat="43.7807" lon="7.12352">
        <ele>829.75512</ele>
        <time>2010-01-10T22:29:14Z</time>
      </trkpt>
      <trkpt lat="43.78073" lon="7.1233">
        <ele>826.87109</ele>
        <time>2010-01-10T22:29:20Z</time>
      </trkpt>
      <trkpt lat="43.78075" lon="7.12315">
        <ele>823.50659</ele>
        <time>2010-01-10T22:29:25Z</time>
      </trkpt>
      <trkpt lat="43.78084" lon="7.123">
        <ele>818.69995</ele>
        <time>2010-01-10T22:29:30Z</time>
      </trkpt>
      <trkpt lat="43.78091" lon="7.12284">
        <ele>814.85473</ele>
        <time>2010-01-10T22:29:36Z</time>
      </trkpt>
      <trkpt lat="43.78101" lon="7.12261">
        <ele>811.9707</ele>
        <time>2010-01-10T22:29:43Z</time>
      </trkpt>
      <trkpt lat="43.78103" lon="7.12258">
        <ele>811.48999</ele>
        <time>2010-01-10T22:29:45Z</time>
      </trkpt>
      <trkpt lat="43.78104" lon="7.12253">
        <ele>810.52856</ele>
        <time>2010-01-10T22:29:46Z</time>
      </trkpt>
      <trkpt lat="43.78115" lon="7.12242">
        <ele>806.68334</ele>
        <time>2010-01-10T22:29:52Z</time>
      </trkpt>
      <trkpt lat="43.78115" lon="7.12237">
        <ele>806.68334</ele>
        <time>2010-01-10T22:29:53Z</time>
      </trkpt>
      <trkpt lat="43.78117" lon="7.12223">
        <ele>806.20263</ele>
        <time>2010-01-10T22:29:57Z</time>
      </trkpt>
      <trkpt lat="43.78112" lon="7.12198">
        <ele>805.72216</ele>
        <time>2010-01-10T22:30:04Z</time>
      </trkpt>
      <trkpt lat="43.78112" lon="7.12183">
        <ele>802.83813</ele>
        <time>2010-01-10T22:30:09Z</time>
      </trkpt>
      <trkpt lat="43.78117" lon="7.12168">
        <ele>799.47363</ele>
        <time>2010-01-10T22:30:13Z</time>
      </trkpt>
      <trkpt lat="43.78114" lon="7.12155">
        <ele>793.22485</ele>
        <time>2010-01-10T22:30:17Z</time>
      </trkpt>
      <trkpt lat="43.78116" lon="7.12139">
        <ele>796.58984</ele>
        <time>2010-01-10T22:30:22Z</time>
      </trkpt>
      <trkpt lat="43.78126" lon="7.12131">
        <ele>793.70556</ele>
        <time>2010-01-10T22:30:27Z</time>
      </trkpt>
      <trkpt lat="43.78131" lon="7.12113">
        <ele>790.34106</ele>
        <time>2010-01-10T22:30:32Z</time>
      </trkpt>
      <trkpt lat="43.78136" lon="7.12088">
        <ele>786.49584</ele>
        <time>2010-01-10T22:30:40Z</time>
      </trkpt>
      <trkpt lat="43.78138" lon="7.12065">
        <ele>788.41845</ele>
        <time>2010-01-10T22:30:47Z</time>
      </trkpt>
      <trkpt lat="43.78134" lon="7.12041">
        <ele>785.05395</ele>
        <time>2010-01-10T22:30:54Z</time>
      </trkpt>
      <trkpt lat="43.78132" lon="7.12034">
        <ele>782.65063</ele>
        <time>2010-01-10T22:30:56Z</time>
      </trkpt>
      <trkpt lat="43.7812" lon="7.12019">
        <ele>777.84375</ele>
        <time>2010-01-10T22:31:02Z</time>
      </trkpt>
      <trkpt lat="43.78116" lon="7.12016">
        <ele>776.88256</ele>
        <time>2010-01-10T22:31:04Z</time>
      </trkpt>
      <trkpt lat="43.78111" lon="7.12005">
        <ele>771.59521</ele>
        <time>2010-01-10T22:31:08Z</time>
      </trkpt>
      <trkpt lat="43.78106" lon="7.12">
        <ele>771.59521</ele>
        <time>2010-01-10T22:31:10Z</time>
      </trkpt>
      <trkpt lat="43.781" lon="7.11992">
        <ele>772.07592</ele>
        <time>2010-01-10T22:31:14Z</time>
      </trkpt>
      <trkpt lat="43.78089" lon="7.11965">
        <ele>767.75</ele>
        <time>2010-01-10T22:31:23Z</time>
      </trkpt>
      <trkpt lat="43.78075" lon="7.11952">
        <ele>763.90454</ele>
        <time>2010-01-10T22:31:29Z</time>
      </trkpt>
      <trkpt lat="43.78065" lon="7.11943">
        <ele>760.54003</ele>
        <time>2010-01-10T22:31:34Z</time>
      </trkpt>
      <trkpt lat="43.78042" lon="7.1193">
        <ele>754.77221</ele>
        <time>2010-01-10T22:31:44Z</time>
      </trkpt>
      <trkpt lat="43.78027" lon="7.11924">
        <ele>750.44653</ele>
        <time>2010-01-10T22:31:50Z</time>
      </trkpt>
      <trkpt lat="43.78011" lon="7.1192">
        <ele>751.88842</ele>
        <time>2010-01-10T22:31:57Z</time>
      </trkpt>
      <trkpt lat="43.77994" lon="7.11919">
        <ele>750.927</ele>
        <time>2010-01-10T22:32:04Z</time>
      </trkpt>
      <trkpt lat="43.7799" lon="7.11906">
        <ele>749.00439</ele>
        <time>2010-01-10T22:32:08Z</time>
      </trkpt>
      <trkpt lat="43.77988" lon="7.11903">
        <ele>742.75585</ele>
        <time>2010-01-10T22:32:09Z</time>
      </trkpt>
      <trkpt lat="43.77984" lon="7.11898">
        <ele>745.15893</ele>
        <time>2010-01-10T22:32:11Z</time>
      </trkpt>
      <trkpt lat="43.77979" lon="7.11896">
        <ele>746.60107</ele>
        <time>2010-01-10T22:32:13Z</time>
      </trkpt>
      <trkpt lat="43.77975" lon="7.11897">
        <ele>747.56225</ele>
        <time>2010-01-10T22:32:15Z</time>
      </trkpt>
      <trkpt lat="43.77971" lon="7.11894">
        <ele>748.04321</ele>
        <time>2010-01-10T22:32:17Z</time>
      </trkpt>
      <trkpt lat="43.77961" lon="7.1189">
        <ele>753.81103</ele>
        <time>2010-01-10T22:32:21Z</time>
      </trkpt>
      <trkpt lat="43.77959" lon="7.11893">
        <ele>753.81103</ele>
        <time>2010-01-10T22:32:22Z</time>
      </trkpt>
      <trkpt lat="43.77954" lon="7.11889">
        <ele>752.36889</ele>
        <time>2010-01-10T22:32:25Z</time>
      </trkpt>
      <trkpt lat="43.77948" lon="7.11881">
        <ele>755.25292</ele>
        <time>2010-01-10T22:32:28Z</time>
      </trkpt>
      <trkpt lat="43.77941" lon="7.11879">
        <ele>751.88842</ele>
        <time>2010-01-10T22:32:30Z</time>
      </trkpt>
      <trkpt lat="43.7793" lon="7.11865">
        <ele>752.36889</ele>
        <time>2010-01-10T22:32:37Z</time>
      </trkpt>
      <trkpt lat="43.77921" lon="7.11852">
        <ele>751.88842</ele>
        <time>2010-01-10T22:32:42Z</time>
      </trkpt>
      <trkpt lat="43.77907" lon="7.1184">
        <ele>753.81103</ele>
        <time>2010-01-10T22:32:48Z</time>
      </trkpt>
      <trkpt lat="43.77896" lon="7.11822">
        <ele>752.36889</ele>
        <time>2010-01-10T22:32:55Z</time>
      </trkpt>
      <trkpt lat="43.77891" lon="7.11813">
        <ele>750.927</ele>
        <time>2010-01-10T22:32:59Z</time>
      </trkpt>
      <trkpt lat="43.77875" lon="7.11795">
        <ele>745.15893</ele>
        <time>2010-01-10T22:33:07Z</time>
      </trkpt>
      <trkpt lat="43.77872" lon="7.11791">
        <ele>742.75585</ele>
        <time>2010-01-10T22:33:08Z</time>
      </trkpt>
      <trkpt lat="43.77855" lon="7.11774">
        <ele>734.58471</ele>
        <time>2010-01-10T22:33:17Z</time>
      </trkpt>
      <trkpt lat="43.77852" lon="7.11771">
        <ele>734.58471</ele>
        <time>2010-01-10T22:33:18Z</time>
      </trkpt>
      <trkpt lat="43.77839" lon="7.11754">
        <ele>734.58471</ele>
        <time>2010-01-10T22:33:26Z</time>
      </trkpt>
      <trkpt lat="43.7783" lon="7.11731">
        <ele>731.70043</ele>
        <time>2010-01-10T22:33:33Z</time>
      </trkpt>
      <trkpt lat="43.77815" lon="7.11708">
        <ele>729.29711</ele>
        <time>2010-01-10T22:33:42Z</time>
      </trkpt>
      <trkpt lat="43.77813" lon="7.11702">
        <ele>734.58471</ele>
        <time>2010-01-10T22:33:44Z</time>
      </trkpt>
      <trkpt lat="43.77813" lon="7.11701">
        <ele>738.42993</ele>
        <time>2010-01-10T22:33:44Z</time>
      </trkpt>
      <trkpt lat="43.77814" lon="7.11701">
        <ele>738.42993</ele>
        <time>2010-01-10T22:33:45Z</time>
      </trkpt>
      <trkpt lat="43.77813" lon="7.11698">
        <ele>734.104</ele>
        <time>2010-01-10T22:33:45Z</time>
      </trkpt>
      <trkpt lat="43.77812" lon="7.11698">
        <ele>728.81665</ele>
        <time>2010-01-10T22:33:46Z</time>
      </trkpt>
      <trkpt lat="43.77812" lon="7.11697">
        <ele>739.87182</ele>
        <time>2010-01-10T22:33:46Z</time>
      </trkpt>
      <trkpt lat="43.77812" lon="7.11703">
        <ele>736.98779</ele>
        <time>2010-01-10T22:33:48Z</time>
      </trkpt>
      <trkpt lat="43.7781" lon="7.11704">
        <ele>736.02661</ele>
        <time>2010-01-10T22:33:49Z</time>
      </trkpt>
      <trkpt lat="43.77808" lon="7.11702">
        <ele>737.4685</ele>
        <time>2010-01-10T22:33:50Z</time>
      </trkpt>
      <trkpt lat="43.77808" lon="7.11698">
        <ele>734.58471</ele>
        <time>2010-01-10T22:33:51Z</time>
      </trkpt>
      <trkpt lat="43.77805" lon="7.11702">
        <ele>731.21997</ele>
        <time>2010-01-10T22:33:52Z</time>
      </trkpt>
      <trkpt lat="43.77803" lon="7.11702">
        <ele>731.21997</ele>
        <time>2010-01-10T22:33:53Z</time>
      </trkpt>
      <trkpt lat="43.77802" lon="7.117">
        <ele>731.21997</ele>
        <time>2010-01-10T22:33:54Z</time>
      </trkpt>
      <trkpt lat="43.77802" lon="7.11698">
        <ele>728.33593</ele>
        <time>2010-01-10T22:33:54Z</time>
      </trkpt>
      <trkpt lat="43.77801" lon="7.11699">
        <ele>728.33593</ele>
        <time>2010-01-10T22:33:55Z</time>
      </trkpt>
      <trkpt lat="43.77801" lon="7.11696">
        <ele>730.25854</ele>
        <time>2010-01-10T22:33:56Z</time>
      </trkpt>
      <trkpt lat="43.77802" lon="7.11696">
        <ele>740.35253</ele>
        <time>2010-01-10T22:33:56Z</time>
      </trkpt>
      <trkpt lat="43.77804" lon="7.11699">
        <ele>748.52368</ele>
        <time>2010-01-10T22:33:57Z</time>
      </trkpt>
      <trkpt lat="43.7781" lon="7.11702">
        <ele>758.13696</ele>
        <time>2010-01-10T22:34:00Z</time>
      </trkpt>
      <trkpt lat="43.77812" lon="7.117">
        <ele>748.04321</ele>
        <time>2010-01-10T22:34:00Z</time>
      </trkpt>
      <trkpt lat="43.77815" lon="7.11698">
        <ele>746.60107</ele>
        <time>2010-01-10T22:34:02Z</time>
      </trkpt>
      <trkpt lat="43.77812" lon="7.11699">
        <ele>743.71704</ele>
        <time>2010-01-10T22:34:03Z</time>
      </trkpt>
      <trkpt lat="43.77806" lon="7.11701">
        <ele>746.12036</ele>
        <time>2010-01-10T22:34:05Z</time>
      </trkpt>
      <trkpt lat="43.77792" lon="7.1171">
        <ele>749.96582</ele>
        <time>2010-01-10T22:34:11Z</time>
      </trkpt>
      <trkpt lat="43.7779" lon="7.11711">
        <ele>750.44653</ele>
        <time>2010-01-10T22:34:12Z</time>
      </trkpt>
      <trkpt lat="43.77779" lon="7.11717">
        <ele>753.81103</ele>
        <time>2010-01-10T22:34:17Z</time>
      </trkpt>
      <trkpt lat="43.77761" lon="7.11732">
        <ele>751.40771</ele>
        <time>2010-01-10T22:34:25Z</time>
      </trkpt>
      <trkpt lat="43.77756" lon="7.11741">
        <ele>749.4851</ele>
        <time>2010-01-10T22:34:29Z</time>
      </trkpt>
      <trkpt lat="43.77741" lon="7.11754">
        <ele>747.08154</ele>
        <time>2010-01-10T22:34:36Z</time>
      </trkpt>
      <trkpt lat="43.77726" lon="7.11767">
        <ele>745.63964</ele>
        <time>2010-01-10T22:34:43Z</time>
      </trkpt>
      <trkpt lat="43.77717" lon="7.11783">
        <ele>743.23632</ele>
        <time>2010-01-10T22:34:49Z</time>
      </trkpt>
      <trkpt lat="43.77711" lon="7.11799">
        <ele>742.75585</ele>
        <time>2010-01-10T22:34:54Z</time>
      </trkpt>
      <trkpt lat="43.77699" lon="7.11819">
        <ele>740.35253</ele>
        <time>2010-01-10T22:35:02Z</time>
      </trkpt>
      <trkpt lat="43.77686" lon="7.11846">
        <ele>735.54589</ele>
        <time>2010-01-10T22:35:11Z</time>
      </trkpt>
      <trkpt lat="43.77684" lon="7.11852">
        <ele>735.06542</ele>
        <time>2010-01-10T22:35:13Z</time>
      </trkpt>
      <trkpt lat="43.77673" lon="7.11868">
        <ele>734.104</ele>
        <time>2010-01-10T22:35:19Z</time>
      </trkpt>
      <trkpt lat="43.77672" lon="7.11868">
        <ele>733.14257</ele>
        <time>2010-01-10T22:35:20Z</time>
      </trkpt>
      <trkpt lat="43.77656" lon="7.11869">
        <ele>736.98779</ele>
        <time>2010-01-10T22:35:26Z</time>
      </trkpt>
      <trkpt lat="43.77645" lon="7.11875">
        <ele>736.50732</ele>
        <time>2010-01-10T22:35:31Z</time>
      </trkpt>
      <trkpt lat="43.77621" lon="7.11875">
        <ele>732.6621</ele>
        <time>2010-01-10T22:35:40Z</time>
      </trkpt>
      <trkpt lat="43.77609" lon="7.11871">
        <ele>731.21997</ele>
        <time>2010-01-10T22:35:45Z</time>
      </trkpt>
      <trkpt lat="43.77607" lon="7.11872">
        <ele>731.70043</ele>
        <time>2010-01-10T22:35:46Z</time>
      </trkpt>
      <trkpt lat="43.77599" lon="7.11884">
        <ele>729.77783</ele>
        <time>2010-01-10T22:35:51Z</time>
      </trkpt>
      <trkpt lat="43.77587" lon="7.11891">
        <ele>735.06542</ele>
        <time>2010-01-10T22:35:56Z</time>
      </trkpt>
      <trkpt lat="43.77571" lon="7.11897">
        <ele>730.25854</ele>
        <time>2010-01-10T22:36:03Z</time>
      </trkpt>
      <trkpt lat="43.77555" lon="7.11902">
        <ele>730.25854</ele>
        <time>2010-01-10T22:36:09Z</time>
      </trkpt>
      <trkpt lat="43.77544" lon="7.119">
        <ele>730.73925</ele>
        <time>2010-01-10T22:36:14Z</time>
      </trkpt>
      <trkpt lat="43.77533" lon="7.11896">
        <ele>732.18139</ele>
        <time>2010-01-10T22:36:18Z</time>
      </trkpt>
      <trkpt lat="43.77524" lon="7.11894">
        <ele>731.70043</ele>
        <time>2010-01-10T22:36:22Z</time>
      </trkpt>
      <trkpt lat="43.77506" lon="7.11885">
        <ele>733.14257</ele>
        <time>2010-01-10T22:36:29Z</time>
      </trkpt>
      <trkpt lat="43.77503" lon="7.11885">
        <ele>733.62329</ele>
        <time>2010-01-10T22:36:31Z</time>
      </trkpt>
      <trkpt lat="43.77495" lon="7.11885">
        <ele>731.21997</ele>
        <time>2010-01-10T22:36:34Z</time>
      </trkpt>
      <trkpt lat="43.77483" lon="7.11881">
        <ele>728.33593</ele>
        <time>2010-01-10T22:36:39Z</time>
      </trkpt>
      <trkpt lat="43.77478" lon="7.11882">
        <ele>729.29711</ele>
        <time>2010-01-10T22:36:41Z</time>
      </trkpt>
      <trkpt lat="43.77469" lon="7.11882">
        <ele>729.77783</ele>
        <time>2010-01-10T22:36:44Z</time>
      </trkpt>
      <trkpt lat="43.77463" lon="7.11884">
        <ele>730.25854</ele>
        <time>2010-01-10T22:36:47Z</time>
      </trkpt>
      <trkpt lat="43.77458" lon="7.11888">
        <ele>728.33593</ele>
        <time>2010-01-10T22:36:49Z</time>
      </trkpt>
      <trkpt lat="43.77456" lon="7.11886">
        <ele>728.81665</ele>
        <time>2010-01-10T22:36:50Z</time>
      </trkpt>
      <trkpt lat="43.77451" lon="7.11886">
        <ele>728.81665</ele>
        <time>2010-01-10T22:36:52Z</time>
      </trkpt>
      <trkpt lat="43.77445" lon="7.11888">
        <ele>728.33593</ele>
        <time>2010-01-10T22:36:55Z</time>
      </trkpt>
      <trkpt lat="43.77442" lon="7.11891">
        <ele>728.81665</ele>
        <time>2010-01-10T22:36:56Z</time>
      </trkpt>
      <trkpt lat="43.77431" lon="7.119">
        <ele>733.14257</ele>
        <time>2010-01-10T22:37:01Z</time>
      </trkpt>
      <trkpt lat="43.77417" lon="7.11907">
        <ele>735.06542</ele>
        <time>2010-01-10T22:37:07Z</time>
      </trkpt>
      <trkpt lat="43.77411" lon="7.11911">
        <ele>732.6621</ele>
        <time>2010-01-10T22:37:10Z</time>
      </trkpt>
      <trkpt lat="43.7741" lon="7.11911">
        <ele>736.50732</ele>
        <time>2010-01-10T22:37:10Z</time>
      </trkpt>
      <trkpt lat="43.77403" lon="7.11914">
        <ele>739.87182</ele>
        <time>2010-01-10T22:37:13Z</time>
      </trkpt>
      <trkpt lat="43.77401" lon="7.11915">
        <ele>736.98779</ele>
        <time>2010-01-10T22:37:15Z</time>
      </trkpt>
      <trkpt lat="43.774" lon="7.11914">
        <ele>739.87182</ele>
        <time>2010-01-10T22:37:15Z</time>
      </trkpt>
      <trkpt lat="43.77396" lon="7.11917">
        <ele>735.06542</ele>
        <time>2010-01-10T22:37:17Z</time>
      </trkpt>
      <trkpt lat="43.77394" lon="7.11919">
        <ele>736.98779</ele>
        <time>2010-01-10T22:37:18Z</time>
      </trkpt>
      <trkpt lat="43.77389" lon="7.1192">
        <ele>738.91064</ele>
        <time>2010-01-10T22:37:20Z</time>
      </trkpt>
      <trkpt lat="43.77382" lon="7.11916">
        <ele>739.39111</ele>
        <time>2010-01-10T22:37:23Z</time>
      </trkpt>
      <trkpt lat="43.77379" lon="7.11916">
        <ele>744.19775</ele>
        <time>2010-01-10T22:37:24Z</time>
      </trkpt>
      <trkpt lat="43.77372" lon="7.11916">
        <ele>734.58471</ele>
        <time>2010-01-10T22:37:27Z</time>
      </trkpt>
      <trkpt lat="43.77366" lon="7.11915">
        <ele>733.62329</ele>
        <time>2010-01-10T22:37:29Z</time>
      </trkpt>
      <trkpt lat="43.77366" lon="7.11916">
        <ele>736.98779</ele>
        <time>2010-01-10T22:37:29Z</time>
      </trkpt>
      <trkpt lat="43.77359" lon="7.11919">
        <ele>742.75585</ele>
        <time>2010-01-10T22:37:32Z</time>
      </trkpt>
      <trkpt lat="43.77357" lon="7.11922">
        <ele>749.4851</ele>
        <time>2010-01-10T22:37:33Z</time>
      </trkpt>
      <trkpt lat="43.77353" lon="7.11923">
        <ele>749.4851</ele>
        <time>2010-01-10T22:37:35Z</time>
      </trkpt>
      <trkpt lat="43.7735" lon="7.11927">
        <ele>750.927</ele>
        <time>2010-01-10T22:37:37Z</time>
      </trkpt>
      <trkpt lat="43.77343" lon="7.11933">
        <ele>748.04321</ele>
        <time>2010-01-10T22:37:40Z</time>
      </trkpt>
      <trkpt lat="43.7734" lon="7.11937">
        <ele>752.36889</ele>
        <time>2010-01-10T22:37:42Z</time>
      </trkpt>
      <trkpt lat="43.77337" lon="7.11939">
        <ele>756.21411</ele>
        <time>2010-01-10T22:37:43Z</time>
      </trkpt>
      <trkpt lat="43.77328" lon="7.11937">
        <ele>749.96582</ele>
        <time>2010-01-10T22:37:47Z</time>
      </trkpt>
      <trkpt lat="43.77326" lon="7.11955">
        <ele>746.12036</ele>
        <time>2010-01-10T22:37:52Z</time>
      </trkpt>
      <trkpt lat="43.77323" lon="7.11958">
        <ele>755.73364</ele>
        <time>2010-01-10T22:37:54Z</time>
      </trkpt>
      <trkpt lat="43.7732" lon="7.11961">
        <ele>761.50146</ele>
        <time>2010-01-10T22:37:55Z</time>
      </trkpt>
      <trkpt lat="43.77317" lon="7.11963">
        <ele>762.46264</ele>
        <time>2010-01-10T22:37:56Z</time>
      </trkpt>
      <trkpt lat="43.77313" lon="7.11968">
        <ele>760.05932</ele>
        <time>2010-01-10T22:37:59Z</time>
      </trkpt>
      <trkpt lat="43.77311" lon="7.11968">
        <ele>760.54003</ele>
        <time>2010-01-10T22:37:59Z</time>
      </trkpt>
      <trkpt lat="43.77302" lon="7.11967">
        <ele>759.57885</ele>
        <time>2010-01-10T22:38:03Z</time>
      </trkpt>
      <trkpt lat="43.77299" lon="7.11966">
        <ele>760.05932</ele>
        <time>2010-01-10T22:38:04Z</time>
      </trkpt>
      <trkpt lat="43.77294" lon="7.11973">
        <ele>767.75</ele>
        <time>2010-01-10T22:38:07Z</time>
      </trkpt>
      <trkpt lat="43.77288" lon="7.11981">
        <ele>771.59521</ele>
        <time>2010-01-10T22:38:10Z</time>
      </trkpt>
      <trkpt lat="43.7728" lon="7.11993">
        <ele>770.15332</ele>
        <time>2010-01-10T22:38:15Z</time>
      </trkpt>
      <trkpt lat="43.77279" lon="7.11996">
        <ele>771.59521</ele>
        <time>2010-01-10T22:38:16Z</time>
      </trkpt>
      <trkpt lat="43.77268" lon="7.12001">
        <ele>774.47924</ele>
        <time>2010-01-10T22:38:20Z</time>
      </trkpt>
      <trkpt lat="43.77264" lon="7.12002">
        <ele>782.16992</ele>
        <time>2010-01-10T22:38:22Z</time>
      </trkpt>
      <trkpt lat="43.77255" lon="7.12005">
        <ele>783.61181</ele>
        <time>2010-01-10T22:38:26Z</time>
      </trkpt>
      <trkpt lat="43.77247" lon="7.12007">
        <ele>782.16992</ele>
        <time>2010-01-10T22:38:29Z</time>
      </trkpt>
      <trkpt lat="43.77238" lon="7.12011">
        <ele>780.24731</ele>
        <time>2010-01-10T22:38:33Z</time>
      </trkpt>
      <trkpt lat="43.77233" lon="7.12014">
        <ele>780.72802</ele>
        <time>2010-01-10T22:38:35Z</time>
      </trkpt>
      <trkpt lat="43.77228" lon="7.12018">
        <ele>781.20874</ele>
        <time>2010-01-10T22:38:37Z</time>
      </trkpt>
      <trkpt lat="43.77223" lon="7.12017">
        <ele>784.57324</ele>
        <time>2010-01-10T22:38:39Z</time>
      </trkpt>
      <trkpt lat="43.77214" lon="7.12022">
        <ele>785.05395</ele>
        <time>2010-01-10T22:38:43Z</time>
      </trkpt>
      <trkpt lat="43.77201" lon="7.12026">
        <ele>780.72802</ele>
        <time>2010-01-10T22:38:49Z</time>
      </trkpt>
      <trkpt lat="43.77195" lon="7.12025">
        <ele>782.16992</ele>
        <time>2010-01-10T22:38:51Z</time>
      </trkpt>
      <trkpt lat="43.77182" lon="7.12026">
        <ele>780.72802</ele>
        <time>2010-01-10T22:38:56Z</time>
      </trkpt>
      <trkpt lat="43.77179" lon="7.12026">
        <ele>782.16992</ele>
        <time>2010-01-10T22:38:57Z</time>
      </trkpt>
      <trkpt lat="43.77177" lon="7.12029">
        <ele>781.20874</ele>
        <time>2010-01-10T22:38:59Z</time>
      </trkpt>
      <trkpt lat="43.77169" lon="7.12036">
        <ele>783.1311</ele>
        <time>2010-01-10T22:39:02Z</time>
      </trkpt>
      <trkpt lat="43.77163" lon="7.12035">
        <ele>785.05395</ele>
        <time>2010-01-10T22:39:05Z</time>
      </trkpt>
      <trkpt lat="43.77156" lon="7.12039">
        <ele>784.57324</ele>
        <time>2010-01-10T22:39:08Z</time>
      </trkpt>
      <trkpt lat="43.77141" lon="7.1205">
        <ele>780.24731</ele>
        <time>2010-01-10T22:39:15Z</time>
      </trkpt>
      <trkpt lat="43.77131" lon="7.12057">
        <ele>778.32446</ele>
        <time>2010-01-10T22:39:19Z</time>
      </trkpt>
      <trkpt lat="43.77118" lon="7.12063">
        <ele>778.80517</ele>
        <time>2010-01-10T22:39:25Z</time>
      </trkpt>
      <trkpt lat="43.77109" lon="7.12064">
        <ele>780.72802</ele>
        <time>2010-01-10T22:39:28Z</time>
      </trkpt>
      <trkpt lat="43.77101" lon="7.12067">
        <ele>777.36328</ele>
        <time>2010-01-10T22:39:31Z</time>
      </trkpt>
      <trkpt lat="43.77098" lon="7.1207">
        <ele>779.76635</ele>
        <time>2010-01-10T22:39:33Z</time>
      </trkpt>
      <trkpt lat="43.77091" lon="7.12067">
        <ele>782.16992</ele>
        <time>2010-01-10T22:39:36Z</time>
      </trkpt>
      <trkpt lat="43.77084" lon="7.12073">
        <ele>783.61181</ele>
        <time>2010-01-10T22:39:39Z</time>
      </trkpt>
      <trkpt lat="43.77078" lon="7.12077">
        <ele>780.24731</ele>
        <time>2010-01-10T22:39:42Z</time>
      </trkpt>
      <trkpt lat="43.77076" lon="7.12078">
        <ele>781.6892</ele>
        <time>2010-01-10T22:39:43Z</time>
      </trkpt>
      <trkpt lat="43.77073" lon="7.12076">
        <ele>783.1311</ele>
        <time>2010-01-10T22:39:44Z</time>
      </trkpt>
      <trkpt lat="43.77071" lon="7.12079">
        <ele>784.57324</ele>
        <time>2010-01-10T22:39:45Z</time>
      </trkpt>
      <trkpt lat="43.77068" lon="7.12079">
        <ele>783.1311</ele>
        <time>2010-01-10T22:39:46Z</time>
      </trkpt>
      <trkpt lat="43.77066" lon="7.12082">
        <ele>786.97631</ele>
        <time>2010-01-10T22:39:48Z</time>
      </trkpt>
      <trkpt lat="43.77062" lon="7.12081">
        <ele>780.72802</ele>
        <time>2010-01-10T22:39:49Z</time>
      </trkpt>
      <trkpt lat="43.77054" lon="7.12085">
        <ele>781.6892</ele>
        <time>2010-01-10T22:39:52Z</time>
      </trkpt>
      <trkpt lat="43.77052" lon="7.12087">
        <ele>783.1311</ele>
        <time>2010-01-10T22:39:53Z</time>
      </trkpt>
      <trkpt lat="43.77044" lon="7.12083">
        <ele>785.05395</ele>
        <time>2010-01-10T22:39:57Z</time>
      </trkpt>
      <trkpt lat="43.77034" lon="7.12081">
        <ele>784.57324</ele>
        <time>2010-01-10T22:40:01Z</time>
      </trkpt>
      <trkpt lat="43.77031" lon="7.12077">
        <ele>783.61181</ele>
        <time>2010-01-10T22:40:03Z</time>
      </trkpt>
      <trkpt lat="43.77025" lon="7.12074">
        <ele>782.65063</ele>
        <time>2010-01-10T22:40:05Z</time>
      </trkpt>
      <trkpt lat="43.77015" lon="7.12075">
        <ele>782.65063</ele>
        <time>2010-01-10T22:40:09Z</time>
      </trkpt>
      <trkpt lat="43.7701" lon="7.12072">
        <ele>783.1311</ele>
        <time>2010-01-10T22:40:11Z</time>
      </trkpt>
      <trkpt lat="43.77001" lon="7.12069">
        <ele>781.20874</ele>
        <time>2010-01-10T22:40:15Z</time>
      </trkpt>
      <trkpt lat="43.76997" lon="7.1207">
        <ele>780.24731</ele>
        <time>2010-01-10T22:40:17Z</time>
      </trkpt>
      <trkpt lat="43.76994" lon="7.12073">
        <ele>783.1311</ele>
        <time>2010-01-10T22:40:18Z</time>
      </trkpt>
      <trkpt lat="43.76987" lon="7.12074">
        <ele>779.28564</ele>
        <time>2010-01-10T22:40:21Z</time>
      </trkpt>
      <trkpt lat="43.7698" lon="7.12076">
        <ele>782.65063</ele>
        <time>2010-01-10T22:40:24Z</time>
      </trkpt>
      <trkpt lat="43.7698" lon="7.12076">
        <ele>783.61181</ele>
        <time>2010-01-10T22:40:24Z</time>
      </trkpt>
      <trkpt lat="43.76971" lon="7.12085">
        <ele>784.09252</ele>
        <time>2010-01-10T22:40:28Z</time>
      </trkpt>
      <trkpt lat="43.76966" lon="7.12089">
        <ele>782.65063</ele>
        <time>2010-01-10T22:40:30Z</time>
      </trkpt>
      <trkpt lat="43.76965" lon="7.1209">
        <ele>781.6892</ele>
        <time>2010-01-10T22:40:31Z</time>
      </trkpt>
      <trkpt lat="43.76959" lon="7.12092">
        <ele>777.84375</ele>
        <time>2010-01-10T22:40:33Z</time>
      </trkpt>
      <trkpt lat="43.76954" lon="7.12098">
        <ele>777.84375</ele>
        <time>2010-01-10T22:40:36Z</time>
      </trkpt>
      <trkpt lat="43.76951" lon="7.121">
        <ele>781.6892</ele>
        <time>2010-01-10T22:40:37Z</time>
      </trkpt>
      <trkpt lat="43.76951" lon="7.121">
        <ele>780.72802</ele>
        <time>2010-01-10T22:40:38Z</time>
      </trkpt>
      <trkpt lat="43.76949" lon="7.12107">
        <ele>777.84375</ele>
        <time>2010-01-10T22:40:40Z</time>
      </trkpt>
      <trkpt lat="43.76946" lon="7.12111">
        <ele>776.40185</ele>
        <time>2010-01-10T22:40:41Z</time>
      </trkpt>
      <trkpt lat="43.76943" lon="7.1212">
        <ele>772.55664</ele>
        <time>2010-01-10T22:40:44Z</time>
      </trkpt>
      <trkpt lat="43.76944" lon="7.12126">
        <ele>776.40185</ele>
        <time>2010-01-10T22:40:46Z</time>
      </trkpt>
      <trkpt lat="43.76937" lon="7.12139">
        <ele>775.92114</ele>
        <time>2010-01-10T22:40:51Z</time>
      </trkpt>
      <trkpt lat="43.76935" lon="7.1214">
        <ele>773.03735</ele>
        <time>2010-01-10T22:40:51Z</time>
      </trkpt>
      <trkpt lat="43.76932" lon="7.12141">
        <ele>766.3081</ele>
        <time>2010-01-10T22:40:52Z</time>
      </trkpt>
      <trkpt lat="43.76932" lon="7.12146">
        <ele>759.57885</ele>
        <time>2010-01-10T22:40:54Z</time>
      </trkpt>
      <trkpt lat="43.76932" lon="7.12151">
        <ele>759.09814</ele>
        <time>2010-01-10T22:40:55Z</time>
      </trkpt>
      <trkpt lat="43.7693" lon="7.1216">
        <ele>764.38549</ele>
        <time>2010-01-10T22:40:58Z</time>
      </trkpt>
      <trkpt lat="43.76921" lon="7.12167">
        <ele>766.3081</ele>
        <time>2010-01-10T22:41:02Z</time>
      </trkpt>
      <trkpt lat="43.76898" lon="7.12175">
        <ele>767.75</ele>
        <time>2010-01-10T22:41:12Z</time>
      </trkpt>
      <trkpt lat="43.76885" lon="7.12182">
        <ele>770.63403</ele>
        <time>2010-01-10T22:41:17Z</time>
      </trkpt>
      <trkpt lat="43.76877" lon="7.12187">
        <ele>770.63403</ele>
        <time>2010-01-10T22:41:21Z</time>
      </trkpt>
      <trkpt lat="43.76848" lon="7.12185">
        <ele>766.78881</ele>
        <time>2010-01-10T22:41:32Z</time>
      </trkpt>
      <trkpt lat="43.76823" lon="7.1218">
        <ele>759.09814</ele>
        <time>2010-01-10T22:41:42Z</time>
      </trkpt>
      <trkpt lat="43.7681" lon="7.12184">
        <ele>758.61743</ele>
        <time>2010-01-10T22:41:48Z</time>
      </trkpt>
      <trkpt lat="43.76804" lon="7.12193">
        <ele>757.65625</ele>
        <time>2010-01-10T22:41:51Z</time>
      </trkpt>
      <trkpt lat="43.76796" lon="7.12197">
        <ele>759.57885</ele>
        <time>2010-01-10T22:41:55Z</time>
      </trkpt>
      <trkpt lat="43.76773" lon="7.12209">
        <ele>760.54003</ele>
        <time>2010-01-10T22:42:05Z</time>
      </trkpt>
      <trkpt lat="43.76764" lon="7.12216">
        <ele>757.65625</ele>
        <time>2010-01-10T22:42:09Z</time>
      </trkpt>
      <trkpt lat="43.76745" lon="7.12241">
        <ele>756.21411</ele>
        <time>2010-01-10T22:42:19Z</time>
      </trkpt>
      <trkpt lat="43.76743" lon="7.12247">
        <ele>757.17553</ele>
        <time>2010-01-10T22:42:21Z</time>
      </trkpt>
      <trkpt lat="43.76738" lon="7.12256">
        <ele>757.17553</ele>
        <time>2010-01-10T22:42:24Z</time>
      </trkpt>
      <trkpt lat="43.76716" lon="7.12248">
        <ele>754.29174</ele>
        <time>2010-01-10T22:42:33Z</time>
      </trkpt>
      <trkpt lat="43.76701" lon="7.12238">
        <ele>756.21411</ele>
        <time>2010-01-10T22:42:40Z</time>
      </trkpt>
      <trkpt lat="43.76676" lon="7.12222">
        <ele>751.40771</ele>
        <time>2010-01-10T22:42:51Z</time>
      </trkpt>
      <trkpt lat="43.76659" lon="7.12221">
        <ele>744.67822</ele>
        <time>2010-01-10T22:42:58Z</time>
      </trkpt>
      <trkpt lat="43.76647" lon="7.12219">
        <ele>734.104</ele>
        <time>2010-01-10T22:43:03Z</time>
      </trkpt>
      <trkpt lat="43.76628" lon="7.12217">
        <ele>725.4519</ele>
        <time>2010-01-10T22:43:10Z</time>
      </trkpt>
      <trkpt lat="43.76605" lon="7.12215">
        <ele>719.68432</ele>
        <time>2010-01-10T22:43:20Z</time>
      </trkpt>
      <trkpt lat="43.76589" lon="7.12211">
        <ele>720.16479</ele>
        <time>2010-01-10T22:43:26Z</time>
      </trkpt>
      <trkpt lat="43.7657" lon="7.12209">
        <ele>720.6455</ele>
        <time>2010-01-10T22:43:34Z</time>
      </trkpt>
      <trkpt lat="43.76567" lon="7.1221">
        <ele>724.01</ele>
        <time>2010-01-10T22:43:35Z</time>
      </trkpt>
      <trkpt lat="43.76549" lon="7.1222">
        <ele>729.77783</ele>
        <time>2010-01-10T22:43:43Z</time>
      </trkpt>
      <trkpt lat="43.76526" lon="7.12229">
        <ele>735.54589</ele>
        <time>2010-01-10T22:43:52Z</time>
      </trkpt>
      <trkpt lat="43.76508" lon="7.12237">
        <ele>731.70043</ele>
        <time>2010-01-10T22:44:00Z</time>
      </trkpt>
      <trkpt lat="43.76478" lon="7.12247">
        <ele>724.49072</ele>
        <time>2010-01-10T22:44:12Z</time>
      </trkpt>
      <trkpt lat="43.76454" lon="7.12264">
        <ele>724.49072</ele>
        <time>2010-01-10T22:44:23Z</time>
      </trkpt>
      <trkpt lat="43.76449" lon="7.12273">
        <ele>721.60668</ele>
        <time>2010-01-10T22:44:26Z</time>
      </trkpt>
      <trkpt lat="43.76444" lon="7.12274">
        <ele>722.56811</ele>
        <time>2010-01-10T22:44:28Z</time>
      </trkpt>
      <trkpt lat="43.76441" lon="7.1228">
        <ele>721.12622</ele>
        <time>2010-01-10T22:44:30Z</time>
      </trkpt>
      <trkpt lat="43.76441" lon="7.12292">
        <ele>732.18139</ele>
        <time>2010-01-10T22:44:34Z</time>
      </trkpt>
      <trkpt lat="43.76443" lon="7.12301">
        <ele>731.21997</ele>
        <time>2010-01-10T22:44:36Z</time>
      </trkpt>
      <trkpt lat="43.76446" lon="7.12311">
        <ele>731.70043</ele>
        <time>2010-01-10T22:44:40Z</time>
      </trkpt>
      <trkpt lat="43.76447" lon="7.12315">
        <ele>736.50732</ele>
        <time>2010-01-10T22:44:41Z</time>
      </trkpt>
      <trkpt lat="43.76446" lon="7.12316">
        <ele>736.50732</ele>
        <time>2010-01-10T22:44:41Z</time>
      </trkpt>
      <trkpt lat="43.76442" lon="7.12324">
        <ele>736.50732</ele>
        <time>2010-01-10T22:44:44Z</time>
      </trkpt>
      <trkpt lat="43.76441" lon="7.12325">
        <ele>735.06542</ele>
        <time>2010-01-10T22:44:44Z</time>
      </trkpt>
      <trkpt lat="43.76434" lon="7.12333">
        <ele>735.06542</ele>
        <time>2010-01-10T22:44:48Z</time>
      </trkpt>
      <trkpt lat="43.76431" lon="7.12334">
        <ele>734.58471</ele>
        <time>2010-01-10T22:44:50Z</time>
      </trkpt>
      <trkpt lat="43.76414" lon="7.1233">
        <ele>734.58471</ele>
        <time>2010-01-10T22:44:56Z</time>
      </trkpt>
      <trkpt lat="43.76399" lon="7.12334">
        <ele>732.18139</ele>
        <time>2010-01-10T22:45:03Z</time>
      </trkpt>
      <trkpt lat="43.76389" lon="7.12334">
        <ele>731.21997</ele>
        <time>2010-01-10T22:45:07Z</time>
      </trkpt>
      <trkpt lat="43.76376" lon="7.12337">
        <ele>731.21997</ele>
        <time>2010-01-10T22:45:12Z</time>
      </trkpt>
      <trkpt lat="43.76353" lon="7.12333">
        <ele>727.37475</ele>
        <time>2010-01-10T22:45:21Z</time>
      </trkpt>
      <trkpt lat="43.76333" lon="7.1233">
        <ele>724.97143</ele>
        <time>2010-01-10T22:45:29Z</time>
      </trkpt>
      <trkpt lat="43.76318" lon="7.12326">
        <ele>721.60668</ele>
        <time>2010-01-10T22:45:35Z</time>
      </trkpt>
      <trkpt lat="43.7631" lon="7.12322">
        <ele>720.6455</ele>
        <time>2010-01-10T22:45:38Z</time>
      </trkpt>
      <trkpt lat="43.76306" lon="7.12325">
        <ele>716.80029</ele>
        <time>2010-01-10T22:45:40Z</time>
      </trkpt>
      <trkpt lat="43.76291" lon="7.12324">
        <ele>714.87744</ele>
        <time>2010-01-10T22:45:46Z</time>
      </trkpt>
      <trkpt lat="43.76286" lon="7.12322">
        <ele>713.43554</ele>
        <time>2010-01-10T22:45:48Z</time>
      </trkpt>
      <trkpt lat="43.7628" lon="7.12322">
        <ele>709.10961</ele>
        <time>2010-01-10T22:45:51Z</time>
      </trkpt>
      <trkpt lat="43.76282" lon="7.12325">
        <ele>716.31958</ele>
        <time>2010-01-10T22:45:52Z</time>
      </trkpt>
      <trkpt lat="43.76281" lon="7.12326">
        <ele>715.35815</ele>
        <time>2010-01-10T22:45:52Z</time>
      </trkpt>
      <trkpt lat="43.76282" lon="7.12324">
        <ele>709.10961</ele>
        <time>2010-01-10T22:45:53Z</time>
      </trkpt>
      <trkpt lat="43.76283" lon="7.12326">
        <ele>714.87744</ele>
        <time>2010-01-10T22:45:54Z</time>
      </trkpt>
      <trkpt lat="43.76283" lon="7.12326">
        <ele>715.83886</ele>
        <time>2010-01-10T22:45:54Z</time>
      </trkpt>
      <trkpt lat="43.76282" lon="7.12324">
        <ele>715.83886</ele>
        <time>2010-01-10T22:45:55Z</time>
      </trkpt>
      <trkpt lat="43.76271" lon="7.12322">
        <ele>715.83886</ele>
        <time>2010-01-10T22:45:59Z</time>
      </trkpt>
      <trkpt lat="43.76259" lon="7.12319">
        <ele>714.87744</ele>
        <time>2010-01-10T22:46:04Z</time>
      </trkpt>
      <trkpt lat="43.76257" lon="7.12318">
        <ele>714.39672</ele>
        <time>2010-01-10T22:46:05Z</time>
      </trkpt>
      <trkpt lat="43.76238" lon="7.12319">
        <ele>714.39672</ele>
        <time>2010-01-10T22:46:12Z</time>
      </trkpt>
      <trkpt lat="43.76225" lon="7.1232">
        <ele>712.95483</ele>
        <time>2010-01-10T22:46:18Z</time>
      </trkpt>
      <trkpt lat="43.76216" lon="7.12321">
        <ele>716.80029</ele>
        <time>2010-01-10T22:46:21Z</time>
      </trkpt>
      <trkpt lat="43.76214" lon="7.12321">
        <ele>715.83886</ele>
        <time>2010-01-10T22:46:22Z</time>
      </trkpt>
      <trkpt lat="43.76216" lon="7.12322">
        <ele>722.0874</ele>
        <time>2010-01-10T22:46:23Z</time>
      </trkpt>
      <trkpt lat="43.76212" lon="7.12322">
        <ele>720.16479</ele>
        <time>2010-01-10T22:46:25Z</time>
      </trkpt>
      <trkpt lat="43.762" lon="7.12324">
        <ele>719.20361</ele>
        <time>2010-01-10T22:46:29Z</time>
      </trkpt>
      <trkpt lat="43.76187" lon="7.12325">
        <ele>720.16479</ele>
        <time>2010-01-10T22:46:35Z</time>
      </trkpt>
      <trkpt lat="43.76182" lon="7.12325">
        <ele>722.56811</ele>
        <time>2010-01-10T22:46:37Z</time>
      </trkpt>
      <trkpt lat="43.76171" lon="7.12324">
        <ele>718.7229</ele>
        <time>2010-01-10T22:46:41Z</time>
      </trkpt>
      <trkpt lat="43.7617" lon="7.12318">
        <ele>718.7229</ele>
        <time>2010-01-10T22:46:43Z</time>
      </trkpt>
      <trkpt lat="43.76168" lon="7.1231">
        <ele>707.66772</ele>
        <time>2010-01-10T22:46:45Z</time>
      </trkpt>
      <trkpt lat="43.76171" lon="7.12298">
        <ele>693.2478</ele>
        <time>2010-01-10T22:46:49Z</time>
      </trkpt>
      <trkpt lat="43.76172" lon="7.12299">
        <ele>685.0769</ele>
        <time>2010-01-10T22:46:49Z</time>
      </trkpt>
      <trkpt lat="43.76172" lon="7.12299">
        <ele>691.32519</ele>
        <time>2010-01-10T22:46:50Z</time>
      </trkpt>
      <trkpt lat="43.76172" lon="7.12297">
        <ele>686.51879</ele>
        <time>2010-01-10T22:46:50Z</time>
      </trkpt>
      <trkpt lat="43.76171" lon="7.12301">
        <ele>693.2478</ele>
        <time>2010-01-10T22:46:51Z</time>
      </trkpt>
      <trkpt lat="43.7617" lon="7.12303">
        <ele>698.05444</ele>
        <time>2010-01-10T22:46:52Z</time>
      </trkpt>
      <trkpt lat="43.76171" lon="7.12301">
        <ele>700.458</ele>
        <time>2010-01-10T22:46:52Z</time>
      </trkpt>
      <trkpt lat="43.76171" lon="7.123">
        <ele>699.49633</ele>
        <time>2010-01-10T22:46:53Z</time>
      </trkpt>
      <trkpt lat="43.76171" lon="7.123">
        <ele>701.8999</ele>
        <time>2010-01-10T22:46:53Z</time>
      </trkpt>
      <trkpt lat="43.76171" lon="7.12299">
        <ele>702.38037</ele>
        <time>2010-01-10T22:46:53Z</time>
      </trkpt>
      <trkpt lat="43.76171" lon="7.123">
        <ele>702.38037</ele>
        <time>2010-01-10T22:46:53Z</time>
      </trkpt>
      <trkpt lat="43.76171" lon="7.12302">
        <ele>703.8225</ele>
        <time>2010-01-10T22:46:53Z</time>
      </trkpt>
      <trkpt lat="43.76169" lon="7.12307">
        <ele>705.2644</ele>
        <time>2010-01-10T22:46:55Z</time>
      </trkpt>
      <trkpt lat="43.76169" lon="7.12307">
        <ele>705.2644</ele>
        <time>2010-01-10T22:46:55Z</time>
      </trkpt>
      <trkpt lat="43.76169" lon="7.12308">
        <ele>708.6289</ele>
        <time>2010-01-10T22:46:56Z</time>
      </trkpt>
      <trkpt lat="43.76168" lon="7.12309">
        <ele>707.18701</ele>
        <time>2010-01-10T22:46:56Z</time>
      </trkpt>
      <trkpt lat="43.76168" lon="7.1231">
        <ele>705.74511</ele>
        <time>2010-01-10T22:46:56Z</time>
      </trkpt>
      <trkpt lat="43.7617" lon="7.12307">
        <ele>707.66772</ele>
        <time>2010-01-10T22:46:58Z</time>
      </trkpt>
      <trkpt lat="43.7617" lon="7.12304">
        <ele>706.22558</ele>
        <time>2010-01-10T22:46:58Z</time>
      </trkpt>
      <trkpt lat="43.76169" lon="7.12304">
        <ele>706.70629</ele>
        <time>2010-01-10T22:46:59Z</time>
      </trkpt>
      <trkpt lat="43.76167" lon="7.12317">
        <ele>708.14843</ele>
        <time>2010-01-10T22:47:02Z</time>
      </trkpt>
      <trkpt lat="43.76167" lon="7.12319">
        <ele>711.99365</ele>
        <time>2010-01-10T22:47:03Z</time>
      </trkpt>
      <trkpt lat="43.76167" lon="7.12316">
        <ele>708.14843</ele>
        <time>2010-01-10T22:47:04Z</time>
      </trkpt>
      <trkpt lat="43.76168" lon="7.12315">
        <ele>709.10961</ele>
        <time>2010-01-10T22:47:05Z</time>
      </trkpt>
      <trkpt lat="43.76166" lon="7.12315">
        <ele>711.99365</ele>
        <time>2010-01-10T22:47:05Z</time>
      </trkpt>
      <trkpt lat="43.7616" lon="7.1232">
        <ele>713.43554</ele>
        <time>2010-01-10T22:47:08Z</time>
      </trkpt>
      <trkpt lat="43.76159" lon="7.12331">
        <ele>712.47412</ele>
        <time>2010-01-10T22:47:11Z</time>
      </trkpt>
      <trkpt lat="43.76158" lon="7.12336">
        <ele>710.0708</ele>
        <time>2010-01-10T22:47:13Z</time>
      </trkpt>
      <trkpt lat="43.76158" lon="7.12337">
        <ele>706.70629</ele>
        <time>2010-01-10T22:47:13Z</time>
      </trkpt>
      <trkpt lat="43.76161" lon="7.12334">
        <ele>706.22558</ele>
        <time>2010-01-10T22:47:14Z</time>
      </trkpt>
      <trkpt lat="43.7616" lon="7.12331">
        <ele>707.66772</ele>
        <time>2010-01-10T22:47:16Z</time>
      </trkpt>
      <trkpt lat="43.7616" lon="7.12324">
        <ele>709.10961</ele>
        <time>2010-01-10T22:47:17Z</time>
      </trkpt>
      <trkpt lat="43.76159" lon="7.12324">
        <ele>710.0708</ele>
        <time>2010-01-10T22:47:18Z</time>
      </trkpt>
      <trkpt lat="43.76159" lon="7.12331">
        <ele>708.6289</ele>
        <time>2010-01-10T22:47:20Z</time>
      </trkpt>
      <trkpt lat="43.76161" lon="7.12337">
        <ele>707.18701</ele>
        <time>2010-01-10T22:47:22Z</time>
      </trkpt>
      <trkpt lat="43.76162" lon="7.12335">
        <ele>705.2644</ele>
        <time>2010-01-10T22:47:23Z</time>
      </trkpt>
      <trkpt lat="43.76164" lon="7.12326">
        <ele>708.6289</ele>
        <time>2010-01-10T22:47:25Z</time>
      </trkpt>
      <trkpt lat="43.76159" lon="7.12323">
        <ele>709.10961</ele>
        <time>2010-01-10T22:47:27Z</time>
      </trkpt>
      <trkpt lat="43.76159" lon="7.12329">
        <ele>709.10961</ele>
        <time>2010-01-10T22:47:29Z</time>
      </trkpt>
      <trkpt lat="43.76159" lon="7.12334">
        <ele>710.0708</ele>
        <time>2010-01-10T22:47:31Z</time>
      </trkpt>
      <trkpt lat="43.76157" lon="7.12332">
        <ele>709.10961</ele>
        <time>2010-01-10T22:47:32Z</time>
      </trkpt>
      <trkpt lat="43.76153" lon="7.12332">
        <ele>708.14843</ele>
        <time>2010-01-10T22:47:33Z</time>
      </trkpt>
      <trkpt lat="43.76152" lon="7.12333">
        <ele>706.22558</ele>
        <time>2010-01-10T22:47:34Z</time>
      </trkpt>
      <trkpt lat="43.76153" lon="7.12333">
        <ele>708.14843</ele>
        <time>2010-01-10T22:47:34Z</time>
      </trkpt>
      <trkpt lat="43.76149" lon="7.12343">
        <ele>707.66772</ele>
        <time>2010-01-10T22:47:37Z</time>
      </trkpt>
      <trkpt lat="43.76149" lon="7.12343">
        <ele>707.66772</ele>
        <time>2010-01-10T22:47:37Z</time>
      </trkpt>
      <trkpt lat="43.76154" lon="7.12347">
        <ele>704.78369</ele>
        <time>2010-01-10T22:47:39Z</time>
      </trkpt>
      <trkpt lat="43.7616" lon="7.12349">
        <ele>702.86108</ele>
        <time>2010-01-10T22:47:42Z</time>
      </trkpt>
      <trkpt lat="43.76165" lon="7.12349">
        <ele>702.38037</ele>
        <time>2010-01-10T22:47:44Z</time>
      </trkpt>
      <trkpt lat="43.76171" lon="7.12357">
        <ele>700.458</ele>
        <time>2010-01-10T22:47:47Z</time>
      </trkpt>
      <trkpt lat="43.76176" lon="7.12361">
        <ele>698.05444</ele>
        <time>2010-01-10T22:47:49Z</time>
      </trkpt>
      <trkpt lat="43.7618" lon="7.12363">
        <ele>697.57373</ele>
        <time>2010-01-10T22:47:51Z</time>
      </trkpt>
      <trkpt lat="43.7618" lon="7.12363">
        <ele>697.57373</ele>
        <time>2010-01-10T22:47:51Z</time>
      </trkpt>
      <trkpt lat="43.76184" lon="7.12375">
        <ele>695.65112</ele>
        <time>2010-01-10T22:47:55Z</time>
      </trkpt>
      <trkpt lat="43.76188" lon="7.12383">
        <ele>694.68969</ele>
        <time>2010-01-10T22:47:58Z</time>
      </trkpt>
      <trkpt lat="43.76189" lon="7.12388">
        <ele>694.20922</ele>
        <time>2010-01-10T22:48:00Z</time>
      </trkpt>
      <trkpt lat="43.7619" lon="7.12393">
        <ele>692.28662</ele>
        <time>2010-01-10T22:48:01Z</time>
      </trkpt>
      <trkpt lat="43.76191" lon="7.12397">
        <ele>690.36401</ele>
        <time>2010-01-10T22:48:02Z</time>
      </trkpt>
      <trkpt lat="43.76193" lon="7.12395">
        <ele>692.76733</ele>
        <time>2010-01-10T22:48:03Z</time>
      </trkpt>
      <trkpt lat="43.76191" lon="7.12392">
        <ele>688.4414</ele>
        <time>2010-01-10T22:48:04Z</time>
      </trkpt>
      <trkpt lat="43.76195" lon="7.12394">
        <ele>687.96069</ele>
        <time>2010-01-10T22:48:06Z</time>
      </trkpt>
      <trkpt lat="43.76198" lon="7.124">
        <ele>688.4414</ele>
        <time>2010-01-10T22:48:08Z</time>
      </trkpt>
      <trkpt lat="43.76199" lon="7.12401">
        <ele>688.92211</ele>
        <time>2010-01-10T22:48:09Z</time>
      </trkpt>
      <trkpt lat="43.76202" lon="7.12406">
        <ele>689.40258</ele>
        <time>2010-01-10T22:48:10Z</time>
      </trkpt>
      <trkpt lat="43.76204" lon="7.12409">
        <ele>689.8833</ele>
        <time>2010-01-10T22:48:12Z</time>
      </trkpt>
      <trkpt lat="43.76203" lon="7.12412">
        <ele>688.92211</ele>
        <time>2010-01-10T22:48:13Z</time>
      </trkpt>
      <trkpt lat="43.76202" lon="7.12412">
        <ele>688.92211</ele>
        <time>2010-01-10T22:48:13Z</time>
      </trkpt>
      <trkpt lat="43.76199" lon="7.12411">
        <ele>687.47998</ele>
        <time>2010-01-10T22:48:14Z</time>
      </trkpt>
      <trkpt lat="43.76199" lon="7.12412">
        <ele>686.99926</ele>
        <time>2010-01-10T22:48:15Z</time>
      </trkpt>
      <trkpt lat="43.76196" lon="7.12418">
        <ele>687.47998</ele>
        <time>2010-01-10T22:48:17Z</time>
      </trkpt>
      <trkpt lat="43.76195" lon="7.12418">
        <ele>687.96069</ele>
        <time>2010-01-10T22:48:17Z</time>
      </trkpt>
      <trkpt lat="43.76192" lon="7.12418">
        <ele>687.96069</ele>
        <time>2010-01-10T22:48:18Z</time>
      </trkpt>
      <trkpt lat="43.76192" lon="7.12418">
        <ele>687.96069</ele>
        <time>2010-01-10T22:48:18Z</time>
      </trkpt>
      <trkpt lat="43.76182" lon="7.12414">
        <ele>686.03808</ele>
        <time>2010-01-10T22:48:22Z</time>
      </trkpt>
      <trkpt lat="43.76174" lon="7.12411">
        <ele>686.03808</ele>
        <time>2010-01-10T22:48:26Z</time>
      </trkpt>
      <trkpt lat="43.76162" lon="7.12411">
        <ele>682.19262</ele>
        <time>2010-01-10T22:48:31Z</time>
      </trkpt>
      <trkpt lat="43.76148" lon="7.12408">
        <ele>680.27001</ele>
        <time>2010-01-10T22:48:36Z</time>
      </trkpt>
      <trkpt lat="43.76146" lon="7.12409">
        <ele>680.75073</ele>
        <time>2010-01-10T22:48:37Z</time>
      </trkpt>
      <trkpt lat="43.76145" lon="7.12414">
        <ele>678.34741</ele>
        <time>2010-01-10T22:48:39Z</time>
      </trkpt>
      <trkpt lat="43.76151" lon="7.12416">
        <ele>676.90551</ele>
        <time>2010-01-10T22:48:41Z</time>
      </trkpt>
      <trkpt lat="43.76159" lon="7.1242">
        <ele>673.54101</ele>
        <time>2010-01-10T22:48:45Z</time>
      </trkpt>
      <trkpt lat="43.76171" lon="7.12432">
        <ele>671.13769</ele>
        <time>2010-01-10T22:48:51Z</time>
      </trkpt>
      <trkpt lat="43.76173" lon="7.12435">
        <ele>671.13769</ele>
        <time>2010-01-10T22:48:52Z</time>
      </trkpt>
      <trkpt lat="43.76173" lon="7.12438">
        <ele>671.13769</ele>
        <time>2010-01-10T22:48:53Z</time>
      </trkpt>
      <trkpt lat="43.76164" lon="7.12434">
        <ele>669.21508</ele>
        <time>2010-01-10T22:48:56Z</time>
      </trkpt>
      <trkpt lat="43.76151" lon="7.12435">
        <ele>667.29223</ele>
        <time>2010-01-10T22:49:01Z</time>
      </trkpt>
      <trkpt lat="43.76148" lon="7.12438">
        <ele>666.33081</ele>
        <time>2010-01-10T22:49:03Z</time>
      </trkpt>
      <trkpt lat="43.76153" lon="7.12442">
        <ele>662.48559</ele>
        <time>2010-01-10T22:49:05Z</time>
      </trkpt>
      <trkpt lat="43.76156" lon="7.12441">
        <ele>660.08227</ele>
        <time>2010-01-10T22:49:06Z</time>
      </trkpt>
      <trkpt lat="43.76158" lon="7.12436">
        <ele>655.75659</ele>
        <time>2010-01-10T22:49:08Z</time>
      </trkpt>
      <trkpt lat="43.76159" lon="7.12441">
        <ele>658.64038</ele>
        <time>2010-01-10T22:49:09Z</time>
      </trkpt>
      <trkpt lat="43.76163" lon="7.12439">
        <ele>652.39184</ele>
        <time>2010-01-10T22:49:11Z</time>
      </trkpt>
      <trkpt lat="43.76163" lon="7.12441">
        <ele>652.87255</ele>
        <time>2010-01-10T22:49:11Z</time>
      </trkpt>
      <trkpt lat="43.76161" lon="7.12446">
        <ele>654.31469</ele>
        <time>2010-01-10T22:49:13Z</time>
      </trkpt>
      <trkpt lat="43.76162" lon="7.12446">
        <ele>655.75659</ele>
        <time>2010-01-10T22:49:13Z</time>
      </trkpt>
      <trkpt lat="43.76163" lon="7.12443">
        <ele>655.75659</ele>
        <time>2010-01-10T22:49:14Z</time>
      </trkpt>
      <trkpt lat="43.76159" lon="7.12441">
        <ele>656.71777</ele>
        <time>2010-01-10T22:49:16Z</time>
      </trkpt>
      <trkpt lat="43.76159" lon="7.12441">
        <ele>656.71777</ele>
        <time>2010-01-10T22:49:16Z</time>
      </trkpt>
      <trkpt lat="43.76162" lon="7.12443">
        <ele>657.67919</ele>
        <time>2010-01-10T22:49:17Z</time>
      </trkpt>
      <trkpt lat="43.76163" lon="7.12446">
        <ele>658.64038</ele>
        <time>2010-01-10T22:49:18Z</time>
      </trkpt>
      <trkpt lat="43.76153" lon="7.12448">
        <ele>657.19848</ele>
        <time>2010-01-10T22:49:22Z</time>
      </trkpt>
      <trkpt lat="43.76153" lon="7.12449">
        <ele>656.71777</ele>
        <time>2010-01-10T22:49:23Z</time>
      </trkpt>
      <trkpt lat="43.76153" lon="7.12449">
        <ele>656.71777</ele>
        <time>2010-01-10T22:49:23Z</time>
      </trkpt>
      <trkpt lat="43.76142" lon="7.12452">
        <ele>659.12109</ele>
        <time>2010-01-10T22:49:27Z</time>
      </trkpt>
      <trkpt lat="43.76118" lon="7.12443">
        <ele>655.75659</ele>
        <time>2010-01-10T22:49:37Z</time>
      </trkpt>
      <trkpt lat="43.76116" lon="7.12443">
        <ele>653.83398</ele>
        <time>2010-01-10T22:49:38Z</time>
      </trkpt>
      <trkpt lat="43.76111" lon="7.12438">
        <ele>647.5852</ele>
        <time>2010-01-10T22:49:40Z</time>
      </trkpt>
      <trkpt lat="43.76109" lon="7.12442">
        <ele>650.9497</ele>
        <time>2010-01-10T22:49:42Z</time>
      </trkpt>
      <trkpt lat="43.7611" lon="7.12442">
        <ele>650.46923</ele>
        <time>2010-01-10T22:49:42Z</time>
      </trkpt>
      <trkpt lat="43.76111" lon="7.12441">
        <ele>651.43041</ele>
        <time>2010-01-10T22:49:43Z</time>
      </trkpt>
      <trkpt lat="43.76116" lon="7.1244">
        <ele>649.98852</ele>
        <time>2010-01-10T22:49:45Z</time>
      </trkpt>
      <trkpt lat="43.76116" lon="7.12439">
        <ele>650.46923</ele>
        <time>2010-01-10T22:49:45Z</time>
      </trkpt>
      <trkpt lat="43.76112" lon="7.1244">
        <ele>651.43041</ele>
        <time>2010-01-10T22:49:46Z</time>
      </trkpt>
      <trkpt lat="43.76109" lon="7.12442">
        <ele>651.91113</ele>
        <time>2010-01-10T22:49:48Z</time>
      </trkpt>
      <trkpt lat="43.7611" lon="7.12443">
        <ele>651.91113</ele>
        <time>2010-01-10T22:49:48Z</time>
      </trkpt>
      <trkpt lat="43.76112" lon="7.12443">
        <ele>650.9497</ele>
        <time>2010-01-10T22:49:49Z</time>
      </trkpt>
      <trkpt lat="43.76117" lon="7.12446">
        <ele>648.06591</ele>
        <time>2010-01-10T22:49:51Z</time>
      </trkpt>
      <trkpt lat="43.76121" lon="7.12451">
        <ele>646.62402</ele>
        <time>2010-01-10T22:49:53Z</time>
      </trkpt>
      <trkpt lat="43.76127" lon="7.12454">
        <ele>645.66259</ele>
        <time>2010-01-10T22:49:56Z</time>
      </trkpt>
      <trkpt lat="43.76128" lon="7.12454">
        <ele>642.7788</ele>
        <time>2010-01-10T22:49:56Z</time>
      </trkpt>
      <trkpt lat="43.76129" lon="7.12454">
        <ele>642.7788</ele>
        <time>2010-01-10T22:49:57Z</time>
      </trkpt>
      <trkpt lat="43.76129" lon="7.1246">
        <ele>645.18188</ele>
        <time>2010-01-10T22:49:58Z</time>
      </trkpt>
      <trkpt lat="43.76125" lon="7.12464">
        <ele>645.18188</ele>
        <time>2010-01-10T22:50:01Z</time>
      </trkpt>
      <trkpt lat="43.76125" lon="7.12465">
        <ele>645.18188</ele>
        <time>2010-01-10T22:50:01Z</time>
      </trkpt>
      <trkpt lat="43.7613" lon="7.12476">
        <ele>642.7788</ele>
        <time>2010-01-10T22:50:05Z</time>
      </trkpt>
      <trkpt lat="43.76133" lon="7.12488">
        <ele>638.45288</ele>
        <time>2010-01-10T22:50:08Z</time>
      </trkpt>
      <trkpt lat="43.7614" lon="7.12498">
        <ele>632.2041</ele>
        <time>2010-01-10T22:50:13Z</time>
      </trkpt>
      <trkpt lat="43.76139" lon="7.12497">
        <ele>634.60742</ele>
        <time>2010-01-10T22:50:13Z</time>
      </trkpt>
      <trkpt lat="43.76138" lon="7.12502">
        <ele>642.29809</ele>
        <time>2010-01-10T22:50:15Z</time>
      </trkpt>
      <trkpt lat="43.76137" lon="7.12504">
        <ele>644.2207</ele>
        <time>2010-01-10T22:50:15Z</time>
      </trkpt>
      <trkpt lat="43.76137" lon="7.12505">
        <ele>645.18188</ele>
        <time>2010-01-10T22:50:16Z</time>
      </trkpt>
      <trkpt lat="43.76138" lon="7.12504">
        <ele>644.2207</ele>
        <time>2010-01-10T22:50:16Z</time>
      </trkpt>
      <trkpt lat="43.76138" lon="7.12505">
        <ele>642.29809</ele>
        <time>2010-01-10T22:50:16Z</time>
      </trkpt>
      <trkpt lat="43.76141" lon="7.12505">
        <ele>638.93359</ele>
        <time>2010-01-10T22:50:18Z</time>
      </trkpt>
      <trkpt lat="43.7615" lon="7.12505">
        <ele>632.2041</ele>
        <time>2010-01-10T22:50:21Z</time>
      </trkpt>
      <trkpt lat="43.76158" lon="7.12514">
        <ele>624.51367</ele>
        <time>2010-01-10T22:50:25Z</time>
      </trkpt>
      <trkpt lat="43.7616" lon="7.12527">
        <ele>618.7456</ele>
        <time>2010-01-10T22:50:29Z</time>
      </trkpt>
      <trkpt lat="43.76161" lon="7.12531">
        <ele>617.30371</ele>
        <time>2010-01-10T22:50:30Z</time>
      </trkpt>
      <trkpt lat="43.76163" lon="7.12535">
        <ele>615.3811</ele>
        <time>2010-01-10T22:50:31Z</time>
      </trkpt>
      <trkpt lat="43.76164" lon="7.12537">
        <ele>612.97778</ele>
        <time>2010-01-10T22:50:32Z</time>
      </trkpt>
      <trkpt lat="43.76163" lon="7.1254">
        <ele>612.0166</ele>
        <time>2010-01-10T22:50:33Z</time>
      </trkpt>
      <trkpt lat="43.76161" lon="7.12542">
        <ele>611.53588</ele>
        <time>2010-01-10T22:50:34Z</time>
      </trkpt>
      <trkpt lat="43.76159" lon="7.12545">
        <ele>610.09375</ele>
        <time>2010-01-10T22:50:35Z</time>
      </trkpt>
      <trkpt lat="43.76157" lon="7.12547">
        <ele>610.09375</ele>
        <time>2010-01-10T22:50:36Z</time>
      </trkpt>
      <trkpt lat="43.76159" lon="7.12554">
        <ele>608.17138</ele>
        <time>2010-01-10T22:50:38Z</time>
      </trkpt>
      <trkpt lat="43.76165" lon="7.12569">
        <ele>605.76806</ele>
        <time>2010-01-10T22:50:43Z</time>
      </trkpt>
      <trkpt lat="43.76168" lon="7.12578">
        <ele>603.3645</ele>
        <time>2010-01-10T22:50:46Z</time>
      </trkpt>
      <trkpt lat="43.76169" lon="7.12584">
        <ele>601.44189</ele>
        <time>2010-01-10T22:50:48Z</time>
      </trkpt>
      <trkpt lat="43.76158" lon="7.12577">
        <ele>603.3645</ele>
        <time>2010-01-10T22:50:53Z</time>
      </trkpt>
      <trkpt lat="43.76141" lon="7.12571">
        <ele>605.76806</ele>
        <time>2010-01-10T22:51:00Z</time>
      </trkpt>
      <trkpt lat="43.76138" lon="7.12575">
        <ele>603.84521</ele>
        <time>2010-01-10T22:51:01Z</time>
      </trkpt>
      <trkpt lat="43.76146" lon="7.12588">
        <ele>595.19335</ele>
        <time>2010-01-10T22:51:06Z</time>
      </trkpt>
      <trkpt lat="43.76141" lon="7.12595">
        <ele>593.27075</ele>
        <time>2010-01-10T22:51:09Z</time>
      </trkpt>
      <trkpt lat="43.76126" lon="7.12605">
        <ele>593.75146</ele>
        <time>2010-01-10T22:51:15Z</time>
      </trkpt>
      <trkpt lat="43.76118" lon="7.12618">
        <ele>593.27075</ele>
        <time>2010-01-10T22:51:21Z</time>
      </trkpt>
      <trkpt lat="43.76117" lon="7.12623">
        <ele>593.75146</ele>
        <time>2010-01-10T22:51:22Z</time>
      </trkpt>
      <trkpt lat="43.76113" lon="7.12631">
        <ele>593.27075</ele>
        <time>2010-01-10T22:51:25Z</time>
      </trkpt>
      <trkpt lat="43.76118" lon="7.12648">
        <ele>593.27075</ele>
        <time>2010-01-10T22:51:30Z</time>
      </trkpt>
      <trkpt lat="43.76118" lon="7.12666">
        <ele>593.75146</ele>
        <time>2010-01-10T22:51:35Z</time>
      </trkpt>
      <trkpt lat="43.76119" lon="7.12681">
        <ele>592.79028</ele>
        <time>2010-01-10T22:51:39Z</time>
      </trkpt>
      <trkpt lat="43.76113" lon="7.12698">
        <ele>591.82885</ele>
        <time>2010-01-10T22:51:45Z</time>
      </trkpt>
      <trkpt lat="43.76111" lon="7.12716">
        <ele>589.90625</ele>
        <time>2010-01-10T22:51:50Z</time>
      </trkpt>
      <trkpt lat="43.76101" lon="7.1273">
        <ele>589.42553</ele>
        <time>2010-01-10T22:51:56Z</time>
      </trkpt>
      <trkpt lat="43.76097" lon="7.12732">
        <ele>589.42553</ele>
        <time>2010-01-10T22:51:57Z</time>
      </trkpt>
      <trkpt lat="43.7608" lon="7.12742">
        <ele>586.06079</ele>
        <time>2010-01-10T22:52:05Z</time>
      </trkpt>
      <trkpt lat="43.76071" lon="7.1274">
        <ele>582.21557</ele>
        <time>2010-01-10T22:52:09Z</time>
      </trkpt>
      <trkpt lat="43.76056" lon="7.12746">
        <ele>579.33154</ele>
        <time>2010-01-10T22:52:15Z</time>
      </trkpt>
      <trkpt lat="43.76055" lon="7.12747">
        <ele>578.85107</ele>
        <time>2010-01-10T22:52:15Z</time>
      </trkpt>
      <trkpt lat="43.76047" lon="7.12749">
        <ele>576.92846</ele>
        <time>2010-01-10T22:52:18Z</time>
      </trkpt>
      <trkpt lat="43.76048" lon="7.12744">
        <ele>573.56396</ele>
        <time>2010-01-10T22:52:20Z</time>
      </trkpt>
      <trkpt lat="43.76053" lon="7.12736">
        <ele>571.64086</ele>
        <time>2010-01-10T22:52:23Z</time>
      </trkpt>
      <trkpt lat="43.76055" lon="7.12732">
        <ele>569.7185</ele>
        <time>2010-01-10T22:52:24Z</time>
      </trkpt>
      <trkpt lat="43.76046" lon="7.12733">
        <ele>567.31518</ele>
        <time>2010-01-10T22:52:28Z</time>
      </trkpt>
      <trkpt lat="43.76043" lon="7.12727">
        <ele>564.91186</ele>
        <time>2010-01-10T22:52:30Z</time>
      </trkpt>
      <trkpt lat="43.7605" lon="7.1271">
        <ele>561.06665</ele>
        <time>2010-01-10T22:52:35Z</time>
      </trkpt>
      <trkpt lat="43.76043" lon="7.12707">
        <ele>560.58593</ele>
        <time>2010-01-10T22:52:38Z</time>
      </trkpt>
      <trkpt lat="43.76036" lon="7.12713">
        <ele>560.58593</ele>
        <time>2010-01-10T22:52:42Z</time>
      </trkpt>
      <trkpt lat="43.76032" lon="7.12707">
        <ele>560.10522</ele>
        <time>2010-01-10T22:52:44Z</time>
      </trkpt>
      <trkpt lat="43.76032" lon="7.12703">
        <ele>557.70214</ele>
        <time>2010-01-10T22:52:45Z</time>
      </trkpt>
      <trkpt lat="43.76015" lon="7.12712">
        <ele>554.81787</ele>
        <time>2010-01-10T22:52:53Z</time>
      </trkpt>
      <trkpt lat="43.76006" lon="7.12714">
        <ele>552.89526</ele>
        <time>2010-01-10T22:52:56Z</time>
      </trkpt>
      <trkpt lat="43.7601" lon="7.12704">
        <ele>550.01147</ele>
        <time>2010-01-10T22:52:59Z</time>
      </trkpt>
      <trkpt lat="43.76009" lon="7.12697">
        <ele>549.05004</ele>
        <time>2010-01-10T22:53:01Z</time>
      </trkpt>
      <trkpt lat="43.75999" lon="7.12707">
        <ele>544.72424</ele>
        <time>2010-01-10T22:53:06Z</time>
      </trkpt>
      <trkpt lat="43.75996" lon="7.12705">
        <ele>544.24365</ele>
        <time>2010-01-10T22:53:07Z</time>
      </trkpt>
      <trkpt lat="43.7599" lon="7.12704">
        <ele>544.24365</ele>
        <time>2010-01-10T22:53:10Z</time>
      </trkpt>
      <trkpt lat="43.75987" lon="7.12705">
        <ele>543.76281</ele>
        <time>2010-01-10T22:53:11Z</time>
      </trkpt>
      <trkpt lat="43.75982" lon="7.12704">
        <ele>539.9176</ele>
        <time>2010-01-10T22:53:13Z</time>
      </trkpt>
      <trkpt lat="43.75975" lon="7.127">
        <ele>538.4757</ele>
        <time>2010-01-10T22:53:16Z</time>
      </trkpt>
      <trkpt lat="43.75979" lon="7.12689">
        <ele>536.07238</ele>
        <time>2010-01-10T22:53:19Z</time>
      </trkpt>
      <trkpt lat="43.75975" lon="7.12676">
        <ele>531.26574</ele>
        <time>2010-01-10T22:53:23Z</time>
      </trkpt>
      <trkpt lat="43.75966" lon="7.12677">
        <ele>534.14965</ele>
        <time>2010-01-10T22:53:27Z</time>
      </trkpt>
      <trkpt lat="43.75963" lon="7.12671">
        <ele>530.78515</ele>
        <time>2010-01-10T22:53:29Z</time>
      </trkpt>
      <trkpt lat="43.7597" lon="7.12661">
        <ele>524.53649</ele>
        <time>2010-01-10T22:53:33Z</time>
      </trkpt>
      <trkpt lat="43.7597" lon="7.12662">
        <ele>523.0946</ele>
        <time>2010-01-10T22:53:34Z</time>
      </trkpt>
      <trkpt lat="43.75961" lon="7.12663">
        <ele>522.13317</ele>
        <time>2010-01-10T22:53:37Z</time>
      </trkpt>
      <trkpt lat="43.75952" lon="7.12663">
        <ele>519.24926</ele>
        <time>2010-01-10T22:53:41Z</time>
      </trkpt>
      <trkpt lat="43.75955" lon="7.12655">
        <ele>516.36523</ele>
        <time>2010-01-10T22:53:43Z</time>
      </trkpt>
      <trkpt lat="43.75946" lon="7.12659">
        <ele>516.36523</ele>
        <time>2010-01-10T22:53:47Z</time>
      </trkpt>
      <trkpt lat="43.7594" lon="7.12658">
        <ele>513.96203</ele>
        <time>2010-01-10T22:53:49Z</time>
      </trkpt>
      <trkpt lat="43.75936" lon="7.12653">
        <ele>511.55871</ele>
        <time>2010-01-10T22:53:52Z</time>
      </trkpt>
      <trkpt lat="43.75933" lon="7.12645">
        <ele>510.11669</ele>
        <time>2010-01-10T22:53:54Z</time>
      </trkpt>
      <trkpt lat="43.75937" lon="7.12637">
        <ele>507.23278</ele>
        <time>2010-01-10T22:53:57Z</time>
      </trkpt>
      <trkpt lat="43.75929" lon="7.12634">
        <ele>504.82946</ele>
        <time>2010-01-10T22:54:00Z</time>
      </trkpt>
      <trkpt lat="43.75927" lon="7.12624">
        <ele>501.46484</ele>
        <time>2010-01-10T22:54:03Z</time>
      </trkpt>
      <trkpt lat="43.75917" lon="7.1262">
        <ele>501.94555</ele>
        <time>2010-01-10T22:54:07Z</time>
      </trkpt>
      <trkpt lat="43.75913" lon="7.1262">
        <ele>500.50354</ele>
        <time>2010-01-10T22:54:09Z</time>
      </trkpt>
      <trkpt lat="43.75893" lon="7.12621">
        <ele>499.54223</ele>
        <time>2010-01-10T22:54:17Z</time>
      </trkpt>
      <trkpt lat="43.75879" lon="7.12618">
        <ele>498.58093</ele>
        <time>2010-01-10T22:54:22Z</time>
      </trkpt>
      <trkpt lat="43.75869" lon="7.12617">
        <ele>499.54223</ele>
        <time>2010-01-10T22:54:27Z</time>
      </trkpt>
      <trkpt lat="43.75851" lon="7.12619">
        <ele>493.77429</ele>
        <time>2010-01-10T22:54:34Z</time>
      </trkpt>
      <trkpt lat="43.75838" lon="7.12625">
        <ele>488.48718</ele>
        <time>2010-01-10T22:54:39Z</time>
      </trkpt>
      <trkpt lat="43.75823" lon="7.12644">
        <ele>480.31591</ele>
        <time>2010-01-10T22:54:47Z</time>
      </trkpt>
      <trkpt lat="43.75812" lon="7.12641">
        <ele>477.43188</ele>
        <time>2010-01-10T22:54:52Z</time>
      </trkpt>
      <trkpt lat="43.75799" lon="7.12639">
        <ele>474.54797</ele>
        <time>2010-01-10T22:54:57Z</time>
      </trkpt>
      <trkpt lat="43.75772" lon="7.12635">
        <ele>473.10607</ele>
        <time>2010-01-10T22:55:08Z</time>
      </trkpt>
      <trkpt lat="43.75767" lon="7.12634">
        <ele>472.62536</ele>
        <time>2010-01-10T22:55:10Z</time>
      </trkpt>
      <trkpt lat="43.75755" lon="7.1263">
        <ele>471.18334</ele>
        <time>2010-01-10T22:55:15Z</time>
      </trkpt>
      <trkpt lat="43.7576" lon="7.12617">
        <ele>466.3767</ele>
        <time>2010-01-10T22:55:19Z</time>
      </trkpt>
      <trkpt lat="43.75761" lon="7.12617">
        <ele>464.93481</ele>
        <time>2010-01-10T22:55:20Z</time>
      </trkpt>
      <trkpt lat="43.75751" lon="7.12618">
        <ele>460.12817</ele>
        <time>2010-01-10T22:55:24Z</time>
      </trkpt>
      <trkpt lat="43.75751" lon="7.12608">
        <ele>458.68615</ele>
        <time>2010-01-10T22:55:27Z</time>
      </trkpt>
      <trkpt lat="43.75766" lon="7.12598">
        <ele>452.91821</ele>
        <time>2010-01-10T22:55:33Z</time>
      </trkpt>
      <trkpt lat="43.75776" lon="7.12587">
        <ele>450.9956</ele>
        <time>2010-01-10T22:55:39Z</time>
      </trkpt>
      <trkpt lat="43.7578" lon="7.12575">
        <ele>448.11181</ele>
        <time>2010-01-10T22:55:42Z</time>
      </trkpt>
      <trkpt lat="43.75777" lon="7.12574">
        <ele>449.07299</ele>
        <time>2010-01-10T22:55:44Z</time>
      </trkpt>
      <trkpt lat="43.75778" lon="7.12569">
        <ele>447.63098</ele>
        <time>2010-01-10T22:55:45Z</time>
      </trkpt>
      <trkpt lat="43.75775" lon="7.12569">
        <ele>446.66967</ele>
        <time>2010-01-10T22:55:46Z</time>
      </trkpt>
      <trkpt lat="43.75773" lon="7.12568">
        <ele>451.95703</ele>
        <time>2010-01-10T22:55:48Z</time>
      </trkpt>
      <trkpt lat="43.75769" lon="7.12566">
        <ele>451.47631</ele>
        <time>2010-01-10T22:55:49Z</time>
      </trkpt>
      <trkpt lat="43.75769" lon="7.12565">
        <ele>452.91821</ele>
        <time>2010-01-10T22:55:49Z</time>
      </trkpt>
      <trkpt lat="43.75766" lon="7.12563">
        <ele>450.51501</ele>
        <time>2010-01-10T22:55:51Z</time>
      </trkpt>
      <trkpt lat="43.75763" lon="7.12561">
        <ele>447.63098</ele>
        <time>2010-01-10T22:55:52Z</time>
      </trkpt>
      <trkpt lat="43.75754" lon="7.1257">
        <ele>445.70837</ele>
        <time>2010-01-10T22:55:57Z</time>
      </trkpt>
      <trkpt lat="43.75748" lon="7.12576">
        <ele>445.22766</ele>
        <time>2010-01-10T22:56:00Z</time>
      </trkpt>
      <trkpt lat="43.75745" lon="7.12578">
        <ele>445.22766</ele>
        <time>2010-01-10T22:56:01Z</time>
      </trkpt>
      <trkpt lat="43.75741" lon="7.12577">
        <ele>446.66967</ele>
        <time>2010-01-10T22:56:02Z</time>
      </trkpt>
      <trkpt lat="43.7574" lon="7.12578">
        <ele>446.66967</ele>
        <time>2010-01-10T22:56:03Z</time>
      </trkpt>
      <trkpt lat="43.75737" lon="7.12575">
        <ele>447.63098</ele>
        <time>2010-01-10T22:56:04Z</time>
      </trkpt>
      <trkpt lat="43.75734" lon="7.12567">
        <ele>448.5924</ele>
        <time>2010-01-10T22:56:07Z</time>
      </trkpt>
      <trkpt lat="43.75732" lon="7.12569">
        <ele>447.15026</ele>
        <time>2010-01-10T22:56:08Z</time>
      </trkpt>
      <trkpt lat="43.75726" lon="7.12573">
        <ele>426.48205</ele>
        <time>2010-01-10T22:56:11Z</time>
      </trkpt>
      <trkpt lat="43.7572" lon="7.1257">
        <ele>427.44335</ele>
        <time>2010-01-10T22:56:13Z</time>
      </trkpt>
      <trkpt lat="43.75719" lon="7.1257">
        <ele>428.40466</ele>
        <time>2010-01-10T22:56:14Z</time>
      </trkpt>
      <trkpt lat="43.75719" lon="7.12572">
        <ele>426.48205</ele>
        <time>2010-01-10T22:56:14Z</time>
      </trkpt>
      <trkpt lat="43.75718" lon="7.1257">
        <ele>428.40466</ele>
        <time>2010-01-10T22:56:15Z</time>
      </trkpt>
      <trkpt lat="43.75708" lon="7.12573">
        <ele>426.48205</ele>
        <time>2010-01-10T22:56:19Z</time>
      </trkpt>
      <trkpt lat="43.75696" lon="7.12569">
        <ele>427.44335</ele>
        <time>2010-01-10T22:56:24Z</time>
      </trkpt>
      <trkpt lat="43.75681" lon="7.12566">
        <ele>424.55944</ele>
        <time>2010-01-10T22:56:30Z</time>
      </trkpt>
      <trkpt lat="43.75673" lon="7.12573">
        <ele>421.19482</ele>
        <time>2010-01-10T22:56:34Z</time>
      </trkpt>
      <trkpt lat="43.75666" lon="7.12577">
        <ele>425.04016</ele>
        <time>2010-01-10T22:56:37Z</time>
      </trkpt>
      <trkpt lat="43.75661" lon="7.12579">
        <ele>427.44335</ele>
        <time>2010-01-10T22:56:39Z</time>
      </trkpt>
      <trkpt lat="43.75659" lon="7.12583">
        <ele>426.96276</ele>
        <time>2010-01-10T22:56:40Z</time>
      </trkpt>
      <trkpt lat="43.75655" lon="7.12586">
        <ele>425.52075</ele>
        <time>2010-01-10T22:56:42Z</time>
      </trkpt>
      <trkpt lat="43.75646" lon="7.12592">
        <ele>424.07873</ele>
        <time>2010-01-10T22:56:46Z</time>
      </trkpt>
      <trkpt lat="43.75642" lon="7.12595">
        <ele>421.19482</ele>
        <time>2010-01-10T22:56:48Z</time>
      </trkpt>
      <trkpt lat="43.75623" lon="7.12594">
        <ele>418.31079</ele>
        <time>2010-01-10T22:56:56Z</time>
      </trkpt>
      <trkpt lat="43.75615" lon="7.12594">
        <ele>416.38818</ele>
        <time>2010-01-10T22:56:59Z</time>
      </trkpt>
      <trkpt lat="43.756" lon="7.12585">
        <ele>410.62023</ele>
        <time>2010-01-10T22:57:05Z</time>
      </trkpt>
      <trkpt lat="43.75593" lon="7.12583">
        <ele>408.69763</ele>
        <time>2010-01-10T22:57:08Z</time>
      </trkpt>
      <trkpt lat="43.75573" lon="7.12592">
        <ele>404.3717</ele>
        <time>2010-01-10T22:57:17Z</time>
      </trkpt>
      <trkpt lat="43.75559" lon="7.1261">
        <ele>401.9685</ele>
        <time>2010-01-10T22:57:24Z</time>
      </trkpt>
      <trkpt lat="43.75557" lon="7.12612">
        <ele>401.00708</ele>
        <time>2010-01-10T22:57:25Z</time>
      </trkpt>
      <trkpt lat="43.75552" lon="7.12618">
        <ele>400.04589</ele>
        <time>2010-01-10T22:57:28Z</time>
      </trkpt>
      <trkpt lat="43.75551" lon="7.12625">
        <ele>400.52648</ele>
        <time>2010-01-10T22:57:30Z</time>
      </trkpt>
      <trkpt lat="43.75548" lon="7.12631">
        <ele>402.92968</ele>
        <time>2010-01-10T22:57:32Z</time>
      </trkpt>
      <trkpt lat="43.75546" lon="7.12634">
        <ele>403.4104</ele>
        <time>2010-01-10T22:57:34Z</time>
      </trkpt>
      <trkpt lat="43.75542" lon="7.12638">
        <ele>403.89111</ele>
        <time>2010-01-10T22:57:35Z</time>
      </trkpt>
      <trkpt lat="43.75541" lon="7.1264">
        <ele>405.333</ele>
        <time>2010-01-10T22:57:36Z</time>
      </trkpt>
      <trkpt lat="43.75537" lon="7.12644">
        <ele>406.7749</ele>
        <time>2010-01-10T22:57:38Z</time>
      </trkpt>
      <trkpt lat="43.75535" lon="7.12645">
        <ele>406.29431</ele>
        <time>2010-01-10T22:57:39Z</time>
      </trkpt>
      <trkpt lat="43.75523" lon="7.12655">
        <ele>405.81372</ele>
        <time>2010-01-10T22:57:44Z</time>
      </trkpt>
      <trkpt lat="43.75514" lon="7.12669">
        <ele>403.89111</ele>
        <time>2010-01-10T22:57:50Z</time>
      </trkpt>
      <trkpt lat="43.75508" lon="7.12688">
        <ele>404.3717</ele>
        <time>2010-01-10T22:57:56Z</time>
      </trkpt>
      <trkpt lat="43.75501" lon="7.127">
        <ele>406.29431</ele>
        <time>2010-01-10T22:58:00Z</time>
      </trkpt>
      <trkpt lat="43.75501" lon="7.12702">
        <ele>406.7749</ele>
        <time>2010-01-10T22:58:01Z</time>
      </trkpt>
      <trkpt lat="43.75493" lon="7.1272">
        <ele>407.25561</ele>
        <time>2010-01-10T22:58:07Z</time>
      </trkpt>
      <trkpt lat="43.75492" lon="7.12728">
        <ele>406.29431</ele>
        <time>2010-01-10T22:58:09Z</time>
      </trkpt>
      <trkpt lat="43.7549" lon="7.12735">
        <ele>407.25561</ele>
        <time>2010-01-10T22:58:11Z</time>
      </trkpt>
      <trkpt lat="43.7549" lon="7.12736">
        <ele>407.25561</ele>
        <time>2010-01-10T22:58:12Z</time>
      </trkpt>
      <trkpt lat="43.75491" lon="7.12756">
        <ele>402.44909</ele>
        <time>2010-01-10T22:58:17Z</time>
      </trkpt>
      <trkpt lat="43.75494" lon="7.12771">
        <ele>400.52648</ele>
        <time>2010-01-10T22:58:22Z</time>
      </trkpt>
      <trkpt lat="43.75504" lon="7.12789">
        <ele>403.89111</ele>
        <time>2010-01-10T22:58:29Z</time>
      </trkpt>
      <trkpt lat="43.75505" lon="7.12791">
        <ele>403.89111</ele>
        <time>2010-01-10T22:58:29Z</time>
      </trkpt>
      <trkpt lat="43.75494" lon="7.12799">
        <ele>407.25561</ele>
        <time>2010-01-10T22:58:34Z</time>
      </trkpt>
      <trkpt lat="43.7548" lon="7.12802">
        <ele>408.69763</ele>
        <time>2010-01-10T22:58:40Z</time>
      </trkpt>
      <trkpt lat="43.75474" lon="7.12808">
        <ele>408.69763</ele>
        <time>2010-01-10T22:58:43Z</time>
      </trkpt>
      <trkpt lat="43.7546" lon="7.12833">
        <ele>407.25561</ele>
        <time>2010-01-10T22:58:52Z</time>
      </trkpt>
      <trkpt lat="43.75454" lon="7.1285">
        <ele>405.81372</ele>
        <time>2010-01-10T22:58:57Z</time>
      </trkpt>
      <trkpt lat="43.75453" lon="7.12855">
        <ele>405.333</ele>
        <time>2010-01-10T22:58:59Z</time>
      </trkpt>
      <trkpt lat="43.75454" lon="7.12876">
        <ele>404.3717</ele>
        <time>2010-01-10T22:59:05Z</time>
      </trkpt>
      <trkpt lat="43.75452" lon="7.12887">
        <ele>403.4104</ele>
        <time>2010-01-10T22:59:08Z</time>
      </trkpt>
      <trkpt lat="43.7545" lon="7.12888">
        <ele>403.89111</ele>
        <time>2010-01-10T22:59:09Z</time>
      </trkpt>
      <trkpt lat="43.75448" lon="7.1289">
        <ele>402.92968</ele>
        <time>2010-01-10T22:59:10Z</time>
      </trkpt>
      <trkpt lat="43.75439" lon="7.12899">
        <ele>402.92968</ele>
        <time>2010-01-10T22:59:15Z</time>
      </trkpt>
      <trkpt lat="43.75434" lon="7.12916">
        <ele>401.00708</ele>
        <time>2010-01-10T22:59:20Z</time>
      </trkpt>
      <trkpt lat="43.75422" lon="7.12931">
        <ele>403.4104</ele>
        <time>2010-01-10T22:59:26Z</time>
      </trkpt>
      <trkpt lat="43.7542" lon="7.12936">
        <ele>403.4104</ele>
        <time>2010-01-10T22:59:28Z</time>
      </trkpt>
      <trkpt lat="43.75399" lon="7.12958">
        <ele>404.85229</ele>
        <time>2010-01-10T22:59:39Z</time>
      </trkpt>
      <trkpt lat="43.75396" lon="7.12962">
        <ele>405.333</ele>
        <time>2010-01-10T22:59:40Z</time>
      </trkpt>
      <trkpt lat="43.75382" lon="7.12978">
        <ele>404.3717</ele>
        <time>2010-01-10T22:59:47Z</time>
      </trkpt>
      <trkpt lat="43.75376" lon="7.12994">
        <ele>401.9685</ele>
        <time>2010-01-10T22:59:53Z</time>
      </trkpt>
      <trkpt lat="43.75368" lon="7.13009">
        <ele>398.60375</ele>
        <time>2010-01-10T22:59:58Z</time>
      </trkpt>
      <trkpt lat="43.75362" lon="7.1301">
        <ele>398.60375</ele>
        <time>2010-01-10T23:00:00Z</time>
      </trkpt>
      <trkpt lat="43.75351" lon="7.13015">
        <ele>398.12316</ele>
        <time>2010-01-10T23:00:05Z</time>
      </trkpt>
      <trkpt lat="43.75345" lon="7.13022">
        <ele>395.71984</ele>
        <time>2010-01-10T23:00:08Z</time>
      </trkpt>
      <trkpt lat="43.75341" lon="7.13028">
        <ele>393.79724</ele>
        <time>2010-01-10T23:00:10Z</time>
      </trkpt>
      <trkpt lat="43.7534" lon="7.13029">
        <ele>394.27795</ele>
        <time>2010-01-10T23:00:11Z</time>
      </trkpt>
      <trkpt lat="43.75335" lon="7.13034">
        <ele>395.71984</ele>
        <time>2010-01-10T23:00:14Z</time>
      </trkpt>
      <trkpt lat="43.75326" lon="7.13048">
        <ele>395.71984</ele>
        <time>2010-01-10T23:00:19Z</time>
      </trkpt>
      <trkpt lat="43.75324" lon="7.13052">
        <ele>393.31652</ele>
        <time>2010-01-10T23:00:20Z</time>
      </trkpt>
      <trkpt lat="43.75302" lon="7.13065">
        <ele>390.9132</ele>
        <time>2010-01-10T23:00:30Z</time>
      </trkpt>
      <trkpt lat="43.75291" lon="7.13071">
        <ele>388.9906</ele>
        <time>2010-01-10T23:00:35Z</time>
      </trkpt>
      <trkpt lat="43.75265" lon="7.13083">
        <ele>388.9906</ele>
        <time>2010-01-10T23:00:46Z</time>
      </trkpt>
      <trkpt lat="43.75242" lon="7.13093">
        <ele>384.66479</ele>
        <time>2010-01-10T23:00:55Z</time>
      </trkpt>
      <trkpt lat="43.75236" lon="7.13095">
        <ele>383.70324</ele>
        <time>2010-01-10T23:00:58Z</time>
      </trkpt>
      <trkpt lat="43.7522" lon="7.13104">
        <ele>379.85803</ele>
        <time>2010-01-10T23:01:05Z</time>
      </trkpt>
      <trkpt lat="43.75197" lon="7.13107">
        <ele>377.45483</ele>
        <time>2010-01-10T23:01:14Z</time>
      </trkpt>
      <trkpt lat="43.75187" lon="7.13109">
        <ele>377.45483</ele>
        <time>2010-01-10T23:01:18Z</time>
      </trkpt>
      <trkpt lat="43.7517" lon="7.13113">
        <ele>375.5321</ele>
        <time>2010-01-10T23:01:25Z</time>
      </trkpt>
      <trkpt lat="43.75157" lon="7.13124">
        <ele>374.5708</ele>
        <time>2010-01-10T23:01:31Z</time>
      </trkpt>
      <trkpt lat="43.7515" lon="7.13133">
        <ele>374.09008</ele>
        <time>2010-01-10T23:01:35Z</time>
      </trkpt>
      <trkpt lat="43.75148" lon="7.13136">
        <ele>375.05151</ele>
        <time>2010-01-10T23:01:36Z</time>
      </trkpt>
      <trkpt lat="43.75144" lon="7.13156">
        <ele>377.45483</ele>
        <time>2010-01-10T23:01:42Z</time>
      </trkpt>
      <trkpt lat="43.75136" lon="7.13163">
        <ele>376.97424</ele>
        <time>2010-01-10T23:01:46Z</time>
      </trkpt>
      <trkpt lat="43.7512" lon="7.13171">
        <ele>377.45483</ele>
        <time>2010-01-10T23:01:52Z</time>
      </trkpt>
      <trkpt lat="43.75109" lon="7.13179">
        <ele>379.85803</ele>
        <time>2010-01-10T23:01:58Z</time>
      </trkpt>
      <trkpt lat="43.75096" lon="7.13186">
        <ele>379.37744</ele>
        <time>2010-01-10T23:02:03Z</time>
      </trkpt>
      <trkpt lat="43.75082" lon="7.13192">
        <ele>379.85803</ele>
        <time>2010-01-10T23:02:09Z</time>
      </trkpt>
      <trkpt lat="43.75072" lon="7.13205">
        <ele>380.81945</ele>
        <time>2010-01-10T23:02:14Z</time>
      </trkpt>
      <trkpt lat="43.75058" lon="7.13212">
        <ele>380.33874</ele>
        <time>2010-01-10T23:02:20Z</time>
      </trkpt>
      <trkpt lat="43.75049" lon="7.13216">
        <ele>380.81945</ele>
        <time>2010-01-10T23:02:24Z</time>
      </trkpt>
      <trkpt lat="43.75048" lon="7.13224">
        <ele>383.22265</ele>
        <time>2010-01-10T23:02:27Z</time>
      </trkpt>
      <trkpt lat="43.75046" lon="7.13234">
        <ele>381.30004</ele>
        <time>2010-01-10T23:02:30Z</time>
      </trkpt>
      <trkpt lat="43.7503" lon="7.13243">
        <ele>378.41613</ele>
        <time>2010-01-10T23:02:37Z</time>
      </trkpt>
      <trkpt lat="43.75011" lon="7.13257">
        <ele>378.41613</ele>
        <time>2010-01-10T23:02:45Z</time>
      </trkpt>
      <trkpt lat="43.74998" lon="7.13265">
        <ele>379.37744</ele>
        <time>2010-01-10T23:02:51Z</time>
      </trkpt>
      <trkpt lat="43.74995" lon="7.13279">
        <ele>380.33874</ele>
        <time>2010-01-10T23:02:55Z</time>
      </trkpt>
      <trkpt lat="43.74995" lon="7.13282">
        <ele>380.33874</ele>
        <time>2010-01-10T23:02:56Z</time>
      </trkpt>
      <trkpt lat="43.74986" lon="7.13282">
        <ele>380.81945</ele>
        <time>2010-01-10T23:02:59Z</time>
      </trkpt>
      <trkpt lat="43.7497" lon="7.1329">
        <ele>382.74206</ele>
        <time>2010-01-10T23:03:06Z</time>
      </trkpt>
      <trkpt lat="43.7496" lon="7.133">
        <ele>382.26135</ele>
        <time>2010-01-10T23:03:11Z</time>
      </trkpt>
      <trkpt lat="43.74951" lon="7.13309">
        <ele>383.70324</ele>
        <time>2010-01-10T23:03:16Z</time>
      </trkpt>
      <trkpt lat="43.74944" lon="7.1332">
        <ele>385.14538</ele>
        <time>2010-01-10T23:03:20Z</time>
      </trkpt>
      <trkpt lat="43.74943" lon="7.13336">
        <ele>386.10668</ele>
        <time>2010-01-10T23:03:24Z</time>
      </trkpt>
      <trkpt lat="43.74943" lon="7.13349">
        <ele>386.5874</ele>
        <time>2010-01-10T23:03:28Z</time>
      </trkpt>
      <trkpt lat="43.74943" lon="7.13351">
        <ele>386.10668</ele>
        <time>2010-01-10T23:03:29Z</time>
      </trkpt>
      <trkpt lat="43.7494" lon="7.13366">
        <ele>386.10668</ele>
        <time>2010-01-10T23:03:33Z</time>
      </trkpt>
      <trkpt lat="43.74938" lon="7.1338">
        <ele>390.9132</ele>
        <time>2010-01-10T23:03:37Z</time>
      </trkpt>
      <trkpt lat="43.74934" lon="7.13387">
        <ele>393.79724</ele>
        <time>2010-01-10T23:03:40Z</time>
      </trkpt>
      <trkpt lat="43.74927" lon="7.13388">
        <ele>393.31652</ele>
        <time>2010-01-10T23:03:42Z</time>
      </trkpt>
      <trkpt lat="43.74925" lon="7.13398">
        <ele>397.64245</ele>
        <time>2010-01-10T23:03:45Z</time>
      </trkpt>
      <trkpt lat="43.74924" lon="7.13404">
        <ele>402.44909</ele>
        <time>2010-01-10T23:03:47Z</time>
      </trkpt>
      <trkpt lat="43.74924" lon="7.13412">
        <ele>404.3717</ele>
        <time>2010-01-10T23:03:49Z</time>
      </trkpt>
      <trkpt lat="43.74921" lon="7.13417">
        <ele>404.3717</ele>
        <time>2010-01-10T23:03:51Z</time>
      </trkpt>
      <trkpt lat="43.74921" lon="7.13424">
        <ele>402.92968</ele>
        <time>2010-01-10T23:03:53Z</time>
      </trkpt>
      <trkpt lat="43.74921" lon="7.13432">
        <ele>403.4104</ele>
        <time>2010-01-10T23:03:56Z</time>
      </trkpt>
      <trkpt lat="43.74923" lon="7.1344">
        <ele>405.333</ele>
        <time>2010-01-10T23:03:58Z</time>
      </trkpt>
      <trkpt lat="43.74921" lon="7.13454">
        <ele>404.85229</ele>
        <time>2010-01-10T23:04:02Z</time>
      </trkpt>
      <trkpt lat="43.74921" lon="7.13462">
        <ele>405.333</ele>
        <time>2010-01-10T23:04:04Z</time>
      </trkpt>
      <trkpt lat="43.74921" lon="7.13467">
        <ele>406.29431</ele>
        <time>2010-01-10T23:04:06Z</time>
      </trkpt>
      <trkpt lat="43.74921" lon="7.13471">
        <ele>404.85229</ele>
        <time>2010-01-10T23:04:07Z</time>
      </trkpt>
      <trkpt lat="43.74921" lon="7.13473">
        <ele>404.3717</ele>
        <time>2010-01-10T23:04:08Z</time>
      </trkpt>
      <trkpt lat="43.74919" lon="7.13486">
        <ele>406.7749</ele>
        <time>2010-01-10T23:04:12Z</time>
      </trkpt>
      <trkpt lat="43.74917" lon="7.13497">
        <ele>408.69763</ele>
        <time>2010-01-10T23:04:15Z</time>
      </trkpt>
      <trkpt lat="43.74916" lon="7.13504">
        <ele>409.17834</ele>
        <time>2010-01-10T23:04:17Z</time>
      </trkpt>
      <trkpt lat="43.74916" lon="7.13507">
        <ele>411.58166</ele>
        <time>2010-01-10T23:04:18Z</time>
      </trkpt>
      <trkpt lat="43.74916" lon="7.13512">
        <ele>414.94616</ele>
        <time>2010-01-10T23:04:19Z</time>
      </trkpt>
      <trkpt lat="43.74916" lon="7.13514">
        <ele>415.90747</ele>
        <time>2010-01-10T23:04:20Z</time>
      </trkpt>
      <trkpt lat="43.74909" lon="7.13526">
        <ele>418.7915</ele>
        <time>2010-01-10T23:04:24Z</time>
      </trkpt>
      <trkpt lat="43.74903" lon="7.13538">
        <ele>417.3496</ele>
        <time>2010-01-10T23:04:29Z</time>
      </trkpt>
      <trkpt lat="43.74898" lon="7.13551">
        <ele>417.3496</ele>
        <time>2010-01-10T23:04:33Z</time>
      </trkpt>
      <trkpt lat="43.74895" lon="7.13567">
        <ele>419.7528</ele>
        <time>2010-01-10T23:04:38Z</time>
      </trkpt>
      <trkpt lat="43.74889" lon="7.13577">
        <ele>417.8302</ele>
        <time>2010-01-10T23:04:41Z</time>
      </trkpt>
      <trkpt lat="43.74883" lon="7.13591">
        <ele>420.71411</ele>
        <time>2010-01-10T23:04:46Z</time>
      </trkpt>
      <trkpt lat="43.74879" lon="7.13598">
        <ele>423.11743</ele>
        <time>2010-01-10T23:04:48Z</time>
      </trkpt>
      <trkpt lat="43.74878" lon="7.13599">
        <ele>422.63671</ele>
        <time>2010-01-10T23:04:49Z</time>
      </trkpt>
      <trkpt lat="43.74873" lon="7.13607">
        <ele>421.19482</ele>
        <time>2010-01-10T23:04:52Z</time>
      </trkpt>
      <trkpt lat="43.7486" lon="7.13623">
        <ele>423.59802</ele>
        <time>2010-01-10T23:04:59Z</time>
      </trkpt>
      <trkpt lat="43.7485" lon="7.13633">
        <ele>426.00134</ele>
        <time>2010-01-10T23:05:04Z</time>
      </trkpt>
      <trkpt lat="43.74848" lon="7.13645">
        <ele>425.04016</ele>
        <time>2010-01-10T23:05:08Z</time>
      </trkpt>
      <trkpt lat="43.7485" lon="7.13658">
        <ele>424.07873</ele>
        <time>2010-01-10T23:05:11Z</time>
      </trkpt>
      <trkpt lat="43.74852" lon="7.13674">
        <ele>424.07873</ele>
        <time>2010-01-10T23:05:16Z</time>
      </trkpt>
      <trkpt lat="43.74848" lon="7.13684">
        <ele>426.00134</ele>
        <time>2010-01-10T23:05:19Z</time>
      </trkpt>
      <trkpt lat="43.74847" lon="7.13688">
        <ele>426.00134</ele>
        <time>2010-01-10T23:05:21Z</time>
      </trkpt>
      <trkpt lat="43.74841" lon="7.13701">
        <ele>430.32727</ele>
        <time>2010-01-10T23:05:25Z</time>
      </trkpt>
      <trkpt lat="43.74834" lon="7.13713">
        <ele>433.69189</ele>
        <time>2010-01-10T23:05:30Z</time>
      </trkpt>
      <trkpt lat="43.74832" lon="7.13725">
        <ele>436.09521</ele>
        <time>2010-01-10T23:05:33Z</time>
      </trkpt>
      <trkpt lat="43.74829" lon="7.13737">
        <ele>437.05651</ele>
        <time>2010-01-10T23:05:37Z</time>
      </trkpt>
      <trkpt lat="43.74827" lon="7.13746">
        <ele>438.49853</ele>
        <time>2010-01-10T23:05:39Z</time>
      </trkpt>
      <trkpt lat="43.74826" lon="7.13757">
        <ele>438.97912</ele>
        <time>2010-01-10T23:05:43Z</time>
      </trkpt>
      <trkpt lat="43.74824" lon="7.1377">
        <ele>439.94042</ele>
        <time>2010-01-10T23:05:47Z</time>
      </trkpt>
      <trkpt lat="43.74822" lon="7.13785">
        <ele>440.42126</ele>
        <time>2010-01-10T23:05:51Z</time>
      </trkpt>
      <trkpt lat="43.7482" lon="7.13793">
        <ele>437.05651</ele>
        <time>2010-01-10T23:05:53Z</time>
      </trkpt>
      <trkpt lat="43.7482" lon="7.13794">
        <ele>435.13391</ele>
        <time>2010-01-10T23:05:54Z</time>
      </trkpt>
      <trkpt lat="43.74814" lon="7.13809">
        <ele>438.49853</ele>
        <time>2010-01-10T23:05:59Z</time>
      </trkpt>
      <trkpt lat="43.74813" lon="7.13822">
        <ele>439.94042</ele>
        <time>2010-01-10T23:06:03Z</time>
      </trkpt>
      <trkpt lat="43.7481" lon="7.13831">
        <ele>439.45971</ele>
        <time>2010-01-10T23:06:05Z</time>
      </trkpt>
      <trkpt lat="43.74803" lon="7.13845">
        <ele>438.49853</ele>
        <time>2010-01-10T23:06:10Z</time>
      </trkpt>
      <trkpt lat="43.74788" lon="7.13869">
        <ele>438.49853</ele>
        <time>2010-01-10T23:06:19Z</time>
      </trkpt>
      <trkpt lat="43.7478" lon="7.13895">
        <ele>437.05651</ele>
        <time>2010-01-10T23:06:27Z</time>
      </trkpt>
      <trkpt lat="43.74773" lon="7.13919">
        <ele>440.90185</ele>
        <time>2010-01-10T23:06:35Z</time>
      </trkpt>
      <trkpt lat="43.74772" lon="7.13935">
        <ele>442.34387</ele>
        <time>2010-01-10T23:06:40Z</time>
      </trkpt>
      <trkpt lat="43.74764" lon="7.13966">
        <ele>442.34387</ele>
        <time>2010-01-10T23:06:49Z</time>
      </trkpt>
      <trkpt lat="43.74758" lon="7.13989">
        <ele>444.26647</ele>
        <time>2010-01-10T23:06:56Z</time>
      </trkpt>
      <trkpt lat="43.74754" lon="7.1402">
        <ele>443.78576</ele>
        <time>2010-01-10T23:07:05Z</time>
      </trkpt>
      <trkpt lat="43.74746" lon="7.14055">
        <ele>441.86315</ele>
        <time>2010-01-10T23:07:16Z</time>
      </trkpt>
      <trkpt lat="43.74737" lon="7.14082">
        <ele>442.34387</ele>
        <time>2010-01-10T23:07:25Z</time>
      </trkpt>
      <trkpt lat="43.74733" lon="7.14106">
        <ele>444.26647</ele>
        <time>2010-01-10T23:07:32Z</time>
      </trkpt>
      <trkpt lat="43.7473" lon="7.14129">
        <ele>448.11181</ele>
        <time>2010-01-10T23:07:38Z</time>
      </trkpt>
      <trkpt lat="43.74719" lon="7.14147">
        <ele>454.84082</ele>
        <time>2010-01-10T23:07:45Z</time>
      </trkpt>
      <trkpt lat="43.74716" lon="7.14161">
        <ele>457.72497</ele>
        <time>2010-01-10T23:07:50Z</time>
      </trkpt>
      <trkpt lat="43.74726" lon="7.14198">
        <ele>461.57019</ele>
        <time>2010-01-10T23:08:01Z</time>
      </trkpt>
      <trkpt lat="43.74742" lon="7.14237">
        <ele>460.60876</ele>
        <time>2010-01-10T23:08:14Z</time>
      </trkpt>
      <trkpt lat="43.74755" lon="7.14256">
        <ele>453.87963</ele>
        <time>2010-01-10T23:08:22Z</time>
      </trkpt>
      <trkpt lat="43.74768" lon="7.14276">
        <ele>452.91821</ele>
        <time>2010-01-10T23:08:29Z</time>
      </trkpt>
      <trkpt lat="43.74788" lon="7.14294">
        <ele>448.11181</ele>
        <time>2010-01-10T23:08:39Z</time>
      </trkpt>
      <trkpt lat="43.74811" lon="7.14313">
        <ele>445.22766</ele>
        <time>2010-01-10T23:08:50Z</time>
      </trkpt>
      <trkpt lat="43.74797" lon="7.14335">
        <ele>448.5924</ele>
        <time>2010-01-10T23:08:58Z</time>
      </trkpt>
      <trkpt lat="43.74793" lon="7.14336">
        <ele>452.43762</ele>
        <time>2010-01-10T23:09:00Z</time>
      </trkpt>
      <trkpt lat="43.74798" lon="7.1432">
        <ele>449.07299</ele>
        <time>2010-01-10T23:09:05Z</time>
      </trkpt>
      <trkpt lat="43.74811" lon="7.14319">
        <ele>443.78576</ele>
        <time>2010-01-10T23:09:10Z</time>
      </trkpt>
      <trkpt lat="43.74827" lon="7.14338">
        <ele>441.38244</ele>
        <time>2010-01-10T23:09:19Z</time>
      </trkpt>
      <trkpt lat="43.7483" lon="7.14344">
        <ele>443.30505</ele>
        <time>2010-01-10T23:09:21Z</time>
      </trkpt>
      <trkpt lat="43.74847" lon="7.14363">
        <ele>439.94042</ele>
        <time>2010-01-10T23:09:30Z</time>
      </trkpt>
      <trkpt lat="43.74856" lon="7.14367">
        <ele>438.49853</ele>
        <time>2010-01-10T23:09:33Z</time>
      </trkpt>
      <trkpt lat="43.74862" lon="7.14366">
        <ele>433.69189</ele>
        <time>2010-01-10T23:09:36Z</time>
      </trkpt>
      <trkpt lat="43.74863" lon="7.14366">
        <ele>430.32727</ele>
        <time>2010-01-10T23:09:36Z</time>
      </trkpt>
      <trkpt lat="43.74862" lon="7.14371">
        <ele>434.65332</ele>
        <time>2010-01-10T23:09:38Z</time>
      </trkpt>
      <trkpt lat="43.74863" lon="7.1437">
        <ele>434.1726</ele>
        <time>2010-01-10T23:09:38Z</time>
      </trkpt>
      <trkpt lat="43.74863" lon="7.14372">
        <ele>437.5371</ele>
        <time>2010-01-10T23:09:39Z</time>
      </trkpt>
      <trkpt lat="43.7486" lon="7.14377">
        <ele>439.45971</ele>
        <time>2010-01-10T23:09:41Z</time>
      </trkpt>
      <trkpt lat="43.74859" lon="7.14377">
        <ele>437.5371</ele>
        <time>2010-01-10T23:09:41Z</time>
      </trkpt>
      <trkpt lat="43.74859" lon="7.14377">
        <ele>436.57592</ele>
        <time>2010-01-10T23:09:42Z</time>
      </trkpt>
      <trkpt lat="43.74859" lon="7.14374">
        <ele>434.1726</ele>
        <time>2010-01-10T23:09:42Z</time>
      </trkpt>
      <trkpt lat="43.74861" lon="7.14373">
        <ele>434.1726</ele>
        <time>2010-01-10T23:09:43Z</time>
      </trkpt>
      <trkpt lat="43.74865" lon="7.14368">
        <ele>431.76916</ele>
        <time>2010-01-10T23:09:45Z</time>
      </trkpt>
      <trkpt lat="43.74866" lon="7.14366">
        <ele>430.80798</ele>
        <time>2010-01-10T23:09:46Z</time>
      </trkpt>
      <trkpt lat="43.74863" lon="7.14371">
        <ele>436.09521</ele>
        <time>2010-01-10T23:09:48Z</time>
      </trkpt>
      <trkpt lat="43.74861" lon="7.14374">
        <ele>440.42126</ele>
        <time>2010-01-10T23:09:49Z</time>
      </trkpt>
      <trkpt lat="43.74863" lon="7.14361">
        <ele>429.36596</ele>
        <time>2010-01-10T23:09:53Z</time>
      </trkpt>
      <trkpt lat="43.74864" lon="7.14359">
        <ele>426.96276</ele>
        <time>2010-01-10T23:09:54Z</time>
      </trkpt>
      <trkpt lat="43.74866" lon="7.14365">
        <ele>435.13391</ele>
        <time>2010-01-10T23:09:56Z</time>
      </trkpt>
      <trkpt lat="43.74869" lon="7.14361">
        <ele>436.57592</ele>
        <time>2010-01-10T23:09:57Z</time>
      </trkpt>
      <trkpt lat="43.74874" lon="7.14363">
        <ele>440.42126</ele>
        <time>2010-01-10T23:09:59Z</time>
      </trkpt>
      <trkpt lat="43.7489" lon="7.14365">
        <ele>437.5371</ele>
        <time>2010-01-10T23:10:06Z</time>
      </trkpt>
      <trkpt lat="43.74903" lon="7.14374">
        <ele>443.30505</ele>
        <time>2010-01-10T23:10:12Z</time>
      </trkpt>
      <trkpt lat="43.74905" lon="7.14375">
        <ele>444.74707</ele>
        <time>2010-01-10T23:10:13Z</time>
      </trkpt>
      <trkpt lat="43.74925" lon="7.14384">
        <ele>454.84082</ele>
        <time>2010-01-10T23:10:21Z</time>
      </trkpt>
      <trkpt lat="43.74938" lon="7.14391">
        <ele>458.68615</ele>
        <time>2010-01-10T23:10:27Z</time>
      </trkpt>
      <trkpt lat="43.74958" lon="7.14402">
        <ele>455.32153</ele>
        <time>2010-01-10T23:10:35Z</time>
      </trkpt>
      <trkpt lat="43.74969" lon="7.14409">
        <ele>451.47631</ele>
        <time>2010-01-10T23:10:40Z</time>
      </trkpt>
      <trkpt lat="43.74994" lon="7.14418">
        <ele>439.45971</ele>
        <time>2010-01-10T23:10:50Z</time>
      </trkpt>
      <trkpt lat="43.74994" lon="7.1442">
        <ele>438.49853</ele>
        <time>2010-01-10T23:10:51Z</time>
      </trkpt>
      <trkpt lat="43.74986" lon="7.14427">
        <ele>431.28857</ele>
        <time>2010-01-10T23:10:55Z</time>
      </trkpt>
      <trkpt lat="43.74982" lon="7.14448">
        <ele>425.04016</ele>
        <time>2010-01-10T23:11:01Z</time>
      </trkpt>
      <trkpt lat="43.74981" lon="7.14459">
        <ele>424.07873</ele>
        <time>2010-01-10T23:11:04Z</time>
      </trkpt>
      <trkpt lat="43.74979" lon="7.14485">
        <ele>424.07873</ele>
        <time>2010-01-10T23:11:12Z</time>
      </trkpt>
      <trkpt lat="43.74989" lon="7.14505">
        <ele>419.7528</ele>
        <time>2010-01-10T23:11:19Z</time>
      </trkpt>
      <trkpt lat="43.74996" lon="7.14495">
        <ele>419.27221</ele>
        <time>2010-01-10T23:11:23Z</time>
      </trkpt>
      <trkpt lat="43.75011" lon="7.14471">
        <ele>425.04016</ele>
        <time>2010-01-10T23:11:32Z</time>
      </trkpt>
      <trkpt lat="43.75013" lon="7.1447">
        <ele>426.96276</ele>
        <time>2010-01-10T23:11:33Z</time>
      </trkpt>
      <trkpt lat="43.75012" lon="7.1447">
        <ele>425.52075</ele>
        <time>2010-01-10T23:11:33Z</time>
      </trkpt>
      <trkpt lat="43.75011" lon="7.14464">
        <ele>423.11743</ele>
        <time>2010-01-10T23:11:35Z</time>
      </trkpt>
      <trkpt lat="43.75015" lon="7.14481">
        <ele>421.67541</ele>
        <time>2010-01-10T23:11:40Z</time>
      </trkpt>
      <trkpt lat="43.75017" lon="7.14483">
        <ele>421.19482</ele>
        <time>2010-01-10T23:11:41Z</time>
      </trkpt>
    </trkseg>
  </trk>
</gpx>